<?xml version="1.0" encoding="UTF-8" standalone="no" ?>
<gpx xmlns="http://www.topografix.com/GPX/1/1" xmlns:xsi="http://www.w3.org/2001/XMLSchema-instance" xsi:schemaLocation="http://www.topografix.com/GPX/1/1 http://www.topografix.com/GPX/1/1/gpx.xsd" version="1.1" creator="VisuGPX - https://www.visugpx.com">
  <metadata>
    <name>sortie du dimanche 15 avril 2018</name>
    <desc><![CDATA[Rando organisée par les Renards Lyonsais "la renardière", parcours des 28 kms dans la forêt de Lyons dans l'Eure.]]></desc>
  </metadata>
  <trk>
    <name><![CDATA[20180418210734-2Yj6a]]></name>
    <trkseg>
      <trkpt lat="49.39572" lon="1.44483">
        <ele>159</ele>
        <time>2018-04-15T06:42:51.000Z</time>
      </trkpt>
      <trkpt lat="49.3957" lon="1.44468">
        <ele>159</ele>
        <time>2018-04-15T06:42:54.000Z</time>
      </trkpt>
      <trkpt lat="49.39569" lon="1.44454">
        <ele>159</ele>
        <time>2018-04-15T06:42:57.000Z</time>
      </trkpt>
      <trkpt lat="49.39566" lon="1.44438">
        <ele>159</ele>
        <time>2018-04-15T06:43:00.000Z</time>
      </trkpt>
      <trkpt lat="49.39563" lon="1.44428">
        <ele>159</ele>
        <time>2018-04-15T06:43:03.000Z</time>
      </trkpt>
      <trkpt lat="49.3956" lon="1.44417">
        <ele>158</ele>
        <time>2018-04-15T06:43:06.000Z</time>
      </trkpt>
      <trkpt lat="49.39557" lon="1.44404">
        <ele>158</ele>
        <time>2018-04-15T06:43:09.000Z</time>
      </trkpt>
      <trkpt lat="49.39552" lon="1.44387">
        <ele>158</ele>
        <time>2018-04-15T06:43:12.000Z</time>
      </trkpt>
      <trkpt lat="49.39548" lon="1.4437">
        <ele>157</ele>
        <time>2018-04-15T06:43:15.000Z</time>
      </trkpt>
      <trkpt lat="49.39543" lon="1.44356">
        <ele>157</ele>
        <time>2018-04-15T06:43:18.000Z</time>
      </trkpt>
      <trkpt lat="49.39537" lon="1.44342">
        <ele>157</ele>
        <time>2018-04-15T06:43:21.000Z</time>
      </trkpt>
      <trkpt lat="49.39529" lon="1.44331">
        <ele>157</ele>
        <time>2018-04-15T06:43:24.000Z</time>
      </trkpt>
      <trkpt lat="49.39521" lon="1.44322">
        <ele>157</ele>
        <time>2018-04-15T06:43:27.000Z</time>
      </trkpt>
      <trkpt lat="49.39516" lon="1.44314">
        <ele>157</ele>
        <time>2018-04-15T06:43:30.000Z</time>
      </trkpt>
      <trkpt lat="49.39517" lon="1.44305">
        <ele>157</ele>
        <time>2018-04-15T06:43:33.000Z</time>
      </trkpt>
      <trkpt lat="49.39521" lon="1.44298">
        <ele>157</ele>
        <time>2018-04-15T06:43:36.000Z</time>
      </trkpt>
      <trkpt lat="49.39525" lon="1.44292">
        <ele>157</ele>
        <time>2018-04-15T06:43:39.000Z</time>
      </trkpt>
      <trkpt lat="49.39529" lon="1.44284">
        <ele>157</ele>
        <time>2018-04-15T06:43:42.000Z</time>
      </trkpt>
      <trkpt lat="49.39534" lon="1.44275">
        <ele>157</ele>
        <time>2018-04-15T06:43:45.000Z</time>
      </trkpt>
      <trkpt lat="49.39538" lon="1.4426">
        <ele>157</ele>
        <time>2018-04-15T06:43:48.000Z</time>
      </trkpt>
      <trkpt lat="49.39542" lon="1.44247">
        <ele>158</ele>
        <time>2018-04-15T06:43:51.000Z</time>
      </trkpt>
      <trkpt lat="49.39545" lon="1.4423">
        <ele>158</ele>
        <time>2018-04-15T06:43:54.000Z</time>
      </trkpt>
      <trkpt lat="49.39547" lon="1.44209">
        <ele>158</ele>
        <time>2018-04-15T06:43:57.000Z</time>
      </trkpt>
      <trkpt lat="49.39547" lon="1.44197">
        <ele>159</ele>
        <time>2018-04-15T06:44:00.000Z</time>
      </trkpt>
      <trkpt lat="49.39547" lon="1.44184">
        <ele>159</ele>
        <time>2018-04-15T06:44:03.000Z</time>
      </trkpt>
      <trkpt lat="49.39547" lon="1.44171">
        <ele>159</ele>
        <time>2018-04-15T06:44:06.000Z</time>
      </trkpt>
      <trkpt lat="49.39547" lon="1.44147">
        <ele>160</ele>
        <time>2018-04-15T06:44:09.000Z</time>
      </trkpt>
      <trkpt lat="49.39548" lon="1.44122">
        <ele>160</ele>
        <time>2018-04-15T06:44:12.000Z</time>
      </trkpt>
      <trkpt lat="49.39548" lon="1.44099">
        <ele>161</ele>
        <time>2018-04-15T06:44:15.000Z</time>
      </trkpt>
      <trkpt lat="49.39547" lon="1.44077">
        <ele>160</ele>
        <time>2018-04-15T06:44:18.000Z</time>
      </trkpt>
      <trkpt lat="49.39547" lon="1.44055">
        <ele>160</ele>
        <time>2018-04-15T06:44:21.000Z</time>
      </trkpt>
      <trkpt lat="49.39544" lon="1.44037">
        <ele>159</ele>
        <time>2018-04-15T06:44:24.000Z</time>
      </trkpt>
      <trkpt lat="49.39545" lon="1.44019">
        <ele>159</ele>
        <time>2018-04-15T06:44:27.000Z</time>
      </trkpt>
      <trkpt lat="49.39547" lon="1.43996">
        <ele>158</ele>
        <time>2018-04-15T06:44:30.000Z</time>
      </trkpt>
      <trkpt lat="49.39549" lon="1.4397">
        <ele>158</ele>
        <time>2018-04-15T06:44:33.000Z</time>
      </trkpt>
      <trkpt lat="49.39549" lon="1.43947">
        <ele>157</ele>
        <time>2018-04-15T06:44:36.000Z</time>
      </trkpt>
      <trkpt lat="49.39551" lon="1.43924">
        <ele>158</ele>
        <time>2018-04-15T06:44:39.000Z</time>
      </trkpt>
      <trkpt lat="49.39556" lon="1.43903">
        <ele>157</ele>
        <time>2018-04-15T06:44:42.000Z</time>
      </trkpt>
      <trkpt lat="49.39562" lon="1.43888">
        <ele>157</ele>
        <time>2018-04-15T06:44:45.000Z</time>
      </trkpt>
      <trkpt lat="49.39575" lon="1.4388">
        <ele>158</ele>
        <time>2018-04-15T06:44:48.000Z</time>
      </trkpt>
      <trkpt lat="49.39594" lon="1.43874">
        <ele>164</ele>
        <time>2018-04-15T06:44:51.000Z</time>
      </trkpt>
      <trkpt lat="49.39608" lon="1.43866">
        <ele>164</ele>
        <time>2018-04-15T06:44:54.000Z</time>
      </trkpt>
      <trkpt lat="49.39621" lon="1.43857">
        <ele>165</ele>
        <time>2018-04-15T06:44:57.000Z</time>
      </trkpt>
      <trkpt lat="49.39634" lon="1.43851">
        <ele>165</ele>
        <time>2018-04-15T06:45:00.000Z</time>
      </trkpt>
      <trkpt lat="49.39647" lon="1.43844">
        <ele>165</ele>
        <time>2018-04-15T06:45:03.000Z</time>
      </trkpt>
      <trkpt lat="49.39657" lon="1.43836">
        <ele>166</ele>
        <time>2018-04-15T06:45:06.000Z</time>
      </trkpt>
      <trkpt lat="49.39669" lon="1.4383">
        <ele>165</ele>
        <time>2018-04-15T06:45:09.000Z</time>
      </trkpt>
      <trkpt lat="49.39681" lon="1.43823">
        <ele>164</ele>
        <time>2018-04-15T06:45:12.000Z</time>
      </trkpt>
      <trkpt lat="49.39695" lon="1.43815">
        <ele>163</ele>
        <time>2018-04-15T06:45:15.000Z</time>
      </trkpt>
      <trkpt lat="49.39711" lon="1.43806">
        <ele>163</ele>
        <time>2018-04-15T06:45:18.000Z</time>
      </trkpt>
      <trkpt lat="49.39729" lon="1.43799">
        <ele>162</ele>
        <time>2018-04-15T06:45:21.000Z</time>
      </trkpt>
      <trkpt lat="49.39745" lon="1.43789">
        <ele>162</ele>
        <time>2018-04-15T06:45:24.000Z</time>
      </trkpt>
      <trkpt lat="49.3976" lon="1.43781">
        <ele>158</ele>
        <time>2018-04-15T06:45:27.000Z</time>
      </trkpt>
      <trkpt lat="49.39776" lon="1.43771">
        <ele>158</ele>
        <time>2018-04-15T06:45:30.000Z</time>
      </trkpt>
      <trkpt lat="49.3979" lon="1.43763">
        <ele>157</ele>
        <time>2018-04-15T06:45:33.000Z</time>
      </trkpt>
      <trkpt lat="49.39808" lon="1.43753">
        <ele>156</ele>
        <time>2018-04-15T06:45:36.000Z</time>
      </trkpt>
      <trkpt lat="49.39816" lon="1.43747">
        <ele>154</ele>
        <time>2018-04-15T06:45:39.000Z</time>
      </trkpt>
      <trkpt lat="49.39822" lon="1.43747">
        <ele>153</ele>
        <time>2018-04-15T06:45:42.000Z</time>
      </trkpt>
      <trkpt lat="49.39834" lon="1.4374">
        <ele>153</ele>
        <time>2018-04-15T06:45:45.000Z</time>
      </trkpt>
      <trkpt lat="49.39843" lon="1.43736">
        <ele>153</ele>
        <time>2018-04-15T06:45:48.000Z</time>
      </trkpt>
      <trkpt lat="49.3985" lon="1.43734">
        <ele>153</ele>
        <time>2018-04-15T06:45:51.000Z</time>
      </trkpt>
      <trkpt lat="49.39856" lon="1.43731">
        <ele>153</ele>
        <time>2018-04-15T06:45:54.000Z</time>
      </trkpt>
      <trkpt lat="49.39863" lon="1.43726">
        <ele>153</ele>
        <time>2018-04-15T06:45:57.000Z</time>
      </trkpt>
      <trkpt lat="49.39871" lon="1.43721">
        <ele>153</ele>
        <time>2018-04-15T06:46:00.000Z</time>
      </trkpt>
      <trkpt lat="49.39878" lon="1.43716">
        <ele>153</ele>
        <time>2018-04-15T06:46:03.000Z</time>
      </trkpt>
      <trkpt lat="49.39885" lon="1.43712">
        <ele>153</ele>
        <time>2018-04-15T06:46:06.000Z</time>
      </trkpt>
      <trkpt lat="49.39896" lon="1.43702">
        <ele>153</ele>
        <time>2018-04-15T06:46:09.000Z</time>
      </trkpt>
      <trkpt lat="49.39907" lon="1.43694">
        <ele>153</ele>
        <time>2018-04-15T06:46:12.000Z</time>
      </trkpt>
      <trkpt lat="49.39919" lon="1.43686">
        <ele>155</ele>
        <time>2018-04-15T06:46:15.000Z</time>
      </trkpt>
      <trkpt lat="49.3994" lon="1.43678">
        <ele>156</ele>
        <time>2018-04-15T06:46:18.000Z</time>
      </trkpt>
      <trkpt lat="49.39952" lon="1.43672">
        <ele>156</ele>
        <time>2018-04-15T06:46:21.000Z</time>
      </trkpt>
      <trkpt lat="49.39968" lon="1.43664">
        <ele>154</ele>
        <time>2018-04-15T06:46:24.000Z</time>
      </trkpt>
      <trkpt lat="49.39983" lon="1.43656">
        <ele>156</ele>
        <time>2018-04-15T06:46:27.000Z</time>
      </trkpt>
      <trkpt lat="49.39998" lon="1.4365">
        <ele>156</ele>
        <time>2018-04-15T06:46:30.000Z</time>
      </trkpt>
      <trkpt lat="49.40028" lon="1.43639">
        <ele>159</ele>
        <time>2018-04-15T06:46:34.000Z</time>
      </trkpt>
      <trkpt lat="49.40044" lon="1.43632">
        <ele>159</ele>
        <time>2018-04-15T06:46:37.000Z</time>
      </trkpt>
      <trkpt lat="49.40059" lon="1.43626">
        <ele>159</ele>
        <time>2018-04-15T06:46:40.000Z</time>
      </trkpt>
      <trkpt lat="49.40072" lon="1.43615">
        <ele>159</ele>
        <time>2018-04-15T06:46:43.000Z</time>
      </trkpt>
      <trkpt lat="49.40083" lon="1.43607">
        <ele>159</ele>
        <time>2018-04-15T06:46:46.000Z</time>
      </trkpt>
      <trkpt lat="49.40091" lon="1.43596">
        <ele>158</ele>
        <time>2018-04-15T06:46:49.000Z</time>
      </trkpt>
      <trkpt lat="49.40094" lon="1.43581">
        <ele>157</ele>
        <time>2018-04-15T06:46:52.000Z</time>
      </trkpt>
      <trkpt lat="49.40094" lon="1.43571">
        <ele>156</ele>
        <time>2018-04-15T06:46:55.000Z</time>
      </trkpt>
      <trkpt lat="49.40094" lon="1.43561">
        <ele>156</ele>
        <time>2018-04-15T06:46:58.000Z</time>
      </trkpt>
      <trkpt lat="49.40092" lon="1.43547">
        <ele>156</ele>
        <time>2018-04-15T06:47:01.000Z</time>
      </trkpt>
      <trkpt lat="49.4009" lon="1.43534">
        <ele>156</ele>
        <time>2018-04-15T06:47:04.000Z</time>
      </trkpt>
      <trkpt lat="49.40092" lon="1.43522">
        <ele>155</ele>
        <time>2018-04-15T06:47:07.000Z</time>
      </trkpt>
      <trkpt lat="49.40097" lon="1.43514">
        <ele>155</ele>
        <time>2018-04-15T06:47:10.000Z</time>
      </trkpt>
      <trkpt lat="49.40095" lon="1.43502">
        <ele>155</ele>
        <time>2018-04-15T06:47:13.000Z</time>
      </trkpt>
      <trkpt lat="49.40091" lon="1.43493">
        <ele>155</ele>
        <time>2018-04-15T06:47:16.000Z</time>
      </trkpt>
      <trkpt lat="49.4009" lon="1.43484">
        <ele>156</ele>
        <time>2018-04-15T06:47:19.000Z</time>
      </trkpt>
      <trkpt lat="49.40087" lon="1.43473">
        <ele>156</ele>
        <time>2018-04-15T06:47:22.000Z</time>
      </trkpt>
      <trkpt lat="49.40086" lon="1.43462">
        <ele>157</ele>
        <time>2018-04-15T06:47:25.000Z</time>
      </trkpt>
      <trkpt lat="49.40084" lon="1.43451">
        <ele>157</ele>
        <time>2018-04-15T06:47:28.000Z</time>
      </trkpt>
      <trkpt lat="49.40083" lon="1.43438">
        <ele>153</ele>
        <time>2018-04-15T06:47:31.000Z</time>
      </trkpt>
      <trkpt lat="49.40062" lon="1.43388">
        <ele>154</ele>
        <time>2018-04-15T06:47:36.000Z</time>
      </trkpt>
      <trkpt lat="49.40057" lon="1.43369">
        <ele>154</ele>
        <time>2018-04-15T06:47:39.000Z</time>
      </trkpt>
      <trkpt lat="49.40053" lon="1.43357">
        <ele>154</ele>
        <time>2018-04-15T06:47:42.000Z</time>
      </trkpt>
      <trkpt lat="49.40048" lon="1.43346">
        <ele>154</ele>
        <time>2018-04-15T06:47:45.000Z</time>
      </trkpt>
      <trkpt lat="49.40028" lon="1.43318">
        <ele>154</ele>
        <time>2018-04-15T06:47:49.000Z</time>
      </trkpt>
      <trkpt lat="49.40008" lon="1.43274">
        <ele>154</ele>
        <time>2018-04-15T06:47:53.000Z</time>
      </trkpt>
      <trkpt lat="49.4" lon="1.43247">
        <ele>154</ele>
        <time>2018-04-15T06:47:56.000Z</time>
      </trkpt>
      <trkpt lat="49.39988" lon="1.43217">
        <ele>152</ele>
        <time>2018-04-15T06:47:59.000Z</time>
      </trkpt>
      <trkpt lat="49.39977" lon="1.43181">
        <ele>153</ele>
        <time>2018-04-15T06:48:02.000Z</time>
      </trkpt>
      <trkpt lat="49.39962" lon="1.4314">
        <ele>154</ele>
        <time>2018-04-15T06:48:05.000Z</time>
      </trkpt>
      <trkpt lat="49.39945" lon="1.43106">
        <ele>154</ele>
        <time>2018-04-15T06:48:08.000Z</time>
      </trkpt>
      <trkpt lat="49.39933" lon="1.43073">
        <ele>154</ele>
        <time>2018-04-15T06:48:11.000Z</time>
      </trkpt>
      <trkpt lat="49.3992" lon="1.43035">
        <ele>154</ele>
        <time>2018-04-15T06:48:14.000Z</time>
      </trkpt>
      <trkpt lat="49.39909" lon="1.42996">
        <ele>152</ele>
        <time>2018-04-15T06:48:17.000Z</time>
      </trkpt>
      <trkpt lat="49.39896" lon="1.42963">
        <ele>150</ele>
        <time>2018-04-15T06:48:20.000Z</time>
      </trkpt>
      <trkpt lat="49.39885" lon="1.4293">
        <ele>150</ele>
        <time>2018-04-15T06:48:23.000Z</time>
      </trkpt>
      <trkpt lat="49.39873" lon="1.42904">
        <ele>150</ele>
        <time>2018-04-15T06:48:26.000Z</time>
      </trkpt>
      <trkpt lat="49.39859" lon="1.42869">
        <ele>150</ele>
        <time>2018-04-15T06:48:29.000Z</time>
      </trkpt>
      <trkpt lat="49.39847" lon="1.42845">
        <ele>149</ele>
        <time>2018-04-15T06:48:32.000Z</time>
      </trkpt>
      <trkpt lat="49.39842" lon="1.42828">
        <ele>147</ele>
        <time>2018-04-15T06:48:35.000Z</time>
      </trkpt>
      <trkpt lat="49.39835" lon="1.42839">
        <ele>148</ele>
        <time>2018-04-15T06:48:38.000Z</time>
      </trkpt>
      <trkpt lat="49.39825" lon="1.42846">
        <ele>146</ele>
        <time>2018-04-15T06:48:41.000Z</time>
      </trkpt>
      <trkpt lat="49.39816" lon="1.42859">
        <ele>145</ele>
        <time>2018-04-15T06:48:44.000Z</time>
      </trkpt>
      <trkpt lat="49.39809" lon="1.42871">
        <ele>145</ele>
        <time>2018-04-15T06:48:47.000Z</time>
      </trkpt>
      <trkpt lat="49.39802" lon="1.42883">
        <ele>145</ele>
        <time>2018-04-15T06:48:50.000Z</time>
      </trkpt>
      <trkpt lat="49.39793" lon="1.42893">
        <ele>145</ele>
        <time>2018-04-15T06:48:53.000Z</time>
      </trkpt>
      <trkpt lat="49.39779" lon="1.42902">
        <ele>144</ele>
        <time>2018-04-15T06:48:56.000Z</time>
      </trkpt>
      <trkpt lat="49.39764" lon="1.42908">
        <ele>144</ele>
        <time>2018-04-15T06:48:59.000Z</time>
      </trkpt>
      <trkpt lat="49.39745" lon="1.42913">
        <ele>142</ele>
        <time>2018-04-15T06:49:02.000Z</time>
      </trkpt>
      <trkpt lat="49.39732" lon="1.42928">
        <ele>141</ele>
        <time>2018-04-15T06:49:05.000Z</time>
      </trkpt>
      <trkpt lat="49.39719" lon="1.42942">
        <ele>140</ele>
        <time>2018-04-15T06:49:08.000Z</time>
      </trkpt>
      <trkpt lat="49.39712" lon="1.42949">
        <ele>140</ele>
        <time>2018-04-15T06:49:11.000Z</time>
      </trkpt>
      <trkpt lat="49.39703" lon="1.42958">
        <ele>140</ele>
        <time>2018-04-15T06:49:14.000Z</time>
      </trkpt>
      <trkpt lat="49.39693" lon="1.4297">
        <ele>140</ele>
        <time>2018-04-15T06:49:17.000Z</time>
      </trkpt>
      <trkpt lat="49.39682" lon="1.42977">
        <ele>141</ele>
        <time>2018-04-15T06:49:20.000Z</time>
      </trkpt>
      <trkpt lat="49.3967" lon="1.42983">
        <ele>141</ele>
        <time>2018-04-15T06:49:23.000Z</time>
      </trkpt>
      <trkpt lat="49.39654" lon="1.42988">
        <ele>141</ele>
        <time>2018-04-15T06:49:26.000Z</time>
      </trkpt>
      <trkpt lat="49.39638" lon="1.42989">
        <ele>140</ele>
        <time>2018-04-15T06:49:29.000Z</time>
      </trkpt>
      <trkpt lat="49.39623" lon="1.4299">
        <ele>141</ele>
        <time>2018-04-15T06:49:32.000Z</time>
      </trkpt>
      <trkpt lat="49.39611" lon="1.42993">
        <ele>141</ele>
        <time>2018-04-15T06:49:35.000Z</time>
      </trkpt>
      <trkpt lat="49.396" lon="1.42998">
        <ele>141</ele>
        <time>2018-04-15T06:49:38.000Z</time>
      </trkpt>
      <trkpt lat="49.39592" lon="1.43002">
        <ele>143</ele>
        <time>2018-04-15T06:49:41.000Z</time>
      </trkpt>
      <trkpt lat="49.39582" lon="1.43007">
        <ele>142</ele>
        <time>2018-04-15T06:49:44.000Z</time>
      </trkpt>
      <trkpt lat="49.39574" lon="1.4301">
        <ele>142</ele>
        <time>2018-04-15T06:49:47.000Z</time>
      </trkpt>
      <trkpt lat="49.39566" lon="1.43012">
        <ele>141</ele>
        <time>2018-04-15T06:49:50.000Z</time>
      </trkpt>
      <trkpt lat="49.39558" lon="1.43012">
        <ele>141</ele>
        <time>2018-04-15T06:49:53.000Z</time>
      </trkpt>
      <trkpt lat="49.39551" lon="1.43014">
        <ele>140</ele>
        <time>2018-04-15T06:49:56.000Z</time>
      </trkpt>
      <trkpt lat="49.39548" lon="1.43016">
        <ele>140</ele>
        <time>2018-04-15T06:49:58.000Z</time>
      </trkpt>
      <trkpt lat="49.39544" lon="1.43019">
        <ele>140</ele>
        <time>2018-04-15T06:50:00.000Z</time>
      </trkpt>
      <trkpt lat="49.39542" lon="1.43023">
        <ele>140</ele>
        <time>2018-04-15T06:50:02.000Z</time>
      </trkpt>
      <trkpt lat="49.39539" lon="1.43028">
        <ele>140</ele>
        <time>2018-04-15T06:50:04.000Z</time>
      </trkpt>
      <trkpt lat="49.39539" lon="1.43032">
        <ele>140</ele>
        <time>2018-04-15T06:50:06.000Z</time>
      </trkpt>
      <trkpt lat="49.39538" lon="1.43037">
        <ele>140</ele>
        <time>2018-04-15T06:50:08.000Z</time>
      </trkpt>
      <trkpt lat="49.39537" lon="1.43041">
        <ele>140</ele>
        <time>2018-04-15T06:50:10.000Z</time>
      </trkpt>
      <trkpt lat="49.39536" lon="1.43046">
        <ele>140</ele>
        <time>2018-04-15T06:50:12.000Z</time>
      </trkpt>
      <trkpt lat="49.39534" lon="1.43051">
        <ele>140</ele>
        <time>2018-04-15T06:50:14.000Z</time>
      </trkpt>
      <trkpt lat="49.39532" lon="1.43056">
        <ele>139</ele>
        <time>2018-04-15T06:50:16.000Z</time>
      </trkpt>
      <trkpt lat="49.39529" lon="1.43063">
        <ele>139</ele>
        <time>2018-04-15T06:50:18.000Z</time>
      </trkpt>
      <trkpt lat="49.39525" lon="1.43071">
        <ele>139</ele>
        <time>2018-04-15T06:50:20.000Z</time>
      </trkpt>
      <trkpt lat="49.39522" lon="1.43079">
        <ele>139</ele>
        <time>2018-04-15T06:50:22.000Z</time>
      </trkpt>
      <trkpt lat="49.39518" lon="1.43083">
        <ele>139</ele>
        <time>2018-04-15T06:50:24.000Z</time>
      </trkpt>
      <trkpt lat="49.39512" lon="1.43088">
        <ele>138</ele>
        <time>2018-04-15T06:50:26.000Z</time>
      </trkpt>
      <trkpt lat="49.39508" lon="1.43091">
        <ele>138</ele>
        <time>2018-04-15T06:50:28.000Z</time>
      </trkpt>
      <trkpt lat="49.39503" lon="1.43092">
        <ele>138</ele>
        <time>2018-04-15T06:50:30.000Z</time>
      </trkpt>
      <trkpt lat="49.395" lon="1.43093">
        <ele>137</ele>
        <time>2018-04-15T06:50:32.000Z</time>
      </trkpt>
      <trkpt lat="49.39496" lon="1.43094">
        <ele>137</ele>
        <time>2018-04-15T06:50:34.000Z</time>
      </trkpt>
      <trkpt lat="49.39489" lon="1.43095">
        <ele>137</ele>
        <time>2018-04-15T06:50:37.000Z</time>
      </trkpt>
      <trkpt lat="49.39483" lon="1.43097">
        <ele>136</ele>
        <time>2018-04-15T06:50:40.000Z</time>
      </trkpt>
      <trkpt lat="49.39478" lon="1.43101">
        <ele>136</ele>
        <time>2018-04-15T06:50:43.000Z</time>
      </trkpt>
      <trkpt lat="49.3947" lon="1.43105">
        <ele>136</ele>
        <time>2018-04-15T06:50:46.000Z</time>
      </trkpt>
      <trkpt lat="49.39462" lon="1.43108">
        <ele>135</ele>
        <time>2018-04-15T06:50:49.000Z</time>
      </trkpt>
      <trkpt lat="49.39453" lon="1.43109">
        <ele>135</ele>
        <time>2018-04-15T06:50:52.000Z</time>
      </trkpt>
      <trkpt lat="49.39445" lon="1.43113">
        <ele>135</ele>
        <time>2018-04-15T06:50:55.000Z</time>
      </trkpt>
      <trkpt lat="49.39429" lon="1.43115">
        <ele>135</ele>
        <time>2018-04-15T06:50:58.000Z</time>
      </trkpt>
      <trkpt lat="49.39411" lon="1.43118">
        <ele>133</ele>
        <time>2018-04-15T06:51:01.000Z</time>
      </trkpt>
      <trkpt lat="49.39395" lon="1.43122">
        <ele>132</ele>
        <time>2018-04-15T06:51:04.000Z</time>
      </trkpt>
      <trkpt lat="49.3938" lon="1.43127">
        <ele>132</ele>
        <time>2018-04-15T06:51:07.000Z</time>
      </trkpt>
      <trkpt lat="49.39346" lon="1.43129">
        <ele>131</ele>
        <time>2018-04-15T06:51:11.000Z</time>
      </trkpt>
      <trkpt lat="49.39326" lon="1.43133">
        <ele>128</ele>
        <time>2018-04-15T06:51:14.000Z</time>
      </trkpt>
      <trkpt lat="49.39305" lon="1.43127">
        <ele>128</ele>
        <time>2018-04-15T06:51:17.000Z</time>
      </trkpt>
      <trkpt lat="49.39286" lon="1.43112">
        <ele>127</ele>
        <time>2018-04-15T06:51:20.000Z</time>
      </trkpt>
      <trkpt lat="49.3927" lon="1.43091">
        <ele>127</ele>
        <time>2018-04-15T06:51:23.000Z</time>
      </trkpt>
      <trkpt lat="49.39257" lon="1.43071">
        <ele>127</ele>
        <time>2018-04-15T06:51:26.000Z</time>
      </trkpt>
      <trkpt lat="49.39242" lon="1.43045">
        <ele>125</ele>
        <time>2018-04-15T06:51:29.000Z</time>
      </trkpt>
      <trkpt lat="49.39229" lon="1.43019">
        <ele>124</ele>
        <time>2018-04-15T06:51:32.000Z</time>
      </trkpt>
      <trkpt lat="49.39217" lon="1.42992">
        <ele>124</ele>
        <time>2018-04-15T06:51:35.000Z</time>
      </trkpt>
      <trkpt lat="49.39203" lon="1.42967">
        <ele>123</ele>
        <time>2018-04-15T06:51:38.000Z</time>
      </trkpt>
      <trkpt lat="49.3919" lon="1.42941">
        <ele>123</ele>
        <time>2018-04-15T06:51:41.000Z</time>
      </trkpt>
      <trkpt lat="49.39176" lon="1.42911">
        <ele>123</ele>
        <time>2018-04-15T06:51:44.000Z</time>
      </trkpt>
      <trkpt lat="49.39162" lon="1.42885">
        <ele>123</ele>
        <time>2018-04-15T06:51:47.000Z</time>
      </trkpt>
      <trkpt lat="49.39146" lon="1.42862">
        <ele>124</ele>
        <time>2018-04-15T06:51:50.000Z</time>
      </trkpt>
      <trkpt lat="49.39127" lon="1.4284">
        <ele>124</ele>
        <time>2018-04-15T06:51:53.000Z</time>
      </trkpt>
      <trkpt lat="49.39114" lon="1.4281">
        <ele>127</ele>
        <time>2018-04-15T06:51:56.000Z</time>
      </trkpt>
      <trkpt lat="49.39113" lon="1.42793">
        <ele>127</ele>
        <time>2018-04-15T06:51:59.000Z</time>
      </trkpt>
      <trkpt lat="49.39112" lon="1.42777">
        <ele>127</ele>
        <time>2018-04-15T06:52:02.000Z</time>
      </trkpt>
      <trkpt lat="49.3911" lon="1.4275">
        <ele>128</ele>
        <time>2018-04-15T06:52:05.000Z</time>
      </trkpt>
      <trkpt lat="49.39109" lon="1.42725">
        <ele>128</ele>
        <time>2018-04-15T06:52:08.000Z</time>
      </trkpt>
      <trkpt lat="49.39104" lon="1.4271">
        <ele>128</ele>
        <time>2018-04-15T06:52:11.000Z</time>
      </trkpt>
      <trkpt lat="49.39097" lon="1.42692">
        <ele>128</ele>
        <time>2018-04-15T06:52:14.000Z</time>
      </trkpt>
      <trkpt lat="49.3909" lon="1.42674">
        <ele>128</ele>
        <time>2018-04-15T06:52:17.000Z</time>
      </trkpt>
      <trkpt lat="49.39084" lon="1.4266">
        <ele>129</ele>
        <time>2018-04-15T06:52:20.000Z</time>
      </trkpt>
      <trkpt lat="49.39079" lon="1.4265">
        <ele>128</ele>
        <time>2018-04-15T06:52:23.000Z</time>
      </trkpt>
      <trkpt lat="49.39073" lon="1.42635">
        <ele>128</ele>
        <time>2018-04-15T06:52:26.000Z</time>
      </trkpt>
      <trkpt lat="49.39064" lon="1.42605">
        <ele>128</ele>
        <time>2018-04-15T06:52:29.000Z</time>
      </trkpt>
      <trkpt lat="49.39056" lon="1.42579">
        <ele>127</ele>
        <time>2018-04-15T06:52:32.000Z</time>
      </trkpt>
      <trkpt lat="49.39047" lon="1.42557">
        <ele>126</ele>
        <time>2018-04-15T06:52:35.000Z</time>
      </trkpt>
      <trkpt lat="49.39037" lon="1.42531">
        <ele>125</ele>
        <time>2018-04-15T06:52:38.000Z</time>
      </trkpt>
      <trkpt lat="49.39021" lon="1.42511">
        <ele>125</ele>
        <time>2018-04-15T06:52:41.000Z</time>
      </trkpt>
      <trkpt lat="49.39012" lon="1.42487">
        <ele>124</ele>
        <time>2018-04-15T06:52:44.000Z</time>
      </trkpt>
      <trkpt lat="49.39006" lon="1.42467">
        <ele>124</ele>
        <time>2018-04-15T06:52:47.000Z</time>
      </trkpt>
      <trkpt lat="49.38996" lon="1.42446">
        <ele>123</ele>
        <time>2018-04-15T06:52:50.000Z</time>
      </trkpt>
      <trkpt lat="49.38982" lon="1.42422">
        <ele>123</ele>
        <time>2018-04-15T06:52:53.000Z</time>
      </trkpt>
      <trkpt lat="49.38969" lon="1.42398">
        <ele>123</ele>
        <time>2018-04-15T06:52:56.000Z</time>
      </trkpt>
      <trkpt lat="49.38954" lon="1.4237">
        <ele>123</ele>
        <time>2018-04-15T06:52:59.000Z</time>
      </trkpt>
      <trkpt lat="49.38943" lon="1.42337">
        <ele>123</ele>
        <time>2018-04-15T06:53:02.000Z</time>
      </trkpt>
      <trkpt lat="49.38928" lon="1.42322">
        <ele>123</ele>
        <time>2018-04-15T06:53:05.000Z</time>
      </trkpt>
      <trkpt lat="49.38915" lon="1.42305">
        <ele>120</ele>
        <time>2018-04-15T06:53:08.000Z</time>
      </trkpt>
      <trkpt lat="49.389" lon="1.42301">
        <ele>119</ele>
        <time>2018-04-15T06:53:11.000Z</time>
      </trkpt>
      <trkpt lat="49.3889" lon="1.42297">
        <ele>119</ele>
        <time>2018-04-15T06:53:14.000Z</time>
      </trkpt>
      <trkpt lat="49.38879" lon="1.42294">
        <ele>118</ele>
        <time>2018-04-15T06:53:17.000Z</time>
      </trkpt>
      <trkpt lat="49.38871" lon="1.42287">
        <ele>118</ele>
        <time>2018-04-15T06:53:20.000Z</time>
      </trkpt>
      <trkpt lat="49.38871" lon="1.42272">
        <ele>118</ele>
        <time>2018-04-15T06:53:23.000Z</time>
      </trkpt>
      <trkpt lat="49.38881" lon="1.42253">
        <ele>119</ele>
        <time>2018-04-15T06:53:26.000Z</time>
      </trkpt>
      <trkpt lat="49.389" lon="1.42233">
        <ele>119</ele>
        <time>2018-04-15T06:53:29.000Z</time>
      </trkpt>
      <trkpt lat="49.38911" lon="1.4221">
        <ele>119</ele>
        <time>2018-04-15T06:53:32.000Z</time>
      </trkpt>
      <trkpt lat="49.38925" lon="1.42171">
        <ele>120</ele>
        <time>2018-04-15T06:53:35.000Z</time>
      </trkpt>
      <trkpt lat="49.38933" lon="1.42126">
        <ele>119</ele>
        <time>2018-04-15T06:53:38.000Z</time>
      </trkpt>
      <trkpt lat="49.38936" lon="1.42108">
        <ele>119</ele>
        <time>2018-04-15T06:53:41.000Z</time>
      </trkpt>
      <trkpt lat="49.38942" lon="1.42076">
        <ele>118</ele>
        <time>2018-04-15T06:53:44.000Z</time>
      </trkpt>
      <trkpt lat="49.38944" lon="1.42045">
        <ele>118</ele>
        <time>2018-04-15T06:53:47.000Z</time>
      </trkpt>
      <trkpt lat="49.38938" lon="1.42018">
        <ele>117</ele>
        <time>2018-04-15T06:53:50.000Z</time>
      </trkpt>
      <trkpt lat="49.38937" lon="1.41985">
        <ele>117</ele>
        <time>2018-04-15T06:53:53.000Z</time>
      </trkpt>
      <trkpt lat="49.38934" lon="1.4196">
        <ele>117</ele>
        <time>2018-04-15T06:53:56.000Z</time>
      </trkpt>
      <trkpt lat="49.38935" lon="1.41932">
        <ele>117</ele>
        <time>2018-04-15T06:53:59.000Z</time>
      </trkpt>
      <trkpt lat="49.38929" lon="1.41906">
        <ele>115</ele>
        <time>2018-04-15T06:54:02.000Z</time>
      </trkpt>
      <trkpt lat="49.3893" lon="1.41869">
        <ele>114</ele>
        <time>2018-04-15T06:54:05.000Z</time>
      </trkpt>
      <trkpt lat="49.38939" lon="1.41836">
        <ele>113</ele>
        <time>2018-04-15T06:54:08.000Z</time>
      </trkpt>
      <trkpt lat="49.38947" lon="1.41803">
        <ele>108</ele>
        <time>2018-04-15T06:54:11.000Z</time>
      </trkpt>
      <trkpt lat="49.3895" lon="1.41774">
        <ele>107</ele>
        <time>2018-04-15T06:54:14.000Z</time>
      </trkpt>
      <trkpt lat="49.38949" lon="1.41719">
        <ele>103</ele>
        <time>2018-04-15T06:54:18.000Z</time>
      </trkpt>
      <trkpt lat="49.38967" lon="1.417">
        <ele>103</ele>
        <time>2018-04-15T06:54:21.000Z</time>
      </trkpt>
      <trkpt lat="49.38968" lon="1.41677">
        <ele>102</ele>
        <time>2018-04-15T06:54:24.000Z</time>
      </trkpt>
      <trkpt lat="49.38977" lon="1.41651">
        <ele>102</ele>
        <time>2018-04-15T06:54:27.000Z</time>
      </trkpt>
      <trkpt lat="49.38992" lon="1.41626">
        <ele>101</ele>
        <time>2018-04-15T06:54:30.000Z</time>
      </trkpt>
      <trkpt lat="49.39002" lon="1.41604">
        <ele>100</ele>
        <time>2018-04-15T06:54:33.000Z</time>
      </trkpt>
      <trkpt lat="49.39013" lon="1.41579">
        <ele>98</ele>
        <time>2018-04-15T06:54:36.000Z</time>
      </trkpt>
      <trkpt lat="49.39025" lon="1.41556">
        <ele>99</ele>
        <time>2018-04-15T06:54:39.000Z</time>
      </trkpt>
      <trkpt lat="49.39035" lon="1.41525">
        <ele>100</ele>
        <time>2018-04-15T06:54:42.000Z</time>
      </trkpt>
      <trkpt lat="49.39048" lon="1.41495">
        <ele>99</ele>
        <time>2018-04-15T06:54:45.000Z</time>
      </trkpt>
      <trkpt lat="49.39066" lon="1.41468">
        <ele>98</ele>
        <time>2018-04-15T06:54:48.000Z</time>
      </trkpt>
      <trkpt lat="49.39084" lon="1.4144">
        <ele>98</ele>
        <time>2018-04-15T06:54:52.000Z</time>
      </trkpt>
      <trkpt lat="49.39093" lon="1.41424">
        <ele>97</ele>
        <time>2018-04-15T06:54:53.000Z</time>
      </trkpt>
      <trkpt lat="49.39101" lon="1.41409">
        <ele>96</ele>
        <time>2018-04-15T06:54:55.000Z</time>
      </trkpt>
      <trkpt lat="49.39107" lon="1.41395">
        <ele>96</ele>
        <time>2018-04-15T06:54:57.000Z</time>
      </trkpt>
      <trkpt lat="49.39113" lon="1.41381">
        <ele>96</ele>
        <time>2018-04-15T06:54:59.000Z</time>
      </trkpt>
      <trkpt lat="49.39121" lon="1.41364">
        <ele>96</ele>
        <time>2018-04-15T06:55:01.000Z</time>
      </trkpt>
      <trkpt lat="49.39127" lon="1.41347">
        <ele>96</ele>
        <time>2018-04-15T06:55:03.000Z</time>
      </trkpt>
      <trkpt lat="49.39133" lon="1.41328">
        <ele>94</ele>
        <time>2018-04-15T06:55:05.000Z</time>
      </trkpt>
      <trkpt lat="49.3914" lon="1.41307">
        <ele>93</ele>
        <time>2018-04-15T06:55:07.000Z</time>
      </trkpt>
      <trkpt lat="49.39145" lon="1.41282">
        <ele>93</ele>
        <time>2018-04-15T06:55:09.000Z</time>
      </trkpt>
      <trkpt lat="49.39153" lon="1.41255">
        <ele>92</ele>
        <time>2018-04-15T06:55:11.000Z</time>
      </trkpt>
      <trkpt lat="49.39148" lon="1.41236">
        <ele>92</ele>
        <time>2018-04-15T06:55:13.000Z</time>
      </trkpt>
      <trkpt lat="49.39145" lon="1.41212">
        <ele>92</ele>
        <time>2018-04-15T06:55:15.000Z</time>
      </trkpt>
      <trkpt lat="49.39134" lon="1.41189">
        <ele>92</ele>
        <time>2018-04-15T06:55:17.000Z</time>
      </trkpt>
      <trkpt lat="49.39131" lon="1.41169">
        <ele>92</ele>
        <time>2018-04-15T06:55:20.000Z</time>
      </trkpt>
      <trkpt lat="49.39133" lon="1.41147">
        <ele>92</ele>
        <time>2018-04-15T06:55:23.000Z</time>
      </trkpt>
      <trkpt lat="49.39132" lon="1.41125">
        <ele>92</ele>
        <time>2018-04-15T06:55:26.000Z</time>
      </trkpt>
      <trkpt lat="49.39125" lon="1.41104">
        <ele>92</ele>
        <time>2018-04-15T06:55:29.000Z</time>
      </trkpt>
      <trkpt lat="49.39129" lon="1.4107">
        <ele>91</ele>
        <time>2018-04-15T06:55:32.000Z</time>
      </trkpt>
      <trkpt lat="49.39143" lon="1.41066">
        <ele>91</ele>
        <time>2018-04-15T06:55:35.000Z</time>
      </trkpt>
      <trkpt lat="49.39148" lon="1.41062">
        <ele>91</ele>
        <time>2018-04-15T06:55:38.000Z</time>
      </trkpt>
      <trkpt lat="49.39144" lon="1.41068">
        <ele>91</ele>
        <time>2018-04-15T06:55:41.000Z</time>
      </trkpt>
      <trkpt lat="49.39138" lon="1.41073">
        <ele>91</ele>
        <time>2018-04-15T06:55:44.000Z</time>
      </trkpt>
      <trkpt lat="49.39138" lon="1.41082">
        <ele>91</ele>
        <time>2018-04-15T06:55:47.000Z</time>
      </trkpt>
      <trkpt lat="49.39138" lon="1.41087">
        <ele>92</ele>
        <time>2018-04-15T06:55:50.000Z</time>
      </trkpt>
      <trkpt lat="49.39139" lon="1.41095">
        <ele>92</ele>
        <time>2018-04-15T06:55:53.000Z</time>
      </trkpt>
      <trkpt lat="49.39142" lon="1.41097">
        <ele>92</ele>
        <time>2018-04-15T06:55:56.000Z</time>
      </trkpt>
      <trkpt lat="49.39145" lon="1.41098">
        <ele>92</ele>
        <time>2018-04-15T06:55:59.000Z</time>
      </trkpt>
      <trkpt lat="49.39148" lon="1.41101">
        <ele>92</ele>
        <time>2018-04-15T06:56:02.000Z</time>
      </trkpt>
      <trkpt lat="49.39152" lon="1.41105">
        <ele>92</ele>
        <time>2018-04-15T06:56:05.000Z</time>
      </trkpt>
      <trkpt lat="49.39156" lon="1.41107">
        <ele>92</ele>
        <time>2018-04-15T06:56:08.000Z</time>
      </trkpt>
      <trkpt lat="49.39157" lon="1.4111">
        <ele>92</ele>
        <time>2018-04-15T06:56:11.000Z</time>
      </trkpt>
      <trkpt lat="49.39159" lon="1.41111">
        <ele>92</ele>
        <time>2018-04-15T06:56:14.000Z</time>
      </trkpt>
      <trkpt lat="49.39159" lon="1.41112">
        <ele>92</ele>
        <time>2018-04-15T06:56:18.000Z</time>
      </trkpt>
      <trkpt lat="49.39161" lon="1.41113">
        <ele>92</ele>
        <time>2018-04-15T06:56:21.000Z</time>
      </trkpt>
      <trkpt lat="49.39164" lon="1.41113">
        <ele>92</ele>
        <time>2018-04-15T06:56:24.000Z</time>
      </trkpt>
      <trkpt lat="49.39167" lon="1.41113">
        <ele>92</ele>
        <time>2018-04-15T06:56:27.000Z</time>
      </trkpt>
      <trkpt lat="49.39169" lon="1.41113">
        <ele>97</ele>
        <time>2018-04-15T06:56:30.000Z</time>
      </trkpt>
      <trkpt lat="49.39172" lon="1.41113">
        <ele>97</ele>
        <time>2018-04-15T06:56:33.000Z</time>
      </trkpt>
      <trkpt lat="49.39175" lon="1.41113">
        <ele>98</ele>
        <time>2018-04-15T06:56:36.000Z</time>
      </trkpt>
      <trkpt lat="49.39179" lon="1.41114">
        <ele>98</ele>
        <time>2018-04-15T06:56:39.000Z</time>
      </trkpt>
      <trkpt lat="49.3918" lon="1.41114">
        <ele>98</ele>
        <time>2018-04-15T06:56:42.000Z</time>
      </trkpt>
      <trkpt lat="49.39181" lon="1.41115">
        <ele>98</ele>
        <time>2018-04-15T06:56:45.000Z</time>
      </trkpt>
      <trkpt lat="49.39182" lon="1.41116">
        <ele>98</ele>
        <time>2018-04-15T06:56:48.000Z</time>
      </trkpt>
      <trkpt lat="49.39183" lon="1.41118">
        <ele>99</ele>
        <time>2018-04-15T06:56:51.000Z</time>
      </trkpt>
      <trkpt lat="49.39187" lon="1.41121">
        <ele>99</ele>
        <time>2018-04-15T06:56:54.000Z</time>
      </trkpt>
      <trkpt lat="49.3919" lon="1.41126">
        <ele>99</ele>
        <time>2018-04-15T06:56:57.000Z</time>
      </trkpt>
      <trkpt lat="49.39192" lon="1.41127">
        <ele>100</ele>
        <time>2018-04-15T06:57:00.000Z</time>
      </trkpt>
      <trkpt lat="49.39194" lon="1.41128">
        <ele>100</ele>
        <time>2018-04-15T06:57:03.000Z</time>
      </trkpt>
      <trkpt lat="49.39198" lon="1.41129">
        <ele>100</ele>
        <time>2018-04-15T06:57:06.000Z</time>
      </trkpt>
      <trkpt lat="49.39199" lon="1.4113">
        <ele>100</ele>
        <time>2018-04-15T06:57:08.000Z</time>
      </trkpt>
      <trkpt lat="49.39201" lon="1.41131">
        <ele>101</ele>
        <time>2018-04-15T06:57:10.000Z</time>
      </trkpt>
      <trkpt lat="49.39203" lon="1.41133">
        <ele>101</ele>
        <time>2018-04-15T06:57:12.000Z</time>
      </trkpt>
      <trkpt lat="49.39205" lon="1.41134">
        <ele>101</ele>
        <time>2018-04-15T06:57:14.000Z</time>
      </trkpt>
      <trkpt lat="49.39207" lon="1.41135">
        <ele>101</ele>
        <time>2018-04-15T06:57:16.000Z</time>
      </trkpt>
      <trkpt lat="49.39208" lon="1.41135">
        <ele>101</ele>
        <time>2018-04-15T06:57:18.000Z</time>
      </trkpt>
      <trkpt lat="49.3921" lon="1.41136">
        <ele>102</ele>
        <time>2018-04-15T06:57:20.000Z</time>
      </trkpt>
      <trkpt lat="49.39211" lon="1.41136">
        <ele>102</ele>
        <time>2018-04-15T06:57:22.000Z</time>
      </trkpt>
      <trkpt lat="49.39212" lon="1.41138">
        <ele>102</ele>
        <time>2018-04-15T06:57:24.000Z</time>
      </trkpt>
      <trkpt lat="49.39212" lon="1.4114">
        <ele>102</ele>
        <time>2018-04-15T06:57:27.000Z</time>
      </trkpt>
      <trkpt lat="49.39211" lon="1.41139">
        <ele>102</ele>
        <time>2018-04-15T06:57:31.000Z</time>
      </trkpt>
      <trkpt lat="49.39211" lon="1.41138">
        <ele>102</ele>
        <time>2018-04-15T06:57:34.000Z</time>
      </trkpt>
      <trkpt lat="49.39212" lon="1.41136">
        <ele>102</ele>
        <time>2018-04-15T06:57:37.000Z</time>
      </trkpt>
      <trkpt lat="49.39213" lon="1.41138">
        <ele>102</ele>
        <time>2018-04-15T06:57:40.000Z</time>
      </trkpt>
      <trkpt lat="49.39216" lon="1.41139">
        <ele>103</ele>
        <time>2018-04-15T06:57:43.000Z</time>
      </trkpt>
      <trkpt lat="49.39218" lon="1.41138">
        <ele>103</ele>
        <time>2018-04-15T06:57:46.000Z</time>
      </trkpt>
      <trkpt lat="49.3922" lon="1.41139">
        <ele>103</ele>
        <time>2018-04-15T06:57:49.000Z</time>
      </trkpt>
      <trkpt lat="49.39221" lon="1.41142">
        <ele>103</ele>
        <time>2018-04-15T06:57:52.000Z</time>
      </trkpt>
      <trkpt lat="49.39223" lon="1.41144">
        <ele>104</ele>
        <time>2018-04-15T06:57:55.000Z</time>
      </trkpt>
      <trkpt lat="49.39225" lon="1.41145">
        <ele>104</ele>
        <time>2018-04-15T06:57:58.000Z</time>
      </trkpt>
      <trkpt lat="49.39228" lon="1.41146">
        <ele>104</ele>
        <time>2018-04-15T06:58:01.000Z</time>
      </trkpt>
      <trkpt lat="49.39231" lon="1.41148">
        <ele>105</ele>
        <time>2018-04-15T06:58:04.000Z</time>
      </trkpt>
      <trkpt lat="49.39235" lon="1.41149">
        <ele>106</ele>
        <time>2018-04-15T06:58:07.000Z</time>
      </trkpt>
      <trkpt lat="49.39238" lon="1.4115">
        <ele>106</ele>
        <time>2018-04-15T06:58:10.000Z</time>
      </trkpt>
      <trkpt lat="49.3924" lon="1.41151">
        <ele>107</ele>
        <time>2018-04-15T06:58:13.000Z</time>
      </trkpt>
      <trkpt lat="49.39241" lon="1.41152">
        <ele>107</ele>
        <time>2018-04-15T06:58:17.000Z</time>
      </trkpt>
      <trkpt lat="49.39242" lon="1.41153">
        <ele>107</ele>
        <time>2018-04-15T06:58:20.000Z</time>
      </trkpt>
      <trkpt lat="49.39245" lon="1.41156">
        <ele>108</ele>
        <time>2018-04-15T06:58:23.000Z</time>
      </trkpt>
      <trkpt lat="49.39248" lon="1.41158">
        <ele>109</ele>
        <time>2018-04-15T06:58:26.000Z</time>
      </trkpt>
      <trkpt lat="49.39252" lon="1.41158">
        <ele>113</ele>
        <time>2018-04-15T06:58:29.000Z</time>
      </trkpt>
      <trkpt lat="49.39254" lon="1.41159">
        <ele>113</ele>
        <time>2018-04-15T06:58:32.000Z</time>
      </trkpt>
      <trkpt lat="49.39256" lon="1.41162">
        <ele>113</ele>
        <time>2018-04-15T06:58:35.000Z</time>
      </trkpt>
      <trkpt lat="49.3926" lon="1.41162">
        <ele>114</ele>
        <time>2018-04-15T06:58:38.000Z</time>
      </trkpt>
      <trkpt lat="49.39262" lon="1.41164">
        <ele>114</ele>
        <time>2018-04-15T06:58:41.000Z</time>
      </trkpt>
      <trkpt lat="49.39263" lon="1.41163">
        <ele>114</ele>
        <time>2018-04-15T06:58:44.000Z</time>
      </trkpt>
      <trkpt lat="49.39264" lon="1.41159">
        <ele>114</ele>
        <time>2018-04-15T06:58:47.000Z</time>
      </trkpt>
      <trkpt lat="49.39266" lon="1.41154">
        <ele>115</ele>
        <time>2018-04-15T06:58:50.000Z</time>
      </trkpt>
      <trkpt lat="49.39268" lon="1.41149">
        <ele>115</ele>
        <time>2018-04-15T06:58:53.000Z</time>
      </trkpt>
      <trkpt lat="49.3927" lon="1.41144">
        <ele>115</ele>
        <time>2018-04-15T06:58:56.000Z</time>
      </trkpt>
      <trkpt lat="49.39273" lon="1.41139">
        <ele>116</ele>
        <time>2018-04-15T06:58:59.000Z</time>
      </trkpt>
      <trkpt lat="49.39277" lon="1.41134">
        <ele>116</ele>
        <time>2018-04-15T06:59:02.000Z</time>
      </trkpt>
      <trkpt lat="49.39281" lon="1.41127">
        <ele>116</ele>
        <time>2018-04-15T06:59:05.000Z</time>
      </trkpt>
      <trkpt lat="49.39283" lon="1.41121">
        <ele>116</ele>
        <time>2018-04-15T06:59:08.000Z</time>
      </trkpt>
      <trkpt lat="49.39289" lon="1.41113">
        <ele>116</ele>
        <time>2018-04-15T06:59:11.000Z</time>
      </trkpt>
      <trkpt lat="49.39293" lon="1.41104">
        <ele>117</ele>
        <time>2018-04-15T06:59:14.000Z</time>
      </trkpt>
      <trkpt lat="49.39291" lon="1.41096">
        <ele>117</ele>
        <time>2018-04-15T06:59:17.000Z</time>
      </trkpt>
      <trkpt lat="49.39291" lon="1.41088">
        <ele>116</ele>
        <time>2018-04-15T06:59:20.000Z</time>
      </trkpt>
      <trkpt lat="49.39292" lon="1.41082">
        <ele>114</ele>
        <time>2018-04-15T06:59:22.000Z</time>
      </trkpt>
      <trkpt lat="49.3929" lon="1.41075">
        <ele>114</ele>
        <time>2018-04-15T06:59:24.000Z</time>
      </trkpt>
      <trkpt lat="49.39288" lon="1.41066">
        <ele>114</ele>
        <time>2018-04-15T06:59:26.000Z</time>
      </trkpt>
      <trkpt lat="49.3929" lon="1.41059">
        <ele>113</ele>
        <time>2018-04-15T06:59:28.000Z</time>
      </trkpt>
      <trkpt lat="49.39292" lon="1.41054">
        <ele>113</ele>
        <time>2018-04-15T06:59:30.000Z</time>
      </trkpt>
      <trkpt lat="49.39294" lon="1.41048">
        <ele>113</ele>
        <time>2018-04-15T06:59:32.000Z</time>
      </trkpt>
      <trkpt lat="49.39298" lon="1.41036">
        <ele>113</ele>
        <time>2018-04-15T06:59:35.000Z</time>
      </trkpt>
      <trkpt lat="49.39299" lon="1.41021">
        <ele>113</ele>
        <time>2018-04-15T06:59:38.000Z</time>
      </trkpt>
      <trkpt lat="49.393" lon="1.41005">
        <ele>113</ele>
        <time>2018-04-15T06:59:41.000Z</time>
      </trkpt>
      <trkpt lat="49.39303" lon="1.4099">
        <ele>109</ele>
        <time>2018-04-15T06:59:44.000Z</time>
      </trkpt>
      <trkpt lat="49.39307" lon="1.40976">
        <ele>109</ele>
        <time>2018-04-15T06:59:47.000Z</time>
      </trkpt>
      <trkpt lat="49.39311" lon="1.40962">
        <ele>108</ele>
        <time>2018-04-15T06:59:50.000Z</time>
      </trkpt>
      <trkpt lat="49.3931" lon="1.4095">
        <ele>108</ele>
        <time>2018-04-15T06:59:53.000Z</time>
      </trkpt>
      <trkpt lat="49.39312" lon="1.40942">
        <ele>108</ele>
        <time>2018-04-15T06:59:56.000Z</time>
      </trkpt>
      <trkpt lat="49.39316" lon="1.40937">
        <ele>108</ele>
        <time>2018-04-15T06:59:59.000Z</time>
      </trkpt>
      <trkpt lat="49.39318" lon="1.40934">
        <ele>108</ele>
        <time>2018-04-15T07:00:02.000Z</time>
      </trkpt>
      <trkpt lat="49.39322" lon="1.40932">
        <ele>108</ele>
        <time>2018-04-15T07:00:05.000Z</time>
      </trkpt>
      <trkpt lat="49.39323" lon="1.40931">
        <ele>109</ele>
        <time>2018-04-15T07:00:08.000Z</time>
      </trkpt>
      <trkpt lat="49.39325" lon="1.40929">
        <ele>109</ele>
        <time>2018-04-15T07:00:11.000Z</time>
      </trkpt>
      <trkpt lat="49.39326" lon="1.40925">
        <ele>109</ele>
        <time>2018-04-15T07:00:14.000Z</time>
      </trkpt>
      <trkpt lat="49.3933" lon="1.40915">
        <ele>109</ele>
        <time>2018-04-15T07:00:17.000Z</time>
      </trkpt>
      <trkpt lat="49.39334" lon="1.40903">
        <ele>110</ele>
        <time>2018-04-15T07:00:20.000Z</time>
      </trkpt>
      <trkpt lat="49.39336" lon="1.4089">
        <ele>109</ele>
        <time>2018-04-15T07:00:23.000Z</time>
      </trkpt>
      <trkpt lat="49.39338" lon="1.4088">
        <ele>109</ele>
        <time>2018-04-15T07:00:26.000Z</time>
      </trkpt>
      <trkpt lat="49.39341" lon="1.40867">
        <ele>109</ele>
        <time>2018-04-15T07:00:29.000Z</time>
      </trkpt>
      <trkpt lat="49.39345" lon="1.40851">
        <ele>108</ele>
        <time>2018-04-15T07:00:32.000Z</time>
      </trkpt>
      <trkpt lat="49.39347" lon="1.40836">
        <ele>108</ele>
        <time>2018-04-15T07:00:35.000Z</time>
      </trkpt>
      <trkpt lat="49.39349" lon="1.40819">
        <ele>107</ele>
        <time>2018-04-15T07:00:38.000Z</time>
      </trkpt>
      <trkpt lat="49.39349" lon="1.40799">
        <ele>106</ele>
        <time>2018-04-15T07:00:41.000Z</time>
      </trkpt>
      <trkpt lat="49.39355" lon="1.40781">
        <ele>106</ele>
        <time>2018-04-15T07:00:44.000Z</time>
      </trkpt>
      <trkpt lat="49.39366" lon="1.40761">
        <ele>106</ele>
        <time>2018-04-15T07:00:47.000Z</time>
      </trkpt>
      <trkpt lat="49.39375" lon="1.40745">
        <ele>104</ele>
        <time>2018-04-15T07:00:50.000Z</time>
      </trkpt>
      <trkpt lat="49.39381" lon="1.40728">
        <ele>104</ele>
        <time>2018-04-15T07:00:53.000Z</time>
      </trkpt>
      <trkpt lat="49.39382" lon="1.40712">
        <ele>104</ele>
        <time>2018-04-15T07:00:56.000Z</time>
      </trkpt>
      <trkpt lat="49.39385" lon="1.40694">
        <ele>104</ele>
        <time>2018-04-15T07:00:59.000Z</time>
      </trkpt>
      <trkpt lat="49.39389" lon="1.40679">
        <ele>104</ele>
        <time>2018-04-15T07:01:02.000Z</time>
      </trkpt>
      <trkpt lat="49.39389" lon="1.40659">
        <ele>101</ele>
        <time>2018-04-15T07:01:05.000Z</time>
      </trkpt>
      <trkpt lat="49.3939" lon="1.40641">
        <ele>100</ele>
        <time>2018-04-15T07:01:08.000Z</time>
      </trkpt>
      <trkpt lat="49.39393" lon="1.40628">
        <ele>100</ele>
        <time>2018-04-15T07:01:11.000Z</time>
      </trkpt>
      <trkpt lat="49.39394" lon="1.40615">
        <ele>99</ele>
        <time>2018-04-15T07:01:14.000Z</time>
      </trkpt>
      <trkpt lat="49.39397" lon="1.40601">
        <ele>99</ele>
        <time>2018-04-15T07:01:17.000Z</time>
      </trkpt>
      <trkpt lat="49.39401" lon="1.40591">
        <ele>99</ele>
        <time>2018-04-15T07:01:20.000Z</time>
      </trkpt>
      <trkpt lat="49.39406" lon="1.40578">
        <ele>95</ele>
        <time>2018-04-15T07:01:23.000Z</time>
      </trkpt>
      <trkpt lat="49.39411" lon="1.40565">
        <ele>94</ele>
        <time>2018-04-15T07:01:26.000Z</time>
      </trkpt>
      <trkpt lat="49.39412" lon="1.40556">
        <ele>93</ele>
        <time>2018-04-15T07:01:29.000Z</time>
      </trkpt>
      <trkpt lat="49.39412" lon="1.40546">
        <ele>92</ele>
        <time>2018-04-15T07:01:32.000Z</time>
      </trkpt>
      <trkpt lat="49.39413" lon="1.40536">
        <ele>91</ele>
        <time>2018-04-15T07:01:35.000Z</time>
      </trkpt>
      <trkpt lat="49.39417" lon="1.40523">
        <ele>90</ele>
        <time>2018-04-15T07:01:38.000Z</time>
      </trkpt>
      <trkpt lat="49.3942" lon="1.4051">
        <ele>89</ele>
        <time>2018-04-15T07:01:41.000Z</time>
      </trkpt>
      <trkpt lat="49.39423" lon="1.40492">
        <ele>87</ele>
        <time>2018-04-15T07:01:44.000Z</time>
      </trkpt>
      <trkpt lat="49.39423" lon="1.40477">
        <ele>85</ele>
        <time>2018-04-15T07:01:47.000Z</time>
      </trkpt>
      <trkpt lat="49.39425" lon="1.40467">
        <ele>84</ele>
        <time>2018-04-15T07:01:50.000Z</time>
      </trkpt>
      <trkpt lat="49.39426" lon="1.40453">
        <ele>83</ele>
        <time>2018-04-15T07:01:53.000Z</time>
      </trkpt>
      <trkpt lat="49.39423" lon="1.4045">
        <ele>83</ele>
        <time>2018-04-15T07:01:56.000Z</time>
      </trkpt>
      <trkpt lat="49.39416" lon="1.40443">
        <ele>80</ele>
        <time>2018-04-15T07:01:59.000Z</time>
      </trkpt>
      <trkpt lat="49.39412" lon="1.40433">
        <ele>79</ele>
        <time>2018-04-15T07:02:02.000Z</time>
      </trkpt>
      <trkpt lat="49.3941" lon="1.40425">
        <ele>79</ele>
        <time>2018-04-15T07:02:05.000Z</time>
      </trkpt>
      <trkpt lat="49.39409" lon="1.40419">
        <ele>79</ele>
        <time>2018-04-15T07:02:08.000Z</time>
      </trkpt>
      <trkpt lat="49.39406" lon="1.40408">
        <ele>78</ele>
        <time>2018-04-15T07:02:11.000Z</time>
      </trkpt>
      <trkpt lat="49.39406" lon="1.40401">
        <ele>78</ele>
        <time>2018-04-15T07:02:14.000Z</time>
      </trkpt>
      <trkpt lat="49.3941" lon="1.40396">
        <ele>78</ele>
        <time>2018-04-15T07:02:17.000Z</time>
      </trkpt>
      <trkpt lat="49.3942" lon="1.40391">
        <ele>82</ele>
        <time>2018-04-15T07:02:20.000Z</time>
      </trkpt>
      <trkpt lat="49.39436" lon="1.40382">
        <ele>83</ele>
        <time>2018-04-15T07:02:23.000Z</time>
      </trkpt>
      <trkpt lat="49.39463" lon="1.40374">
        <ele>84</ele>
        <time>2018-04-15T07:02:26.000Z</time>
      </trkpt>
      <trkpt lat="49.39477" lon="1.40368">
        <ele>85</ele>
        <time>2018-04-15T07:02:29.000Z</time>
      </trkpt>
      <trkpt lat="49.39485" lon="1.40373">
        <ele>85</ele>
        <time>2018-04-15T07:02:32.000Z</time>
      </trkpt>
      <trkpt lat="49.39496" lon="1.40381">
        <ele>85</ele>
        <time>2018-04-15T07:02:35.000Z</time>
      </trkpt>
      <trkpt lat="49.39505" lon="1.40395">
        <ele>90</ele>
        <time>2018-04-15T07:02:38.000Z</time>
      </trkpt>
      <trkpt lat="49.39513" lon="1.40408">
        <ele>89</ele>
        <time>2018-04-15T07:02:41.000Z</time>
      </trkpt>
      <trkpt lat="49.39522" lon="1.40422">
        <ele>87</ele>
        <time>2018-04-15T07:02:44.000Z</time>
      </trkpt>
      <trkpt lat="49.3953" lon="1.40436">
        <ele>88</ele>
        <time>2018-04-15T07:02:47.000Z</time>
      </trkpt>
      <trkpt lat="49.39536" lon="1.40454">
        <ele>89</ele>
        <time>2018-04-15T07:02:50.000Z</time>
      </trkpt>
      <trkpt lat="49.39539" lon="1.40474">
        <ele>89</ele>
        <time>2018-04-15T07:02:53.000Z</time>
      </trkpt>
      <trkpt lat="49.39543" lon="1.40495">
        <ele>89</ele>
        <time>2018-04-15T07:02:56.000Z</time>
      </trkpt>
      <trkpt lat="49.39546" lon="1.40516">
        <ele>88</ele>
        <time>2018-04-15T07:02:59.000Z</time>
      </trkpt>
      <trkpt lat="49.39551" lon="1.40533">
        <ele>89</ele>
        <time>2018-04-15T07:03:02.000Z</time>
      </trkpt>
      <trkpt lat="49.39554" lon="1.4055">
        <ele>88</ele>
        <time>2018-04-15T07:03:05.000Z</time>
      </trkpt>
      <trkpt lat="49.39558" lon="1.40568">
        <ele>88</ele>
        <time>2018-04-15T07:03:08.000Z</time>
      </trkpt>
      <trkpt lat="49.39563" lon="1.40585">
        <ele>88</ele>
        <time>2018-04-15T07:03:11.000Z</time>
      </trkpt>
      <trkpt lat="49.39567" lon="1.40605">
        <ele>88</ele>
        <time>2018-04-15T07:03:14.000Z</time>
      </trkpt>
      <trkpt lat="49.39571" lon="1.40626">
        <ele>88</ele>
        <time>2018-04-15T07:03:17.000Z</time>
      </trkpt>
      <trkpt lat="49.39576" lon="1.40643">
        <ele>88</ele>
        <time>2018-04-15T07:03:20.000Z</time>
      </trkpt>
      <trkpt lat="49.3958" lon="1.40658">
        <ele>86</ele>
        <time>2018-04-15T07:03:23.000Z</time>
      </trkpt>
      <trkpt lat="49.39584" lon="1.40674">
        <ele>85</ele>
        <time>2018-04-15T07:03:26.000Z</time>
      </trkpt>
      <trkpt lat="49.39589" lon="1.40691">
        <ele>86</ele>
        <time>2018-04-15T07:03:29.000Z</time>
      </trkpt>
      <trkpt lat="49.39594" lon="1.40704">
        <ele>86</ele>
        <time>2018-04-15T07:03:32.000Z</time>
      </trkpt>
      <trkpt lat="49.39605" lon="1.40713">
        <ele>87</ele>
        <time>2018-04-15T07:03:35.000Z</time>
      </trkpt>
      <trkpt lat="49.39613" lon="1.40714">
        <ele>87</ele>
        <time>2018-04-15T07:03:38.000Z</time>
      </trkpt>
      <trkpt lat="49.39621" lon="1.40708">
        <ele>87</ele>
        <time>2018-04-15T07:03:41.000Z</time>
      </trkpt>
      <trkpt lat="49.39628" lon="1.40701">
        <ele>87</ele>
        <time>2018-04-15T07:03:44.000Z</time>
      </trkpt>
      <trkpt lat="49.39632" lon="1.40697">
        <ele>87</ele>
        <time>2018-04-15T07:03:47.000Z</time>
      </trkpt>
      <trkpt lat="49.39634" lon="1.40688">
        <ele>87</ele>
        <time>2018-04-15T07:03:50.000Z</time>
      </trkpt>
      <trkpt lat="49.39636" lon="1.40679">
        <ele>87</ele>
        <time>2018-04-15T07:03:53.000Z</time>
      </trkpt>
      <trkpt lat="49.39639" lon="1.40667">
        <ele>86</ele>
        <time>2018-04-15T07:03:56.000Z</time>
      </trkpt>
      <trkpt lat="49.39642" lon="1.40655">
        <ele>86</ele>
        <time>2018-04-15T07:03:59.000Z</time>
      </trkpt>
      <trkpt lat="49.39643" lon="1.4065">
        <ele>86</ele>
        <time>2018-04-15T07:04:02.000Z</time>
      </trkpt>
      <trkpt lat="49.39645" lon="1.40643">
        <ele>86</ele>
        <time>2018-04-15T07:04:05.000Z</time>
      </trkpt>
      <trkpt lat="49.39644" lon="1.40634">
        <ele>86</ele>
        <time>2018-04-15T07:04:08.000Z</time>
      </trkpt>
      <trkpt lat="49.39645" lon="1.40626">
        <ele>86</ele>
        <time>2018-04-15T07:04:11.000Z</time>
      </trkpt>
      <trkpt lat="49.39648" lon="1.40619">
        <ele>86</ele>
        <time>2018-04-15T07:04:14.000Z</time>
      </trkpt>
      <trkpt lat="49.39653" lon="1.40615">
        <ele>86</ele>
        <time>2018-04-15T07:04:17.000Z</time>
      </trkpt>
      <trkpt lat="49.39655" lon="1.40613">
        <ele>86</ele>
        <time>2018-04-15T07:04:19.000Z</time>
      </trkpt>
      <trkpt lat="49.39658" lon="1.40607">
        <ele>87</ele>
        <time>2018-04-15T07:04:21.000Z</time>
      </trkpt>
      <trkpt lat="49.39658" lon="1.40598">
        <ele>87</ele>
        <time>2018-04-15T07:04:23.000Z</time>
      </trkpt>
      <trkpt lat="49.3966" lon="1.40592">
        <ele>87</ele>
        <time>2018-04-15T07:04:25.000Z</time>
      </trkpt>
      <trkpt lat="49.39661" lon="1.40587">
        <ele>87</ele>
        <time>2018-04-15T07:04:27.000Z</time>
      </trkpt>
      <trkpt lat="49.39664" lon="1.40584">
        <ele>87</ele>
        <time>2018-04-15T07:04:29.000Z</time>
      </trkpt>
      <trkpt lat="49.39667" lon="1.40583">
        <ele>87</ele>
        <time>2018-04-15T07:04:31.000Z</time>
      </trkpt>
      <trkpt lat="49.3967" lon="1.40577">
        <ele>88</ele>
        <time>2018-04-15T07:04:33.000Z</time>
      </trkpt>
      <trkpt lat="49.39669" lon="1.40569">
        <ele>88</ele>
        <time>2018-04-15T07:04:35.000Z</time>
      </trkpt>
      <trkpt lat="49.39672" lon="1.40564">
        <ele>89</ele>
        <time>2018-04-15T07:04:37.000Z</time>
      </trkpt>
      <trkpt lat="49.39674" lon="1.40564">
        <ele>89</ele>
        <time>2018-04-15T07:04:39.000Z</time>
      </trkpt>
      <trkpt lat="49.39674" lon="1.4056">
        <ele>89</ele>
        <time>2018-04-15T07:04:41.000Z</time>
      </trkpt>
      <trkpt lat="49.39673" lon="1.40555">
        <ele>89</ele>
        <time>2018-04-15T07:04:43.000Z</time>
      </trkpt>
      <trkpt lat="49.39673" lon="1.40552">
        <ele>89</ele>
        <time>2018-04-15T07:04:45.000Z</time>
      </trkpt>
      <trkpt lat="49.39673" lon="1.40549">
        <ele>89</ele>
        <time>2018-04-15T07:04:47.000Z</time>
      </trkpt>
      <trkpt lat="49.39673" lon="1.40543">
        <ele>90</ele>
        <time>2018-04-15T07:04:50.000Z</time>
      </trkpt>
      <trkpt lat="49.39674" lon="1.40537">
        <ele>90</ele>
        <time>2018-04-15T07:04:53.000Z</time>
      </trkpt>
      <trkpt lat="49.39674" lon="1.40531">
        <ele>90</ele>
        <time>2018-04-15T07:04:56.000Z</time>
      </trkpt>
      <trkpt lat="49.39674" lon="1.40525">
        <ele>91</ele>
        <time>2018-04-15T07:04:59.000Z</time>
      </trkpt>
      <trkpt lat="49.39673" lon="1.40519">
        <ele>91</ele>
        <time>2018-04-15T07:05:02.000Z</time>
      </trkpt>
      <trkpt lat="49.39674" lon="1.40513">
        <ele>91</ele>
        <time>2018-04-15T07:05:05.000Z</time>
      </trkpt>
      <trkpt lat="49.39676" lon="1.40508">
        <ele>91</ele>
        <time>2018-04-15T07:05:08.000Z</time>
      </trkpt>
      <trkpt lat="49.39678" lon="1.40502">
        <ele>91</ele>
        <time>2018-04-15T07:05:11.000Z</time>
      </trkpt>
      <trkpt lat="49.39679" lon="1.40494">
        <ele>94</ele>
        <time>2018-04-15T07:05:14.000Z</time>
      </trkpt>
      <trkpt lat="49.39679" lon="1.40487">
        <ele>95</ele>
        <time>2018-04-15T07:05:17.000Z</time>
      </trkpt>
      <trkpt lat="49.39678" lon="1.4048">
        <ele>96</ele>
        <time>2018-04-15T07:05:20.000Z</time>
      </trkpt>
      <trkpt lat="49.39677" lon="1.40473">
        <ele>96</ele>
        <time>2018-04-15T07:05:23.000Z</time>
      </trkpt>
      <trkpt lat="49.39681" lon="1.40466">
        <ele>97</ele>
        <time>2018-04-15T07:05:26.000Z</time>
      </trkpt>
      <trkpt lat="49.39683" lon="1.40461">
        <ele>97</ele>
        <time>2018-04-15T07:05:29.000Z</time>
      </trkpt>
      <trkpt lat="49.39685" lon="1.40455">
        <ele>98</ele>
        <time>2018-04-15T07:05:32.000Z</time>
      </trkpt>
      <trkpt lat="49.39687" lon="1.4045">
        <ele>98</ele>
        <time>2018-04-15T07:05:35.000Z</time>
      </trkpt>
      <trkpt lat="49.3969" lon="1.40443">
        <ele>99</ele>
        <time>2018-04-15T07:05:38.000Z</time>
      </trkpt>
      <trkpt lat="49.39692" lon="1.40436">
        <ele>99</ele>
        <time>2018-04-15T07:05:41.000Z</time>
      </trkpt>
      <trkpt lat="49.39696" lon="1.40432">
        <ele>99</ele>
        <time>2018-04-15T07:05:44.000Z</time>
      </trkpt>
      <trkpt lat="49.39698" lon="1.40427">
        <ele>99</ele>
        <time>2018-04-15T07:05:47.000Z</time>
      </trkpt>
      <trkpt lat="49.397" lon="1.40423">
        <ele>99</ele>
        <time>2018-04-15T07:05:50.000Z</time>
      </trkpt>
      <trkpt lat="49.39701" lon="1.40421">
        <ele>99</ele>
        <time>2018-04-15T07:05:54.000Z</time>
      </trkpt>
      <trkpt lat="49.39701" lon="1.40416">
        <ele>104</ele>
        <time>2018-04-15T07:05:57.000Z</time>
      </trkpt>
      <trkpt lat="49.39701" lon="1.40411">
        <ele>105</ele>
        <time>2018-04-15T07:06:00.000Z</time>
      </trkpt>
      <trkpt lat="49.39701" lon="1.40407">
        <ele>105</ele>
        <time>2018-04-15T07:06:03.000Z</time>
      </trkpt>
      <trkpt lat="49.39702" lon="1.40403">
        <ele>105</ele>
        <time>2018-04-15T07:06:06.000Z</time>
      </trkpt>
      <trkpt lat="49.39703" lon="1.404">
        <ele>105</ele>
        <time>2018-04-15T07:06:09.000Z</time>
      </trkpt>
      <trkpt lat="49.39703" lon="1.40395">
        <ele>105</ele>
        <time>2018-04-15T07:06:12.000Z</time>
      </trkpt>
      <trkpt lat="49.39703" lon="1.40391">
        <ele>105</ele>
        <time>2018-04-15T07:06:15.000Z</time>
      </trkpt>
      <trkpt lat="49.39705" lon="1.40388">
        <ele>105</ele>
        <time>2018-04-15T07:06:18.000Z</time>
      </trkpt>
      <trkpt lat="49.39706" lon="1.40384">
        <ele>105</ele>
        <time>2018-04-15T07:06:21.000Z</time>
      </trkpt>
      <trkpt lat="49.39708" lon="1.4038">
        <ele>105</ele>
        <time>2018-04-15T07:06:24.000Z</time>
      </trkpt>
      <trkpt lat="49.3971" lon="1.40375">
        <ele>105</ele>
        <time>2018-04-15T07:06:27.000Z</time>
      </trkpt>
      <trkpt lat="49.39711" lon="1.4037">
        <ele>106</ele>
        <time>2018-04-15T07:06:30.000Z</time>
      </trkpt>
      <trkpt lat="49.39713" lon="1.40364">
        <ele>106</ele>
        <time>2018-04-15T07:06:33.000Z</time>
      </trkpt>
      <trkpt lat="49.39716" lon="1.40361">
        <ele>106</ele>
        <time>2018-04-15T07:06:36.000Z</time>
      </trkpt>
      <trkpt lat="49.39716" lon="1.40357">
        <ele>106</ele>
        <time>2018-04-15T07:06:39.000Z</time>
      </trkpt>
      <trkpt lat="49.39716" lon="1.40351">
        <ele>106</ele>
        <time>2018-04-15T07:06:42.000Z</time>
      </trkpt>
      <trkpt lat="49.39716" lon="1.40346">
        <ele>106</ele>
        <time>2018-04-15T07:06:45.000Z</time>
      </trkpt>
      <trkpt lat="49.39716" lon="1.40342">
        <ele>106</ele>
        <time>2018-04-15T07:06:48.000Z</time>
      </trkpt>
      <trkpt lat="49.39719" lon="1.40338">
        <ele>106</ele>
        <time>2018-04-15T07:06:51.000Z</time>
      </trkpt>
      <trkpt lat="49.3972" lon="1.40333">
        <ele>106</ele>
        <time>2018-04-15T07:06:54.000Z</time>
      </trkpt>
      <trkpt lat="49.3972" lon="1.40329">
        <ele>110</ele>
        <time>2018-04-15T07:06:57.000Z</time>
      </trkpt>
      <trkpt lat="49.3972" lon="1.40326">
        <ele>110</ele>
        <time>2018-04-15T07:07:00.000Z</time>
      </trkpt>
      <trkpt lat="49.3972" lon="1.40322">
        <ele>110</ele>
        <time>2018-04-15T07:07:03.000Z</time>
      </trkpt>
      <trkpt lat="49.3972" lon="1.40318">
        <ele>110</ele>
        <time>2018-04-15T07:07:06.000Z</time>
      </trkpt>
      <trkpt lat="49.3972" lon="1.40315">
        <ele>110</ele>
        <time>2018-04-15T07:07:09.000Z</time>
      </trkpt>
      <trkpt lat="49.39721" lon="1.4031">
        <ele>111</ele>
        <time>2018-04-15T07:07:12.000Z</time>
      </trkpt>
      <trkpt lat="49.39722" lon="1.40303">
        <ele>111</ele>
        <time>2018-04-15T07:07:15.000Z</time>
      </trkpt>
      <trkpt lat="49.39722" lon="1.40294">
        <ele>111</ele>
        <time>2018-04-15T07:07:18.000Z</time>
      </trkpt>
      <trkpt lat="49.39723" lon="1.40287">
        <ele>111</ele>
        <time>2018-04-15T07:07:21.000Z</time>
      </trkpt>
      <trkpt lat="49.39724" lon="1.40281">
        <ele>111</ele>
        <time>2018-04-15T07:07:24.000Z</time>
      </trkpt>
      <trkpt lat="49.39727" lon="1.40275">
        <ele>111</ele>
        <time>2018-04-15T07:07:27.000Z</time>
      </trkpt>
      <trkpt lat="49.39729" lon="1.40269">
        <ele>111</ele>
        <time>2018-04-15T07:07:30.000Z</time>
      </trkpt>
      <trkpt lat="49.3973" lon="1.40264">
        <ele>111</ele>
        <time>2018-04-15T07:07:33.000Z</time>
      </trkpt>
      <trkpt lat="49.3973" lon="1.40259">
        <ele>111</ele>
        <time>2018-04-15T07:07:36.000Z</time>
      </trkpt>
      <trkpt lat="49.3973" lon="1.40253">
        <ele>111</ele>
        <time>2018-04-15T07:07:39.000Z</time>
      </trkpt>
      <trkpt lat="49.39736" lon="1.40247">
        <ele>112</ele>
        <time>2018-04-15T07:07:42.000Z</time>
      </trkpt>
      <trkpt lat="49.39739" lon="1.4024">
        <ele>112</ele>
        <time>2018-04-15T07:07:45.000Z</time>
      </trkpt>
      <trkpt lat="49.39743" lon="1.40235">
        <ele>112</ele>
        <time>2018-04-15T07:07:48.000Z</time>
      </trkpt>
      <trkpt lat="49.39745" lon="1.40227">
        <ele>113</ele>
        <time>2018-04-15T07:07:51.000Z</time>
      </trkpt>
      <trkpt lat="49.39746" lon="1.40222">
        <ele>113</ele>
        <time>2018-04-15T07:07:54.000Z</time>
      </trkpt>
      <trkpt lat="49.39745" lon="1.40217">
        <ele>113</ele>
        <time>2018-04-15T07:07:57.000Z</time>
      </trkpt>
      <trkpt lat="49.39742" lon="1.40208">
        <ele>113</ele>
        <time>2018-04-15T07:08:00.000Z</time>
      </trkpt>
      <trkpt lat="49.39742" lon="1.40196">
        <ele>114</ele>
        <time>2018-04-15T07:08:03.000Z</time>
      </trkpt>
      <trkpt lat="49.39743" lon="1.4019">
        <ele>113</ele>
        <time>2018-04-15T07:08:06.000Z</time>
      </trkpt>
      <trkpt lat="49.39742" lon="1.40183">
        <ele>113</ele>
        <time>2018-04-15T07:08:09.000Z</time>
      </trkpt>
      <trkpt lat="49.39739" lon="1.40174">
        <ele>113</ele>
        <time>2018-04-15T07:08:12.000Z</time>
      </trkpt>
      <trkpt lat="49.39739" lon="1.40168">
        <ele>113</ele>
        <time>2018-04-15T07:08:15.000Z</time>
      </trkpt>
      <trkpt lat="49.39737" lon="1.40161">
        <ele>113</ele>
        <time>2018-04-15T07:08:18.000Z</time>
      </trkpt>
      <trkpt lat="49.39735" lon="1.40154">
        <ele>114</ele>
        <time>2018-04-15T07:08:21.000Z</time>
      </trkpt>
      <trkpt lat="49.39731" lon="1.40147">
        <ele>114</ele>
        <time>2018-04-15T07:08:24.000Z</time>
      </trkpt>
      <trkpt lat="49.39729" lon="1.4014">
        <ele>114</ele>
        <time>2018-04-15T07:08:27.000Z</time>
      </trkpt>
      <trkpt lat="49.39726" lon="1.40131">
        <ele>115</ele>
        <time>2018-04-15T07:08:30.000Z</time>
      </trkpt>
      <trkpt lat="49.39724" lon="1.40122">
        <ele>115</ele>
        <time>2018-04-15T07:08:33.000Z</time>
      </trkpt>
      <trkpt lat="49.39721" lon="1.40114">
        <ele>115</ele>
        <time>2018-04-15T07:08:36.000Z</time>
      </trkpt>
      <trkpt lat="49.3972" lon="1.40107">
        <ele>115</ele>
        <time>2018-04-15T07:08:39.000Z</time>
      </trkpt>
      <trkpt lat="49.39716" lon="1.401">
        <ele>115</ele>
        <time>2018-04-15T07:08:42.000Z</time>
      </trkpt>
      <trkpt lat="49.39714" lon="1.40092">
        <ele>115</ele>
        <time>2018-04-15T07:08:45.000Z</time>
      </trkpt>
      <trkpt lat="49.3971" lon="1.40083">
        <ele>115</ele>
        <time>2018-04-15T07:08:48.000Z</time>
      </trkpt>
      <trkpt lat="49.39706" lon="1.40072">
        <ele>115</ele>
        <time>2018-04-15T07:08:51.000Z</time>
      </trkpt>
      <trkpt lat="49.39705" lon="1.40061">
        <ele>115</ele>
        <time>2018-04-15T07:08:54.000Z</time>
      </trkpt>
      <trkpt lat="49.39701" lon="1.40053">
        <ele>115</ele>
        <time>2018-04-15T07:08:57.000Z</time>
      </trkpt>
      <trkpt lat="49.39696" lon="1.40045">
        <ele>115</ele>
        <time>2018-04-15T07:09:00.000Z</time>
      </trkpt>
      <trkpt lat="49.39691" lon="1.40037">
        <ele>115</ele>
        <time>2018-04-15T07:09:03.000Z</time>
      </trkpt>
      <trkpt lat="49.39688" lon="1.4003">
        <ele>115</ele>
        <time>2018-04-15T07:09:06.000Z</time>
      </trkpt>
      <trkpt lat="49.39685" lon="1.40023">
        <ele>115</ele>
        <time>2018-04-15T07:09:09.000Z</time>
      </trkpt>
      <trkpt lat="49.39682" lon="1.40017">
        <ele>115</ele>
        <time>2018-04-15T07:09:12.000Z</time>
      </trkpt>
      <trkpt lat="49.3968" lon="1.40011">
        <ele>115</ele>
        <time>2018-04-15T07:09:15.000Z</time>
      </trkpt>
      <trkpt lat="49.39677" lon="1.40005">
        <ele>115</ele>
        <time>2018-04-15T07:09:18.000Z</time>
      </trkpt>
      <trkpt lat="49.39676" lon="1.39997">
        <ele>116</ele>
        <time>2018-04-15T07:09:21.000Z</time>
      </trkpt>
      <trkpt lat="49.39674" lon="1.3999">
        <ele>116</ele>
        <time>2018-04-15T07:09:24.000Z</time>
      </trkpt>
      <trkpt lat="49.39671" lon="1.3998">
        <ele>116</ele>
        <time>2018-04-15T07:09:27.000Z</time>
      </trkpt>
      <trkpt lat="49.39668" lon="1.39971">
        <ele>116</ele>
        <time>2018-04-15T07:09:30.000Z</time>
      </trkpt>
      <trkpt lat="49.39665" lon="1.39962">
        <ele>117</ele>
        <time>2018-04-15T07:09:33.000Z</time>
      </trkpt>
      <trkpt lat="49.39662" lon="1.39954">
        <ele>117</ele>
        <time>2018-04-15T07:09:36.000Z</time>
      </trkpt>
      <trkpt lat="49.39658" lon="1.39947">
        <ele>117</ele>
        <time>2018-04-15T07:09:39.000Z</time>
      </trkpt>
      <trkpt lat="49.39656" lon="1.3994">
        <ele>117</ele>
        <time>2018-04-15T07:09:42.000Z</time>
      </trkpt>
      <trkpt lat="49.39653" lon="1.39932">
        <ele>117</ele>
        <time>2018-04-15T07:09:45.000Z</time>
      </trkpt>
      <trkpt lat="49.3965" lon="1.39925">
        <ele>117</ele>
        <time>2018-04-15T07:09:48.000Z</time>
      </trkpt>
      <trkpt lat="49.39646" lon="1.39916">
        <ele>118</ele>
        <time>2018-04-15T07:09:51.000Z</time>
      </trkpt>
      <trkpt lat="49.39642" lon="1.39907">
        <ele>118</ele>
        <time>2018-04-15T07:09:54.000Z</time>
      </trkpt>
      <trkpt lat="49.39639" lon="1.39897">
        <ele>119</ele>
        <time>2018-04-15T07:09:57.000Z</time>
      </trkpt>
      <trkpt lat="49.39636" lon="1.39891">
        <ele>119</ele>
        <time>2018-04-15T07:10:00.000Z</time>
      </trkpt>
      <trkpt lat="49.39633" lon="1.39883">
        <ele>119</ele>
        <time>2018-04-15T07:10:03.000Z</time>
      </trkpt>
      <trkpt lat="49.3963" lon="1.39876">
        <ele>119</ele>
        <time>2018-04-15T07:10:06.000Z</time>
      </trkpt>
      <trkpt lat="49.39626" lon="1.39864">
        <ele>119</ele>
        <time>2018-04-15T07:10:09.000Z</time>
      </trkpt>
      <trkpt lat="49.39623" lon="1.39854">
        <ele>119</ele>
        <time>2018-04-15T07:10:12.000Z</time>
      </trkpt>
      <trkpt lat="49.39621" lon="1.39844">
        <ele>119</ele>
        <time>2018-04-15T07:10:15.000Z</time>
      </trkpt>
      <trkpt lat="49.3962" lon="1.39837">
        <ele>119</ele>
        <time>2018-04-15T07:10:18.000Z</time>
      </trkpt>
      <trkpt lat="49.39619" lon="1.39827">
        <ele>120</ele>
        <time>2018-04-15T07:10:21.000Z</time>
      </trkpt>
      <trkpt lat="49.39619" lon="1.39815">
        <ele>120</ele>
        <time>2018-04-15T07:10:24.000Z</time>
      </trkpt>
      <trkpt lat="49.39618" lon="1.39801">
        <ele>120</ele>
        <time>2018-04-15T07:10:27.000Z</time>
      </trkpt>
      <trkpt lat="49.39617" lon="1.39791">
        <ele>120</ele>
        <time>2018-04-15T07:10:30.000Z</time>
      </trkpt>
      <trkpt lat="49.39616" lon="1.3978">
        <ele>120</ele>
        <time>2018-04-15T07:10:33.000Z</time>
      </trkpt>
      <trkpt lat="49.39616" lon="1.39767">
        <ele>120</ele>
        <time>2018-04-15T07:10:36.000Z</time>
      </trkpt>
      <trkpt lat="49.39615" lon="1.39754">
        <ele>120</ele>
        <time>2018-04-15T07:10:39.000Z</time>
      </trkpt>
      <trkpt lat="49.39615" lon="1.39743">
        <ele>121</ele>
        <time>2018-04-15T07:10:42.000Z</time>
      </trkpt>
      <trkpt lat="49.39614" lon="1.3973">
        <ele>121</ele>
        <time>2018-04-15T07:10:45.000Z</time>
      </trkpt>
      <trkpt lat="49.39611" lon="1.39719">
        <ele>121</ele>
        <time>2018-04-15T07:10:48.000Z</time>
      </trkpt>
      <trkpt lat="49.3961" lon="1.39708">
        <ele>121</ele>
        <time>2018-04-15T07:10:51.000Z</time>
      </trkpt>
      <trkpt lat="49.39609" lon="1.39698">
        <ele>121</ele>
        <time>2018-04-15T07:10:54.000Z</time>
      </trkpt>
      <trkpt lat="49.39608" lon="1.39687">
        <ele>121</ele>
        <time>2018-04-15T07:10:57.000Z</time>
      </trkpt>
      <trkpt lat="49.39607" lon="1.39675">
        <ele>122</ele>
        <time>2018-04-15T07:11:00.000Z</time>
      </trkpt>
      <trkpt lat="49.39606" lon="1.39661">
        <ele>122</ele>
        <time>2018-04-15T07:11:03.000Z</time>
      </trkpt>
      <trkpt lat="49.39604" lon="1.39647">
        <ele>122</ele>
        <time>2018-04-15T07:11:06.000Z</time>
      </trkpt>
      <trkpt lat="49.39604" lon="1.39631">
        <ele>122</ele>
        <time>2018-04-15T07:11:09.000Z</time>
      </trkpt>
      <trkpt lat="49.39604" lon="1.39616">
        <ele>122</ele>
        <time>2018-04-15T07:11:12.000Z</time>
      </trkpt>
      <trkpt lat="49.39604" lon="1.39601">
        <ele>122</ele>
        <time>2018-04-15T07:11:15.000Z</time>
      </trkpt>
      <trkpt lat="49.39605" lon="1.39587">
        <ele>122</ele>
        <time>2018-04-15T07:11:18.000Z</time>
      </trkpt>
      <trkpt lat="49.39607" lon="1.39573">
        <ele>123</ele>
        <time>2018-04-15T07:11:21.000Z</time>
      </trkpt>
      <trkpt lat="49.39607" lon="1.39559">
        <ele>123</ele>
        <time>2018-04-15T07:11:24.000Z</time>
      </trkpt>
      <trkpt lat="49.39606" lon="1.39543">
        <ele>123</ele>
        <time>2018-04-15T07:11:27.000Z</time>
      </trkpt>
      <trkpt lat="49.39605" lon="1.3953">
        <ele>123</ele>
        <time>2018-04-15T07:11:29.000Z</time>
      </trkpt>
      <trkpt lat="49.39605" lon="1.39517">
        <ele>123</ele>
        <time>2018-04-15T07:11:31.000Z</time>
      </trkpt>
      <trkpt lat="49.39603" lon="1.39505">
        <ele>123</ele>
        <time>2018-04-15T07:11:33.000Z</time>
      </trkpt>
      <trkpt lat="49.39599" lon="1.39493">
        <ele>123</ele>
        <time>2018-04-15T07:11:35.000Z</time>
      </trkpt>
      <trkpt lat="49.39597" lon="1.39479">
        <ele>123</ele>
        <time>2018-04-15T07:11:37.000Z</time>
      </trkpt>
      <trkpt lat="49.39591" lon="1.39468">
        <ele>122</ele>
        <time>2018-04-15T07:11:39.000Z</time>
      </trkpt>
      <trkpt lat="49.39587" lon="1.39454">
        <ele>122</ele>
        <time>2018-04-15T07:11:41.000Z</time>
      </trkpt>
      <trkpt lat="49.3958" lon="1.39444">
        <ele>121</ele>
        <time>2018-04-15T07:11:43.000Z</time>
      </trkpt>
      <trkpt lat="49.39573" lon="1.39431">
        <ele>121</ele>
        <time>2018-04-15T07:11:45.000Z</time>
      </trkpt>
      <trkpt lat="49.39565" lon="1.3942">
        <ele>121</ele>
        <time>2018-04-15T07:11:47.000Z</time>
      </trkpt>
      <trkpt lat="49.39558" lon="1.39408">
        <ele>121</ele>
        <time>2018-04-15T07:11:49.000Z</time>
      </trkpt>
      <trkpt lat="49.39554" lon="1.39397">
        <ele>121</ele>
        <time>2018-04-15T07:11:51.000Z</time>
      </trkpt>
      <trkpt lat="49.39549" lon="1.39383">
        <ele>121</ele>
        <time>2018-04-15T07:11:53.000Z</time>
      </trkpt>
      <trkpt lat="49.39544" lon="1.3937">
        <ele>121</ele>
        <time>2018-04-15T07:11:55.000Z</time>
      </trkpt>
      <trkpt lat="49.3954" lon="1.39354">
        <ele>121</ele>
        <time>2018-04-15T07:11:57.000Z</time>
      </trkpt>
      <trkpt lat="49.39536" lon="1.39336">
        <ele>121</ele>
        <time>2018-04-15T07:11:59.000Z</time>
      </trkpt>
      <trkpt lat="49.39532" lon="1.39321">
        <ele>121</ele>
        <time>2018-04-15T07:12:01.000Z</time>
      </trkpt>
      <trkpt lat="49.39528" lon="1.39306">
        <ele>121</ele>
        <time>2018-04-15T07:12:03.000Z</time>
      </trkpt>
      <trkpt lat="49.39522" lon="1.39283">
        <ele>121</ele>
        <time>2018-04-15T07:12:06.000Z</time>
      </trkpt>
      <trkpt lat="49.39514" lon="1.39263">
        <ele>120</ele>
        <time>2018-04-15T07:12:09.000Z</time>
      </trkpt>
      <trkpt lat="49.39507" lon="1.39242">
        <ele>120</ele>
        <time>2018-04-15T07:12:12.000Z</time>
      </trkpt>
      <trkpt lat="49.39502" lon="1.39219">
        <ele>121</ele>
        <time>2018-04-15T07:12:15.000Z</time>
      </trkpt>
      <trkpt lat="49.39502" lon="1.39194">
        <ele>121</ele>
        <time>2018-04-15T07:12:18.000Z</time>
      </trkpt>
      <trkpt lat="49.39504" lon="1.39168">
        <ele>120</ele>
        <time>2018-04-15T07:12:21.000Z</time>
      </trkpt>
      <trkpt lat="49.3951" lon="1.39145">
        <ele>122</ele>
        <time>2018-04-15T07:12:24.000Z</time>
      </trkpt>
      <trkpt lat="49.39513" lon="1.39122">
        <ele>123</ele>
        <time>2018-04-15T07:12:27.000Z</time>
      </trkpt>
      <trkpt lat="49.39521" lon="1.391">
        <ele>124</ele>
        <time>2018-04-15T07:12:30.000Z</time>
      </trkpt>
      <trkpt lat="49.39522" lon="1.39075">
        <ele>126</ele>
        <time>2018-04-15T07:12:33.000Z</time>
      </trkpt>
      <trkpt lat="49.39521" lon="1.39067">
        <ele>126</ele>
        <time>2018-04-15T07:12:36.000Z</time>
      </trkpt>
      <trkpt lat="49.39506" lon="1.39062">
        <ele>125</ele>
        <time>2018-04-15T07:12:39.000Z</time>
      </trkpt>
      <trkpt lat="49.39498" lon="1.39062">
        <ele>124</ele>
        <time>2018-04-15T07:12:42.000Z</time>
      </trkpt>
      <trkpt lat="49.39489" lon="1.39063">
        <ele>124</ele>
        <time>2018-04-15T07:12:45.000Z</time>
      </trkpt>
      <trkpt lat="49.39479" lon="1.39063">
        <ele>124</ele>
        <time>2018-04-15T07:12:48.000Z</time>
      </trkpt>
      <trkpt lat="49.39467" lon="1.39065">
        <ele>124</ele>
        <time>2018-04-15T07:12:51.000Z</time>
      </trkpt>
      <trkpt lat="49.39457" lon="1.39068">
        <ele>124</ele>
        <time>2018-04-15T07:12:54.000Z</time>
      </trkpt>
      <trkpt lat="49.39447" lon="1.39069">
        <ele>124</ele>
        <time>2018-04-15T07:12:57.000Z</time>
      </trkpt>
      <trkpt lat="49.39435" lon="1.39073">
        <ele>124</ele>
        <time>2018-04-15T07:13:00.000Z</time>
      </trkpt>
      <trkpt lat="49.39425" lon="1.39078">
        <ele>124</ele>
        <time>2018-04-15T07:13:03.000Z</time>
      </trkpt>
      <trkpt lat="49.39415" lon="1.39084">
        <ele>124</ele>
        <time>2018-04-15T07:13:06.000Z</time>
      </trkpt>
      <trkpt lat="49.39405" lon="1.39091">
        <ele>124</ele>
        <time>2018-04-15T07:13:09.000Z</time>
      </trkpt>
      <trkpt lat="49.39397" lon="1.39096">
        <ele>124</ele>
        <time>2018-04-15T07:13:12.000Z</time>
      </trkpt>
      <trkpt lat="49.39389" lon="1.39099">
        <ele>124</ele>
        <time>2018-04-15T07:13:15.000Z</time>
      </trkpt>
      <trkpt lat="49.39381" lon="1.39101">
        <ele>124</ele>
        <time>2018-04-15T07:13:18.000Z</time>
      </trkpt>
      <trkpt lat="49.39374" lon="1.39105">
        <ele>124</ele>
        <time>2018-04-15T07:13:21.000Z</time>
      </trkpt>
      <trkpt lat="49.39365" lon="1.39109">
        <ele>124</ele>
        <time>2018-04-15T07:13:24.000Z</time>
      </trkpt>
      <trkpt lat="49.39359" lon="1.3911">
        <ele>124</ele>
        <time>2018-04-15T07:13:27.000Z</time>
      </trkpt>
      <trkpt lat="49.39352" lon="1.39115">
        <ele>124</ele>
        <time>2018-04-15T07:13:30.000Z</time>
      </trkpt>
      <trkpt lat="49.39344" lon="1.39116">
        <ele>124</ele>
        <time>2018-04-15T07:13:33.000Z</time>
      </trkpt>
      <trkpt lat="49.39333" lon="1.39118">
        <ele>125</ele>
        <time>2018-04-15T07:13:36.000Z</time>
      </trkpt>
      <trkpt lat="49.39322" lon="1.3912">
        <ele>125</ele>
        <time>2018-04-15T07:13:39.000Z</time>
      </trkpt>
      <trkpt lat="49.39312" lon="1.39122">
        <ele>125</ele>
        <time>2018-04-15T07:13:42.000Z</time>
      </trkpt>
      <trkpt lat="49.39301" lon="1.3912">
        <ele>125</ele>
        <time>2018-04-15T07:13:45.000Z</time>
      </trkpt>
      <trkpt lat="49.39288" lon="1.39118">
        <ele>125</ele>
        <time>2018-04-15T07:13:48.000Z</time>
      </trkpt>
      <trkpt lat="49.39276" lon="1.39115">
        <ele>125</ele>
        <time>2018-04-15T07:13:51.000Z</time>
      </trkpt>
      <trkpt lat="49.39264" lon="1.39113">
        <ele>125</ele>
        <time>2018-04-15T07:13:54.000Z</time>
      </trkpt>
      <trkpt lat="49.39252" lon="1.3911">
        <ele>125</ele>
        <time>2018-04-15T07:13:57.000Z</time>
      </trkpt>
      <trkpt lat="49.3924" lon="1.39108">
        <ele>125</ele>
        <time>2018-04-15T07:14:00.000Z</time>
      </trkpt>
      <trkpt lat="49.39227" lon="1.39106">
        <ele>125</ele>
        <time>2018-04-15T07:14:03.000Z</time>
      </trkpt>
      <trkpt lat="49.39215" lon="1.391">
        <ele>125</ele>
        <time>2018-04-15T07:14:06.000Z</time>
      </trkpt>
      <trkpt lat="49.39203" lon="1.39095">
        <ele>125</ele>
        <time>2018-04-15T07:14:09.000Z</time>
      </trkpt>
      <trkpt lat="49.3919" lon="1.39086">
        <ele>125</ele>
        <time>2018-04-15T07:14:12.000Z</time>
      </trkpt>
      <trkpt lat="49.39178" lon="1.39078">
        <ele>124</ele>
        <time>2018-04-15T07:14:15.000Z</time>
      </trkpt>
      <trkpt lat="49.39167" lon="1.3907">
        <ele>124</ele>
        <time>2018-04-15T07:14:18.000Z</time>
      </trkpt>
      <trkpt lat="49.39159" lon="1.39067">
        <ele>124</ele>
        <time>2018-04-15T07:14:21.000Z</time>
      </trkpt>
      <trkpt lat="49.39132" lon="1.39053">
        <ele>124</ele>
        <time>2018-04-15T07:14:25.000Z</time>
      </trkpt>
      <trkpt lat="49.39109" lon="1.39038">
        <ele>124</ele>
        <time>2018-04-15T07:14:28.000Z</time>
      </trkpt>
      <trkpt lat="49.39087" lon="1.39024">
        <ele>124</ele>
        <time>2018-04-15T07:14:31.000Z</time>
      </trkpt>
      <trkpt lat="49.39062" lon="1.39015">
        <ele>124</ele>
        <time>2018-04-15T07:14:34.000Z</time>
      </trkpt>
      <trkpt lat="49.39041" lon="1.39002">
        <ele>124</ele>
        <time>2018-04-15T07:14:37.000Z</time>
      </trkpt>
      <trkpt lat="49.39025" lon="1.38999">
        <ele>123</ele>
        <time>2018-04-15T07:14:40.000Z</time>
      </trkpt>
      <trkpt lat="49.39014" lon="1.38991">
        <ele>123</ele>
        <time>2018-04-15T07:14:43.000Z</time>
      </trkpt>
      <trkpt lat="49.39" lon="1.38983">
        <ele>123</ele>
        <time>2018-04-15T07:14:46.000Z</time>
      </trkpt>
      <trkpt lat="49.38987" lon="1.38978">
        <ele>123</ele>
        <time>2018-04-15T07:14:49.000Z</time>
      </trkpt>
      <trkpt lat="49.38966" lon="1.38969">
        <ele>122</ele>
        <time>2018-04-15T07:14:52.000Z</time>
      </trkpt>
      <trkpt lat="49.38944" lon="1.3896">
        <ele>122</ele>
        <time>2018-04-15T07:14:55.000Z</time>
      </trkpt>
      <trkpt lat="49.38922" lon="1.38953">
        <ele>122</ele>
        <time>2018-04-15T07:14:58.000Z</time>
      </trkpt>
      <trkpt lat="49.38894" lon="1.38942">
        <ele>120</ele>
        <time>2018-04-15T07:15:01.000Z</time>
      </trkpt>
      <trkpt lat="49.38873" lon="1.38915">
        <ele>118</ele>
        <time>2018-04-15T07:15:04.000Z</time>
      </trkpt>
      <trkpt lat="49.38843" lon="1.3889">
        <ele>117</ele>
        <time>2018-04-15T07:15:07.000Z</time>
      </trkpt>
      <trkpt lat="49.38818" lon="1.38866">
        <ele>115</ele>
        <time>2018-04-15T07:15:10.000Z</time>
      </trkpt>
      <trkpt lat="49.38793" lon="1.38837">
        <ele>114</ele>
        <time>2018-04-15T07:15:13.000Z</time>
      </trkpt>
      <trkpt lat="49.38775" lon="1.38791">
        <ele>109</ele>
        <time>2018-04-15T07:15:16.000Z</time>
      </trkpt>
      <trkpt lat="49.38752" lon="1.38759">
        <ele>107</ele>
        <time>2018-04-15T07:15:19.000Z</time>
      </trkpt>
      <trkpt lat="49.38723" lon="1.38738">
        <ele>105</ele>
        <time>2018-04-15T07:15:22.000Z</time>
      </trkpt>
      <trkpt lat="49.38691" lon="1.38713">
        <ele>105</ele>
        <time>2018-04-15T07:15:25.000Z</time>
      </trkpt>
      <trkpt lat="49.38646" lon="1.38659">
        <ele>103</ele>
        <time>2018-04-15T07:15:29.000Z</time>
      </trkpt>
      <trkpt lat="49.38625" lon="1.38636">
        <ele>102</ele>
        <time>2018-04-15T07:15:32.000Z</time>
      </trkpt>
      <trkpt lat="49.38606" lon="1.38626">
        <ele>101</ele>
        <time>2018-04-15T07:15:35.000Z</time>
      </trkpt>
      <trkpt lat="49.38584" lon="1.38612">
        <ele>100</ele>
        <time>2018-04-15T07:15:38.000Z</time>
      </trkpt>
      <trkpt lat="49.38557" lon="1.38609">
        <ele>99</ele>
        <time>2018-04-15T07:15:41.000Z</time>
      </trkpt>
      <trkpt lat="49.3854" lon="1.38603">
        <ele>99</ele>
        <time>2018-04-15T07:15:44.000Z</time>
      </trkpt>
      <trkpt lat="49.38501" lon="1.38616">
        <ele>98</ele>
        <time>2018-04-15T07:15:48.000Z</time>
      </trkpt>
      <trkpt lat="49.38478" lon="1.38628">
        <ele>95</ele>
        <time>2018-04-15T07:15:51.000Z</time>
      </trkpt>
      <trkpt lat="49.38454" lon="1.38629">
        <ele>94</ele>
        <time>2018-04-15T07:15:54.000Z</time>
      </trkpt>
      <trkpt lat="49.38429" lon="1.38632">
        <ele>93</ele>
        <time>2018-04-15T07:15:57.000Z</time>
      </trkpt>
      <trkpt lat="49.38393" lon="1.38623">
        <ele>86</ele>
        <time>2018-04-15T07:16:00.000Z</time>
      </trkpt>
      <trkpt lat="49.38359" lon="1.38614">
        <ele>84</ele>
        <time>2018-04-15T07:16:03.000Z</time>
      </trkpt>
      <trkpt lat="49.38338" lon="1.38606">
        <ele>83</ele>
        <time>2018-04-15T07:16:06.000Z</time>
      </trkpt>
      <trkpt lat="49.38325" lon="1.38609">
        <ele>80</ele>
        <time>2018-04-15T07:16:09.000Z</time>
      </trkpt>
      <trkpt lat="49.38317" lon="1.3861">
        <ele>80</ele>
        <time>2018-04-15T07:16:12.000Z</time>
      </trkpt>
      <trkpt lat="49.38317" lon="1.38621">
        <ele>81</ele>
        <time>2018-04-15T07:16:15.000Z</time>
      </trkpt>
      <trkpt lat="49.38319" lon="1.3863">
        <ele>81</ele>
        <time>2018-04-15T07:16:18.000Z</time>
      </trkpt>
      <trkpt lat="49.38324" lon="1.38636">
        <ele>81</ele>
        <time>2018-04-15T07:16:21.000Z</time>
      </trkpt>
      <trkpt lat="49.38325" lon="1.38642">
        <ele>82</ele>
        <time>2018-04-15T07:16:24.000Z</time>
      </trkpt>
      <trkpt lat="49.38326" lon="1.38649">
        <ele>82</ele>
        <time>2018-04-15T07:16:27.000Z</time>
      </trkpt>
      <trkpt lat="49.38325" lon="1.38658">
        <ele>83</ele>
        <time>2018-04-15T07:16:30.000Z</time>
      </trkpt>
      <trkpt lat="49.38324" lon="1.38664">
        <ele>84</ele>
        <time>2018-04-15T07:16:33.000Z</time>
      </trkpt>
      <trkpt lat="49.38324" lon="1.38671">
        <ele>84</ele>
        <time>2018-04-15T07:16:36.000Z</time>
      </trkpt>
      <trkpt lat="49.38325" lon="1.38681">
        <ele>84</ele>
        <time>2018-04-15T07:16:39.000Z</time>
      </trkpt>
      <trkpt lat="49.38327" lon="1.38688">
        <ele>84</ele>
        <time>2018-04-15T07:16:42.000Z</time>
      </trkpt>
      <trkpt lat="49.38329" lon="1.38696">
        <ele>84</ele>
        <time>2018-04-15T07:16:45.000Z</time>
      </trkpt>
      <trkpt lat="49.38331" lon="1.38703">
        <ele>84</ele>
        <time>2018-04-15T07:16:48.000Z</time>
      </trkpt>
      <trkpt lat="49.38332" lon="1.3871">
        <ele>84</ele>
        <time>2018-04-15T07:16:51.000Z</time>
      </trkpt>
      <trkpt lat="49.38334" lon="1.38717">
        <ele>89</ele>
        <time>2018-04-15T07:16:54.000Z</time>
      </trkpt>
      <trkpt lat="49.38334" lon="1.38722">
        <ele>89</ele>
        <time>2018-04-15T07:16:57.000Z</time>
      </trkpt>
      <trkpt lat="49.38335" lon="1.38727">
        <ele>89</ele>
        <time>2018-04-15T07:17:00.000Z</time>
      </trkpt>
      <trkpt lat="49.38337" lon="1.38733">
        <ele>88</ele>
        <time>2018-04-15T07:17:03.000Z</time>
      </trkpt>
      <trkpt lat="49.38339" lon="1.38742">
        <ele>88</ele>
        <time>2018-04-15T07:17:06.000Z</time>
      </trkpt>
      <trkpt lat="49.38342" lon="1.38751">
        <ele>87</ele>
        <time>2018-04-15T07:17:09.000Z</time>
      </trkpt>
      <trkpt lat="49.38345" lon="1.38758">
        <ele>88</ele>
        <time>2018-04-15T07:17:12.000Z</time>
      </trkpt>
      <trkpt lat="49.38348" lon="1.38764">
        <ele>88</ele>
        <time>2018-04-15T07:17:15.000Z</time>
      </trkpt>
      <trkpt lat="49.38351" lon="1.38771">
        <ele>88</ele>
        <time>2018-04-15T07:17:18.000Z</time>
      </trkpt>
      <trkpt lat="49.38356" lon="1.38777">
        <ele>89</ele>
        <time>2018-04-15T07:17:21.000Z</time>
      </trkpt>
      <trkpt lat="49.38361" lon="1.38784">
        <ele>89</ele>
        <time>2018-04-15T07:17:24.000Z</time>
      </trkpt>
      <trkpt lat="49.38366" lon="1.38792">
        <ele>89</ele>
        <time>2018-04-15T07:17:27.000Z</time>
      </trkpt>
      <trkpt lat="49.3837" lon="1.38801">
        <ele>89</ele>
        <time>2018-04-15T07:17:30.000Z</time>
      </trkpt>
      <trkpt lat="49.38373" lon="1.38809">
        <ele>89</ele>
        <time>2018-04-15T07:17:33.000Z</time>
      </trkpt>
      <trkpt lat="49.38377" lon="1.38818">
        <ele>90</ele>
        <time>2018-04-15T07:17:36.000Z</time>
      </trkpt>
      <trkpt lat="49.38382" lon="1.38824">
        <ele>90</ele>
        <time>2018-04-15T07:17:39.000Z</time>
      </trkpt>
      <trkpt lat="49.38385" lon="1.38833">
        <ele>91</ele>
        <time>2018-04-15T07:17:42.000Z</time>
      </trkpt>
      <trkpt lat="49.38388" lon="1.38843">
        <ele>87</ele>
        <time>2018-04-15T07:17:45.000Z</time>
      </trkpt>
      <trkpt lat="49.38392" lon="1.38851">
        <ele>87</ele>
        <time>2018-04-15T07:17:48.000Z</time>
      </trkpt>
      <trkpt lat="49.38397" lon="1.38857">
        <ele>87</ele>
        <time>2018-04-15T07:17:51.000Z</time>
      </trkpt>
      <trkpt lat="49.38402" lon="1.38862">
        <ele>87</ele>
        <time>2018-04-15T07:17:54.000Z</time>
      </trkpt>
      <trkpt lat="49.38406" lon="1.38867">
        <ele>87</ele>
        <time>2018-04-15T07:17:57.000Z</time>
      </trkpt>
      <trkpt lat="49.38409" lon="1.38873">
        <ele>87</ele>
        <time>2018-04-15T07:18:00.000Z</time>
      </trkpt>
      <trkpt lat="49.38412" lon="1.38878">
        <ele>86</ele>
        <time>2018-04-15T07:18:03.000Z</time>
      </trkpt>
      <trkpt lat="49.38416" lon="1.38883">
        <ele>86</ele>
        <time>2018-04-15T07:18:06.000Z</time>
      </trkpt>
      <trkpt lat="49.38421" lon="1.38888">
        <ele>95</ele>
        <time>2018-04-15T07:18:09.000Z</time>
      </trkpt>
      <trkpt lat="49.38425" lon="1.38896">
        <ele>94</ele>
        <time>2018-04-15T07:18:12.000Z</time>
      </trkpt>
      <trkpt lat="49.38431" lon="1.38902">
        <ele>94</ele>
        <time>2018-04-15T07:18:15.000Z</time>
      </trkpt>
      <trkpt lat="49.38437" lon="1.38909">
        <ele>94</ele>
        <time>2018-04-15T07:18:18.000Z</time>
      </trkpt>
      <trkpt lat="49.38444" lon="1.38918">
        <ele>90</ele>
        <time>2018-04-15T07:18:21.000Z</time>
      </trkpt>
      <trkpt lat="49.38451" lon="1.38925">
        <ele>90</ele>
        <time>2018-04-15T07:18:24.000Z</time>
      </trkpt>
      <trkpt lat="49.38458" lon="1.3893">
        <ele>91</ele>
        <time>2018-04-15T07:18:27.000Z</time>
      </trkpt>
      <trkpt lat="49.38465" lon="1.38937">
        <ele>91</ele>
        <time>2018-04-15T07:18:30.000Z</time>
      </trkpt>
      <trkpt lat="49.38471" lon="1.3894">
        <ele>92</ele>
        <time>2018-04-15T07:18:33.000Z</time>
      </trkpt>
      <trkpt lat="49.38478" lon="1.38944">
        <ele>92</ele>
        <time>2018-04-15T07:18:36.000Z</time>
      </trkpt>
      <trkpt lat="49.38485" lon="1.38947">
        <ele>92</ele>
        <time>2018-04-15T07:18:39.000Z</time>
      </trkpt>
      <trkpt lat="49.38488" lon="1.3895">
        <ele>92</ele>
        <time>2018-04-15T07:18:41.000Z</time>
      </trkpt>
      <trkpt lat="49.38492" lon="1.38953">
        <ele>92</ele>
        <time>2018-04-15T07:18:43.000Z</time>
      </trkpt>
      <trkpt lat="49.38496" lon="1.38956">
        <ele>92</ele>
        <time>2018-04-15T07:18:45.000Z</time>
      </trkpt>
      <trkpt lat="49.385" lon="1.38959">
        <ele>92</ele>
        <time>2018-04-15T07:18:47.000Z</time>
      </trkpt>
      <trkpt lat="49.38504" lon="1.38961">
        <ele>98</ele>
        <time>2018-04-15T07:18:49.000Z</time>
      </trkpt>
      <trkpt lat="49.38508" lon="1.38964">
        <ele>98</ele>
        <time>2018-04-15T07:18:51.000Z</time>
      </trkpt>
      <trkpt lat="49.38512" lon="1.38967">
        <ele>98</ele>
        <time>2018-04-15T07:18:53.000Z</time>
      </trkpt>
      <trkpt lat="49.38516" lon="1.38971">
        <ele>98</ele>
        <time>2018-04-15T07:18:55.000Z</time>
      </trkpt>
      <trkpt lat="49.38519" lon="1.38974">
        <ele>98</ele>
        <time>2018-04-15T07:18:57.000Z</time>
      </trkpt>
      <trkpt lat="49.38522" lon="1.38976">
        <ele>98</ele>
        <time>2018-04-15T07:18:59.000Z</time>
      </trkpt>
      <trkpt lat="49.38527" lon="1.38979">
        <ele>98</ele>
        <time>2018-04-15T07:19:01.000Z</time>
      </trkpt>
      <trkpt lat="49.3853" lon="1.38983">
        <ele>98</ele>
        <time>2018-04-15T07:19:03.000Z</time>
      </trkpt>
      <trkpt lat="49.38535" lon="1.38985">
        <ele>98</ele>
        <time>2018-04-15T07:19:05.000Z</time>
      </trkpt>
      <trkpt lat="49.38538" lon="1.38988">
        <ele>98</ele>
        <time>2018-04-15T07:19:07.000Z</time>
      </trkpt>
      <trkpt lat="49.3854" lon="1.38992">
        <ele>99</ele>
        <time>2018-04-15T07:19:09.000Z</time>
      </trkpt>
      <trkpt lat="49.38543" lon="1.38995">
        <ele>99</ele>
        <time>2018-04-15T07:19:11.000Z</time>
      </trkpt>
      <trkpt lat="49.38546" lon="1.38998">
        <ele>99</ele>
        <time>2018-04-15T07:19:13.000Z</time>
      </trkpt>
      <trkpt lat="49.38549" lon="1.39">
        <ele>99</ele>
        <time>2018-04-15T07:19:15.000Z</time>
      </trkpt>
      <trkpt lat="49.38554" lon="1.39003">
        <ele>94</ele>
        <time>2018-04-15T07:19:18.000Z</time>
      </trkpt>
      <trkpt lat="49.3856" lon="1.39005">
        <ele>95</ele>
        <time>2018-04-15T07:19:21.000Z</time>
      </trkpt>
      <trkpt lat="49.38565" lon="1.39009">
        <ele>96</ele>
        <time>2018-04-15T07:19:24.000Z</time>
      </trkpt>
      <trkpt lat="49.38571" lon="1.39013">
        <ele>96</ele>
        <time>2018-04-15T07:19:27.000Z</time>
      </trkpt>
      <trkpt lat="49.38576" lon="1.39017">
        <ele>96</ele>
        <time>2018-04-15T07:19:30.000Z</time>
      </trkpt>
      <trkpt lat="49.38581" lon="1.39023">
        <ele>95</ele>
        <time>2018-04-15T07:19:33.000Z</time>
      </trkpt>
      <trkpt lat="49.38587" lon="1.39031">
        <ele>100</ele>
        <time>2018-04-15T07:19:36.000Z</time>
      </trkpt>
      <trkpt lat="49.38592" lon="1.39037">
        <ele>100</ele>
        <time>2018-04-15T07:19:39.000Z</time>
      </trkpt>
      <trkpt lat="49.38596" lon="1.39043">
        <ele>100</ele>
        <time>2018-04-15T07:19:42.000Z</time>
      </trkpt>
      <trkpt lat="49.38602" lon="1.39046">
        <ele>100</ele>
        <time>2018-04-15T07:19:45.000Z</time>
      </trkpt>
      <trkpt lat="49.38608" lon="1.3905">
        <ele>100</ele>
        <time>2018-04-15T07:19:48.000Z</time>
      </trkpt>
      <trkpt lat="49.38614" lon="1.39056">
        <ele>100</ele>
        <time>2018-04-15T07:19:51.000Z</time>
      </trkpt>
      <trkpt lat="49.3862" lon="1.39061">
        <ele>100</ele>
        <time>2018-04-15T07:19:54.000Z</time>
      </trkpt>
      <trkpt lat="49.38624" lon="1.39066">
        <ele>100</ele>
        <time>2018-04-15T07:19:57.000Z</time>
      </trkpt>
      <trkpt lat="49.38627" lon="1.39069">
        <ele>101</ele>
        <time>2018-04-15T07:20:00.000Z</time>
      </trkpt>
      <trkpt lat="49.38631" lon="1.39072">
        <ele>101</ele>
        <time>2018-04-15T07:20:03.000Z</time>
      </trkpt>
      <trkpt lat="49.38635" lon="1.39075">
        <ele>101</ele>
        <time>2018-04-15T07:20:06.000Z</time>
      </trkpt>
      <trkpt lat="49.38641" lon="1.39079">
        <ele>102</ele>
        <time>2018-04-15T07:20:09.000Z</time>
      </trkpt>
      <trkpt lat="49.38647" lon="1.39084">
        <ele>99</ele>
        <time>2018-04-15T07:20:12.000Z</time>
      </trkpt>
      <trkpt lat="49.38653" lon="1.39089">
        <ele>100</ele>
        <time>2018-04-15T07:20:15.000Z</time>
      </trkpt>
      <trkpt lat="49.38658" lon="1.39094">
        <ele>100</ele>
        <time>2018-04-15T07:20:18.000Z</time>
      </trkpt>
      <trkpt lat="49.38662" lon="1.39099">
        <ele>99</ele>
        <time>2018-04-15T07:20:21.000Z</time>
      </trkpt>
      <trkpt lat="49.38666" lon="1.39102">
        <ele>99</ele>
        <time>2018-04-15T07:20:24.000Z</time>
      </trkpt>
      <trkpt lat="49.3867" lon="1.39105">
        <ele>104</ele>
        <time>2018-04-15T07:20:27.000Z</time>
      </trkpt>
      <trkpt lat="49.38673" lon="1.39109">
        <ele>104</ele>
        <time>2018-04-15T07:20:30.000Z</time>
      </trkpt>
      <trkpt lat="49.38678" lon="1.39112">
        <ele>104</ele>
        <time>2018-04-15T07:20:33.000Z</time>
      </trkpt>
      <trkpt lat="49.38686" lon="1.39114">
        <ele>104</ele>
        <time>2018-04-15T07:20:36.000Z</time>
      </trkpt>
      <trkpt lat="49.38692" lon="1.39117">
        <ele>104</ele>
        <time>2018-04-15T07:20:39.000Z</time>
      </trkpt>
      <trkpt lat="49.38699" lon="1.39121">
        <ele>104</ele>
        <time>2018-04-15T07:20:42.000Z</time>
      </trkpt>
      <trkpt lat="49.38706" lon="1.39123">
        <ele>105</ele>
        <time>2018-04-15T07:20:45.000Z</time>
      </trkpt>
      <trkpt lat="49.38712" lon="1.39126">
        <ele>105</ele>
        <time>2018-04-15T07:20:48.000Z</time>
      </trkpt>
      <trkpt lat="49.38718" lon="1.39133">
        <ele>105</ele>
        <time>2018-04-15T07:20:51.000Z</time>
      </trkpt>
      <trkpt lat="49.38724" lon="1.39139">
        <ele>105</ele>
        <time>2018-04-15T07:20:54.000Z</time>
      </trkpt>
      <trkpt lat="49.38727" lon="1.39144">
        <ele>105</ele>
        <time>2018-04-15T07:20:57.000Z</time>
      </trkpt>
      <trkpt lat="49.38732" lon="1.39149">
        <ele>105</ele>
        <time>2018-04-15T07:21:00.000Z</time>
      </trkpt>
      <trkpt lat="49.38738" lon="1.39154">
        <ele>105</ele>
        <time>2018-04-15T07:21:03.000Z</time>
      </trkpt>
      <trkpt lat="49.38742" lon="1.39162">
        <ele>106</ele>
        <time>2018-04-15T07:21:06.000Z</time>
      </trkpt>
      <trkpt lat="49.38749" lon="1.39168">
        <ele>105</ele>
        <time>2018-04-15T07:21:09.000Z</time>
      </trkpt>
      <trkpt lat="49.38755" lon="1.39173">
        <ele>106</ele>
        <time>2018-04-15T07:21:12.000Z</time>
      </trkpt>
      <trkpt lat="49.38762" lon="1.39179">
        <ele>107</ele>
        <time>2018-04-15T07:21:15.000Z</time>
      </trkpt>
      <trkpt lat="49.38769" lon="1.39183">
        <ele>107</ele>
        <time>2018-04-15T07:21:18.000Z</time>
      </trkpt>
      <trkpt lat="49.38775" lon="1.39187">
        <ele>107</ele>
        <time>2018-04-15T07:21:21.000Z</time>
      </trkpt>
      <trkpt lat="49.38782" lon="1.39193">
        <ele>107</ele>
        <time>2018-04-15T07:21:24.000Z</time>
      </trkpt>
      <trkpt lat="49.38789" lon="1.39198">
        <ele>107</ele>
        <time>2018-04-15T07:21:27.000Z</time>
      </trkpt>
      <trkpt lat="49.38794" lon="1.39201">
        <ele>108</ele>
        <time>2018-04-15T07:21:30.000Z</time>
      </trkpt>
      <trkpt lat="49.388" lon="1.39207">
        <ele>108</ele>
        <time>2018-04-15T07:21:33.000Z</time>
      </trkpt>
      <trkpt lat="49.38805" lon="1.39213">
        <ele>108</ele>
        <time>2018-04-15T07:21:36.000Z</time>
      </trkpt>
      <trkpt lat="49.38811" lon="1.39219">
        <ele>108</ele>
        <time>2018-04-15T07:21:39.000Z</time>
      </trkpt>
      <trkpt lat="49.38817" lon="1.39229">
        <ele>108</ele>
        <time>2018-04-15T07:21:42.000Z</time>
      </trkpt>
      <trkpt lat="49.38823" lon="1.39241">
        <ele>109</ele>
        <time>2018-04-15T07:21:45.000Z</time>
      </trkpt>
      <trkpt lat="49.38831" lon="1.39256">
        <ele>107</ele>
        <time>2018-04-15T07:21:48.000Z</time>
      </trkpt>
      <trkpt lat="49.3884" lon="1.39275">
        <ele>110</ele>
        <time>2018-04-15T07:21:51.000Z</time>
      </trkpt>
      <trkpt lat="49.38848" lon="1.39293">
        <ele>109</ele>
        <time>2018-04-15T07:21:54.000Z</time>
      </trkpt>
      <trkpt lat="49.38855" lon="1.39312">
        <ele>108</ele>
        <time>2018-04-15T07:21:57.000Z</time>
      </trkpt>
      <trkpt lat="49.38862" lon="1.3933">
        <ele>108</ele>
        <time>2018-04-15T07:22:00.000Z</time>
      </trkpt>
      <trkpt lat="49.38867" lon="1.39339">
        <ele>105</ele>
        <time>2018-04-15T07:22:03.000Z</time>
      </trkpt>
      <trkpt lat="49.38872" lon="1.39352">
        <ele>105</ele>
        <time>2018-04-15T07:22:06.000Z</time>
      </trkpt>
      <trkpt lat="49.38879" lon="1.39369">
        <ele>105</ele>
        <time>2018-04-15T07:22:09.000Z</time>
      </trkpt>
      <trkpt lat="49.38886" lon="1.39385">
        <ele>105</ele>
        <time>2018-04-15T07:22:12.000Z</time>
      </trkpt>
      <trkpt lat="49.38892" lon="1.39399">
        <ele>105</ele>
        <time>2018-04-15T07:22:15.000Z</time>
      </trkpt>
      <trkpt lat="49.38898" lon="1.39414">
        <ele>106</ele>
        <time>2018-04-15T07:22:18.000Z</time>
      </trkpt>
      <trkpt lat="49.38903" lon="1.39429">
        <ele>103</ele>
        <time>2018-04-15T07:22:21.000Z</time>
      </trkpt>
      <trkpt lat="49.38908" lon="1.39447">
        <ele>101</ele>
        <time>2018-04-15T07:22:24.000Z</time>
      </trkpt>
      <trkpt lat="49.38913" lon="1.39459">
        <ele>101</ele>
        <time>2018-04-15T07:22:27.000Z</time>
      </trkpt>
      <trkpt lat="49.38916" lon="1.39469">
        <ele>101</ele>
        <time>2018-04-15T07:22:30.000Z</time>
      </trkpt>
      <trkpt lat="49.38918" lon="1.39479">
        <ele>108</ele>
        <time>2018-04-15T07:22:33.000Z</time>
      </trkpt>
      <trkpt lat="49.38919" lon="1.39491">
        <ele>106</ele>
        <time>2018-04-15T07:22:36.000Z</time>
      </trkpt>
      <trkpt lat="49.38923" lon="1.39504">
        <ele>105</ele>
        <time>2018-04-15T07:22:39.000Z</time>
      </trkpt>
      <trkpt lat="49.38924" lon="1.39517">
        <ele>105</ele>
        <time>2018-04-15T07:22:42.000Z</time>
      </trkpt>
      <trkpt lat="49.38926" lon="1.3953">
        <ele>105</ele>
        <time>2018-04-15T07:22:45.000Z</time>
      </trkpt>
      <trkpt lat="49.3893" lon="1.39541">
        <ele>105</ele>
        <time>2018-04-15T07:22:48.000Z</time>
      </trkpt>
      <trkpt lat="49.38933" lon="1.39552">
        <ele>105</ele>
        <time>2018-04-15T07:22:51.000Z</time>
      </trkpt>
      <trkpt lat="49.38934" lon="1.3956">
        <ele>104</ele>
        <time>2018-04-15T07:22:54.000Z</time>
      </trkpt>
      <trkpt lat="49.38937" lon="1.39569">
        <ele>104</ele>
        <time>2018-04-15T07:22:57.000Z</time>
      </trkpt>
      <trkpt lat="49.3894" lon="1.39577">
        <ele>104</ele>
        <time>2018-04-15T07:23:00.000Z</time>
      </trkpt>
      <trkpt lat="49.38943" lon="1.39586">
        <ele>102</ele>
        <time>2018-04-15T07:23:03.000Z</time>
      </trkpt>
      <trkpt lat="49.38945" lon="1.39595">
        <ele>102</ele>
        <time>2018-04-15T07:23:06.000Z</time>
      </trkpt>
      <trkpt lat="49.38948" lon="1.39604">
        <ele>102</ele>
        <time>2018-04-15T07:23:09.000Z</time>
      </trkpt>
      <trkpt lat="49.38951" lon="1.39612">
        <ele>103</ele>
        <time>2018-04-15T07:23:12.000Z</time>
      </trkpt>
      <trkpt lat="49.38953" lon="1.3962">
        <ele>103</ele>
        <time>2018-04-15T07:23:15.000Z</time>
      </trkpt>
      <trkpt lat="49.38958" lon="1.39629">
        <ele>103</ele>
        <time>2018-04-15T07:23:18.000Z</time>
      </trkpt>
      <trkpt lat="49.38961" lon="1.39639">
        <ele>103</ele>
        <time>2018-04-15T07:23:21.000Z</time>
      </trkpt>
      <trkpt lat="49.38964" lon="1.39647">
        <ele>103</ele>
        <time>2018-04-15T07:23:24.000Z</time>
      </trkpt>
      <trkpt lat="49.38969" lon="1.39651">
        <ele>103</ele>
        <time>2018-04-15T07:23:27.000Z</time>
      </trkpt>
      <trkpt lat="49.38975" lon="1.39658">
        <ele>104</ele>
        <time>2018-04-15T07:23:30.000Z</time>
      </trkpt>
      <trkpt lat="49.38981" lon="1.39668">
        <ele>103</ele>
        <time>2018-04-15T07:23:33.000Z</time>
      </trkpt>
      <trkpt lat="49.38985" lon="1.39684">
        <ele>103</ele>
        <time>2018-04-15T07:23:36.000Z</time>
      </trkpt>
      <trkpt lat="49.38989" lon="1.39698">
        <ele>102</ele>
        <time>2018-04-15T07:23:39.000Z</time>
      </trkpt>
      <trkpt lat="49.38994" lon="1.3971">
        <ele>102</ele>
        <time>2018-04-15T07:23:42.000Z</time>
      </trkpt>
      <trkpt lat="49.39" lon="1.39723">
        <ele>103</ele>
        <time>2018-04-15T07:23:45.000Z</time>
      </trkpt>
      <trkpt lat="49.39004" lon="1.39733">
        <ele>106</ele>
        <time>2018-04-15T07:23:48.000Z</time>
      </trkpt>
      <trkpt lat="49.39008" lon="1.39744">
        <ele>106</ele>
        <time>2018-04-15T07:23:51.000Z</time>
      </trkpt>
      <trkpt lat="49.39011" lon="1.39751">
        <ele>105</ele>
        <time>2018-04-15T07:23:54.000Z</time>
      </trkpt>
      <trkpt lat="49.39013" lon="1.39757">
        <ele>105</ele>
        <time>2018-04-15T07:23:57.000Z</time>
      </trkpt>
      <trkpt lat="49.39017" lon="1.39766">
        <ele>105</ele>
        <time>2018-04-15T07:24:00.000Z</time>
      </trkpt>
      <trkpt lat="49.39023" lon="1.3978">
        <ele>105</ele>
        <time>2018-04-15T07:24:03.000Z</time>
      </trkpt>
      <trkpt lat="49.39031" lon="1.39794">
        <ele>105</ele>
        <time>2018-04-15T07:24:06.000Z</time>
      </trkpt>
      <trkpt lat="49.39039" lon="1.39811">
        <ele>105</ele>
        <time>2018-04-15T07:24:09.000Z</time>
      </trkpt>
      <trkpt lat="49.39048" lon="1.39828">
        <ele>105</ele>
        <time>2018-04-15T07:24:12.000Z</time>
      </trkpt>
      <trkpt lat="49.39056" lon="1.39841">
        <ele>103</ele>
        <time>2018-04-15T07:24:15.000Z</time>
      </trkpt>
      <trkpt lat="49.39067" lon="1.39855">
        <ele>103</ele>
        <time>2018-04-15T07:24:18.000Z</time>
      </trkpt>
      <trkpt lat="49.39077" lon="1.39867">
        <ele>103</ele>
        <time>2018-04-15T07:24:21.000Z</time>
      </trkpt>
      <trkpt lat="49.39081" lon="1.39883">
        <ele>102</ele>
        <time>2018-04-15T07:24:24.000Z</time>
      </trkpt>
      <trkpt lat="49.39084" lon="1.39897">
        <ele>102</ele>
        <time>2018-04-15T07:24:27.000Z</time>
      </trkpt>
      <trkpt lat="49.39087" lon="1.3991">
        <ele>101</ele>
        <time>2018-04-15T07:24:30.000Z</time>
      </trkpt>
      <trkpt lat="49.39092" lon="1.39922">
        <ele>99</ele>
        <time>2018-04-15T07:24:33.000Z</time>
      </trkpt>
      <trkpt lat="49.391" lon="1.39941">
        <ele>98</ele>
        <time>2018-04-15T07:24:36.000Z</time>
      </trkpt>
      <trkpt lat="49.39109" lon="1.39991">
        <ele>95</ele>
        <time>2018-04-15T07:24:40.000Z</time>
      </trkpt>
      <trkpt lat="49.39113" lon="1.40018">
        <ele>90</ele>
        <time>2018-04-15T07:24:43.000Z</time>
      </trkpt>
      <trkpt lat="49.39122" lon="1.40039">
        <ele>89</ele>
        <time>2018-04-15T07:24:46.000Z</time>
      </trkpt>
      <trkpt lat="49.39127" lon="1.40066">
        <ele>88</ele>
        <time>2018-04-15T07:24:49.000Z</time>
      </trkpt>
      <trkpt lat="49.39132" lon="1.4008">
        <ele>88</ele>
        <time>2018-04-15T07:24:52.000Z</time>
      </trkpt>
      <trkpt lat="49.3915" lon="1.40107">
        <ele>83</ele>
        <time>2018-04-15T07:24:56.000Z</time>
      </trkpt>
      <trkpt lat="49.39157" lon="1.40121">
        <ele>82</ele>
        <time>2018-04-15T07:24:59.000Z</time>
      </trkpt>
      <trkpt lat="49.39162" lon="1.40131">
        <ele>81</ele>
        <time>2018-04-15T07:25:02.000Z</time>
      </trkpt>
      <trkpt lat="49.39169" lon="1.40144">
        <ele>82</ele>
        <time>2018-04-15T07:25:05.000Z</time>
      </trkpt>
      <trkpt lat="49.39173" lon="1.40153">
        <ele>81</ele>
        <time>2018-04-15T07:25:08.000Z</time>
      </trkpt>
      <trkpt lat="49.39177" lon="1.4016">
        <ele>81</ele>
        <time>2018-04-15T07:25:11.000Z</time>
      </trkpt>
      <trkpt lat="49.39182" lon="1.40168">
        <ele>78</ele>
        <time>2018-04-15T07:25:14.000Z</time>
      </trkpt>
      <trkpt lat="49.39184" lon="1.40173">
        <ele>78</ele>
        <time>2018-04-15T07:25:17.000Z</time>
      </trkpt>
      <trkpt lat="49.39179" lon="1.4018">
        <ele>78</ele>
        <time>2018-04-15T07:25:20.000Z</time>
      </trkpt>
      <trkpt lat="49.39172" lon="1.4019">
        <ele>77</ele>
        <time>2018-04-15T07:25:23.000Z</time>
      </trkpt>
      <trkpt lat="49.39166" lon="1.40201">
        <ele>74</ele>
        <time>2018-04-15T07:25:26.000Z</time>
      </trkpt>
      <trkpt lat="49.39166" lon="1.40211">
        <ele>73</ele>
        <time>2018-04-15T07:25:29.000Z</time>
      </trkpt>
      <trkpt lat="49.39166" lon="1.40218">
        <ele>72</ele>
        <time>2018-04-15T07:25:31.000Z</time>
      </trkpt>
      <trkpt lat="49.39166" lon="1.40226">
        <ele>72</ele>
        <time>2018-04-15T07:25:33.000Z</time>
      </trkpt>
      <trkpt lat="49.39165" lon="1.40236">
        <ele>71</ele>
        <time>2018-04-15T07:25:35.000Z</time>
      </trkpt>
      <trkpt lat="49.39165" lon="1.40245">
        <ele>70</ele>
        <time>2018-04-15T07:25:37.000Z</time>
      </trkpt>
      <trkpt lat="49.39165" lon="1.40256">
        <ele>69</ele>
        <time>2018-04-15T07:25:39.000Z</time>
      </trkpt>
      <trkpt lat="49.39167" lon="1.40265">
        <ele>70</ele>
        <time>2018-04-15T07:25:41.000Z</time>
      </trkpt>
      <trkpt lat="49.39171" lon="1.40271">
        <ele>70</ele>
        <time>2018-04-15T07:25:43.000Z</time>
      </trkpt>
      <trkpt lat="49.39175" lon="1.40278">
        <ele>70</ele>
        <time>2018-04-15T07:25:45.000Z</time>
      </trkpt>
      <trkpt lat="49.39177" lon="1.40284">
        <ele>70</ele>
        <time>2018-04-15T07:25:47.000Z</time>
      </trkpt>
      <trkpt lat="49.39177" lon="1.4029">
        <ele>70</ele>
        <time>2018-04-15T07:25:49.000Z</time>
      </trkpt>
      <trkpt lat="49.39177" lon="1.40294">
        <ele>70</ele>
        <time>2018-04-15T07:25:51.000Z</time>
      </trkpt>
      <trkpt lat="49.39177" lon="1.40299">
        <ele>70</ele>
        <time>2018-04-15T07:25:53.000Z</time>
      </trkpt>
      <trkpt lat="49.39177" lon="1.40302">
        <ele>70</ele>
        <time>2018-04-15T07:25:55.000Z</time>
      </trkpt>
      <trkpt lat="49.39174" lon="1.40308">
        <ele>70</ele>
        <time>2018-04-15T07:25:59.000Z</time>
      </trkpt>
      <trkpt lat="49.39174" lon="1.40312">
        <ele>70</ele>
        <time>2018-04-15T07:26:01.000Z</time>
      </trkpt>
      <trkpt lat="49.39173" lon="1.40314">
        <ele>70</ele>
        <time>2018-04-15T07:26:03.000Z</time>
      </trkpt>
      <trkpt lat="49.39172" lon="1.40322">
        <ele>69</ele>
        <time>2018-04-15T07:26:06.000Z</time>
      </trkpt>
      <trkpt lat="49.39173" lon="1.40321">
        <ele>69</ele>
        <time>2018-04-15T07:26:23.000Z</time>
      </trkpt>
      <trkpt lat="49.39174" lon="1.40321">
        <ele>69</ele>
        <time>2018-04-15T07:26:30.000Z</time>
      </trkpt>
      <trkpt lat="49.39176" lon="1.40322">
        <ele>69</ele>
        <time>2018-04-15T07:26:33.000Z</time>
      </trkpt>
      <trkpt lat="49.39179" lon="1.40321">
        <ele>69</ele>
        <time>2018-04-15T07:26:36.000Z</time>
      </trkpt>
      <trkpt lat="49.39179" lon="1.4032">
        <ele>69</ele>
        <time>2018-04-15T07:26:39.000Z</time>
      </trkpt>
      <trkpt lat="49.39177" lon="1.40322">
        <ele>69</ele>
        <time>2018-04-15T07:26:42.000Z</time>
      </trkpt>
      <trkpt lat="49.39177" lon="1.40324">
        <ele>69</ele>
        <time>2018-04-15T07:27:00.000Z</time>
      </trkpt>
      <trkpt lat="49.39176" lon="1.40325">
        <ele>69</ele>
        <time>2018-04-15T07:27:04.000Z</time>
      </trkpt>
      <trkpt lat="49.39173" lon="1.40326">
        <ele>69</ele>
        <time>2018-04-15T07:27:07.000Z</time>
      </trkpt>
      <trkpt lat="49.39171" lon="1.40325">
        <ele>69</ele>
        <time>2018-04-15T07:27:10.000Z</time>
      </trkpt>
      <trkpt lat="49.39173" lon="1.40323">
        <ele>69</ele>
        <time>2018-04-15T07:27:15.000Z</time>
      </trkpt>
      <trkpt lat="49.39174" lon="1.40324">
        <ele>69</ele>
        <time>2018-04-15T07:27:18.000Z</time>
      </trkpt>
      <trkpt lat="49.39174" lon="1.40324">
        <ele>69</ele>
        <time>2018-04-15T07:27:38.000Z</time>
      </trkpt>
      <trkpt lat="49.39175" lon="1.40325">
        <ele>69</ele>
        <time>2018-04-15T07:27:57.000Z</time>
      </trkpt>
      <trkpt lat="49.39175" lon="1.40325">
        <ele>69</ele>
        <time>2018-04-15T07:28:17.000Z</time>
      </trkpt>
      <trkpt lat="49.39178" lon="1.40324">
        <ele>69</ele>
        <time>2018-04-15T07:28:37.000Z</time>
      </trkpt>
      <trkpt lat="49.39179" lon="1.40326">
        <ele>69</ele>
        <time>2018-04-15T07:28:47.000Z</time>
      </trkpt>
      <trkpt lat="49.39177" lon="1.40323">
        <ele>69</ele>
        <time>2018-04-15T07:28:55.000Z</time>
      </trkpt>
      <trkpt lat="49.39177" lon="1.4032">
        <ele>69</ele>
        <time>2018-04-15T07:28:58.000Z</time>
      </trkpt>
      <trkpt lat="49.39178" lon="1.40319">
        <ele>69</ele>
        <time>2018-04-15T07:29:01.000Z</time>
      </trkpt>
      <trkpt lat="49.39177" lon="1.40318">
        <ele>69</ele>
        <time>2018-04-15T07:29:08.000Z</time>
      </trkpt>
      <trkpt lat="49.39175" lon="1.40318">
        <ele>69</ele>
        <time>2018-04-15T07:29:13.000Z</time>
      </trkpt>
      <trkpt lat="49.39174" lon="1.40321">
        <ele>69</ele>
        <time>2018-04-15T07:29:16.000Z</time>
      </trkpt>
      <trkpt lat="49.3917" lon="1.40327">
        <ele>69</ele>
        <time>2018-04-15T07:29:19.000Z</time>
      </trkpt>
      <trkpt lat="49.39168" lon="1.40329">
        <ele>68</ele>
        <time>2018-04-15T07:29:22.000Z</time>
      </trkpt>
      <trkpt lat="49.39168" lon="1.40335">
        <ele>68</ele>
        <time>2018-04-15T07:29:26.000Z</time>
      </trkpt>
      <trkpt lat="49.39168" lon="1.40339">
        <ele>69</ele>
        <time>2018-04-15T07:29:29.000Z</time>
      </trkpt>
      <trkpt lat="49.39171" lon="1.40341">
        <ele>69</ele>
        <time>2018-04-15T07:29:32.000Z</time>
      </trkpt>
      <trkpt lat="49.39174" lon="1.40341">
        <ele>69</ele>
        <time>2018-04-15T07:29:35.000Z</time>
      </trkpt>
      <trkpt lat="49.39175" lon="1.40342">
        <ele>69</ele>
        <time>2018-04-15T07:29:38.000Z</time>
      </trkpt>
      <trkpt lat="49.39176" lon="1.40343">
        <ele>69</ele>
        <time>2018-04-15T07:29:41.000Z</time>
      </trkpt>
      <trkpt lat="49.39177" lon="1.40346">
        <ele>70</ele>
        <time>2018-04-15T07:29:44.000Z</time>
      </trkpt>
      <trkpt lat="49.39174" lon="1.40346">
        <ele>69</ele>
        <time>2018-04-15T07:29:47.000Z</time>
      </trkpt>
      <trkpt lat="49.39172" lon="1.40344">
        <ele>69</ele>
        <time>2018-04-15T07:29:50.000Z</time>
      </trkpt>
      <trkpt lat="49.39171" lon="1.40333">
        <ele>69</ele>
        <time>2018-04-15T07:29:53.000Z</time>
      </trkpt>
      <trkpt lat="49.39169" lon="1.40333">
        <ele>68</ele>
        <time>2018-04-15T07:29:56.000Z</time>
      </trkpt>
      <trkpt lat="49.39169" lon="1.40336">
        <ele>68</ele>
        <time>2018-04-15T07:29:59.000Z</time>
      </trkpt>
      <trkpt lat="49.39167" lon="1.4034">
        <ele>69</ele>
        <time>2018-04-15T07:30:02.000Z</time>
      </trkpt>
      <trkpt lat="49.39165" lon="1.40344">
        <ele>70</ele>
        <time>2018-04-15T07:30:05.000Z</time>
      </trkpt>
      <trkpt lat="49.39162" lon="1.40343">
        <ele>70</ele>
        <time>2018-04-15T07:30:08.000Z</time>
      </trkpt>
      <trkpt lat="49.39159" lon="1.40344">
        <ele>70</ele>
        <time>2018-04-15T07:30:11.000Z</time>
      </trkpt>
      <trkpt lat="49.39154" lon="1.40344">
        <ele>70</ele>
        <time>2018-04-15T07:30:14.000Z</time>
      </trkpt>
      <trkpt lat="49.39151" lon="1.40349">
        <ele>71</ele>
        <time>2018-04-15T07:30:17.000Z</time>
      </trkpt>
      <trkpt lat="49.39148" lon="1.40351">
        <ele>71</ele>
        <time>2018-04-15T07:30:20.000Z</time>
      </trkpt>
      <trkpt lat="49.39146" lon="1.40352">
        <ele>71</ele>
        <time>2018-04-15T07:30:23.000Z</time>
      </trkpt>
      <trkpt lat="49.39143" lon="1.40354">
        <ele>71</ele>
        <time>2018-04-15T07:30:26.000Z</time>
      </trkpt>
      <trkpt lat="49.3914" lon="1.40356">
        <ele>71</ele>
        <time>2018-04-15T07:30:29.000Z</time>
      </trkpt>
      <trkpt lat="49.39137" lon="1.40358">
        <ele>72</ele>
        <time>2018-04-15T07:30:32.000Z</time>
      </trkpt>
      <trkpt lat="49.39133" lon="1.40361">
        <ele>72</ele>
        <time>2018-04-15T07:30:35.000Z</time>
      </trkpt>
      <trkpt lat="49.39128" lon="1.40362">
        <ele>72</ele>
        <time>2018-04-15T07:30:38.000Z</time>
      </trkpt>
      <trkpt lat="49.39123" lon="1.40363">
        <ele>72</ele>
        <time>2018-04-15T07:30:41.000Z</time>
      </trkpt>
      <trkpt lat="49.39117" lon="1.40363">
        <ele>72</ele>
        <time>2018-04-15T07:30:44.000Z</time>
      </trkpt>
      <trkpt lat="49.39113" lon="1.40365">
        <ele>72</ele>
        <time>2018-04-15T07:30:47.000Z</time>
      </trkpt>
      <trkpt lat="49.39107" lon="1.40365">
        <ele>73</ele>
        <time>2018-04-15T07:30:50.000Z</time>
      </trkpt>
      <trkpt lat="49.391" lon="1.40365">
        <ele>73</ele>
        <time>2018-04-15T07:30:53.000Z</time>
      </trkpt>
      <trkpt lat="49.39093" lon="1.40367">
        <ele>73</ele>
        <time>2018-04-15T07:30:56.000Z</time>
      </trkpt>
      <trkpt lat="49.39087" lon="1.40367">
        <ele>73</ele>
        <time>2018-04-15T07:30:59.000Z</time>
      </trkpt>
      <trkpt lat="49.39081" lon="1.40369">
        <ele>76</ele>
        <time>2018-04-15T07:31:02.000Z</time>
      </trkpt>
      <trkpt lat="49.39075" lon="1.40373">
        <ele>77</ele>
        <time>2018-04-15T07:31:05.000Z</time>
      </trkpt>
      <trkpt lat="49.39071" lon="1.40376">
        <ele>77</ele>
        <time>2018-04-15T07:31:08.000Z</time>
      </trkpt>
      <trkpt lat="49.39066" lon="1.40379">
        <ele>78</ele>
        <time>2018-04-15T07:31:11.000Z</time>
      </trkpt>
      <trkpt lat="49.39062" lon="1.40381">
        <ele>78</ele>
        <time>2018-04-15T07:31:14.000Z</time>
      </trkpt>
      <trkpt lat="49.39059" lon="1.40383">
        <ele>78</ele>
        <time>2018-04-15T07:31:17.000Z</time>
      </trkpt>
      <trkpt lat="49.39055" lon="1.40386">
        <ele>79</ele>
        <time>2018-04-15T07:31:20.000Z</time>
      </trkpt>
      <trkpt lat="49.39051" lon="1.40389">
        <ele>79</ele>
        <time>2018-04-15T07:31:23.000Z</time>
      </trkpt>
      <trkpt lat="49.39048" lon="1.40392">
        <ele>79</ele>
        <time>2018-04-15T07:31:26.000Z</time>
      </trkpt>
      <trkpt lat="49.39045" lon="1.40394">
        <ele>79</ele>
        <time>2018-04-15T07:31:29.000Z</time>
      </trkpt>
      <trkpt lat="49.39041" lon="1.40396">
        <ele>80</ele>
        <time>2018-04-15T07:31:32.000Z</time>
      </trkpt>
      <trkpt lat="49.39038" lon="1.40398">
        <ele>80</ele>
        <time>2018-04-15T07:31:35.000Z</time>
      </trkpt>
      <trkpt lat="49.39034" lon="1.40401">
        <ele>81</ele>
        <time>2018-04-15T07:31:38.000Z</time>
      </trkpt>
      <trkpt lat="49.39027" lon="1.40406">
        <ele>81</ele>
        <time>2018-04-15T07:31:41.000Z</time>
      </trkpt>
      <trkpt lat="49.39021" lon="1.40408">
        <ele>82</ele>
        <time>2018-04-15T07:31:44.000Z</time>
      </trkpt>
      <trkpt lat="49.39015" lon="1.40409">
        <ele>83</ele>
        <time>2018-04-15T07:31:47.000Z</time>
      </trkpt>
      <trkpt lat="49.39011" lon="1.40413">
        <ele>84</ele>
        <time>2018-04-15T07:31:50.000Z</time>
      </trkpt>
      <trkpt lat="49.39003" lon="1.40417">
        <ele>88</ele>
        <time>2018-04-15T07:31:53.000Z</time>
      </trkpt>
      <trkpt lat="49.38999" lon="1.40419">
        <ele>89</ele>
        <time>2018-04-15T07:31:56.000Z</time>
      </trkpt>
      <trkpt lat="49.38995" lon="1.4042">
        <ele>90</ele>
        <time>2018-04-15T07:31:59.000Z</time>
      </trkpt>
      <trkpt lat="49.38993" lon="1.40422">
        <ele>91</ele>
        <time>2018-04-15T07:32:02.000Z</time>
      </trkpt>
      <trkpt lat="49.38991" lon="1.40424">
        <ele>92</ele>
        <time>2018-04-15T07:32:05.000Z</time>
      </trkpt>
      <trkpt lat="49.3899" lon="1.40425">
        <ele>92</ele>
        <time>2018-04-15T07:32:09.000Z</time>
      </trkpt>
      <trkpt lat="49.38988" lon="1.40425">
        <ele>92</ele>
        <time>2018-04-15T07:32:12.000Z</time>
      </trkpt>
      <trkpt lat="49.38985" lon="1.40426">
        <ele>93</ele>
        <time>2018-04-15T07:32:15.000Z</time>
      </trkpt>
      <trkpt lat="49.38982" lon="1.40427">
        <ele>94</ele>
        <time>2018-04-15T07:32:18.000Z</time>
      </trkpt>
      <trkpt lat="49.38978" lon="1.40428">
        <ele>94</ele>
        <time>2018-04-15T07:32:21.000Z</time>
      </trkpt>
      <trkpt lat="49.38976" lon="1.40429">
        <ele>95</ele>
        <time>2018-04-15T07:32:24.000Z</time>
      </trkpt>
      <trkpt lat="49.38974" lon="1.4043">
        <ele>95</ele>
        <time>2018-04-15T07:32:27.000Z</time>
      </trkpt>
      <trkpt lat="49.38973" lon="1.4043">
        <ele>95</ele>
        <time>2018-04-15T07:32:30.000Z</time>
      </trkpt>
      <trkpt lat="49.38971" lon="1.4043">
        <ele>95</ele>
        <time>2018-04-15T07:32:33.000Z</time>
      </trkpt>
      <trkpt lat="49.38969" lon="1.40432">
        <ele>95</ele>
        <time>2018-04-15T07:32:36.000Z</time>
      </trkpt>
      <trkpt lat="49.38966" lon="1.40431">
        <ele>96</ele>
        <time>2018-04-15T07:32:39.000Z</time>
      </trkpt>
      <trkpt lat="49.38962" lon="1.40433">
        <ele>96</ele>
        <time>2018-04-15T07:32:42.000Z</time>
      </trkpt>
      <trkpt lat="49.38961" lon="1.40434">
        <ele>96</ele>
        <time>2018-04-15T07:32:45.000Z</time>
      </trkpt>
      <trkpt lat="49.38959" lon="1.40434">
        <ele>96</ele>
        <time>2018-04-15T07:32:48.000Z</time>
      </trkpt>
      <trkpt lat="49.38956" lon="1.40434">
        <ele>96</ele>
        <time>2018-04-15T07:32:51.000Z</time>
      </trkpt>
      <trkpt lat="49.38953" lon="1.40436">
        <ele>97</ele>
        <time>2018-04-15T07:32:54.000Z</time>
      </trkpt>
      <trkpt lat="49.38949" lon="1.40439">
        <ele>97</ele>
        <time>2018-04-15T07:32:57.000Z</time>
      </trkpt>
      <trkpt lat="49.38947" lon="1.40441">
        <ele>97</ele>
        <time>2018-04-15T07:33:00.000Z</time>
      </trkpt>
      <trkpt lat="49.38945" lon="1.40443">
        <ele>97</ele>
        <time>2018-04-15T07:33:02.000Z</time>
      </trkpt>
      <trkpt lat="49.38943" lon="1.40445">
        <ele>97</ele>
        <time>2018-04-15T07:33:04.000Z</time>
      </trkpt>
      <trkpt lat="49.38942" lon="1.40446">
        <ele>98</ele>
        <time>2018-04-15T07:33:06.000Z</time>
      </trkpt>
      <trkpt lat="49.38941" lon="1.40447">
        <ele>98</ele>
        <time>2018-04-15T07:33:08.000Z</time>
      </trkpt>
      <trkpt lat="49.3894" lon="1.40449">
        <ele>98</ele>
        <time>2018-04-15T07:33:11.000Z</time>
      </trkpt>
      <trkpt lat="49.38938" lon="1.40451">
        <ele>98</ele>
        <time>2018-04-15T07:33:13.000Z</time>
      </trkpt>
      <trkpt lat="49.38936" lon="1.40453">
        <ele>98</ele>
        <time>2018-04-15T07:33:15.000Z</time>
      </trkpt>
      <trkpt lat="49.38934" lon="1.40454">
        <ele>98</ele>
        <time>2018-04-15T07:33:17.000Z</time>
      </trkpt>
      <trkpt lat="49.38932" lon="1.40454">
        <ele>98</ele>
        <time>2018-04-15T07:33:19.000Z</time>
      </trkpt>
      <trkpt lat="49.3893" lon="1.40456">
        <ele>99</ele>
        <time>2018-04-15T07:33:21.000Z</time>
      </trkpt>
      <trkpt lat="49.38928" lon="1.40457">
        <ele>99</ele>
        <time>2018-04-15T07:33:23.000Z</time>
      </trkpt>
      <trkpt lat="49.38927" lon="1.40458">
        <ele>99</ele>
        <time>2018-04-15T07:33:25.000Z</time>
      </trkpt>
      <trkpt lat="49.38925" lon="1.40459">
        <ele>99</ele>
        <time>2018-04-15T07:33:27.000Z</time>
      </trkpt>
      <trkpt lat="49.38924" lon="1.4046">
        <ele>99</ele>
        <time>2018-04-15T07:33:29.000Z</time>
      </trkpt>
      <trkpt lat="49.38922" lon="1.40461">
        <ele>99</ele>
        <time>2018-04-15T07:33:31.000Z</time>
      </trkpt>
      <trkpt lat="49.3892" lon="1.40462">
        <ele>99</ele>
        <time>2018-04-15T07:33:33.000Z</time>
      </trkpt>
      <trkpt lat="49.38919" lon="1.40463">
        <ele>100</ele>
        <time>2018-04-15T07:33:35.000Z</time>
      </trkpt>
      <trkpt lat="49.38917" lon="1.40463">
        <ele>100</ele>
        <time>2018-04-15T07:33:38.000Z</time>
      </trkpt>
      <trkpt lat="49.38914" lon="1.40465">
        <ele>104</ele>
        <time>2018-04-15T07:33:41.000Z</time>
      </trkpt>
      <trkpt lat="49.38911" lon="1.40465">
        <ele>104</ele>
        <time>2018-04-15T07:33:44.000Z</time>
      </trkpt>
      <trkpt lat="49.38908" lon="1.40467">
        <ele>104</ele>
        <time>2018-04-15T07:33:47.000Z</time>
      </trkpt>
      <trkpt lat="49.38904" lon="1.40471">
        <ele>104</ele>
        <time>2018-04-15T07:33:50.000Z</time>
      </trkpt>
      <trkpt lat="49.389" lon="1.40473">
        <ele>104</ele>
        <time>2018-04-15T07:33:53.000Z</time>
      </trkpt>
      <trkpt lat="49.38897" lon="1.40476">
        <ele>105</ele>
        <time>2018-04-15T07:33:56.000Z</time>
      </trkpt>
      <trkpt lat="49.38894" lon="1.40478">
        <ele>105</ele>
        <time>2018-04-15T07:33:59.000Z</time>
      </trkpt>
      <trkpt lat="49.3889" lon="1.40479">
        <ele>105</ele>
        <time>2018-04-15T07:34:02.000Z</time>
      </trkpt>
      <trkpt lat="49.38888" lon="1.4048">
        <ele>105</ele>
        <time>2018-04-15T07:34:05.000Z</time>
      </trkpt>
      <trkpt lat="49.38887" lon="1.40482">
        <ele>105</ele>
        <time>2018-04-15T07:34:08.000Z</time>
      </trkpt>
      <trkpt lat="49.38886" lon="1.40481">
        <ele>105</ele>
        <time>2018-04-15T07:34:14.000Z</time>
      </trkpt>
      <trkpt lat="49.38884" lon="1.4048">
        <ele>105</ele>
        <time>2018-04-15T07:34:17.000Z</time>
      </trkpt>
      <trkpt lat="49.38882" lon="1.4048">
        <ele>105</ele>
        <time>2018-04-15T07:34:21.000Z</time>
      </trkpt>
      <trkpt lat="49.3888" lon="1.40482">
        <ele>105</ele>
        <time>2018-04-15T07:34:24.000Z</time>
      </trkpt>
      <trkpt lat="49.38879" lon="1.40483">
        <ele>105</ele>
        <time>2018-04-15T07:34:27.000Z</time>
      </trkpt>
      <trkpt lat="49.38881" lon="1.40482">
        <ele>105</ele>
        <time>2018-04-15T07:34:30.000Z</time>
      </trkpt>
      <trkpt lat="49.38882" lon="1.4048">
        <ele>105</ele>
        <time>2018-04-15T07:34:33.000Z</time>
      </trkpt>
      <trkpt lat="49.38879" lon="1.40478">
        <ele>105</ele>
        <time>2018-04-15T07:34:36.000Z</time>
      </trkpt>
      <trkpt lat="49.38873" lon="1.4048">
        <ele>105</ele>
        <time>2018-04-15T07:34:39.000Z</time>
      </trkpt>
      <trkpt lat="49.38871" lon="1.40487">
        <ele>105</ele>
        <time>2018-04-15T07:34:42.000Z</time>
      </trkpt>
      <trkpt lat="49.38868" lon="1.40491">
        <ele>106</ele>
        <time>2018-04-15T07:34:45.000Z</time>
      </trkpt>
      <trkpt lat="49.38866" lon="1.40493">
        <ele>106</ele>
        <time>2018-04-15T07:34:48.000Z</time>
      </trkpt>
      <trkpt lat="49.38864" lon="1.40496">
        <ele>106</ele>
        <time>2018-04-15T07:34:51.000Z</time>
      </trkpt>
      <trkpt lat="49.38861" lon="1.40497">
        <ele>106</ele>
        <time>2018-04-15T07:34:54.000Z</time>
      </trkpt>
      <trkpt lat="49.38858" lon="1.40498">
        <ele>107</ele>
        <time>2018-04-15T07:34:57.000Z</time>
      </trkpt>
      <trkpt lat="49.38856" lon="1.40498">
        <ele>107</ele>
        <time>2018-04-15T07:35:00.000Z</time>
      </trkpt>
      <trkpt lat="49.38853" lon="1.40498">
        <ele>107</ele>
        <time>2018-04-15T07:35:03.000Z</time>
      </trkpt>
      <trkpt lat="49.38849" lon="1.40497">
        <ele>107</ele>
        <time>2018-04-15T07:35:06.000Z</time>
      </trkpt>
      <trkpt lat="49.38845" lon="1.40498">
        <ele>108</ele>
        <time>2018-04-15T07:35:09.000Z</time>
      </trkpt>
      <trkpt lat="49.38842" lon="1.40502">
        <ele>110</ele>
        <time>2018-04-15T07:35:12.000Z</time>
      </trkpt>
      <trkpt lat="49.38838" lon="1.40505">
        <ele>110</ele>
        <time>2018-04-15T07:35:15.000Z</time>
      </trkpt>
      <trkpt lat="49.38834" lon="1.40508">
        <ele>110</ele>
        <time>2018-04-15T07:35:18.000Z</time>
      </trkpt>
      <trkpt lat="49.38831" lon="1.4051">
        <ele>111</ele>
        <time>2018-04-15T07:35:21.000Z</time>
      </trkpt>
      <trkpt lat="49.38826" lon="1.40511">
        <ele>112</ele>
        <time>2018-04-15T07:35:24.000Z</time>
      </trkpt>
      <trkpt lat="49.38822" lon="1.40512">
        <ele>112</ele>
        <time>2018-04-15T07:35:27.000Z</time>
      </trkpt>
      <trkpt lat="49.38819" lon="1.40513">
        <ele>112</ele>
        <time>2018-04-15T07:35:30.000Z</time>
      </trkpt>
      <trkpt lat="49.38818" lon="1.40516">
        <ele>113</ele>
        <time>2018-04-15T07:35:33.000Z</time>
      </trkpt>
      <trkpt lat="49.38815" lon="1.40518">
        <ele>113</ele>
        <time>2018-04-15T07:35:36.000Z</time>
      </trkpt>
      <trkpt lat="49.38814" lon="1.40519">
        <ele>113</ele>
        <time>2018-04-15T07:35:38.000Z</time>
      </trkpt>
      <trkpt lat="49.38811" lon="1.40519">
        <ele>113</ele>
        <time>2018-04-15T07:35:40.000Z</time>
      </trkpt>
      <trkpt lat="49.38808" lon="1.4052">
        <ele>113</ele>
        <time>2018-04-15T07:35:42.000Z</time>
      </trkpt>
      <trkpt lat="49.38804" lon="1.4052">
        <ele>113</ele>
        <time>2018-04-15T07:35:44.000Z</time>
      </trkpt>
      <trkpt lat="49.38802" lon="1.40522">
        <ele>113</ele>
        <time>2018-04-15T07:35:46.000Z</time>
      </trkpt>
      <trkpt lat="49.388" lon="1.40523">
        <ele>114</ele>
        <time>2018-04-15T07:35:48.000Z</time>
      </trkpt>
      <trkpt lat="49.38797" lon="1.40524">
        <ele>114</ele>
        <time>2018-04-15T07:35:50.000Z</time>
      </trkpt>
      <trkpt lat="49.38795" lon="1.40526">
        <ele>114</ele>
        <time>2018-04-15T07:35:52.000Z</time>
      </trkpt>
      <trkpt lat="49.38792" lon="1.40527">
        <ele>114</ele>
        <time>2018-04-15T07:35:54.000Z</time>
      </trkpt>
      <trkpt lat="49.38787" lon="1.40529">
        <ele>114</ele>
        <time>2018-04-15T07:35:57.000Z</time>
      </trkpt>
      <trkpt lat="49.38782" lon="1.40531">
        <ele>114</ele>
        <time>2018-04-15T07:36:00.000Z</time>
      </trkpt>
      <trkpt lat="49.38778" lon="1.40534">
        <ele>114</ele>
        <time>2018-04-15T07:36:03.000Z</time>
      </trkpt>
      <trkpt lat="49.38774" lon="1.40536">
        <ele>114</ele>
        <time>2018-04-15T07:36:06.000Z</time>
      </trkpt>
      <trkpt lat="49.38771" lon="1.4054">
        <ele>115</ele>
        <time>2018-04-15T07:36:09.000Z</time>
      </trkpt>
      <trkpt lat="49.3877" lon="1.40542">
        <ele>115</ele>
        <time>2018-04-15T07:36:11.000Z</time>
      </trkpt>
      <trkpt lat="49.38766" lon="1.40542">
        <ele>115</ele>
        <time>2018-04-15T07:36:13.000Z</time>
      </trkpt>
      <trkpt lat="49.38763" lon="1.40542">
        <ele>115</ele>
        <time>2018-04-15T07:36:15.000Z</time>
      </trkpt>
      <trkpt lat="49.38758" lon="1.40543">
        <ele>115</ele>
        <time>2018-04-15T07:36:18.000Z</time>
      </trkpt>
      <trkpt lat="49.38753" lon="1.40547">
        <ele>115</ele>
        <time>2018-04-15T07:36:21.000Z</time>
      </trkpt>
      <trkpt lat="49.38747" lon="1.40548">
        <ele>120</ele>
        <time>2018-04-15T07:36:24.000Z</time>
      </trkpt>
      <trkpt lat="49.3874" lon="1.40551">
        <ele>120</ele>
        <time>2018-04-15T07:36:27.000Z</time>
      </trkpt>
      <trkpt lat="49.38733" lon="1.40554">
        <ele>121</ele>
        <time>2018-04-15T07:36:30.000Z</time>
      </trkpt>
      <trkpt lat="49.38727" lon="1.40558">
        <ele>121</ele>
        <time>2018-04-15T07:36:33.000Z</time>
      </trkpt>
      <trkpt lat="49.38722" lon="1.40562">
        <ele>121</ele>
        <time>2018-04-15T07:36:36.000Z</time>
      </trkpt>
      <trkpt lat="49.38717" lon="1.40568">
        <ele>122</ele>
        <time>2018-04-15T07:36:39.000Z</time>
      </trkpt>
      <trkpt lat="49.3871" lon="1.4057">
        <ele>123</ele>
        <time>2018-04-15T07:36:42.000Z</time>
      </trkpt>
      <trkpt lat="49.38703" lon="1.40573">
        <ele>123</ele>
        <time>2018-04-15T07:36:45.000Z</time>
      </trkpt>
      <trkpt lat="49.38696" lon="1.40577">
        <ele>124</ele>
        <time>2018-04-15T07:36:48.000Z</time>
      </trkpt>
      <trkpt lat="49.38689" lon="1.40583">
        <ele>125</ele>
        <time>2018-04-15T07:36:51.000Z</time>
      </trkpt>
      <trkpt lat="49.38685" lon="1.40586">
        <ele>128</ele>
        <time>2018-04-15T07:36:54.000Z</time>
      </trkpt>
      <trkpt lat="49.38679" lon="1.40587">
        <ele>129</ele>
        <time>2018-04-15T07:36:57.000Z</time>
      </trkpt>
      <trkpt lat="49.38675" lon="1.40589">
        <ele>129</ele>
        <time>2018-04-15T07:37:00.000Z</time>
      </trkpt>
      <trkpt lat="49.3867" lon="1.40593">
        <ele>129</ele>
        <time>2018-04-15T07:37:03.000Z</time>
      </trkpt>
      <trkpt lat="49.38666" lon="1.40595">
        <ele>131</ele>
        <time>2018-04-15T07:37:06.000Z</time>
      </trkpt>
      <trkpt lat="49.38661" lon="1.40596">
        <ele>132</ele>
        <time>2018-04-15T07:37:09.000Z</time>
      </trkpt>
      <trkpt lat="49.38657" lon="1.40599">
        <ele>132</ele>
        <time>2018-04-15T07:37:12.000Z</time>
      </trkpt>
      <trkpt lat="49.38652" lon="1.40603">
        <ele>132</ele>
        <time>2018-04-15T07:37:15.000Z</time>
      </trkpt>
      <trkpt lat="49.38648" lon="1.40604">
        <ele>132</ele>
        <time>2018-04-15T07:37:18.000Z</time>
      </trkpt>
      <trkpt lat="49.38643" lon="1.40606">
        <ele>133</ele>
        <time>2018-04-15T07:37:21.000Z</time>
      </trkpt>
      <trkpt lat="49.38636" lon="1.40608">
        <ele>133</ele>
        <time>2018-04-15T07:37:24.000Z</time>
      </trkpt>
      <trkpt lat="49.38631" lon="1.4061">
        <ele>133</ele>
        <time>2018-04-15T07:37:27.000Z</time>
      </trkpt>
      <trkpt lat="49.38626" lon="1.40611">
        <ele>133</ele>
        <time>2018-04-15T07:37:30.000Z</time>
      </trkpt>
      <trkpt lat="49.38622" lon="1.40612">
        <ele>133</ele>
        <time>2018-04-15T07:37:33.000Z</time>
      </trkpt>
      <trkpt lat="49.38618" lon="1.40615">
        <ele>133</ele>
        <time>2018-04-15T07:37:36.000Z</time>
      </trkpt>
      <trkpt lat="49.38612" lon="1.40618">
        <ele>133</ele>
        <time>2018-04-15T07:37:39.000Z</time>
      </trkpt>
      <trkpt lat="49.38605" lon="1.40621">
        <ele>134</ele>
        <time>2018-04-15T07:37:42.000Z</time>
      </trkpt>
      <trkpt lat="49.38601" lon="1.40624">
        <ele>134</ele>
        <time>2018-04-15T07:37:45.000Z</time>
      </trkpt>
      <trkpt lat="49.38595" lon="1.40628">
        <ele>134</ele>
        <time>2018-04-15T07:37:48.000Z</time>
      </trkpt>
      <trkpt lat="49.3859" lon="1.40632">
        <ele>134</ele>
        <time>2018-04-15T07:37:51.000Z</time>
      </trkpt>
      <trkpt lat="49.38584" lon="1.40636">
        <ele>134</ele>
        <time>2018-04-15T07:37:54.000Z</time>
      </trkpt>
      <trkpt lat="49.38578" lon="1.4064">
        <ele>135</ele>
        <time>2018-04-15T07:37:57.000Z</time>
      </trkpt>
      <trkpt lat="49.38572" lon="1.40643">
        <ele>135</ele>
        <time>2018-04-15T07:38:00.000Z</time>
      </trkpt>
      <trkpt lat="49.38566" lon="1.40644">
        <ele>135</ele>
        <time>2018-04-15T07:38:03.000Z</time>
      </trkpt>
      <trkpt lat="49.38559" lon="1.40646">
        <ele>135</ele>
        <time>2018-04-15T07:38:06.000Z</time>
      </trkpt>
      <trkpt lat="49.38553" lon="1.40649">
        <ele>135</ele>
        <time>2018-04-15T07:38:09.000Z</time>
      </trkpt>
      <trkpt lat="49.38548" lon="1.40651">
        <ele>135</ele>
        <time>2018-04-15T07:38:12.000Z</time>
      </trkpt>
      <trkpt lat="49.38541" lon="1.40653">
        <ele>135</ele>
        <time>2018-04-15T07:38:15.000Z</time>
      </trkpt>
      <trkpt lat="49.38534" lon="1.40655">
        <ele>135</ele>
        <time>2018-04-15T07:38:18.000Z</time>
      </trkpt>
      <trkpt lat="49.38528" lon="1.40659">
        <ele>135</ele>
        <time>2018-04-15T07:38:21.000Z</time>
      </trkpt>
      <trkpt lat="49.38523" lon="1.40664">
        <ele>135</ele>
        <time>2018-04-15T07:38:24.000Z</time>
      </trkpt>
      <trkpt lat="49.38517" lon="1.40668">
        <ele>136</ele>
        <time>2018-04-15T07:38:27.000Z</time>
      </trkpt>
      <trkpt lat="49.38512" lon="1.4067">
        <ele>136</ele>
        <time>2018-04-15T07:38:30.000Z</time>
      </trkpt>
      <trkpt lat="49.38508" lon="1.40673">
        <ele>136</ele>
        <time>2018-04-15T07:38:33.000Z</time>
      </trkpt>
      <trkpt lat="49.38503" lon="1.40676">
        <ele>136</ele>
        <time>2018-04-15T07:38:36.000Z</time>
      </trkpt>
      <trkpt lat="49.38497" lon="1.4068">
        <ele>136</ele>
        <time>2018-04-15T07:38:39.000Z</time>
      </trkpt>
      <trkpt lat="49.38491" lon="1.40683">
        <ele>136</ele>
        <time>2018-04-15T07:38:42.000Z</time>
      </trkpt>
      <trkpt lat="49.38486" lon="1.40684">
        <ele>136</ele>
        <time>2018-04-15T07:38:45.000Z</time>
      </trkpt>
      <trkpt lat="49.38479" lon="1.40687">
        <ele>136</ele>
        <time>2018-04-15T07:38:48.000Z</time>
      </trkpt>
      <trkpt lat="49.38472" lon="1.40689">
        <ele>136</ele>
        <time>2018-04-15T07:38:51.000Z</time>
      </trkpt>
      <trkpt lat="49.38466" lon="1.4069">
        <ele>136</ele>
        <time>2018-04-15T07:38:54.000Z</time>
      </trkpt>
      <trkpt lat="49.38459" lon="1.4069">
        <ele>136</ele>
        <time>2018-04-15T07:38:57.000Z</time>
      </trkpt>
      <trkpt lat="49.38454" lon="1.40691">
        <ele>136</ele>
        <time>2018-04-15T07:39:00.000Z</time>
      </trkpt>
      <trkpt lat="49.38449" lon="1.40698">
        <ele>136</ele>
        <time>2018-04-15T07:39:03.000Z</time>
      </trkpt>
      <trkpt lat="49.38441" lon="1.40704">
        <ele>136</ele>
        <time>2018-04-15T07:39:06.000Z</time>
      </trkpt>
      <trkpt lat="49.38433" lon="1.40705">
        <ele>136</ele>
        <time>2018-04-15T07:39:09.000Z</time>
      </trkpt>
      <trkpt lat="49.38424" lon="1.40708">
        <ele>136</ele>
        <time>2018-04-15T07:39:12.000Z</time>
      </trkpt>
      <trkpt lat="49.38417" lon="1.40711">
        <ele>136</ele>
        <time>2018-04-15T07:39:15.000Z</time>
      </trkpt>
      <trkpt lat="49.38411" lon="1.40714">
        <ele>135</ele>
        <time>2018-04-15T07:39:18.000Z</time>
      </trkpt>
      <trkpt lat="49.38403" lon="1.40716">
        <ele>135</ele>
        <time>2018-04-15T07:39:21.000Z</time>
      </trkpt>
      <trkpt lat="49.38395" lon="1.40718">
        <ele>135</ele>
        <time>2018-04-15T07:39:24.000Z</time>
      </trkpt>
      <trkpt lat="49.38388" lon="1.40724">
        <ele>135</ele>
        <time>2018-04-15T07:39:27.000Z</time>
      </trkpt>
      <trkpt lat="49.38382" lon="1.40729">
        <ele>134</ele>
        <time>2018-04-15T07:39:30.000Z</time>
      </trkpt>
      <trkpt lat="49.38374" lon="1.40734">
        <ele>134</ele>
        <time>2018-04-15T07:39:33.000Z</time>
      </trkpt>
      <trkpt lat="49.38366" lon="1.40737">
        <ele>134</ele>
        <time>2018-04-15T07:39:36.000Z</time>
      </trkpt>
      <trkpt lat="49.38357" lon="1.40742">
        <ele>134</ele>
        <time>2018-04-15T07:39:39.000Z</time>
      </trkpt>
      <trkpt lat="49.38352" lon="1.40746">
        <ele>134</ele>
        <time>2018-04-15T07:39:42.000Z</time>
      </trkpt>
      <trkpt lat="49.38345" lon="1.4075">
        <ele>133</ele>
        <time>2018-04-15T07:39:45.000Z</time>
      </trkpt>
      <trkpt lat="49.38336" lon="1.40753">
        <ele>133</ele>
        <time>2018-04-15T07:39:48.000Z</time>
      </trkpt>
      <trkpt lat="49.38329" lon="1.40755">
        <ele>133</ele>
        <time>2018-04-15T07:39:51.000Z</time>
      </trkpt>
      <trkpt lat="49.38323" lon="1.40759">
        <ele>133</ele>
        <time>2018-04-15T07:39:54.000Z</time>
      </trkpt>
      <trkpt lat="49.38316" lon="1.40763">
        <ele>133</ele>
        <time>2018-04-15T07:39:57.000Z</time>
      </trkpt>
      <trkpt lat="49.38309" lon="1.40766">
        <ele>133</ele>
        <time>2018-04-15T07:40:00.000Z</time>
      </trkpt>
      <trkpt lat="49.38302" lon="1.40769">
        <ele>132</ele>
        <time>2018-04-15T07:40:03.000Z</time>
      </trkpt>
      <trkpt lat="49.38295" lon="1.40768">
        <ele>132</ele>
        <time>2018-04-15T07:40:06.000Z</time>
      </trkpt>
      <trkpt lat="49.38288" lon="1.4077">
        <ele>132</ele>
        <time>2018-04-15T07:40:09.000Z</time>
      </trkpt>
      <trkpt lat="49.38282" lon="1.40771">
        <ele>132</ele>
        <time>2018-04-15T07:40:12.000Z</time>
      </trkpt>
      <trkpt lat="49.38278" lon="1.40773">
        <ele>132</ele>
        <time>2018-04-15T07:40:14.000Z</time>
      </trkpt>
      <trkpt lat="49.38275" lon="1.40774">
        <ele>132</ele>
        <time>2018-04-15T07:40:16.000Z</time>
      </trkpt>
      <trkpt lat="49.38271" lon="1.40777">
        <ele>132</ele>
        <time>2018-04-15T07:40:18.000Z</time>
      </trkpt>
      <trkpt lat="49.38266" lon="1.40782">
        <ele>132</ele>
        <time>2018-04-15T07:40:20.000Z</time>
      </trkpt>
      <trkpt lat="49.38261" lon="1.40786">
        <ele>132</ele>
        <time>2018-04-15T07:40:22.000Z</time>
      </trkpt>
      <trkpt lat="49.38257" lon="1.40787">
        <ele>132</ele>
        <time>2018-04-15T07:40:24.000Z</time>
      </trkpt>
      <trkpt lat="49.38252" lon="1.40788">
        <ele>132</ele>
        <time>2018-04-15T07:40:26.000Z</time>
      </trkpt>
      <trkpt lat="49.38247" lon="1.40792">
        <ele>130</ele>
        <time>2018-04-15T07:40:28.000Z</time>
      </trkpt>
      <trkpt lat="49.38241" lon="1.40796">
        <ele>130</ele>
        <time>2018-04-15T07:40:30.000Z</time>
      </trkpt>
      <trkpt lat="49.38233" lon="1.40797">
        <ele>130</ele>
        <time>2018-04-15T07:40:32.000Z</time>
      </trkpt>
      <trkpt lat="49.38225" lon="1.40793">
        <ele>130</ele>
        <time>2018-04-15T07:40:34.000Z</time>
      </trkpt>
      <trkpt lat="49.38217" lon="1.40786">
        <ele>129</ele>
        <time>2018-04-15T07:40:36.000Z</time>
      </trkpt>
      <trkpt lat="49.3821" lon="1.40777">
        <ele>129</ele>
        <time>2018-04-15T07:40:38.000Z</time>
      </trkpt>
      <trkpt lat="49.38204" lon="1.40766">
        <ele>129</ele>
        <time>2018-04-15T07:40:40.000Z</time>
      </trkpt>
      <trkpt lat="49.382" lon="1.40753">
        <ele>129</ele>
        <time>2018-04-15T07:40:42.000Z</time>
      </trkpt>
      <trkpt lat="49.38192" lon="1.40726">
        <ele>128</ele>
        <time>2018-04-15T07:40:45.000Z</time>
      </trkpt>
      <trkpt lat="49.38177" lon="1.40699">
        <ele>128</ele>
        <time>2018-04-15T07:40:48.000Z</time>
      </trkpt>
      <trkpt lat="49.3816" lon="1.40675">
        <ele>126</ele>
        <time>2018-04-15T07:40:51.000Z</time>
      </trkpt>
      <trkpt lat="49.38147" lon="1.4066">
        <ele>125</ele>
        <time>2018-04-15T07:40:54.000Z</time>
      </trkpt>
      <trkpt lat="49.38122" lon="1.40658">
        <ele>124</ele>
        <time>2018-04-15T07:40:57.000Z</time>
      </trkpt>
      <trkpt lat="49.38059" lon="1.40626">
        <ele>122</ele>
        <time>2018-04-15T07:41:02.000Z</time>
      </trkpt>
      <trkpt lat="49.38026" lon="1.40585">
        <ele>120</ele>
        <time>2018-04-15T07:41:05.000Z</time>
      </trkpt>
      <trkpt lat="49.37992" lon="1.40592">
        <ele>119</ele>
        <time>2018-04-15T07:41:08.000Z</time>
      </trkpt>
      <trkpt lat="49.37991" lon="1.40609">
        <ele>120</ele>
        <time>2018-04-15T07:41:11.000Z</time>
      </trkpt>
      <trkpt lat="49.37986" lon="1.40629">
        <ele>120</ele>
        <time>2018-04-15T07:41:14.000Z</time>
      </trkpt>
      <trkpt lat="49.37983" lon="1.40642">
        <ele>120</ele>
        <time>2018-04-15T07:41:17.000Z</time>
      </trkpt>
      <trkpt lat="49.37982" lon="1.40657">
        <ele>120</ele>
        <time>2018-04-15T07:41:20.000Z</time>
      </trkpt>
      <trkpt lat="49.37981" lon="1.40676">
        <ele>121</ele>
        <time>2018-04-15T07:41:23.000Z</time>
      </trkpt>
      <trkpt lat="49.37979" lon="1.40694">
        <ele>122</ele>
        <time>2018-04-15T07:41:26.000Z</time>
      </trkpt>
      <trkpt lat="49.37975" lon="1.40714">
        <ele>122</ele>
        <time>2018-04-15T07:41:29.000Z</time>
      </trkpt>
      <trkpt lat="49.37974" lon="1.40743">
        <ele>122</ele>
        <time>2018-04-15T07:41:32.000Z</time>
      </trkpt>
      <trkpt lat="49.37972" lon="1.40758">
        <ele>123</ele>
        <time>2018-04-15T07:41:35.000Z</time>
      </trkpt>
      <trkpt lat="49.37971" lon="1.4078">
        <ele>123</ele>
        <time>2018-04-15T07:41:38.000Z</time>
      </trkpt>
      <trkpt lat="49.3797" lon="1.40802">
        <ele>123</ele>
        <time>2018-04-15T07:41:41.000Z</time>
      </trkpt>
      <trkpt lat="49.37967" lon="1.40814">
        <ele>123</ele>
        <time>2018-04-15T07:41:44.000Z</time>
      </trkpt>
      <trkpt lat="49.37965" lon="1.40824">
        <ele>123</ele>
        <time>2018-04-15T07:41:47.000Z</time>
      </trkpt>
      <trkpt lat="49.37966" lon="1.40835">
        <ele>124</ele>
        <time>2018-04-15T07:41:50.000Z</time>
      </trkpt>
      <trkpt lat="49.37966" lon="1.40846">
        <ele>124</ele>
        <time>2018-04-15T07:41:53.000Z</time>
      </trkpt>
      <trkpt lat="49.37964" lon="1.40858">
        <ele>125</ele>
        <time>2018-04-15T07:41:56.000Z</time>
      </trkpt>
      <trkpt lat="49.3796" lon="1.40871">
        <ele>125</ele>
        <time>2018-04-15T07:41:59.000Z</time>
      </trkpt>
      <trkpt lat="49.3796" lon="1.40883">
        <ele>125</ele>
        <time>2018-04-15T07:42:02.000Z</time>
      </trkpt>
      <trkpt lat="49.37959" lon="1.40897">
        <ele>125</ele>
        <time>2018-04-15T07:42:05.000Z</time>
      </trkpt>
      <trkpt lat="49.37957" lon="1.4091">
        <ele>125</ele>
        <time>2018-04-15T07:42:08.000Z</time>
      </trkpt>
      <trkpt lat="49.37956" lon="1.40922">
        <ele>126</ele>
        <time>2018-04-15T07:42:11.000Z</time>
      </trkpt>
      <trkpt lat="49.37953" lon="1.40936">
        <ele>126</ele>
        <time>2018-04-15T07:42:14.000Z</time>
      </trkpt>
      <trkpt lat="49.3795" lon="1.40949">
        <ele>126</ele>
        <time>2018-04-15T07:42:17.000Z</time>
      </trkpt>
      <trkpt lat="49.37949" lon="1.40964">
        <ele>126</ele>
        <time>2018-04-15T07:42:20.000Z</time>
      </trkpt>
      <trkpt lat="49.37948" lon="1.40976">
        <ele>126</ele>
        <time>2018-04-15T07:42:23.000Z</time>
      </trkpt>
      <trkpt lat="49.37946" lon="1.40992">
        <ele>126</ele>
        <time>2018-04-15T07:42:26.000Z</time>
      </trkpt>
      <trkpt lat="49.37944" lon="1.4101">
        <ele>126</ele>
        <time>2018-04-15T07:42:29.000Z</time>
      </trkpt>
      <trkpt lat="49.37942" lon="1.41034">
        <ele>126</ele>
        <time>2018-04-15T07:42:32.000Z</time>
      </trkpt>
      <trkpt lat="49.37941" lon="1.41049">
        <ele>126</ele>
        <time>2018-04-15T07:42:35.000Z</time>
      </trkpt>
      <trkpt lat="49.3794" lon="1.41068">
        <ele>126</ele>
        <time>2018-04-15T07:42:38.000Z</time>
      </trkpt>
      <trkpt lat="49.37939" lon="1.4109">
        <ele>126</ele>
        <time>2018-04-15T07:42:41.000Z</time>
      </trkpt>
      <trkpt lat="49.37935" lon="1.41134">
        <ele>126</ele>
        <time>2018-04-15T07:42:45.000Z</time>
      </trkpt>
      <trkpt lat="49.37932" lon="1.4115">
        <ele>126</ele>
        <time>2018-04-15T07:42:48.000Z</time>
      </trkpt>
      <trkpt lat="49.37929" lon="1.41168">
        <ele>126</ele>
        <time>2018-04-15T07:42:51.000Z</time>
      </trkpt>
      <trkpt lat="49.37926" lon="1.41184">
        <ele>126</ele>
        <time>2018-04-15T07:42:54.000Z</time>
      </trkpt>
      <trkpt lat="49.37923" lon="1.412">
        <ele>126</ele>
        <time>2018-04-15T07:42:57.000Z</time>
      </trkpt>
      <trkpt lat="49.37922" lon="1.41216">
        <ele>127</ele>
        <time>2018-04-15T07:43:00.000Z</time>
      </trkpt>
      <trkpt lat="49.37919" lon="1.41235">
        <ele>126</ele>
        <time>2018-04-15T07:43:03.000Z</time>
      </trkpt>
      <trkpt lat="49.37918" lon="1.41252">
        <ele>126</ele>
        <time>2018-04-15T07:43:06.000Z</time>
      </trkpt>
      <trkpt lat="49.37916" lon="1.41268">
        <ele>126</ele>
        <time>2018-04-15T07:43:09.000Z</time>
      </trkpt>
      <trkpt lat="49.37915" lon="1.41285">
        <ele>126</ele>
        <time>2018-04-15T07:43:12.000Z</time>
      </trkpt>
      <trkpt lat="49.37914" lon="1.41304">
        <ele>126</ele>
        <time>2018-04-15T07:43:15.000Z</time>
      </trkpt>
      <trkpt lat="49.37911" lon="1.41325">
        <ele>126</ele>
        <time>2018-04-15T07:43:18.000Z</time>
      </trkpt>
      <trkpt lat="49.37908" lon="1.41345">
        <ele>127</ele>
        <time>2018-04-15T07:43:21.000Z</time>
      </trkpt>
      <trkpt lat="49.37907" lon="1.41363">
        <ele>127</ele>
        <time>2018-04-15T07:43:24.000Z</time>
      </trkpt>
      <trkpt lat="49.37907" lon="1.41383">
        <ele>127</ele>
        <time>2018-04-15T07:43:27.000Z</time>
      </trkpt>
      <trkpt lat="49.37903" lon="1.41403">
        <ele>127</ele>
        <time>2018-04-15T07:43:30.000Z</time>
      </trkpt>
      <trkpt lat="49.37899" lon="1.41422">
        <ele>127</ele>
        <time>2018-04-15T07:43:33.000Z</time>
      </trkpt>
      <trkpt lat="49.37898" lon="1.4144">
        <ele>127</ele>
        <time>2018-04-15T07:43:36.000Z</time>
      </trkpt>
      <trkpt lat="49.37898" lon="1.41455">
        <ele>127</ele>
        <time>2018-04-15T07:43:39.000Z</time>
      </trkpt>
      <trkpt lat="49.37898" lon="1.41468">
        <ele>127</ele>
        <time>2018-04-15T07:43:42.000Z</time>
      </trkpt>
      <trkpt lat="49.37898" lon="1.41484">
        <ele>127</ele>
        <time>2018-04-15T07:43:45.000Z</time>
      </trkpt>
      <trkpt lat="49.37897" lon="1.41503">
        <ele>128</ele>
        <time>2018-04-15T07:43:48.000Z</time>
      </trkpt>
      <trkpt lat="49.37892" lon="1.41523">
        <ele>127</ele>
        <time>2018-04-15T07:43:51.000Z</time>
      </trkpt>
      <trkpt lat="49.3789" lon="1.41537">
        <ele>127</ele>
        <time>2018-04-15T07:43:54.000Z</time>
      </trkpt>
      <trkpt lat="49.37888" lon="1.4155">
        <ele>127</ele>
        <time>2018-04-15T07:43:57.000Z</time>
      </trkpt>
      <trkpt lat="49.37887" lon="1.41562">
        <ele>128</ele>
        <time>2018-04-15T07:44:00.000Z</time>
      </trkpt>
      <trkpt lat="49.37888" lon="1.41576">
        <ele>128</ele>
        <time>2018-04-15T07:44:03.000Z</time>
      </trkpt>
      <trkpt lat="49.37885" lon="1.41592">
        <ele>128</ele>
        <time>2018-04-15T07:44:06.000Z</time>
      </trkpt>
      <trkpt lat="49.37879" lon="1.41603">
        <ele>128</ele>
        <time>2018-04-15T07:44:09.000Z</time>
      </trkpt>
      <trkpt lat="49.37873" lon="1.41607">
        <ele>128</ele>
        <time>2018-04-15T07:44:12.000Z</time>
      </trkpt>
      <trkpt lat="49.37867" lon="1.41616">
        <ele>128</ele>
        <time>2018-04-15T07:44:15.000Z</time>
      </trkpt>
      <trkpt lat="49.37865" lon="1.4163">
        <ele>128</ele>
        <time>2018-04-15T07:44:18.000Z</time>
      </trkpt>
      <trkpt lat="49.37862" lon="1.41645">
        <ele>127</ele>
        <time>2018-04-15T07:44:21.000Z</time>
      </trkpt>
      <trkpt lat="49.37854" lon="1.41662">
        <ele>127</ele>
        <time>2018-04-15T07:44:24.000Z</time>
      </trkpt>
      <trkpt lat="49.37843" lon="1.41683">
        <ele>126</ele>
        <time>2018-04-15T07:44:27.000Z</time>
      </trkpt>
      <trkpt lat="49.37835" lon="1.417">
        <ele>126</ele>
        <time>2018-04-15T07:44:30.000Z</time>
      </trkpt>
      <trkpt lat="49.37829" lon="1.41717">
        <ele>125</ele>
        <time>2018-04-15T07:44:33.000Z</time>
      </trkpt>
      <trkpt lat="49.37826" lon="1.41731">
        <ele>125</ele>
        <time>2018-04-15T07:44:36.000Z</time>
      </trkpt>
      <trkpt lat="49.37824" lon="1.41744">
        <ele>124</ele>
        <time>2018-04-15T07:44:39.000Z</time>
      </trkpt>
      <trkpt lat="49.37819" lon="1.4176">
        <ele>123</ele>
        <time>2018-04-15T07:44:42.000Z</time>
      </trkpt>
      <trkpt lat="49.37811" lon="1.41781">
        <ele>123</ele>
        <time>2018-04-15T07:44:45.000Z</time>
      </trkpt>
      <trkpt lat="49.37804" lon="1.41799">
        <ele>123</ele>
        <time>2018-04-15T07:44:48.000Z</time>
      </trkpt>
      <trkpt lat="49.37798" lon="1.41814">
        <ele>122</ele>
        <time>2018-04-15T07:44:51.000Z</time>
      </trkpt>
      <trkpt lat="49.37794" lon="1.41829">
        <ele>122</ele>
        <time>2018-04-15T07:44:54.000Z</time>
      </trkpt>
      <trkpt lat="49.37789" lon="1.41845">
        <ele>122</ele>
        <time>2018-04-15T07:44:57.000Z</time>
      </trkpt>
      <trkpt lat="49.37785" lon="1.41864">
        <ele>122</ele>
        <time>2018-04-15T07:45:00.000Z</time>
      </trkpt>
      <trkpt lat="49.37778" lon="1.41881">
        <ele>123</ele>
        <time>2018-04-15T07:45:03.000Z</time>
      </trkpt>
      <trkpt lat="49.37775" lon="1.41891">
        <ele>123</ele>
        <time>2018-04-15T07:45:06.000Z</time>
      </trkpt>
      <trkpt lat="49.37772" lon="1.41906">
        <ele>124</ele>
        <time>2018-04-15T07:45:09.000Z</time>
      </trkpt>
      <trkpt lat="49.3777" lon="1.41917">
        <ele>124</ele>
        <time>2018-04-15T07:45:12.000Z</time>
      </trkpt>
      <trkpt lat="49.37769" lon="1.41927">
        <ele>124</ele>
        <time>2018-04-15T07:45:15.000Z</time>
      </trkpt>
      <trkpt lat="49.37766" lon="1.41937">
        <ele>123</ele>
        <time>2018-04-15T07:45:18.000Z</time>
      </trkpt>
      <trkpt lat="49.37761" lon="1.41946">
        <ele>123</ele>
        <time>2018-04-15T07:45:21.000Z</time>
      </trkpt>
      <trkpt lat="49.37755" lon="1.41952">
        <ele>123</ele>
        <time>2018-04-15T07:45:24.000Z</time>
      </trkpt>
      <trkpt lat="49.3775" lon="1.4196">
        <ele>127</ele>
        <time>2018-04-15T07:45:27.000Z</time>
      </trkpt>
      <trkpt lat="49.37744" lon="1.41966">
        <ele>127</ele>
        <time>2018-04-15T07:45:30.000Z</time>
      </trkpt>
      <trkpt lat="49.37739" lon="1.41973">
        <ele>127</ele>
        <time>2018-04-15T07:45:33.000Z</time>
      </trkpt>
      <trkpt lat="49.37734" lon="1.4198">
        <ele>127</ele>
        <time>2018-04-15T07:45:36.000Z</time>
      </trkpt>
      <trkpt lat="49.37731" lon="1.4199">
        <ele>127</ele>
        <time>2018-04-15T07:45:39.000Z</time>
      </trkpt>
      <trkpt lat="49.37727" lon="1.42">
        <ele>127</ele>
        <time>2018-04-15T07:45:42.000Z</time>
      </trkpt>
      <trkpt lat="49.37721" lon="1.42006">
        <ele>125</ele>
        <time>2018-04-15T07:45:45.000Z</time>
      </trkpt>
      <trkpt lat="49.37715" lon="1.42006">
        <ele>125</ele>
        <time>2018-04-15T07:45:48.000Z</time>
      </trkpt>
      <trkpt lat="49.37709" lon="1.42003">
        <ele>125</ele>
        <time>2018-04-15T07:45:51.000Z</time>
      </trkpt>
      <trkpt lat="49.37703" lon="1.42003">
        <ele>125</ele>
        <time>2018-04-15T07:45:54.000Z</time>
      </trkpt>
      <trkpt lat="49.37696" lon="1.42005">
        <ele>126</ele>
        <time>2018-04-15T07:45:57.000Z</time>
      </trkpt>
      <trkpt lat="49.37689" lon="1.42003">
        <ele>126</ele>
        <time>2018-04-15T07:46:00.000Z</time>
      </trkpt>
      <trkpt lat="49.37681" lon="1.42">
        <ele>129</ele>
        <time>2018-04-15T07:46:03.000Z</time>
      </trkpt>
      <trkpt lat="49.37669" lon="1.42003">
        <ele>129</ele>
        <time>2018-04-15T07:46:06.000Z</time>
      </trkpt>
      <trkpt lat="49.37656" lon="1.42006">
        <ele>127</ele>
        <time>2018-04-15T07:46:09.000Z</time>
      </trkpt>
      <trkpt lat="49.3764" lon="1.42006">
        <ele>126</ele>
        <time>2018-04-15T07:46:12.000Z</time>
      </trkpt>
      <trkpt lat="49.37626" lon="1.42008">
        <ele>124</ele>
        <time>2018-04-15T07:46:15.000Z</time>
      </trkpt>
      <trkpt lat="49.3761" lon="1.42012">
        <ele>124</ele>
        <time>2018-04-15T07:46:18.000Z</time>
      </trkpt>
      <trkpt lat="49.37595" lon="1.42017">
        <ele>123</ele>
        <time>2018-04-15T07:46:21.000Z</time>
      </trkpt>
      <trkpt lat="49.37576" lon="1.42021">
        <ele>121</ele>
        <time>2018-04-15T07:46:24.000Z</time>
      </trkpt>
      <trkpt lat="49.37561" lon="1.42029">
        <ele>121</ele>
        <time>2018-04-15T07:46:27.000Z</time>
      </trkpt>
      <trkpt lat="49.37548" lon="1.42031">
        <ele>121</ele>
        <time>2018-04-15T07:46:30.000Z</time>
      </trkpt>
      <trkpt lat="49.37538" lon="1.42037">
        <ele>120</ele>
        <time>2018-04-15T07:46:33.000Z</time>
      </trkpt>
      <trkpt lat="49.37529" lon="1.42041">
        <ele>120</ele>
        <time>2018-04-15T07:46:36.000Z</time>
      </trkpt>
      <trkpt lat="49.37519" lon="1.42041">
        <ele>120</ele>
        <time>2018-04-15T07:46:39.000Z</time>
      </trkpt>
      <trkpt lat="49.3751" lon="1.42048">
        <ele>120</ele>
        <time>2018-04-15T07:46:42.000Z</time>
      </trkpt>
      <trkpt lat="49.37501" lon="1.42055">
        <ele>120</ele>
        <time>2018-04-15T07:46:45.000Z</time>
      </trkpt>
      <trkpt lat="49.37489" lon="1.42059">
        <ele>120</ele>
        <time>2018-04-15T07:46:48.000Z</time>
      </trkpt>
      <trkpt lat="49.37478" lon="1.42063">
        <ele>120</ele>
        <time>2018-04-15T07:46:51.000Z</time>
      </trkpt>
      <trkpt lat="49.37469" lon="1.42068">
        <ele>120</ele>
        <time>2018-04-15T07:46:54.000Z</time>
      </trkpt>
      <trkpt lat="49.3746" lon="1.42073">
        <ele>120</ele>
        <time>2018-04-15T07:46:57.000Z</time>
      </trkpt>
      <trkpt lat="49.3745" lon="1.42085">
        <ele>117</ele>
        <time>2018-04-15T07:47:00.000Z</time>
      </trkpt>
      <trkpt lat="49.3744" lon="1.42099">
        <ele>117</ele>
        <time>2018-04-15T07:47:03.000Z</time>
      </trkpt>
      <trkpt lat="49.37431" lon="1.42108">
        <ele>117</ele>
        <time>2018-04-15T07:47:06.000Z</time>
      </trkpt>
      <trkpt lat="49.37418" lon="1.4212">
        <ele>116</ele>
        <time>2018-04-15T07:47:09.000Z</time>
      </trkpt>
      <trkpt lat="49.37406" lon="1.42133">
        <ele>119</ele>
        <time>2018-04-15T07:47:12.000Z</time>
      </trkpt>
      <trkpt lat="49.37395" lon="1.42146">
        <ele>118</ele>
        <time>2018-04-15T07:47:15.000Z</time>
      </trkpt>
      <trkpt lat="49.37383" lon="1.42156">
        <ele>119</ele>
        <time>2018-04-15T07:47:18.000Z</time>
      </trkpt>
      <trkpt lat="49.37373" lon="1.4216">
        <ele>119</ele>
        <time>2018-04-15T07:47:21.000Z</time>
      </trkpt>
      <trkpt lat="49.37362" lon="1.42163">
        <ele>120</ele>
        <time>2018-04-15T07:47:24.000Z</time>
      </trkpt>
      <trkpt lat="49.37354" lon="1.42167">
        <ele>119</ele>
        <time>2018-04-15T07:47:26.000Z</time>
      </trkpt>
      <trkpt lat="49.37347" lon="1.4217">
        <ele>119</ele>
        <time>2018-04-15T07:47:28.000Z</time>
      </trkpt>
      <trkpt lat="49.37343" lon="1.42172">
        <ele>120</ele>
        <time>2018-04-15T07:47:30.000Z</time>
      </trkpt>
      <trkpt lat="49.37338" lon="1.42174">
        <ele>120</ele>
        <time>2018-04-15T07:47:32.000Z</time>
      </trkpt>
      <trkpt lat="49.37333" lon="1.42174">
        <ele>122</ele>
        <time>2018-04-15T07:47:34.000Z</time>
      </trkpt>
      <trkpt lat="49.37328" lon="1.42173">
        <ele>122</ele>
        <time>2018-04-15T07:47:36.000Z</time>
      </trkpt>
      <trkpt lat="49.37322" lon="1.42176">
        <ele>122</ele>
        <time>2018-04-15T07:47:38.000Z</time>
      </trkpt>
      <trkpt lat="49.37317" lon="1.42179">
        <ele>122</ele>
        <time>2018-04-15T07:47:40.000Z</time>
      </trkpt>
      <trkpt lat="49.3731" lon="1.4218">
        <ele>122</ele>
        <time>2018-04-15T07:47:42.000Z</time>
      </trkpt>
      <trkpt lat="49.37306" lon="1.42181">
        <ele>122</ele>
        <time>2018-04-15T07:47:44.000Z</time>
      </trkpt>
      <trkpt lat="49.373" lon="1.42182">
        <ele>122</ele>
        <time>2018-04-15T07:47:46.000Z</time>
      </trkpt>
      <trkpt lat="49.37296" lon="1.42182">
        <ele>123</ele>
        <time>2018-04-15T07:47:48.000Z</time>
      </trkpt>
      <trkpt lat="49.37291" lon="1.42184">
        <ele>123</ele>
        <time>2018-04-15T07:47:50.000Z</time>
      </trkpt>
      <trkpt lat="49.37285" lon="1.42185">
        <ele>123</ele>
        <time>2018-04-15T07:47:52.000Z</time>
      </trkpt>
      <trkpt lat="49.37281" lon="1.42183">
        <ele>123</ele>
        <time>2018-04-15T07:47:54.000Z</time>
      </trkpt>
      <trkpt lat="49.37275" lon="1.42181">
        <ele>123</ele>
        <time>2018-04-15T07:47:56.000Z</time>
      </trkpt>
      <trkpt lat="49.3727" lon="1.42181">
        <ele>123</ele>
        <time>2018-04-15T07:47:58.000Z</time>
      </trkpt>
      <trkpt lat="49.37262" lon="1.42182">
        <ele>124</ele>
        <time>2018-04-15T07:48:01.000Z</time>
      </trkpt>
      <trkpt lat="49.37255" lon="1.42184">
        <ele>124</ele>
        <time>2018-04-15T07:48:04.000Z</time>
      </trkpt>
      <trkpt lat="49.37246" lon="1.42184">
        <ele>125</ele>
        <time>2018-04-15T07:48:07.000Z</time>
      </trkpt>
      <trkpt lat="49.37238" lon="1.42186">
        <ele>125</ele>
        <time>2018-04-15T07:48:10.000Z</time>
      </trkpt>
      <trkpt lat="49.37231" lon="1.42187">
        <ele>125</ele>
        <time>2018-04-15T07:48:13.000Z</time>
      </trkpt>
      <trkpt lat="49.37224" lon="1.42185">
        <ele>125</ele>
        <time>2018-04-15T07:48:16.000Z</time>
      </trkpt>
      <trkpt lat="49.37216" lon="1.42186">
        <ele>125</ele>
        <time>2018-04-15T07:48:19.000Z</time>
      </trkpt>
      <trkpt lat="49.37208" lon="1.42185">
        <ele>125</ele>
        <time>2018-04-15T07:48:22.000Z</time>
      </trkpt>
      <trkpt lat="49.37199" lon="1.42186">
        <ele>125</ele>
        <time>2018-04-15T07:48:25.000Z</time>
      </trkpt>
      <trkpt lat="49.37191" lon="1.42183">
        <ele>125</ele>
        <time>2018-04-15T07:48:28.000Z</time>
      </trkpt>
      <trkpt lat="49.37185" lon="1.42184">
        <ele>125</ele>
        <time>2018-04-15T07:48:31.000Z</time>
      </trkpt>
      <trkpt lat="49.37173" lon="1.42185">
        <ele>125</ele>
        <time>2018-04-15T07:48:34.000Z</time>
      </trkpt>
      <trkpt lat="49.37157" lon="1.42191">
        <ele>126</ele>
        <time>2018-04-15T07:48:37.000Z</time>
      </trkpt>
      <trkpt lat="49.37141" lon="1.42194">
        <ele>127</ele>
        <time>2018-04-15T07:48:40.000Z</time>
      </trkpt>
      <trkpt lat="49.37126" lon="1.42195">
        <ele>127</ele>
        <time>2018-04-15T07:48:43.000Z</time>
      </trkpt>
      <trkpt lat="49.37073" lon="1.42193">
        <ele>128</ele>
        <time>2018-04-15T07:48:48.000Z</time>
      </trkpt>
      <trkpt lat="49.37051" lon="1.42208">
        <ele>129</ele>
        <time>2018-04-15T07:48:51.000Z</time>
      </trkpt>
      <trkpt lat="49.37038" lon="1.42226">
        <ele>129</ele>
        <time>2018-04-15T07:48:54.000Z</time>
      </trkpt>
      <trkpt lat="49.37018" lon="1.42222">
        <ele>129</ele>
        <time>2018-04-15T07:48:57.000Z</time>
      </trkpt>
      <trkpt lat="49.36998" lon="1.42225">
        <ele>131</ele>
        <time>2018-04-15T07:49:00.000Z</time>
      </trkpt>
      <trkpt lat="49.36989" lon="1.4221">
        <ele>131</ele>
        <time>2018-04-15T07:49:03.000Z</time>
      </trkpt>
      <trkpt lat="49.36982" lon="1.42223">
        <ele>131</ele>
        <time>2018-04-15T07:49:06.000Z</time>
      </trkpt>
      <trkpt lat="49.36969" lon="1.42224">
        <ele>131</ele>
        <time>2018-04-15T07:49:09.000Z</time>
      </trkpt>
      <trkpt lat="49.36966" lon="1.42217">
        <ele>131</ele>
        <time>2018-04-15T07:49:12.000Z</time>
      </trkpt>
      <trkpt lat="49.36956" lon="1.42215">
        <ele>131</ele>
        <time>2018-04-15T07:49:15.000Z</time>
      </trkpt>
      <trkpt lat="49.3695" lon="1.4222">
        <ele>131</ele>
        <time>2018-04-15T07:49:18.000Z</time>
      </trkpt>
      <trkpt lat="49.36936" lon="1.42226">
        <ele>132</ele>
        <time>2018-04-15T07:49:21.000Z</time>
      </trkpt>
      <trkpt lat="49.36923" lon="1.42234">
        <ele>132</ele>
        <time>2018-04-15T07:49:24.000Z</time>
      </trkpt>
      <trkpt lat="49.36909" lon="1.42243">
        <ele>133</ele>
        <time>2018-04-15T07:49:27.000Z</time>
      </trkpt>
      <trkpt lat="49.36899" lon="1.42241">
        <ele>133</ele>
        <time>2018-04-15T07:49:30.000Z</time>
      </trkpt>
      <trkpt lat="49.36891" lon="1.42236">
        <ele>133</ele>
        <time>2018-04-15T07:49:33.000Z</time>
      </trkpt>
      <trkpt lat="49.36883" lon="1.42233">
        <ele>132</ele>
        <time>2018-04-15T07:49:36.000Z</time>
      </trkpt>
      <trkpt lat="49.36871" lon="1.42229">
        <ele>132</ele>
        <time>2018-04-15T07:49:39.000Z</time>
      </trkpt>
      <trkpt lat="49.3685" lon="1.42224">
        <ele>132</ele>
        <time>2018-04-15T07:49:42.000Z</time>
      </trkpt>
      <trkpt lat="49.36831" lon="1.42231">
        <ele>132</ele>
        <time>2018-04-15T07:49:45.000Z</time>
      </trkpt>
      <trkpt lat="49.36814" lon="1.42237">
        <ele>132</ele>
        <time>2018-04-15T07:49:48.000Z</time>
      </trkpt>
      <trkpt lat="49.36804" lon="1.42237">
        <ele>133</ele>
        <time>2018-04-15T07:49:51.000Z</time>
      </trkpt>
      <trkpt lat="49.36794" lon="1.42236">
        <ele>133</ele>
        <time>2018-04-15T07:49:54.000Z</time>
      </trkpt>
      <trkpt lat="49.36786" lon="1.42236">
        <ele>133</ele>
        <time>2018-04-15T07:49:57.000Z</time>
      </trkpt>
      <trkpt lat="49.36776" lon="1.42236">
        <ele>133</ele>
        <time>2018-04-15T07:50:00.000Z</time>
      </trkpt>
      <trkpt lat="49.36766" lon="1.42238">
        <ele>133</ele>
        <time>2018-04-15T07:50:03.000Z</time>
      </trkpt>
      <trkpt lat="49.36758" lon="1.42239">
        <ele>133</ele>
        <time>2018-04-15T07:50:06.000Z</time>
      </trkpt>
      <trkpt lat="49.36746" lon="1.42237">
        <ele>134</ele>
        <time>2018-04-15T07:50:09.000Z</time>
      </trkpt>
      <trkpt lat="49.36685" lon="1.42251">
        <ele>135</ele>
        <time>2018-04-15T07:50:15.000Z</time>
      </trkpt>
      <trkpt lat="49.36673" lon="1.42256">
        <ele>135</ele>
        <time>2018-04-15T07:50:18.000Z</time>
      </trkpt>
      <trkpt lat="49.36663" lon="1.42258">
        <ele>134</ele>
        <time>2018-04-15T07:50:21.000Z</time>
      </trkpt>
      <trkpt lat="49.3665" lon="1.42262">
        <ele>134</ele>
        <time>2018-04-15T07:50:24.000Z</time>
      </trkpt>
      <trkpt lat="49.36638" lon="1.42262">
        <ele>133</ele>
        <time>2018-04-15T07:50:27.000Z</time>
      </trkpt>
      <trkpt lat="49.36626" lon="1.4226">
        <ele>133</ele>
        <time>2018-04-15T07:50:30.000Z</time>
      </trkpt>
      <trkpt lat="49.36611" lon="1.42265">
        <ele>133</ele>
        <time>2018-04-15T07:50:33.000Z</time>
      </trkpt>
      <trkpt lat="49.36586" lon="1.42273">
        <ele>132</ele>
        <time>2018-04-15T07:50:36.000Z</time>
      </trkpt>
      <trkpt lat="49.36588" lon="1.42301">
        <ele>132</ele>
        <time>2018-04-15T07:50:39.000Z</time>
      </trkpt>
      <trkpt lat="49.36589" lon="1.42332">
        <ele>131</ele>
        <time>2018-04-15T07:50:42.000Z</time>
      </trkpt>
      <trkpt lat="49.36598" lon="1.4237">
        <ele>132</ele>
        <time>2018-04-15T07:50:45.000Z</time>
      </trkpt>
      <trkpt lat="49.36599" lon="1.42399">
        <ele>131</ele>
        <time>2018-04-15T07:50:48.000Z</time>
      </trkpt>
      <trkpt lat="49.36611" lon="1.42431">
        <ele>130</ele>
        <time>2018-04-15T07:50:51.000Z</time>
      </trkpt>
      <trkpt lat="49.36621" lon="1.42461">
        <ele>130</ele>
        <time>2018-04-15T07:50:54.000Z</time>
      </trkpt>
      <trkpt lat="49.36622" lon="1.42467">
        <ele>130</ele>
        <time>2018-04-15T07:50:57.000Z</time>
      </trkpt>
      <trkpt lat="49.36628" lon="1.42481">
        <ele>131</ele>
        <time>2018-04-15T07:51:00.000Z</time>
      </trkpt>
      <trkpt lat="49.36631" lon="1.42504">
        <ele>128</ele>
        <time>2018-04-15T07:51:03.000Z</time>
      </trkpt>
      <trkpt lat="49.36641" lon="1.42514">
        <ele>129</ele>
        <time>2018-04-15T07:51:06.000Z</time>
      </trkpt>
      <trkpt lat="49.36647" lon="1.4252">
        <ele>130</ele>
        <time>2018-04-15T07:51:09.000Z</time>
      </trkpt>
      <trkpt lat="49.36655" lon="1.42525">
        <ele>130</ele>
        <time>2018-04-15T07:51:12.000Z</time>
      </trkpt>
      <trkpt lat="49.36662" lon="1.42533">
        <ele>130</ele>
        <time>2018-04-15T07:51:15.000Z</time>
      </trkpt>
      <trkpt lat="49.36666" lon="1.42539">
        <ele>130</ele>
        <time>2018-04-15T07:51:18.000Z</time>
      </trkpt>
      <trkpt lat="49.36669" lon="1.42544">
        <ele>135</ele>
        <time>2018-04-15T07:51:21.000Z</time>
      </trkpt>
      <trkpt lat="49.36674" lon="1.42546">
        <ele>135</ele>
        <time>2018-04-15T07:51:24.000Z</time>
      </trkpt>
      <trkpt lat="49.3668" lon="1.42549">
        <ele>135</ele>
        <time>2018-04-15T07:51:27.000Z</time>
      </trkpt>
      <trkpt lat="49.36686" lon="1.42553">
        <ele>135</ele>
        <time>2018-04-15T07:51:30.000Z</time>
      </trkpt>
      <trkpt lat="49.36692" lon="1.42558">
        <ele>135</ele>
        <time>2018-04-15T07:51:33.000Z</time>
      </trkpt>
      <trkpt lat="49.36697" lon="1.42562">
        <ele>135</ele>
        <time>2018-04-15T07:51:36.000Z</time>
      </trkpt>
      <trkpt lat="49.36703" lon="1.42564">
        <ele>135</ele>
        <time>2018-04-15T07:51:39.000Z</time>
      </trkpt>
      <trkpt lat="49.36708" lon="1.42564">
        <ele>136</ele>
        <time>2018-04-15T07:51:42.000Z</time>
      </trkpt>
      <trkpt lat="49.36716" lon="1.42564">
        <ele>136</ele>
        <time>2018-04-15T07:51:45.000Z</time>
      </trkpt>
      <trkpt lat="49.36726" lon="1.42562">
        <ele>136</ele>
        <time>2018-04-15T07:51:48.000Z</time>
      </trkpt>
      <trkpt lat="49.36734" lon="1.42564">
        <ele>137</ele>
        <time>2018-04-15T07:51:51.000Z</time>
      </trkpt>
      <trkpt lat="49.36742" lon="1.42568">
        <ele>137</ele>
        <time>2018-04-15T07:51:54.000Z</time>
      </trkpt>
      <trkpt lat="49.36752" lon="1.42574">
        <ele>138</ele>
        <time>2018-04-15T07:51:57.000Z</time>
      </trkpt>
      <trkpt lat="49.36765" lon="1.4258">
        <ele>138</ele>
        <time>2018-04-15T07:52:00.000Z</time>
      </trkpt>
      <trkpt lat="49.36776" lon="1.42587">
        <ele>137</ele>
        <time>2018-04-15T07:52:03.000Z</time>
      </trkpt>
      <trkpt lat="49.36785" lon="1.42594">
        <ele>136</ele>
        <time>2018-04-15T07:52:06.000Z</time>
      </trkpt>
      <trkpt lat="49.36795" lon="1.42599">
        <ele>136</ele>
        <time>2018-04-15T07:52:09.000Z</time>
      </trkpt>
      <trkpt lat="49.36807" lon="1.42605">
        <ele>136</ele>
        <time>2018-04-15T07:52:12.000Z</time>
      </trkpt>
      <trkpt lat="49.36819" lon="1.42609">
        <ele>136</ele>
        <time>2018-04-15T07:52:15.000Z</time>
      </trkpt>
      <trkpt lat="49.3683" lon="1.42615">
        <ele>136</ele>
        <time>2018-04-15T07:52:18.000Z</time>
      </trkpt>
      <trkpt lat="49.36841" lon="1.42621">
        <ele>134</ele>
        <time>2018-04-15T07:52:21.000Z</time>
      </trkpt>
      <trkpt lat="49.36851" lon="1.4263">
        <ele>133</ele>
        <time>2018-04-15T07:52:24.000Z</time>
      </trkpt>
      <trkpt lat="49.36863" lon="1.42632">
        <ele>132</ele>
        <time>2018-04-15T07:52:27.000Z</time>
      </trkpt>
      <trkpt lat="49.36874" lon="1.42631">
        <ele>132</ele>
        <time>2018-04-15T07:52:30.000Z</time>
      </trkpt>
      <trkpt lat="49.36885" lon="1.42633">
        <ele>132</ele>
        <time>2018-04-15T07:52:33.000Z</time>
      </trkpt>
      <trkpt lat="49.36895" lon="1.42636">
        <ele>131</ele>
        <time>2018-04-15T07:52:36.000Z</time>
      </trkpt>
      <trkpt lat="49.36906" lon="1.42638">
        <ele>131</ele>
        <time>2018-04-15T07:52:39.000Z</time>
      </trkpt>
      <trkpt lat="49.36917" lon="1.42641">
        <ele>129</ele>
        <time>2018-04-15T07:52:42.000Z</time>
      </trkpt>
      <trkpt lat="49.36927" lon="1.42645">
        <ele>128</ele>
        <time>2018-04-15T07:52:45.000Z</time>
      </trkpt>
      <trkpt lat="49.36938" lon="1.4265">
        <ele>128</ele>
        <time>2018-04-15T07:52:48.000Z</time>
      </trkpt>
      <trkpt lat="49.36947" lon="1.42657">
        <ele>128</ele>
        <time>2018-04-15T07:52:51.000Z</time>
      </trkpt>
      <trkpt lat="49.36955" lon="1.4266">
        <ele>128</ele>
        <time>2018-04-15T07:52:54.000Z</time>
      </trkpt>
      <trkpt lat="49.36967" lon="1.42664">
        <ele>128</ele>
        <time>2018-04-15T07:52:57.000Z</time>
      </trkpt>
      <trkpt lat="49.36979" lon="1.42669">
        <ele>124</ele>
        <time>2018-04-15T07:53:00.000Z</time>
      </trkpt>
      <trkpt lat="49.36989" lon="1.42673">
        <ele>125</ele>
        <time>2018-04-15T07:53:03.000Z</time>
      </trkpt>
      <trkpt lat="49.37" lon="1.42678">
        <ele>124</ele>
        <time>2018-04-15T07:53:06.000Z</time>
      </trkpt>
      <trkpt lat="49.37012" lon="1.42682">
        <ele>124</ele>
        <time>2018-04-15T07:53:09.000Z</time>
      </trkpt>
      <trkpt lat="49.37023" lon="1.42688">
        <ele>123</ele>
        <time>2018-04-15T07:53:12.000Z</time>
      </trkpt>
      <trkpt lat="49.37034" lon="1.42693">
        <ele>123</ele>
        <time>2018-04-15T07:53:15.000Z</time>
      </trkpt>
      <trkpt lat="49.37045" lon="1.42699">
        <ele>123</ele>
        <time>2018-04-15T07:53:18.000Z</time>
      </trkpt>
      <trkpt lat="49.37056" lon="1.42706">
        <ele>122</ele>
        <time>2018-04-15T07:53:21.000Z</time>
      </trkpt>
      <trkpt lat="49.37067" lon="1.42712">
        <ele>122</ele>
        <time>2018-04-15T07:53:24.000Z</time>
      </trkpt>
      <trkpt lat="49.37079" lon="1.42719">
        <ele>122</ele>
        <time>2018-04-15T07:53:27.000Z</time>
      </trkpt>
      <trkpt lat="49.37091" lon="1.42727">
        <ele>123</ele>
        <time>2018-04-15T07:53:30.000Z</time>
      </trkpt>
      <trkpt lat="49.37103" lon="1.42734">
        <ele>123</ele>
        <time>2018-04-15T07:53:33.000Z</time>
      </trkpt>
      <trkpt lat="49.37113" lon="1.42741">
        <ele>123</ele>
        <time>2018-04-15T07:53:36.000Z</time>
      </trkpt>
      <trkpt lat="49.37124" lon="1.42747">
        <ele>123</ele>
        <time>2018-04-15T07:53:39.000Z</time>
      </trkpt>
      <trkpt lat="49.37134" lon="1.42753">
        <ele>124</ele>
        <time>2018-04-15T07:53:42.000Z</time>
      </trkpt>
      <trkpt lat="49.37144" lon="1.42762">
        <ele>124</ele>
        <time>2018-04-15T07:53:45.000Z</time>
      </trkpt>
      <trkpt lat="49.37157" lon="1.42763">
        <ele>124</ele>
        <time>2018-04-15T07:53:48.000Z</time>
      </trkpt>
      <trkpt lat="49.37169" lon="1.42768">
        <ele>125</ele>
        <time>2018-04-15T07:53:51.000Z</time>
      </trkpt>
      <trkpt lat="49.37181" lon="1.42775">
        <ele>125</ele>
        <time>2018-04-15T07:53:54.000Z</time>
      </trkpt>
      <trkpt lat="49.37191" lon="1.42782">
        <ele>125</ele>
        <time>2018-04-15T07:53:57.000Z</time>
      </trkpt>
      <trkpt lat="49.37203" lon="1.4279">
        <ele>125</ele>
        <time>2018-04-15T07:54:00.000Z</time>
      </trkpt>
      <trkpt lat="49.37209" lon="1.42796">
        <ele>125</ele>
        <time>2018-04-15T07:54:03.000Z</time>
      </trkpt>
      <trkpt lat="49.37214" lon="1.428">
        <ele>125</ele>
        <time>2018-04-15T07:54:06.000Z</time>
      </trkpt>
      <trkpt lat="49.37217" lon="1.42804">
        <ele>125</ele>
        <time>2018-04-15T07:54:09.000Z</time>
      </trkpt>
      <trkpt lat="49.37214" lon="1.42805">
        <ele>125</ele>
        <time>2018-04-15T07:54:14.000Z</time>
      </trkpt>
      <trkpt lat="49.37214" lon="1.42808">
        <ele>125</ele>
        <time>2018-04-15T07:54:22.000Z</time>
      </trkpt>
      <trkpt lat="49.3722" lon="1.42822">
        <ele>125</ele>
        <time>2018-04-15T07:54:25.000Z</time>
      </trkpt>
      <trkpt lat="49.37229" lon="1.42868">
        <ele>124</ele>
        <time>2018-04-15T07:54:29.000Z</time>
      </trkpt>
      <trkpt lat="49.37242" lon="1.42895">
        <ele>124</ele>
        <time>2018-04-15T07:54:32.000Z</time>
      </trkpt>
      <trkpt lat="49.3725" lon="1.42922">
        <ele>124</ele>
        <time>2018-04-15T07:54:35.000Z</time>
      </trkpt>
      <trkpt lat="49.37256" lon="1.42941">
        <ele>123</ele>
        <time>2018-04-15T07:54:37.000Z</time>
      </trkpt>
      <trkpt lat="49.37261" lon="1.42959">
        <ele>123</ele>
        <time>2018-04-15T07:54:39.000Z</time>
      </trkpt>
      <trkpt lat="49.37265" lon="1.42969">
        <ele>123</ele>
        <time>2018-04-15T07:54:41.000Z</time>
      </trkpt>
      <trkpt lat="49.37272" lon="1.43">
        <ele>122</ele>
        <time>2018-04-15T07:54:44.000Z</time>
      </trkpt>
      <trkpt lat="49.37277" lon="1.43017">
        <ele>121</ele>
        <time>2018-04-15T07:54:46.000Z</time>
      </trkpt>
      <trkpt lat="49.37286" lon="1.43033">
        <ele>121</ele>
        <time>2018-04-15T07:54:48.000Z</time>
      </trkpt>
      <trkpt lat="49.37289" lon="1.43042">
        <ele>121</ele>
        <time>2018-04-15T07:54:50.000Z</time>
      </trkpt>
      <trkpt lat="49.37293" lon="1.43049">
        <ele>121</ele>
        <time>2018-04-15T07:54:52.000Z</time>
      </trkpt>
      <trkpt lat="49.37292" lon="1.4306">
        <ele>121</ele>
        <time>2018-04-15T07:54:54.000Z</time>
      </trkpt>
      <trkpt lat="49.37292" lon="1.4307">
        <ele>121</ele>
        <time>2018-04-15T07:54:56.000Z</time>
      </trkpt>
      <trkpt lat="49.3729" lon="1.4308">
        <ele>121</ele>
        <time>2018-04-15T07:54:58.000Z</time>
      </trkpt>
      <trkpt lat="49.37289" lon="1.43092">
        <ele>120</ele>
        <time>2018-04-15T07:55:00.000Z</time>
      </trkpt>
      <trkpt lat="49.37287" lon="1.43104">
        <ele>120</ele>
        <time>2018-04-15T07:55:02.000Z</time>
      </trkpt>
      <trkpt lat="49.37278" lon="1.43131">
        <ele>119</ele>
        <time>2018-04-15T07:55:05.000Z</time>
      </trkpt>
      <trkpt lat="49.37274" lon="1.43151">
        <ele>119</ele>
        <time>2018-04-15T07:55:07.000Z</time>
      </trkpt>
      <trkpt lat="49.37281" lon="1.43166">
        <ele>119</ele>
        <time>2018-04-15T07:55:09.000Z</time>
      </trkpt>
      <trkpt lat="49.37287" lon="1.43178">
        <ele>118</ele>
        <time>2018-04-15T07:55:11.000Z</time>
      </trkpt>
      <trkpt lat="49.37293" lon="1.43192">
        <ele>118</ele>
        <time>2018-04-15T07:55:13.000Z</time>
      </trkpt>
      <trkpt lat="49.37302" lon="1.43204">
        <ele>118</ele>
        <time>2018-04-15T07:55:16.000Z</time>
      </trkpt>
      <trkpt lat="49.37312" lon="1.43219">
        <ele>118</ele>
        <time>2018-04-15T07:55:19.000Z</time>
      </trkpt>
      <trkpt lat="49.3732" lon="1.43234">
        <ele>118</ele>
        <time>2018-04-15T07:55:22.000Z</time>
      </trkpt>
      <trkpt lat="49.37329" lon="1.4325">
        <ele>119</ele>
        <time>2018-04-15T07:55:25.000Z</time>
      </trkpt>
      <trkpt lat="49.37341" lon="1.43265">
        <ele>119</ele>
        <time>2018-04-15T07:55:28.000Z</time>
      </trkpt>
      <trkpt lat="49.3735" lon="1.43282">
        <ele>120</ele>
        <time>2018-04-15T07:55:31.000Z</time>
      </trkpt>
      <trkpt lat="49.37362" lon="1.433">
        <ele>120</ele>
        <time>2018-04-15T07:55:34.000Z</time>
      </trkpt>
      <trkpt lat="49.37374" lon="1.43313">
        <ele>120</ele>
        <time>2018-04-15T07:55:37.000Z</time>
      </trkpt>
      <trkpt lat="49.37385" lon="1.4333">
        <ele>120</ele>
        <time>2018-04-15T07:55:40.000Z</time>
      </trkpt>
      <trkpt lat="49.37399" lon="1.4334">
        <ele>120</ele>
        <time>2018-04-15T07:55:43.000Z</time>
      </trkpt>
      <trkpt lat="49.37415" lon="1.43347">
        <ele>120</ele>
        <time>2018-04-15T07:55:46.000Z</time>
      </trkpt>
      <trkpt lat="49.37431" lon="1.43352">
        <ele>122</ele>
        <time>2018-04-15T07:55:49.000Z</time>
      </trkpt>
      <trkpt lat="49.37446" lon="1.43357">
        <ele>122</ele>
        <time>2018-04-15T07:55:52.000Z</time>
      </trkpt>
      <trkpt lat="49.37456" lon="1.43363">
        <ele>122</ele>
        <time>2018-04-15T07:55:55.000Z</time>
      </trkpt>
      <trkpt lat="49.37471" lon="1.43375">
        <ele>122</ele>
        <time>2018-04-15T07:55:58.000Z</time>
      </trkpt>
      <trkpt lat="49.37484" lon="1.43387">
        <ele>122</ele>
        <time>2018-04-15T07:56:01.000Z</time>
      </trkpt>
      <trkpt lat="49.37497" lon="1.43398">
        <ele>122</ele>
        <time>2018-04-15T07:56:04.000Z</time>
      </trkpt>
      <trkpt lat="49.37513" lon="1.43411">
        <ele>123</ele>
        <time>2018-04-15T07:56:07.000Z</time>
      </trkpt>
      <trkpt lat="49.37527" lon="1.43422">
        <ele>123</ele>
        <time>2018-04-15T07:56:10.000Z</time>
      </trkpt>
      <trkpt lat="49.37545" lon="1.43434">
        <ele>123</ele>
        <time>2018-04-15T07:56:13.000Z</time>
      </trkpt>
      <trkpt lat="49.37556" lon="1.43443">
        <ele>123</ele>
        <time>2018-04-15T07:56:16.000Z</time>
      </trkpt>
      <trkpt lat="49.37567" lon="1.43456">
        <ele>123</ele>
        <time>2018-04-15T07:56:19.000Z</time>
      </trkpt>
      <trkpt lat="49.37586" lon="1.43468">
        <ele>124</ele>
        <time>2018-04-15T07:56:22.000Z</time>
      </trkpt>
      <trkpt lat="49.37602" lon="1.43476">
        <ele>124</ele>
        <time>2018-04-15T07:56:25.000Z</time>
      </trkpt>
      <trkpt lat="49.37613" lon="1.43484">
        <ele>124</ele>
        <time>2018-04-15T07:56:28.000Z</time>
      </trkpt>
      <trkpt lat="49.37626" lon="1.43494">
        <ele>124</ele>
        <time>2018-04-15T07:56:31.000Z</time>
      </trkpt>
      <trkpt lat="49.3764" lon="1.43503">
        <ele>123</ele>
        <time>2018-04-15T07:56:34.000Z</time>
      </trkpt>
      <trkpt lat="49.37655" lon="1.43511">
        <ele>123</ele>
        <time>2018-04-15T07:56:37.000Z</time>
      </trkpt>
      <trkpt lat="49.37667" lon="1.43515">
        <ele>124</ele>
        <time>2018-04-15T07:56:40.000Z</time>
      </trkpt>
      <trkpt lat="49.37676" lon="1.4352">
        <ele>123</ele>
        <time>2018-04-15T07:56:43.000Z</time>
      </trkpt>
      <trkpt lat="49.37687" lon="1.43527">
        <ele>123</ele>
        <time>2018-04-15T07:56:46.000Z</time>
      </trkpt>
      <trkpt lat="49.37696" lon="1.43532">
        <ele>123</ele>
        <time>2018-04-15T07:56:49.000Z</time>
      </trkpt>
      <trkpt lat="49.37706" lon="1.43538">
        <ele>123</ele>
        <time>2018-04-15T07:56:52.000Z</time>
      </trkpt>
      <trkpt lat="49.37716" lon="1.43544">
        <ele>123</ele>
        <time>2018-04-15T07:56:55.000Z</time>
      </trkpt>
      <trkpt lat="49.37724" lon="1.43551">
        <ele>123</ele>
        <time>2018-04-15T07:56:58.000Z</time>
      </trkpt>
      <trkpt lat="49.37735" lon="1.43556">
        <ele>122</ele>
        <time>2018-04-15T07:57:01.000Z</time>
      </trkpt>
      <trkpt lat="49.37746" lon="1.43566">
        <ele>122</ele>
        <time>2018-04-15T07:57:04.000Z</time>
      </trkpt>
      <trkpt lat="49.37752" lon="1.43592">
        <ele>119</ele>
        <time>2018-04-15T07:57:07.000Z</time>
      </trkpt>
      <trkpt lat="49.37755" lon="1.43615">
        <ele>117</ele>
        <time>2018-04-15T07:57:10.000Z</time>
      </trkpt>
      <trkpt lat="49.37762" lon="1.43643">
        <ele>115</ele>
        <time>2018-04-15T07:57:13.000Z</time>
      </trkpt>
      <trkpt lat="49.37771" lon="1.43671">
        <ele>110</ele>
        <time>2018-04-15T07:57:16.000Z</time>
      </trkpt>
      <trkpt lat="49.37777" lon="1.43694">
        <ele>108</ele>
        <time>2018-04-15T07:57:19.000Z</time>
      </trkpt>
      <trkpt lat="49.37781" lon="1.43706">
        <ele>108</ele>
        <time>2018-04-15T07:57:22.000Z</time>
      </trkpt>
      <trkpt lat="49.3778" lon="1.43717">
        <ele>107</ele>
        <time>2018-04-15T07:57:25.000Z</time>
      </trkpt>
      <trkpt lat="49.37783" lon="1.43727">
        <ele>106</ele>
        <time>2018-04-15T07:57:28.000Z</time>
      </trkpt>
      <trkpt lat="49.37784" lon="1.43734">
        <ele>106</ele>
        <time>2018-04-15T07:57:31.000Z</time>
      </trkpt>
      <trkpt lat="49.37787" lon="1.43741">
        <ele>106</ele>
        <time>2018-04-15T07:57:34.000Z</time>
      </trkpt>
      <trkpt lat="49.37792" lon="1.43747">
        <ele>105</ele>
        <time>2018-04-15T07:57:37.000Z</time>
      </trkpt>
      <trkpt lat="49.37794" lon="1.4375">
        <ele>105</ele>
        <time>2018-04-15T07:57:40.000Z</time>
      </trkpt>
      <trkpt lat="49.37796" lon="1.43755">
        <ele>98</ele>
        <time>2018-04-15T07:57:46.000Z</time>
      </trkpt>
      <trkpt lat="49.37798" lon="1.43758">
        <ele>98</ele>
        <time>2018-04-15T07:57:49.000Z</time>
      </trkpt>
      <trkpt lat="49.378" lon="1.4376">
        <ele>98</ele>
        <time>2018-04-15T07:57:52.000Z</time>
      </trkpt>
      <trkpt lat="49.37803" lon="1.43765">
        <ele>97</ele>
        <time>2018-04-15T07:57:55.000Z</time>
      </trkpt>
      <trkpt lat="49.37807" lon="1.43772">
        <ele>97</ele>
        <time>2018-04-15T07:57:58.000Z</time>
      </trkpt>
      <trkpt lat="49.3781" lon="1.43778">
        <ele>96</ele>
        <time>2018-04-15T07:58:01.000Z</time>
      </trkpt>
      <trkpt lat="49.37815" lon="1.43785">
        <ele>96</ele>
        <time>2018-04-15T07:58:04.000Z</time>
      </trkpt>
      <trkpt lat="49.37818" lon="1.43792">
        <ele>95</ele>
        <time>2018-04-15T07:58:07.000Z</time>
      </trkpt>
      <trkpt lat="49.37822" lon="1.43798">
        <ele>94</ele>
        <time>2018-04-15T07:58:10.000Z</time>
      </trkpt>
      <trkpt lat="49.37824" lon="1.43804">
        <ele>94</ele>
        <time>2018-04-15T07:58:13.000Z</time>
      </trkpt>
      <trkpt lat="49.37828" lon="1.4381">
        <ele>93</ele>
        <time>2018-04-15T07:58:16.000Z</time>
      </trkpt>
      <trkpt lat="49.37833" lon="1.43818">
        <ele>91</ele>
        <time>2018-04-15T07:58:19.000Z</time>
      </trkpt>
      <trkpt lat="49.37839" lon="1.43825">
        <ele>90</ele>
        <time>2018-04-15T07:58:22.000Z</time>
      </trkpt>
      <trkpt lat="49.37845" lon="1.43833">
        <ele>87</ele>
        <time>2018-04-15T07:58:25.000Z</time>
      </trkpt>
      <trkpt lat="49.37851" lon="1.43843">
        <ele>86</ele>
        <time>2018-04-15T07:58:28.000Z</time>
      </trkpt>
      <trkpt lat="49.37859" lon="1.43851">
        <ele>85</ele>
        <time>2018-04-15T07:58:31.000Z</time>
      </trkpt>
      <trkpt lat="49.37865" lon="1.43859">
        <ele>84</ele>
        <time>2018-04-15T07:58:34.000Z</time>
      </trkpt>
      <trkpt lat="49.3787" lon="1.43868">
        <ele>84</ele>
        <time>2018-04-15T07:58:37.000Z</time>
      </trkpt>
      <trkpt lat="49.37876" lon="1.43876">
        <ele>83</ele>
        <time>2018-04-15T07:58:40.000Z</time>
      </trkpt>
      <trkpt lat="49.37885" lon="1.43884">
        <ele>83</ele>
        <time>2018-04-15T07:58:43.000Z</time>
      </trkpt>
      <trkpt lat="49.37892" lon="1.43891">
        <ele>83</ele>
        <time>2018-04-15T07:58:46.000Z</time>
      </trkpt>
      <trkpt lat="49.37897" lon="1.43899">
        <ele>83</ele>
        <time>2018-04-15T07:58:49.000Z</time>
      </trkpt>
      <trkpt lat="49.379" lon="1.43906">
        <ele>83</ele>
        <time>2018-04-15T07:58:52.000Z</time>
      </trkpt>
      <trkpt lat="49.37902" lon="1.4391">
        <ele>82</ele>
        <time>2018-04-15T07:58:55.000Z</time>
      </trkpt>
      <trkpt lat="49.37904" lon="1.43915">
        <ele>82</ele>
        <time>2018-04-15T07:58:58.000Z</time>
      </trkpt>
      <trkpt lat="49.3791" lon="1.4392">
        <ele>80</ele>
        <time>2018-04-15T07:59:01.000Z</time>
      </trkpt>
      <trkpt lat="49.37913" lon="1.43928">
        <ele>80</ele>
        <time>2018-04-15T07:59:04.000Z</time>
      </trkpt>
      <trkpt lat="49.379" lon="1.4396">
        <ele>76</ele>
        <time>2018-04-15T07:59:08.000Z</time>
      </trkpt>
      <trkpt lat="49.37896" lon="1.43987">
        <ele>75</ele>
        <time>2018-04-15T07:59:11.000Z</time>
      </trkpt>
      <trkpt lat="49.3789" lon="1.44049">
        <ele>69</ele>
        <time>2018-04-15T07:59:15.000Z</time>
      </trkpt>
      <trkpt lat="49.37888" lon="1.44093">
        <ele>67</ele>
        <time>2018-04-15T07:59:18.000Z</time>
      </trkpt>
      <trkpt lat="49.37887" lon="1.44141">
        <ele>66</ele>
        <time>2018-04-15T07:59:21.000Z</time>
      </trkpt>
      <trkpt lat="49.37889" lon="1.44185">
        <ele>65</ele>
        <time>2018-04-15T07:59:24.000Z</time>
      </trkpt>
      <trkpt lat="49.37894" lon="1.44225">
        <ele>65</ele>
        <time>2018-04-15T07:59:27.000Z</time>
      </trkpt>
      <trkpt lat="49.37899" lon="1.44263">
        <ele>65</ele>
        <time>2018-04-15T07:59:30.000Z</time>
      </trkpt>
      <trkpt lat="49.37908" lon="1.4429">
        <ele>65</ele>
        <time>2018-04-15T07:59:33.000Z</time>
      </trkpt>
      <trkpt lat="49.37915" lon="1.44316">
        <ele>65</ele>
        <time>2018-04-15T07:59:36.000Z</time>
      </trkpt>
      <trkpt lat="49.37916" lon="1.44339">
        <ele>65</ele>
        <time>2018-04-15T07:59:39.000Z</time>
      </trkpt>
      <trkpt lat="49.37923" lon="1.44357">
        <ele>67</ele>
        <time>2018-04-15T07:59:42.000Z</time>
      </trkpt>
      <trkpt lat="49.37929" lon="1.4436">
        <ele>68</ele>
        <time>2018-04-15T07:59:45.000Z</time>
      </trkpt>
      <trkpt lat="49.37934" lon="1.44355">
        <ele>68</ele>
        <time>2018-04-15T07:59:48.000Z</time>
      </trkpt>
      <trkpt lat="49.37939" lon="1.44351">
        <ele>68</ele>
        <time>2018-04-15T07:59:51.000Z</time>
      </trkpt>
      <trkpt lat="49.37944" lon="1.44348">
        <ele>68</ele>
        <time>2018-04-15T07:59:54.000Z</time>
      </trkpt>
      <trkpt lat="49.37949" lon="1.44349">
        <ele>68</ele>
        <time>2018-04-15T07:59:57.000Z</time>
      </trkpt>
      <trkpt lat="49.37954" lon="1.44351">
        <ele>69</ele>
        <time>2018-04-15T08:00:00.000Z</time>
      </trkpt>
      <trkpt lat="49.37958" lon="1.4435">
        <ele>69</ele>
        <time>2018-04-15T08:00:03.000Z</time>
      </trkpt>
      <trkpt lat="49.37963" lon="1.44351">
        <ele>69</ele>
        <time>2018-04-15T08:00:06.000Z</time>
      </trkpt>
      <trkpt lat="49.37967" lon="1.44353">
        <ele>70</ele>
        <time>2018-04-15T08:00:09.000Z</time>
      </trkpt>
      <trkpt lat="49.3797" lon="1.44354">
        <ele>70</ele>
        <time>2018-04-15T08:00:12.000Z</time>
      </trkpt>
      <trkpt lat="49.37974" lon="1.44353">
        <ele>70</ele>
        <time>2018-04-15T08:00:15.000Z</time>
      </trkpt>
      <trkpt lat="49.37979" lon="1.44353">
        <ele>70</ele>
        <time>2018-04-15T08:00:18.000Z</time>
      </trkpt>
      <trkpt lat="49.37984" lon="1.44355">
        <ele>71</ele>
        <time>2018-04-15T08:00:21.000Z</time>
      </trkpt>
      <trkpt lat="49.37988" lon="1.44356">
        <ele>71</ele>
        <time>2018-04-15T08:00:24.000Z</time>
      </trkpt>
      <trkpt lat="49.37992" lon="1.44357">
        <ele>71</ele>
        <time>2018-04-15T08:00:27.000Z</time>
      </trkpt>
      <trkpt lat="49.37997" lon="1.44359">
        <ele>71</ele>
        <time>2018-04-15T08:00:30.000Z</time>
      </trkpt>
      <trkpt lat="49.38004" lon="1.44362">
        <ele>76</ele>
        <time>2018-04-15T08:00:33.000Z</time>
      </trkpt>
      <trkpt lat="49.38009" lon="1.44364">
        <ele>76</ele>
        <time>2018-04-15T08:00:36.000Z</time>
      </trkpt>
      <trkpt lat="49.38014" lon="1.44366">
        <ele>76</ele>
        <time>2018-04-15T08:00:39.000Z</time>
      </trkpt>
      <trkpt lat="49.38017" lon="1.44366">
        <ele>76</ele>
        <time>2018-04-15T08:00:42.000Z</time>
      </trkpt>
      <trkpt lat="49.38021" lon="1.44367">
        <ele>76</ele>
        <time>2018-04-15T08:00:45.000Z</time>
      </trkpt>
      <trkpt lat="49.38024" lon="1.44368">
        <ele>76</ele>
        <time>2018-04-15T08:00:48.000Z</time>
      </trkpt>
      <trkpt lat="49.38025" lon="1.44369">
        <ele>76</ele>
        <time>2018-04-15T08:00:51.000Z</time>
      </trkpt>
      <trkpt lat="49.38027" lon="1.4437">
        <ele>76</ele>
        <time>2018-04-15T08:00:55.000Z</time>
      </trkpt>
      <trkpt lat="49.38032" lon="1.44368">
        <ele>77</ele>
        <time>2018-04-15T08:00:58.000Z</time>
      </trkpt>
      <trkpt lat="49.38038" lon="1.44364">
        <ele>77</ele>
        <time>2018-04-15T08:01:01.000Z</time>
      </trkpt>
      <trkpt lat="49.38042" lon="1.4436">
        <ele>77</ele>
        <time>2018-04-15T08:01:04.000Z</time>
      </trkpt>
      <trkpt lat="49.38045" lon="1.44357">
        <ele>78</ele>
        <time>2018-04-15T08:01:07.000Z</time>
      </trkpt>
      <trkpt lat="49.38044" lon="1.44352">
        <ele>78</ele>
        <time>2018-04-15T08:01:10.000Z</time>
      </trkpt>
      <trkpt lat="49.38045" lon="1.44349">
        <ele>78</ele>
        <time>2018-04-15T08:01:12.000Z</time>
      </trkpt>
      <trkpt lat="49.38046" lon="1.44344">
        <ele>78</ele>
        <time>2018-04-15T08:01:14.000Z</time>
      </trkpt>
      <trkpt lat="49.38046" lon="1.4434">
        <ele>79</ele>
        <time>2018-04-15T08:01:16.000Z</time>
      </trkpt>
      <trkpt lat="49.38046" lon="1.44337">
        <ele>79</ele>
        <time>2018-04-15T08:01:18.000Z</time>
      </trkpt>
      <trkpt lat="49.38046" lon="1.44334">
        <ele>79</ele>
        <time>2018-04-15T08:01:20.000Z</time>
      </trkpt>
      <trkpt lat="49.38047" lon="1.4433">
        <ele>83</ele>
        <time>2018-04-15T08:01:22.000Z</time>
      </trkpt>
      <trkpt lat="49.38046" lon="1.44327">
        <ele>83</ele>
        <time>2018-04-15T08:01:24.000Z</time>
      </trkpt>
      <trkpt lat="49.38046" lon="1.44324">
        <ele>83</ele>
        <time>2018-04-15T08:01:26.000Z</time>
      </trkpt>
      <trkpt lat="49.38046" lon="1.44321">
        <ele>83</ele>
        <time>2018-04-15T08:01:28.000Z</time>
      </trkpt>
      <trkpt lat="49.38046" lon="1.44317">
        <ele>83</ele>
        <time>2018-04-15T08:01:30.000Z</time>
      </trkpt>
      <trkpt lat="49.38046" lon="1.44314">
        <ele>83</ele>
        <time>2018-04-15T08:01:32.000Z</time>
      </trkpt>
      <trkpt lat="49.38047" lon="1.4431">
        <ele>83</ele>
        <time>2018-04-15T08:01:34.000Z</time>
      </trkpt>
      <trkpt lat="49.38047" lon="1.44306">
        <ele>84</ele>
        <time>2018-04-15T08:01:36.000Z</time>
      </trkpt>
      <trkpt lat="49.38047" lon="1.44303">
        <ele>84</ele>
        <time>2018-04-15T08:01:38.000Z</time>
      </trkpt>
      <trkpt lat="49.38047" lon="1.44299">
        <ele>84</ele>
        <time>2018-04-15T08:01:40.000Z</time>
      </trkpt>
      <trkpt lat="49.38047" lon="1.44296">
        <ele>84</ele>
        <time>2018-04-15T08:01:42.000Z</time>
      </trkpt>
      <trkpt lat="49.38047" lon="1.44293">
        <ele>84</ele>
        <time>2018-04-15T08:01:44.000Z</time>
      </trkpt>
      <trkpt lat="49.38047" lon="1.4429">
        <ele>84</ele>
        <time>2018-04-15T08:01:46.000Z</time>
      </trkpt>
      <trkpt lat="49.38047" lon="1.44286">
        <ele>84</ele>
        <time>2018-04-15T08:01:48.000Z</time>
      </trkpt>
      <trkpt lat="49.38046" lon="1.44282">
        <ele>84</ele>
        <time>2018-04-15T08:01:50.000Z</time>
      </trkpt>
      <trkpt lat="49.38045" lon="1.44279">
        <ele>84</ele>
        <time>2018-04-15T08:01:52.000Z</time>
      </trkpt>
      <trkpt lat="49.38044" lon="1.44276">
        <ele>84</ele>
        <time>2018-04-15T08:01:54.000Z</time>
      </trkpt>
      <trkpt lat="49.38044" lon="1.44273">
        <ele>84</ele>
        <time>2018-04-15T08:01:56.000Z</time>
      </trkpt>
      <trkpt lat="49.38044" lon="1.44269">
        <ele>85</ele>
        <time>2018-04-15T08:01:59.000Z</time>
      </trkpt>
      <trkpt lat="49.38045" lon="1.44265">
        <ele>85</ele>
        <time>2018-04-15T08:02:02.000Z</time>
      </trkpt>
      <trkpt lat="49.38046" lon="1.44259">
        <ele>85</ele>
        <time>2018-04-15T08:02:05.000Z</time>
      </trkpt>
      <trkpt lat="49.38046" lon="1.44254">
        <ele>85</ele>
        <time>2018-04-15T08:02:08.000Z</time>
      </trkpt>
      <trkpt lat="49.38046" lon="1.44249">
        <ele>90</ele>
        <time>2018-04-15T08:02:11.000Z</time>
      </trkpt>
      <trkpt lat="49.38046" lon="1.44245">
        <ele>90</ele>
        <time>2018-04-15T08:02:14.000Z</time>
      </trkpt>
      <trkpt lat="49.38047" lon="1.4424">
        <ele>91</ele>
        <time>2018-04-15T08:02:17.000Z</time>
      </trkpt>
      <trkpt lat="49.38047" lon="1.44235">
        <ele>91</ele>
        <time>2018-04-15T08:02:20.000Z</time>
      </trkpt>
      <trkpt lat="49.38049" lon="1.44231">
        <ele>91</ele>
        <time>2018-04-15T08:02:23.000Z</time>
      </trkpt>
      <trkpt lat="49.3805" lon="1.44227">
        <ele>91</ele>
        <time>2018-04-15T08:02:26.000Z</time>
      </trkpt>
      <trkpt lat="49.38051" lon="1.44222">
        <ele>92</ele>
        <time>2018-04-15T08:02:29.000Z</time>
      </trkpt>
      <trkpt lat="49.38052" lon="1.44217">
        <ele>92</ele>
        <time>2018-04-15T08:02:32.000Z</time>
      </trkpt>
      <trkpt lat="49.38052" lon="1.44213">
        <ele>92</ele>
        <time>2018-04-15T08:02:35.000Z</time>
      </trkpt>
      <trkpt lat="49.38054" lon="1.44209">
        <ele>93</ele>
        <time>2018-04-15T08:02:38.000Z</time>
      </trkpt>
      <trkpt lat="49.38054" lon="1.44204">
        <ele>93</ele>
        <time>2018-04-15T08:02:41.000Z</time>
      </trkpt>
      <trkpt lat="49.38055" lon="1.44199">
        <ele>94</ele>
        <time>2018-04-15T08:02:44.000Z</time>
      </trkpt>
      <trkpt lat="49.38058" lon="1.44196">
        <ele>95</ele>
        <time>2018-04-15T08:02:47.000Z</time>
      </trkpt>
      <trkpt lat="49.38061" lon="1.44195">
        <ele>95</ele>
        <time>2018-04-15T08:02:50.000Z</time>
      </trkpt>
      <trkpt lat="49.38065" lon="1.44196">
        <ele>96</ele>
        <time>2018-04-15T08:02:53.000Z</time>
      </trkpt>
      <trkpt lat="49.38068" lon="1.44196">
        <ele>96</ele>
        <time>2018-04-15T08:02:56.000Z</time>
      </trkpt>
      <trkpt lat="49.38071" lon="1.44195">
        <ele>96</ele>
        <time>2018-04-15T08:02:59.000Z</time>
      </trkpt>
      <trkpt lat="49.38073" lon="1.44196">
        <ele>97</ele>
        <time>2018-04-15T08:03:02.000Z</time>
      </trkpt>
      <trkpt lat="49.38076" lon="1.44198">
        <ele>97</ele>
        <time>2018-04-15T08:03:05.000Z</time>
      </trkpt>
      <trkpt lat="49.38079" lon="1.44198">
        <ele>97</ele>
        <time>2018-04-15T08:03:08.000Z</time>
      </trkpt>
      <trkpt lat="49.38082" lon="1.44199">
        <ele>97</ele>
        <time>2018-04-15T08:03:11.000Z</time>
      </trkpt>
      <trkpt lat="49.38085" lon="1.44202">
        <ele>106</ele>
        <time>2018-04-15T08:03:14.000Z</time>
      </trkpt>
      <trkpt lat="49.38088" lon="1.44203">
        <ele>106</ele>
        <time>2018-04-15T08:03:17.000Z</time>
      </trkpt>
      <trkpt lat="49.38091" lon="1.44205">
        <ele>106</ele>
        <time>2018-04-15T08:03:20.000Z</time>
      </trkpt>
      <trkpt lat="49.38093" lon="1.44206">
        <ele>106</ele>
        <time>2018-04-15T08:03:23.000Z</time>
      </trkpt>
      <trkpt lat="49.38096" lon="1.44207">
        <ele>106</ele>
        <time>2018-04-15T08:03:26.000Z</time>
      </trkpt>
      <trkpt lat="49.38099" lon="1.44207">
        <ele>106</ele>
        <time>2018-04-15T08:03:29.000Z</time>
      </trkpt>
      <trkpt lat="49.38102" lon="1.44208">
        <ele>106</ele>
        <time>2018-04-15T08:03:32.000Z</time>
      </trkpt>
      <trkpt lat="49.38105" lon="1.4421">
        <ele>106</ele>
        <time>2018-04-15T08:03:35.000Z</time>
      </trkpt>
      <trkpt lat="49.38108" lon="1.4421">
        <ele>106</ele>
        <time>2018-04-15T08:03:38.000Z</time>
      </trkpt>
      <trkpt lat="49.38111" lon="1.4421">
        <ele>106</ele>
        <time>2018-04-15T08:03:41.000Z</time>
      </trkpt>
      <trkpt lat="49.38115" lon="1.44211">
        <ele>106</ele>
        <time>2018-04-15T08:03:44.000Z</time>
      </trkpt>
      <trkpt lat="49.38118" lon="1.44212">
        <ele>106</ele>
        <time>2018-04-15T08:03:47.000Z</time>
      </trkpt>
      <trkpt lat="49.38121" lon="1.44212">
        <ele>106</ele>
        <time>2018-04-15T08:03:50.000Z</time>
      </trkpt>
      <trkpt lat="49.38124" lon="1.44213">
        <ele>106</ele>
        <time>2018-04-15T08:03:53.000Z</time>
      </trkpt>
      <trkpt lat="49.38128" lon="1.44213">
        <ele>107</ele>
        <time>2018-04-15T08:03:56.000Z</time>
      </trkpt>
      <trkpt lat="49.38132" lon="1.44214">
        <ele>107</ele>
        <time>2018-04-15T08:03:59.000Z</time>
      </trkpt>
      <trkpt lat="49.38135" lon="1.44215">
        <ele>107</ele>
        <time>2018-04-15T08:04:02.000Z</time>
      </trkpt>
      <trkpt lat="49.38139" lon="1.44216">
        <ele>107</ele>
        <time>2018-04-15T08:04:05.000Z</time>
      </trkpt>
      <trkpt lat="49.38143" lon="1.44217">
        <ele>107</ele>
        <time>2018-04-15T08:04:08.000Z</time>
      </trkpt>
      <trkpt lat="49.38147" lon="1.44219">
        <ele>107</ele>
        <time>2018-04-15T08:04:11.000Z</time>
      </trkpt>
      <trkpt lat="49.38152" lon="1.44219">
        <ele>107</ele>
        <time>2018-04-15T08:04:14.000Z</time>
      </trkpt>
      <trkpt lat="49.38157" lon="1.44219">
        <ele>107</ele>
        <time>2018-04-15T08:04:17.000Z</time>
      </trkpt>
      <trkpt lat="49.38161" lon="1.4422">
        <ele>107</ele>
        <time>2018-04-15T08:04:20.000Z</time>
      </trkpt>
      <trkpt lat="49.38166" lon="1.44221">
        <ele>107</ele>
        <time>2018-04-15T08:04:23.000Z</time>
      </trkpt>
      <trkpt lat="49.38171" lon="1.44222">
        <ele>109</ele>
        <time>2018-04-15T08:04:26.000Z</time>
      </trkpt>
      <trkpt lat="49.38177" lon="1.44221">
        <ele>110</ele>
        <time>2018-04-15T08:04:29.000Z</time>
      </trkpt>
      <trkpt lat="49.38182" lon="1.44222">
        <ele>110</ele>
        <time>2018-04-15T08:04:32.000Z</time>
      </trkpt>
      <trkpt lat="49.38189" lon="1.44224">
        <ele>109</ele>
        <time>2018-04-15T08:04:35.000Z</time>
      </trkpt>
      <trkpt lat="49.38199" lon="1.44226">
        <ele>109</ele>
        <time>2018-04-15T08:04:38.000Z</time>
      </trkpt>
      <trkpt lat="49.38215" lon="1.44231">
        <ele>109</ele>
        <time>2018-04-15T08:04:41.000Z</time>
      </trkpt>
      <trkpt lat="49.38239" lon="1.44246">
        <ele>106</ele>
        <time>2018-04-15T08:04:44.000Z</time>
      </trkpt>
      <trkpt lat="49.38274" lon="1.44255">
        <ele>100</ele>
        <time>2018-04-15T08:04:47.000Z</time>
      </trkpt>
      <trkpt lat="49.38302" lon="1.44264">
        <ele>99</ele>
        <time>2018-04-15T08:04:50.000Z</time>
      </trkpt>
      <trkpt lat="49.38329" lon="1.44281">
        <ele>98</ele>
        <time>2018-04-15T08:04:53.000Z</time>
      </trkpt>
      <trkpt lat="49.38359" lon="1.44295">
        <ele>98</ele>
        <time>2018-04-15T08:04:56.000Z</time>
      </trkpt>
      <trkpt lat="49.38386" lon="1.44302">
        <ele>99</ele>
        <time>2018-04-15T08:04:59.000Z</time>
      </trkpt>
      <trkpt lat="49.38406" lon="1.443">
        <ele>99</ele>
        <time>2018-04-15T08:05:02.000Z</time>
      </trkpt>
      <trkpt lat="49.38424" lon="1.44315">
        <ele>99</ele>
        <time>2018-04-15T08:05:05.000Z</time>
      </trkpt>
      <trkpt lat="49.38438" lon="1.44324">
        <ele>99</ele>
        <time>2018-04-15T08:05:08.000Z</time>
      </trkpt>
      <trkpt lat="49.38451" lon="1.44331">
        <ele>100</ele>
        <time>2018-04-15T08:05:11.000Z</time>
      </trkpt>
      <trkpt lat="49.38463" lon="1.44323">
        <ele>101</ele>
        <time>2018-04-15T08:05:14.000Z</time>
      </trkpt>
      <trkpt lat="49.38475" lon="1.44324">
        <ele>101</ele>
        <time>2018-04-15T08:05:17.000Z</time>
      </trkpt>
      <trkpt lat="49.38485" lon="1.44321">
        <ele>100</ele>
        <time>2018-04-15T08:05:20.000Z</time>
      </trkpt>
      <trkpt lat="49.38493" lon="1.44322">
        <ele>100</ele>
        <time>2018-04-15T08:05:23.000Z</time>
      </trkpt>
      <trkpt lat="49.38498" lon="1.44319">
        <ele>100</ele>
        <time>2018-04-15T08:05:26.000Z</time>
      </trkpt>
      <trkpt lat="49.38503" lon="1.44315">
        <ele>103</ele>
        <time>2018-04-15T08:05:29.000Z</time>
      </trkpt>
      <trkpt lat="49.38508" lon="1.44313">
        <ele>104</ele>
        <time>2018-04-15T08:05:32.000Z</time>
      </trkpt>
      <trkpt lat="49.38513" lon="1.4431">
        <ele>105</ele>
        <time>2018-04-15T08:05:35.000Z</time>
      </trkpt>
      <trkpt lat="49.38518" lon="1.44308">
        <ele>106</ele>
        <time>2018-04-15T08:05:38.000Z</time>
      </trkpt>
      <trkpt lat="49.38522" lon="1.44306">
        <ele>106</ele>
        <time>2018-04-15T08:05:41.000Z</time>
      </trkpt>
      <trkpt lat="49.38527" lon="1.44303">
        <ele>107</ele>
        <time>2018-04-15T08:05:44.000Z</time>
      </trkpt>
      <trkpt lat="49.38533" lon="1.44302">
        <ele>107</ele>
        <time>2018-04-15T08:05:47.000Z</time>
      </trkpt>
      <trkpt lat="49.38541" lon="1.44305">
        <ele>107</ele>
        <time>2018-04-15T08:05:50.000Z</time>
      </trkpt>
      <trkpt lat="49.38546" lon="1.4431">
        <ele>107</ele>
        <time>2018-04-15T08:05:53.000Z</time>
      </trkpt>
      <trkpt lat="49.38552" lon="1.44313">
        <ele>107</ele>
        <time>2018-04-15T08:05:56.000Z</time>
      </trkpt>
      <trkpt lat="49.38558" lon="1.44319">
        <ele>106</ele>
        <time>2018-04-15T08:05:59.000Z</time>
      </trkpt>
      <trkpt lat="49.38565" lon="1.44326">
        <ele>105</ele>
        <time>2018-04-15T08:06:02.000Z</time>
      </trkpt>
      <trkpt lat="49.38576" lon="1.44332">
        <ele>104</ele>
        <time>2018-04-15T08:06:05.000Z</time>
      </trkpt>
      <trkpt lat="49.38587" lon="1.44338">
        <ele>101</ele>
        <time>2018-04-15T08:06:08.000Z</time>
      </trkpt>
      <trkpt lat="49.38598" lon="1.44341">
        <ele>100</ele>
        <time>2018-04-15T08:06:11.000Z</time>
      </trkpt>
      <trkpt lat="49.38607" lon="1.44341">
        <ele>100</ele>
        <time>2018-04-15T08:06:14.000Z</time>
      </trkpt>
      <trkpt lat="49.38614" lon="1.4434">
        <ele>100</ele>
        <time>2018-04-15T08:06:17.000Z</time>
      </trkpt>
      <trkpt lat="49.38622" lon="1.44341">
        <ele>101</ele>
        <time>2018-04-15T08:06:20.000Z</time>
      </trkpt>
      <trkpt lat="49.38629" lon="1.4434">
        <ele>101</ele>
        <time>2018-04-15T08:06:23.000Z</time>
      </trkpt>
      <trkpt lat="49.38637" lon="1.4434">
        <ele>102</ele>
        <time>2018-04-15T08:06:26.000Z</time>
      </trkpt>
      <trkpt lat="49.38646" lon="1.44341">
        <ele>103</ele>
        <time>2018-04-15T08:06:29.000Z</time>
      </trkpt>
      <trkpt lat="49.38655" lon="1.44345">
        <ele>104</ele>
        <time>2018-04-15T08:06:32.000Z</time>
      </trkpt>
      <trkpt lat="49.38663" lon="1.44351">
        <ele>104</ele>
        <time>2018-04-15T08:06:35.000Z</time>
      </trkpt>
      <trkpt lat="49.3867" lon="1.44355">
        <ele>106</ele>
        <time>2018-04-15T08:06:38.000Z</time>
      </trkpt>
      <trkpt lat="49.38674" lon="1.4435">
        <ele>107</ele>
        <time>2018-04-15T08:06:41.000Z</time>
      </trkpt>
      <trkpt lat="49.38675" lon="1.44347">
        <ele>107</ele>
        <time>2018-04-15T08:06:44.000Z</time>
      </trkpt>
      <trkpt lat="49.38678" lon="1.44346">
        <ele>107</ele>
        <time>2018-04-15T08:06:47.000Z</time>
      </trkpt>
      <trkpt lat="49.38683" lon="1.44345">
        <ele>107</ele>
        <time>2018-04-15T08:06:50.000Z</time>
      </trkpt>
      <trkpt lat="49.38686" lon="1.44344">
        <ele>107</ele>
        <time>2018-04-15T08:06:53.000Z</time>
      </trkpt>
      <trkpt lat="49.3869" lon="1.44341">
        <ele>107</ele>
        <time>2018-04-15T08:06:56.000Z</time>
      </trkpt>
      <trkpt lat="49.38695" lon="1.44338">
        <ele>107</ele>
        <time>2018-04-15T08:06:59.000Z</time>
      </trkpt>
      <trkpt lat="49.38699" lon="1.44336">
        <ele>107</ele>
        <time>2018-04-15T08:07:02.000Z</time>
      </trkpt>
      <trkpt lat="49.38703" lon="1.44333">
        <ele>118</ele>
        <time>2018-04-15T08:07:05.000Z</time>
      </trkpt>
      <trkpt lat="49.38705" lon="1.44332">
        <ele>118</ele>
        <time>2018-04-15T08:07:08.000Z</time>
      </trkpt>
      <trkpt lat="49.38707" lon="1.44331">
        <ele>118</ele>
        <time>2018-04-15T08:07:11.000Z</time>
      </trkpt>
      <trkpt lat="49.3871" lon="1.44328">
        <ele>118</ele>
        <time>2018-04-15T08:07:14.000Z</time>
      </trkpt>
      <trkpt lat="49.38712" lon="1.44329">
        <ele>118</ele>
        <time>2018-04-15T08:07:17.000Z</time>
      </trkpt>
      <trkpt lat="49.38715" lon="1.44329">
        <ele>118</ele>
        <time>2018-04-15T08:07:20.000Z</time>
      </trkpt>
      <trkpt lat="49.38718" lon="1.44327">
        <ele>118</ele>
        <time>2018-04-15T08:07:23.000Z</time>
      </trkpt>
      <trkpt lat="49.38722" lon="1.44325">
        <ele>118</ele>
        <time>2018-04-15T08:07:26.000Z</time>
      </trkpt>
      <trkpt lat="49.38727" lon="1.44323">
        <ele>118</ele>
        <time>2018-04-15T08:07:29.000Z</time>
      </trkpt>
      <trkpt lat="49.38733" lon="1.4432">
        <ele>118</ele>
        <time>2018-04-15T08:07:32.000Z</time>
      </trkpt>
      <trkpt lat="49.38737" lon="1.4432">
        <ele>118</ele>
        <time>2018-04-15T08:07:35.000Z</time>
      </trkpt>
      <trkpt lat="49.38741" lon="1.4432">
        <ele>117</ele>
        <time>2018-04-15T08:07:38.000Z</time>
      </trkpt>
      <trkpt lat="49.38744" lon="1.4432">
        <ele>117</ele>
        <time>2018-04-15T08:07:41.000Z</time>
      </trkpt>
      <trkpt lat="49.38747" lon="1.4432">
        <ele>117</ele>
        <time>2018-04-15T08:07:44.000Z</time>
      </trkpt>
      <trkpt lat="49.3875" lon="1.4432">
        <ele>117</ele>
        <time>2018-04-15T08:07:47.000Z</time>
      </trkpt>
      <trkpt lat="49.38754" lon="1.44319">
        <ele>118</ele>
        <time>2018-04-15T08:07:50.000Z</time>
      </trkpt>
      <trkpt lat="49.38758" lon="1.44318">
        <ele>119</ele>
        <time>2018-04-15T08:07:53.000Z</time>
      </trkpt>
      <trkpt lat="49.38762" lon="1.44317">
        <ele>119</ele>
        <time>2018-04-15T08:07:56.000Z</time>
      </trkpt>
      <trkpt lat="49.38765" lon="1.44318">
        <ele>119</ele>
        <time>2018-04-15T08:07:59.000Z</time>
      </trkpt>
      <trkpt lat="49.3877" lon="1.44318">
        <ele>120</ele>
        <time>2018-04-15T08:08:02.000Z</time>
      </trkpt>
      <trkpt lat="49.38775" lon="1.44317">
        <ele>120</ele>
        <time>2018-04-15T08:08:05.000Z</time>
      </trkpt>
      <trkpt lat="49.38778" lon="1.44319">
        <ele>120</ele>
        <time>2018-04-15T08:08:08.000Z</time>
      </trkpt>
      <trkpt lat="49.38779" lon="1.44317">
        <ele>121</ele>
        <time>2018-04-15T08:08:11.000Z</time>
      </trkpt>
      <trkpt lat="49.38782" lon="1.44317">
        <ele>121</ele>
        <time>2018-04-15T08:08:14.000Z</time>
      </trkpt>
      <trkpt lat="49.38785" lon="1.44318">
        <ele>121</ele>
        <time>2018-04-15T08:08:17.000Z</time>
      </trkpt>
      <trkpt lat="49.3879" lon="1.44318">
        <ele>121</ele>
        <time>2018-04-15T08:08:20.000Z</time>
      </trkpt>
      <trkpt lat="49.38794" lon="1.44318">
        <ele>121</ele>
        <time>2018-04-15T08:08:23.000Z</time>
      </trkpt>
      <trkpt lat="49.38798" lon="1.4432">
        <ele>121</ele>
        <time>2018-04-15T08:08:26.000Z</time>
      </trkpt>
      <trkpt lat="49.38801" lon="1.4432">
        <ele>121</ele>
        <time>2018-04-15T08:08:29.000Z</time>
      </trkpt>
      <trkpt lat="49.38803" lon="1.44317">
        <ele>122</ele>
        <time>2018-04-15T08:08:32.000Z</time>
      </trkpt>
      <trkpt lat="49.38808" lon="1.44316">
        <ele>122</ele>
        <time>2018-04-15T08:08:35.000Z</time>
      </trkpt>
      <trkpt lat="49.3881" lon="1.4432">
        <ele>121</ele>
        <time>2018-04-15T08:08:38.000Z</time>
      </trkpt>
      <trkpt lat="49.38813" lon="1.44323">
        <ele>121</ele>
        <time>2018-04-15T08:08:41.000Z</time>
      </trkpt>
      <trkpt lat="49.38818" lon="1.44324">
        <ele>121</ele>
        <time>2018-04-15T08:08:44.000Z</time>
      </trkpt>
      <trkpt lat="49.3882" lon="1.44325">
        <ele>121</ele>
        <time>2018-04-15T08:08:47.000Z</time>
      </trkpt>
      <trkpt lat="49.38823" lon="1.44326">
        <ele>121</ele>
        <time>2018-04-15T08:08:50.000Z</time>
      </trkpt>
      <trkpt lat="49.38828" lon="1.44324">
        <ele>120</ele>
        <time>2018-04-15T08:08:53.000Z</time>
      </trkpt>
      <trkpt lat="49.38833" lon="1.44324">
        <ele>120</ele>
        <time>2018-04-15T08:08:56.000Z</time>
      </trkpt>
      <trkpt lat="49.38836" lon="1.44324">
        <ele>122</ele>
        <time>2018-04-15T08:08:58.000Z</time>
      </trkpt>
      <trkpt lat="49.38839" lon="1.44325">
        <ele>122</ele>
        <time>2018-04-15T08:09:00.000Z</time>
      </trkpt>
      <trkpt lat="49.38843" lon="1.44328">
        <ele>122</ele>
        <time>2018-04-15T08:09:02.000Z</time>
      </trkpt>
      <trkpt lat="49.38845" lon="1.44332">
        <ele>122</ele>
        <time>2018-04-15T08:09:04.000Z</time>
      </trkpt>
      <trkpt lat="49.38847" lon="1.44335">
        <ele>119</ele>
        <time>2018-04-15T08:09:06.000Z</time>
      </trkpt>
      <trkpt lat="49.3885" lon="1.44336">
        <ele>119</ele>
        <time>2018-04-15T08:09:08.000Z</time>
      </trkpt>
      <trkpt lat="49.38853" lon="1.44338">
        <ele>120</ele>
        <time>2018-04-15T08:09:10.000Z</time>
      </trkpt>
      <trkpt lat="49.38855" lon="1.44341">
        <ele>120</ele>
        <time>2018-04-15T08:09:12.000Z</time>
      </trkpt>
      <trkpt lat="49.38858" lon="1.44344">
        <ele>120</ele>
        <time>2018-04-15T08:09:14.000Z</time>
      </trkpt>
      <trkpt lat="49.3886" lon="1.44346">
        <ele>120</ele>
        <time>2018-04-15T08:09:16.000Z</time>
      </trkpt>
      <trkpt lat="49.38863" lon="1.44347">
        <ele>120</ele>
        <time>2018-04-15T08:09:18.000Z</time>
      </trkpt>
      <trkpt lat="49.38863" lon="1.44348">
        <ele>120</ele>
        <time>2018-04-15T08:09:20.000Z</time>
      </trkpt>
      <trkpt lat="49.38864" lon="1.44349">
        <ele>120</ele>
        <time>2018-04-15T08:09:22.000Z</time>
      </trkpt>
      <trkpt lat="49.38865" lon="1.44351">
        <ele>120</ele>
        <time>2018-04-15T08:09:24.000Z</time>
      </trkpt>
      <trkpt lat="49.38866" lon="1.44353">
        <ele>120</ele>
        <time>2018-04-15T08:09:26.000Z</time>
      </trkpt>
      <trkpt lat="49.38868" lon="1.44354">
        <ele>120</ele>
        <time>2018-04-15T08:09:28.000Z</time>
      </trkpt>
      <trkpt lat="49.3887" lon="1.44355">
        <ele>120</ele>
        <time>2018-04-15T08:09:30.000Z</time>
      </trkpt>
      <trkpt lat="49.38872" lon="1.44355">
        <ele>120</ele>
        <time>2018-04-15T08:09:32.000Z</time>
      </trkpt>
      <trkpt lat="49.38876" lon="1.44354">
        <ele>120</ele>
        <time>2018-04-15T08:09:34.000Z</time>
      </trkpt>
      <trkpt lat="49.3888" lon="1.44356">
        <ele>120</ele>
        <time>2018-04-15T08:09:37.000Z</time>
      </trkpt>
      <trkpt lat="49.38882" lon="1.44358">
        <ele>121</ele>
        <time>2018-04-15T08:09:40.000Z</time>
      </trkpt>
      <trkpt lat="49.38884" lon="1.44358">
        <ele>121</ele>
        <time>2018-04-15T08:09:43.000Z</time>
      </trkpt>
      <trkpt lat="49.38887" lon="1.44358">
        <ele>121</ele>
        <time>2018-04-15T08:09:46.000Z</time>
      </trkpt>
      <trkpt lat="49.38888" lon="1.44358">
        <ele>121</ele>
        <time>2018-04-15T08:09:49.000Z</time>
      </trkpt>
      <trkpt lat="49.38889" lon="1.44359">
        <ele>121</ele>
        <time>2018-04-15T08:09:52.000Z</time>
      </trkpt>
      <trkpt lat="49.38891" lon="1.44358">
        <ele>121</ele>
        <time>2018-04-15T08:09:55.000Z</time>
      </trkpt>
      <trkpt lat="49.38894" lon="1.44358">
        <ele>121</ele>
        <time>2018-04-15T08:09:58.000Z</time>
      </trkpt>
      <trkpt lat="49.38897" lon="1.44358">
        <ele>121</ele>
        <time>2018-04-15T08:10:01.000Z</time>
      </trkpt>
      <trkpt lat="49.38902" lon="1.4436">
        <ele>122</ele>
        <time>2018-04-15T08:10:04.000Z</time>
      </trkpt>
      <trkpt lat="49.38905" lon="1.44362">
        <ele>122</ele>
        <time>2018-04-15T08:10:07.000Z</time>
      </trkpt>
      <trkpt lat="49.38908" lon="1.44363">
        <ele>122</ele>
        <time>2018-04-15T08:10:10.000Z</time>
      </trkpt>
      <trkpt lat="49.38911" lon="1.44363">
        <ele>122</ele>
        <time>2018-04-15T08:10:13.000Z</time>
      </trkpt>
      <trkpt lat="49.38915" lon="1.44363">
        <ele>122</ele>
        <time>2018-04-15T08:10:16.000Z</time>
      </trkpt>
      <trkpt lat="49.38919" lon="1.44364">
        <ele>126</ele>
        <time>2018-04-15T08:10:19.000Z</time>
      </trkpt>
      <trkpt lat="49.38924" lon="1.44365">
        <ele>126</ele>
        <time>2018-04-15T08:10:22.000Z</time>
      </trkpt>
      <trkpt lat="49.38928" lon="1.44368">
        <ele>126</ele>
        <time>2018-04-15T08:10:25.000Z</time>
      </trkpt>
      <trkpt lat="49.38931" lon="1.44373">
        <ele>125</ele>
        <time>2018-04-15T08:10:28.000Z</time>
      </trkpt>
      <trkpt lat="49.38935" lon="1.44376">
        <ele>125</ele>
        <time>2018-04-15T08:10:31.000Z</time>
      </trkpt>
      <trkpt lat="49.38939" lon="1.44379">
        <ele>125</ele>
        <time>2018-04-15T08:10:34.000Z</time>
      </trkpt>
      <trkpt lat="49.38944" lon="1.4438">
        <ele>125</ele>
        <time>2018-04-15T08:10:37.000Z</time>
      </trkpt>
      <trkpt lat="49.38948" lon="1.4438">
        <ele>126</ele>
        <time>2018-04-15T08:10:40.000Z</time>
      </trkpt>
      <trkpt lat="49.38953" lon="1.4438">
        <ele>126</ele>
        <time>2018-04-15T08:10:43.000Z</time>
      </trkpt>
      <trkpt lat="49.38959" lon="1.44378">
        <ele>126</ele>
        <time>2018-04-15T08:10:46.000Z</time>
      </trkpt>
      <trkpt lat="49.38963" lon="1.44375">
        <ele>126</ele>
        <time>2018-04-15T08:10:49.000Z</time>
      </trkpt>
      <trkpt lat="49.38967" lon="1.44372">
        <ele>127</ele>
        <time>2018-04-15T08:10:52.000Z</time>
      </trkpt>
      <trkpt lat="49.38971" lon="1.4437">
        <ele>127</ele>
        <time>2018-04-15T08:10:55.000Z</time>
      </trkpt>
      <trkpt lat="49.38976" lon="1.44368">
        <ele>127</ele>
        <time>2018-04-15T08:10:58.000Z</time>
      </trkpt>
      <trkpt lat="49.3898" lon="1.44365">
        <ele>128</ele>
        <time>2018-04-15T08:11:01.000Z</time>
      </trkpt>
      <trkpt lat="49.38982" lon="1.44362">
        <ele>128</ele>
        <time>2018-04-15T08:11:04.000Z</time>
      </trkpt>
      <trkpt lat="49.38987" lon="1.4436">
        <ele>129</ele>
        <time>2018-04-15T08:11:07.000Z</time>
      </trkpt>
      <trkpt lat="49.38991" lon="1.44358">
        <ele>129</ele>
        <time>2018-04-15T08:11:10.000Z</time>
      </trkpt>
      <trkpt lat="49.38992" lon="1.44357">
        <ele>129</ele>
        <time>2018-04-15T08:11:13.000Z</time>
      </trkpt>
      <trkpt lat="49.38994" lon="1.44355">
        <ele>129</ele>
        <time>2018-04-15T08:11:16.000Z</time>
      </trkpt>
      <trkpt lat="49.38995" lon="1.44354">
        <ele>130</ele>
        <time>2018-04-15T08:11:19.000Z</time>
      </trkpt>
      <trkpt lat="49.38997" lon="1.44351">
        <ele>130</ele>
        <time>2018-04-15T08:11:22.000Z</time>
      </trkpt>
      <trkpt lat="49.39001" lon="1.44349">
        <ele>134</ele>
        <time>2018-04-15T08:11:25.000Z</time>
      </trkpt>
      <trkpt lat="49.39004" lon="1.44347">
        <ele>134</ele>
        <time>2018-04-15T08:11:28.000Z</time>
      </trkpt>
      <trkpt lat="49.39007" lon="1.44345">
        <ele>134</ele>
        <time>2018-04-15T08:11:31.000Z</time>
      </trkpt>
      <trkpt lat="49.39009" lon="1.4434">
        <ele>134</ele>
        <time>2018-04-15T08:11:34.000Z</time>
      </trkpt>
      <trkpt lat="49.39011" lon="1.44336">
        <ele>134</ele>
        <time>2018-04-15T08:11:37.000Z</time>
      </trkpt>
      <trkpt lat="49.39012" lon="1.44332">
        <ele>136</ele>
        <time>2018-04-15T08:11:40.000Z</time>
      </trkpt>
      <trkpt lat="49.39013" lon="1.44329">
        <ele>136</ele>
        <time>2018-04-15T08:11:43.000Z</time>
      </trkpt>
      <trkpt lat="49.39015" lon="1.44326">
        <ele>136</ele>
        <time>2018-04-15T08:11:46.000Z</time>
      </trkpt>
      <trkpt lat="49.39016" lon="1.44321">
        <ele>137</ele>
        <time>2018-04-15T08:11:49.000Z</time>
      </trkpt>
      <trkpt lat="49.39018" lon="1.44316">
        <ele>137</ele>
        <time>2018-04-15T08:11:52.000Z</time>
      </trkpt>
      <trkpt lat="49.3902" lon="1.44312">
        <ele>138</ele>
        <time>2018-04-15T08:11:55.000Z</time>
      </trkpt>
      <trkpt lat="49.39021" lon="1.44307">
        <ele>138</ele>
        <time>2018-04-15T08:11:58.000Z</time>
      </trkpt>
      <trkpt lat="49.39023" lon="1.44303">
        <ele>138</ele>
        <time>2018-04-15T08:12:01.000Z</time>
      </trkpt>
      <trkpt lat="49.39024" lon="1.44299">
        <ele>138</ele>
        <time>2018-04-15T08:12:04.000Z</time>
      </trkpt>
      <trkpt lat="49.39027" lon="1.44294">
        <ele>139</ele>
        <time>2018-04-15T08:12:07.000Z</time>
      </trkpt>
      <trkpt lat="49.39029" lon="1.4429">
        <ele>139</ele>
        <time>2018-04-15T08:12:10.000Z</time>
      </trkpt>
      <trkpt lat="49.39031" lon="1.44287">
        <ele>139</ele>
        <time>2018-04-15T08:12:13.000Z</time>
      </trkpt>
      <trkpt lat="49.39032" lon="1.44283">
        <ele>139</ele>
        <time>2018-04-15T08:12:16.000Z</time>
      </trkpt>
      <trkpt lat="49.39035" lon="1.44283">
        <ele>139</ele>
        <time>2018-04-15T08:12:19.000Z</time>
      </trkpt>
      <trkpt lat="49.39039" lon="1.44285">
        <ele>139</ele>
        <time>2018-04-15T08:12:22.000Z</time>
      </trkpt>
      <trkpt lat="49.39043" lon="1.44289">
        <ele>139</ele>
        <time>2018-04-15T08:12:25.000Z</time>
      </trkpt>
      <trkpt lat="49.39048" lon="1.44292">
        <ele>139</ele>
        <time>2018-04-15T08:12:28.000Z</time>
      </trkpt>
      <trkpt lat="49.3905" lon="1.443">
        <ele>139</ele>
        <time>2018-04-15T08:12:31.000Z</time>
      </trkpt>
      <trkpt lat="49.39051" lon="1.44308">
        <ele>139</ele>
        <time>2018-04-15T08:12:34.000Z</time>
      </trkpt>
      <trkpt lat="49.39054" lon="1.44318">
        <ele>139</ele>
        <time>2018-04-15T08:12:37.000Z</time>
      </trkpt>
      <trkpt lat="49.39056" lon="1.44325">
        <ele>139</ele>
        <time>2018-04-15T08:12:40.000Z</time>
      </trkpt>
      <trkpt lat="49.39061" lon="1.44331">
        <ele>139</ele>
        <time>2018-04-15T08:12:43.000Z</time>
      </trkpt>
      <trkpt lat="49.39065" lon="1.44339">
        <ele>137</ele>
        <time>2018-04-15T08:12:46.000Z</time>
      </trkpt>
      <trkpt lat="49.3907" lon="1.44345">
        <ele>137</ele>
        <time>2018-04-15T08:12:49.000Z</time>
      </trkpt>
      <trkpt lat="49.39078" lon="1.44356">
        <ele>136</ele>
        <time>2018-04-15T08:12:52.000Z</time>
      </trkpt>
      <trkpt lat="49.39089" lon="1.44367">
        <ele>140</ele>
        <time>2018-04-15T08:12:55.000Z</time>
      </trkpt>
      <trkpt lat="49.39097" lon="1.44377">
        <ele>140</ele>
        <time>2018-04-15T08:12:58.000Z</time>
      </trkpt>
      <trkpt lat="49.39099" lon="1.44393">
        <ele>139</ele>
        <time>2018-04-15T08:13:01.000Z</time>
      </trkpt>
      <trkpt lat="49.39101" lon="1.44408">
        <ele>139</ele>
        <time>2018-04-15T08:13:04.000Z</time>
      </trkpt>
      <trkpt lat="49.39107" lon="1.44425">
        <ele>136</ele>
        <time>2018-04-15T08:13:07.000Z</time>
      </trkpt>
      <trkpt lat="49.39113" lon="1.44432">
        <ele>136</ele>
        <time>2018-04-15T08:13:10.000Z</time>
      </trkpt>
      <trkpt lat="49.39118" lon="1.44443">
        <ele>136</ele>
        <time>2018-04-15T08:13:13.000Z</time>
      </trkpt>
      <trkpt lat="49.39124" lon="1.44452">
        <ele>136</ele>
        <time>2018-04-15T08:13:16.000Z</time>
      </trkpt>
      <trkpt lat="49.39132" lon="1.44457">
        <ele>136</ele>
        <time>2018-04-15T08:13:19.000Z</time>
      </trkpt>
      <trkpt lat="49.39139" lon="1.44464">
        <ele>136</ele>
        <time>2018-04-15T08:13:22.000Z</time>
      </trkpt>
      <trkpt lat="49.39149" lon="1.44475">
        <ele>136</ele>
        <time>2018-04-15T08:13:25.000Z</time>
      </trkpt>
      <trkpt lat="49.39157" lon="1.44489">
        <ele>137</ele>
        <time>2018-04-15T08:13:28.000Z</time>
      </trkpt>
      <trkpt lat="49.39162" lon="1.44505">
        <ele>135</ele>
        <time>2018-04-15T08:13:31.000Z</time>
      </trkpt>
      <trkpt lat="49.39169" lon="1.44519">
        <ele>138</ele>
        <time>2018-04-15T08:13:34.000Z</time>
      </trkpt>
      <trkpt lat="49.39178" lon="1.44527">
        <ele>138</ele>
        <time>2018-04-15T08:13:37.000Z</time>
      </trkpt>
      <trkpt lat="49.39188" lon="1.44536">
        <ele>138</ele>
        <time>2018-04-15T08:13:40.000Z</time>
      </trkpt>
      <trkpt lat="49.392" lon="1.44546">
        <ele>138</ele>
        <time>2018-04-15T08:13:43.000Z</time>
      </trkpt>
      <trkpt lat="49.39208" lon="1.44555">
        <ele>138</ele>
        <time>2018-04-15T08:13:46.000Z</time>
      </trkpt>
      <trkpt lat="49.39218" lon="1.44565">
        <ele>139</ele>
        <time>2018-04-15T08:13:49.000Z</time>
      </trkpt>
      <trkpt lat="49.3923" lon="1.44574">
        <ele>140</ele>
        <time>2018-04-15T08:13:52.000Z</time>
      </trkpt>
      <trkpt lat="49.39242" lon="1.44587">
        <ele>138</ele>
        <time>2018-04-15T08:13:55.000Z</time>
      </trkpt>
      <trkpt lat="49.39246" lon="1.44598">
        <ele>136</ele>
        <time>2018-04-15T08:13:58.000Z</time>
      </trkpt>
      <trkpt lat="49.39248" lon="1.44609">
        <ele>134</ele>
        <time>2018-04-15T08:14:01.000Z</time>
      </trkpt>
      <trkpt lat="49.39252" lon="1.44622">
        <ele>143</ele>
        <time>2018-04-15T08:14:04.000Z</time>
      </trkpt>
      <trkpt lat="49.39254" lon="1.4464">
        <ele>141</ele>
        <time>2018-04-15T08:14:07.000Z</time>
      </trkpt>
      <trkpt lat="49.39257" lon="1.44658">
        <ele>139</ele>
        <time>2018-04-15T08:14:10.000Z</time>
      </trkpt>
      <trkpt lat="49.39261" lon="1.44675">
        <ele>136</ele>
        <time>2018-04-15T08:14:13.000Z</time>
      </trkpt>
      <trkpt lat="49.3927" lon="1.4469">
        <ele>136</ele>
        <time>2018-04-15T08:14:16.000Z</time>
      </trkpt>
      <trkpt lat="49.39279" lon="1.44706">
        <ele>136</ele>
        <time>2018-04-15T08:14:19.000Z</time>
      </trkpt>
      <trkpt lat="49.39288" lon="1.44726">
        <ele>136</ele>
        <time>2018-04-15T08:14:22.000Z</time>
      </trkpt>
      <trkpt lat="49.39296" lon="1.44749">
        <ele>137</ele>
        <time>2018-04-15T08:14:25.000Z</time>
      </trkpt>
      <trkpt lat="49.39306" lon="1.44768">
        <ele>132</ele>
        <time>2018-04-15T08:14:28.000Z</time>
      </trkpt>
      <trkpt lat="49.39292" lon="1.45112">
        <ele>90</ele>
        <time>2018-04-15T08:14:40.000Z</time>
      </trkpt>
      <trkpt lat="49.39298" lon="1.45124">
        <ele>90</ele>
        <time>2018-04-15T08:14:43.000Z</time>
      </trkpt>
      <trkpt lat="49.39301" lon="1.45141">
        <ele>90</ele>
        <time>2018-04-15T08:14:46.000Z</time>
      </trkpt>
      <trkpt lat="49.39308" lon="1.45155">
        <ele>90</ele>
        <time>2018-04-15T08:14:49.000Z</time>
      </trkpt>
      <trkpt lat="49.39313" lon="1.45172">
        <ele>86</ele>
        <time>2018-04-15T08:14:52.000Z</time>
      </trkpt>
      <trkpt lat="49.39321" lon="1.45192">
        <ele>84</ele>
        <time>2018-04-15T08:14:55.000Z</time>
      </trkpt>
      <trkpt lat="49.39339" lon="1.45232">
        <ele>91</ele>
        <time>2018-04-15T08:14:59.000Z</time>
      </trkpt>
      <trkpt lat="49.39346" lon="1.45253">
        <ele>85</ele>
        <time>2018-04-15T08:15:02.000Z</time>
      </trkpt>
      <trkpt lat="49.39349" lon="1.45268">
        <ele>87</ele>
        <time>2018-04-15T08:15:05.000Z</time>
      </trkpt>
      <trkpt lat="49.39352" lon="1.45288">
        <ele>87</ele>
        <time>2018-04-15T08:15:08.000Z</time>
      </trkpt>
      <trkpt lat="49.39357" lon="1.45306">
        <ele>87</ele>
        <time>2018-04-15T08:15:11.000Z</time>
      </trkpt>
      <trkpt lat="49.3936" lon="1.45325">
        <ele>86</ele>
        <time>2018-04-15T08:15:14.000Z</time>
      </trkpt>
      <trkpt lat="49.39364" lon="1.45343">
        <ele>82</ele>
        <time>2018-04-15T08:15:17.000Z</time>
      </trkpt>
      <trkpt lat="49.39368" lon="1.45361">
        <ele>83</ele>
        <time>2018-04-15T08:15:20.000Z</time>
      </trkpt>
      <trkpt lat="49.39376" lon="1.45376">
        <ele>83</ele>
        <time>2018-04-15T08:15:23.000Z</time>
      </trkpt>
      <trkpt lat="49.39386" lon="1.45391">
        <ele>83</ele>
        <time>2018-04-15T08:15:26.000Z</time>
      </trkpt>
      <trkpt lat="49.39392" lon="1.45405">
        <ele>84</ele>
        <time>2018-04-15T08:15:29.000Z</time>
      </trkpt>
      <trkpt lat="49.394" lon="1.4542">
        <ele>83</ele>
        <time>2018-04-15T08:15:32.000Z</time>
      </trkpt>
      <trkpt lat="49.39406" lon="1.45442">
        <ele>82</ele>
        <time>2018-04-15T08:15:35.000Z</time>
      </trkpt>
      <trkpt lat="49.39411" lon="1.45461">
        <ele>82</ele>
        <time>2018-04-15T08:15:38.000Z</time>
      </trkpt>
      <trkpt lat="49.39416" lon="1.45482">
        <ele>82</ele>
        <time>2018-04-15T08:15:41.000Z</time>
      </trkpt>
      <trkpt lat="49.3942" lon="1.45495">
        <ele>87</ele>
        <time>2018-04-15T08:15:44.000Z</time>
      </trkpt>
      <trkpt lat="49.39423" lon="1.45506">
        <ele>86</ele>
        <time>2018-04-15T08:15:47.000Z</time>
      </trkpt>
      <trkpt lat="49.39426" lon="1.4552">
        <ele>88</ele>
        <time>2018-04-15T08:15:50.000Z</time>
      </trkpt>
      <trkpt lat="49.3943" lon="1.45534">
        <ele>89</ele>
        <time>2018-04-15T08:15:53.000Z</time>
      </trkpt>
      <trkpt lat="49.39436" lon="1.45549">
        <ele>89</ele>
        <time>2018-04-15T08:15:56.000Z</time>
      </trkpt>
      <trkpt lat="49.39442" lon="1.45563">
        <ele>88</ele>
        <time>2018-04-15T08:15:59.000Z</time>
      </trkpt>
      <trkpt lat="49.39445" lon="1.45576">
        <ele>88</ele>
        <time>2018-04-15T08:16:02.000Z</time>
      </trkpt>
      <trkpt lat="49.39446" lon="1.45591">
        <ele>84</ele>
        <time>2018-04-15T08:16:05.000Z</time>
      </trkpt>
      <trkpt lat="49.3945" lon="1.45606">
        <ele>85</ele>
        <time>2018-04-15T08:16:08.000Z</time>
      </trkpt>
      <trkpt lat="49.39452" lon="1.45618">
        <ele>85</ele>
        <time>2018-04-15T08:16:10.000Z</time>
      </trkpt>
      <trkpt lat="49.39453" lon="1.45631">
        <ele>85</ele>
        <time>2018-04-15T08:16:12.000Z</time>
      </trkpt>
      <trkpt lat="49.39455" lon="1.45647">
        <ele>85</ele>
        <time>2018-04-15T08:16:14.000Z</time>
      </trkpt>
      <trkpt lat="49.39457" lon="1.45662">
        <ele>84</ele>
        <time>2018-04-15T08:16:16.000Z</time>
      </trkpt>
      <trkpt lat="49.39456" lon="1.45677">
        <ele>83</ele>
        <time>2018-04-15T08:16:18.000Z</time>
      </trkpt>
      <trkpt lat="49.39455" lon="1.45691">
        <ele>82</ele>
        <time>2018-04-15T08:16:20.000Z</time>
      </trkpt>
      <trkpt lat="49.39455" lon="1.457">
        <ele>82</ele>
        <time>2018-04-15T08:16:22.000Z</time>
      </trkpt>
      <trkpt lat="49.39456" lon="1.4571">
        <ele>83</ele>
        <time>2018-04-15T08:16:24.000Z</time>
      </trkpt>
      <trkpt lat="49.39457" lon="1.4572">
        <ele>83</ele>
        <time>2018-04-15T08:16:26.000Z</time>
      </trkpt>
      <trkpt lat="49.39458" lon="1.45728">
        <ele>83</ele>
        <time>2018-04-15T08:16:28.000Z</time>
      </trkpt>
      <trkpt lat="49.3946" lon="1.45738">
        <ele>83</ele>
        <time>2018-04-15T08:16:30.000Z</time>
      </trkpt>
      <trkpt lat="49.39463" lon="1.45749">
        <ele>83</ele>
        <time>2018-04-15T08:16:32.000Z</time>
      </trkpt>
      <trkpt lat="49.39467" lon="1.4576">
        <ele>83</ele>
        <time>2018-04-15T08:16:34.000Z</time>
      </trkpt>
      <trkpt lat="49.39472" lon="1.45775">
        <ele>83</ele>
        <time>2018-04-15T08:16:36.000Z</time>
      </trkpt>
      <trkpt lat="49.39477" lon="1.45787">
        <ele>83</ele>
        <time>2018-04-15T08:16:38.000Z</time>
      </trkpt>
      <trkpt lat="49.39482" lon="1.45798">
        <ele>83</ele>
        <time>2018-04-15T08:16:40.000Z</time>
      </trkpt>
      <trkpt lat="49.3949" lon="1.45807">
        <ele>83</ele>
        <time>2018-04-15T08:16:42.000Z</time>
      </trkpt>
      <trkpt lat="49.39498" lon="1.45816">
        <ele>83</ele>
        <time>2018-04-15T08:16:44.000Z</time>
      </trkpt>
      <trkpt lat="49.39506" lon="1.4583">
        <ele>88</ele>
        <time>2018-04-15T08:16:47.000Z</time>
      </trkpt>
      <trkpt lat="49.39513" lon="1.45845">
        <ele>90</ele>
        <time>2018-04-15T08:16:50.000Z</time>
      </trkpt>
      <trkpt lat="49.39522" lon="1.45862">
        <ele>93</ele>
        <time>2018-04-15T08:16:53.000Z</time>
      </trkpt>
      <trkpt lat="49.39529" lon="1.45873">
        <ele>94</ele>
        <time>2018-04-15T08:16:56.000Z</time>
      </trkpt>
      <trkpt lat="49.39535" lon="1.45891">
        <ele>94</ele>
        <time>2018-04-15T08:16:59.000Z</time>
      </trkpt>
      <trkpt lat="49.39537" lon="1.45918">
        <ele>95</ele>
        <time>2018-04-15T08:17:02.000Z</time>
      </trkpt>
      <trkpt lat="49.39536" lon="1.4594">
        <ele>95</ele>
        <time>2018-04-15T08:17:05.000Z</time>
      </trkpt>
      <trkpt lat="49.39534" lon="1.45961">
        <ele>94</ele>
        <time>2018-04-15T08:17:08.000Z</time>
      </trkpt>
      <trkpt lat="49.39535" lon="1.45983">
        <ele>94</ele>
        <time>2018-04-15T08:17:11.000Z</time>
      </trkpt>
      <trkpt lat="49.39536" lon="1.46005">
        <ele>92</ele>
        <time>2018-04-15T08:17:14.000Z</time>
      </trkpt>
      <trkpt lat="49.39534" lon="1.46029">
        <ele>92</ele>
        <time>2018-04-15T08:17:17.000Z</time>
      </trkpt>
      <trkpt lat="49.39533" lon="1.46054">
        <ele>91</ele>
        <time>2018-04-15T08:17:20.000Z</time>
      </trkpt>
      <trkpt lat="49.39532" lon="1.46077">
        <ele>90</ele>
        <time>2018-04-15T08:17:23.000Z</time>
      </trkpt>
      <trkpt lat="49.39533" lon="1.46098">
        <ele>86</ele>
        <time>2018-04-15T08:17:26.000Z</time>
      </trkpt>
      <trkpt lat="49.39534" lon="1.46117">
        <ele>86</ele>
        <time>2018-04-15T08:17:29.000Z</time>
      </trkpt>
      <trkpt lat="49.39538" lon="1.46132">
        <ele>86</ele>
        <time>2018-04-15T08:17:32.000Z</time>
      </trkpt>
      <trkpt lat="49.39542" lon="1.46144">
        <ele>86</ele>
        <time>2018-04-15T08:17:35.000Z</time>
      </trkpt>
      <trkpt lat="49.3955" lon="1.46155">
        <ele>87</ele>
        <time>2018-04-15T08:17:38.000Z</time>
      </trkpt>
      <trkpt lat="49.39557" lon="1.46167">
        <ele>84</ele>
        <time>2018-04-15T08:17:41.000Z</time>
      </trkpt>
      <trkpt lat="49.39565" lon="1.46182">
        <ele>85</ele>
        <time>2018-04-15T08:17:44.000Z</time>
      </trkpt>
      <trkpt lat="49.39573" lon="1.462">
        <ele>84</ele>
        <time>2018-04-15T08:17:47.000Z</time>
      </trkpt>
      <trkpt lat="49.39583" lon="1.46219">
        <ele>83</ele>
        <time>2018-04-15T08:17:50.000Z</time>
      </trkpt>
      <trkpt lat="49.39592" lon="1.46242">
        <ele>85</ele>
        <time>2018-04-15T08:17:53.000Z</time>
      </trkpt>
      <trkpt lat="49.39603" lon="1.46257">
        <ele>83</ele>
        <time>2018-04-15T08:17:56.000Z</time>
      </trkpt>
      <trkpt lat="49.39614" lon="1.46273">
        <ele>84</ele>
        <time>2018-04-15T08:17:59.000Z</time>
      </trkpt>
      <trkpt lat="49.39632" lon="1.46289">
        <ele>84</ele>
        <time>2018-04-15T08:18:02.000Z</time>
      </trkpt>
      <trkpt lat="49.39652" lon="1.46304">
        <ele>84</ele>
        <time>2018-04-15T08:18:05.000Z</time>
      </trkpt>
      <trkpt lat="49.3967" lon="1.46323">
        <ele>86</ele>
        <time>2018-04-15T08:18:08.000Z</time>
      </trkpt>
      <trkpt lat="49.39685" lon="1.46342">
        <ele>84</ele>
        <time>2018-04-15T08:18:11.000Z</time>
      </trkpt>
      <trkpt lat="49.39701" lon="1.46359">
        <ele>85</ele>
        <time>2018-04-15T08:18:14.000Z</time>
      </trkpt>
      <trkpt lat="49.39724" lon="1.46369">
        <ele>86</ele>
        <time>2018-04-15T08:18:17.000Z</time>
      </trkpt>
      <trkpt lat="49.39734" lon="1.46397">
        <ele>85</ele>
        <time>2018-04-15T08:18:20.000Z</time>
      </trkpt>
      <trkpt lat="49.39743" lon="1.46424">
        <ele>83</ele>
        <time>2018-04-15T08:18:23.000Z</time>
      </trkpt>
      <trkpt lat="49.3975" lon="1.46456">
        <ele>87</ele>
        <time>2018-04-15T08:18:26.000Z</time>
      </trkpt>
      <trkpt lat="49.39754" lon="1.46487">
        <ele>84</ele>
        <time>2018-04-15T08:18:29.000Z</time>
      </trkpt>
      <trkpt lat="49.39764" lon="1.46511">
        <ele>83</ele>
        <time>2018-04-15T08:18:32.000Z</time>
      </trkpt>
      <trkpt lat="49.39775" lon="1.46534">
        <ele>83</ele>
        <time>2018-04-15T08:18:35.000Z</time>
      </trkpt>
      <trkpt lat="49.39784" lon="1.46559">
        <ele>83</ele>
        <time>2018-04-15T08:18:38.000Z</time>
      </trkpt>
      <trkpt lat="49.39795" lon="1.46581">
        <ele>83</ele>
        <time>2018-04-15T08:18:41.000Z</time>
      </trkpt>
      <trkpt lat="49.39807" lon="1.46602">
        <ele>82</ele>
        <time>2018-04-15T08:18:44.000Z</time>
      </trkpt>
      <trkpt lat="49.39815" lon="1.46623">
        <ele>82</ele>
        <time>2018-04-15T08:18:47.000Z</time>
      </trkpt>
      <trkpt lat="49.39818" lon="1.46647">
        <ele>81</ele>
        <time>2018-04-15T08:18:50.000Z</time>
      </trkpt>
      <trkpt lat="49.39822" lon="1.46671">
        <ele>82</ele>
        <time>2018-04-15T08:18:53.000Z</time>
      </trkpt>
      <trkpt lat="49.3983" lon="1.4668">
        <ele>82</ele>
        <time>2018-04-15T08:18:56.000Z</time>
      </trkpt>
      <trkpt lat="49.39846" lon="1.46673">
        <ele>83</ele>
        <time>2018-04-15T08:18:59.000Z</time>
      </trkpt>
      <trkpt lat="49.39858" lon="1.46666">
        <ele>85</ele>
        <time>2018-04-15T08:19:02.000Z</time>
      </trkpt>
      <trkpt lat="49.39868" lon="1.4666">
        <ele>86</ele>
        <time>2018-04-15T08:19:05.000Z</time>
      </trkpt>
      <trkpt lat="49.39872" lon="1.46655">
        <ele>86</ele>
        <time>2018-04-15T08:19:08.000Z</time>
      </trkpt>
      <trkpt lat="49.39882" lon="1.46651">
        <ele>87</ele>
        <time>2018-04-15T08:19:11.000Z</time>
      </trkpt>
      <trkpt lat="49.39888" lon="1.4665">
        <ele>87</ele>
        <time>2018-04-15T08:19:14.000Z</time>
      </trkpt>
      <trkpt lat="49.39888" lon="1.46651">
        <ele>87</ele>
        <time>2018-04-15T08:19:21.000Z</time>
      </trkpt>
      <trkpt lat="49.39888" lon="1.46652">
        <ele>87</ele>
        <time>2018-04-15T08:19:30.000Z</time>
      </trkpt>
      <trkpt lat="49.39888" lon="1.46652">
        <ele>87</ele>
        <time>2018-04-15T08:19:50.000Z</time>
      </trkpt>
      <trkpt lat="49.39887" lon="1.46651">
        <ele>87</ele>
        <time>2018-04-15T08:19:55.000Z</time>
      </trkpt>
      <trkpt lat="49.3989" lon="1.46647">
        <ele>87</ele>
        <time>2018-04-15T08:19:58.000Z</time>
      </trkpt>
      <trkpt lat="49.39891" lon="1.46645">
        <ele>87</ele>
        <time>2018-04-15T08:20:01.000Z</time>
      </trkpt>
      <trkpt lat="49.39892" lon="1.46641">
        <ele>87</ele>
        <time>2018-04-15T08:20:04.000Z</time>
      </trkpt>
      <trkpt lat="49.39893" lon="1.46637">
        <ele>87</ele>
        <time>2018-04-15T08:20:07.000Z</time>
      </trkpt>
      <trkpt lat="49.39895" lon="1.46632">
        <ele>87</ele>
        <time>2018-04-15T08:20:10.000Z</time>
      </trkpt>
      <trkpt lat="49.39897" lon="1.46629">
        <ele>87</ele>
        <time>2018-04-15T08:20:13.000Z</time>
      </trkpt>
      <trkpt lat="49.39899" lon="1.46627">
        <ele>87</ele>
        <time>2018-04-15T08:20:16.000Z</time>
      </trkpt>
      <trkpt lat="49.39901" lon="1.46625">
        <ele>87</ele>
        <time>2018-04-15T08:20:19.000Z</time>
      </trkpt>
      <trkpt lat="49.39899" lon="1.46624">
        <ele>87</ele>
        <time>2018-04-15T08:20:22.000Z</time>
      </trkpt>
      <trkpt lat="49.39901" lon="1.46624">
        <ele>87</ele>
        <time>2018-04-15T08:20:37.000Z</time>
      </trkpt>
      <trkpt lat="49.39902" lon="1.46623">
        <ele>88</ele>
        <time>2018-04-15T08:20:40.000Z</time>
      </trkpt>
      <trkpt lat="49.39902" lon="1.46622">
        <ele>88</ele>
        <time>2018-04-15T08:20:43.000Z</time>
      </trkpt>
      <trkpt lat="49.39901" lon="1.46622">
        <ele>88</ele>
        <time>2018-04-15T08:20:47.000Z</time>
      </trkpt>
      <trkpt lat="49.39901" lon="1.46624">
        <ele>87</ele>
        <time>2018-04-15T08:20:50.000Z</time>
      </trkpt>
      <trkpt lat="49.39898" lon="1.46627">
        <ele>87</ele>
        <time>2018-04-15T08:20:59.000Z</time>
      </trkpt>
      <trkpt lat="49.39897" lon="1.46626">
        <ele>87</ele>
        <time>2018-04-15T08:21:04.000Z</time>
      </trkpt>
      <trkpt lat="49.39899" lon="1.46623">
        <ele>87</ele>
        <time>2018-04-15T08:21:07.000Z</time>
      </trkpt>
      <trkpt lat="49.39901" lon="1.46621">
        <ele>88</ele>
        <time>2018-04-15T08:21:11.000Z</time>
      </trkpt>
      <trkpt lat="49.39902" lon="1.46619">
        <ele>88</ele>
        <time>2018-04-15T08:21:14.000Z</time>
      </trkpt>
      <trkpt lat="49.39903" lon="1.46618">
        <ele>88</ele>
        <time>2018-04-15T08:21:17.000Z</time>
      </trkpt>
      <trkpt lat="49.39902" lon="1.46618">
        <ele>88</ele>
        <time>2018-04-15T08:21:21.000Z</time>
      </trkpt>
      <trkpt lat="49.39902" lon="1.46617">
        <ele>88</ele>
        <time>2018-04-15T08:21:25.000Z</time>
      </trkpt>
      <trkpt lat="49.399" lon="1.46619">
        <ele>88</ele>
        <time>2018-04-15T08:21:33.000Z</time>
      </trkpt>
      <trkpt lat="49.39899" lon="1.46623">
        <ele>87</ele>
        <time>2018-04-15T08:21:36.000Z</time>
      </trkpt>
      <trkpt lat="49.39899" lon="1.46625">
        <ele>87</ele>
        <time>2018-04-15T08:21:40.000Z</time>
      </trkpt>
      <trkpt lat="49.39898" lon="1.46625">
        <ele>87</ele>
        <time>2018-04-15T08:21:47.000Z</time>
      </trkpt>
      <trkpt lat="49.39898" lon="1.46624">
        <ele>87</ele>
        <time>2018-04-15T08:21:50.000Z</time>
      </trkpt>
      <trkpt lat="49.39898" lon="1.46622">
        <ele>87</ele>
        <time>2018-04-15T08:21:57.000Z</time>
      </trkpt>
      <trkpt lat="49.39899" lon="1.46623">
        <ele>87</ele>
        <time>2018-04-15T08:22:00.000Z</time>
      </trkpt>
      <trkpt lat="49.39899" lon="1.46621">
        <ele>88</ele>
        <time>2018-04-15T08:22:03.000Z</time>
      </trkpt>
      <trkpt lat="49.39898" lon="1.4662">
        <ele>87</ele>
        <time>2018-04-15T08:22:06.000Z</time>
      </trkpt>
      <trkpt lat="49.39899" lon="1.46619">
        <ele>88</ele>
        <time>2018-04-15T08:22:14.000Z</time>
      </trkpt>
      <trkpt lat="49.39899" lon="1.46617">
        <ele>88</ele>
        <time>2018-04-15T08:22:17.000Z</time>
      </trkpt>
      <trkpt lat="49.39898" lon="1.46618">
        <ele>88</ele>
        <time>2018-04-15T08:22:20.000Z</time>
      </trkpt>
      <trkpt lat="49.39899" lon="1.46619">
        <ele>88</ele>
        <time>2018-04-15T08:22:23.000Z</time>
      </trkpt>
      <trkpt lat="49.399" lon="1.4662">
        <ele>88</ele>
        <time>2018-04-15T08:22:28.000Z</time>
      </trkpt>
      <trkpt lat="49.399" lon="1.46621">
        <ele>88</ele>
        <time>2018-04-15T08:22:38.000Z</time>
      </trkpt>
      <trkpt lat="49.39899" lon="1.46622">
        <ele>87</ele>
        <time>2018-04-15T08:22:48.000Z</time>
      </trkpt>
      <trkpt lat="49.39898" lon="1.46621">
        <ele>87</ele>
        <time>2018-04-15T08:23:00.000Z</time>
      </trkpt>
      <trkpt lat="49.39898" lon="1.46621">
        <ele>87</ele>
        <time>2018-04-15T08:23:20.000Z</time>
      </trkpt>
      <trkpt lat="49.399" lon="1.46618">
        <ele>88</ele>
        <time>2018-04-15T08:24:03.000Z</time>
      </trkpt>
      <trkpt lat="49.39899" lon="1.46621">
        <ele>88</ele>
        <time>2018-04-15T08:24:08.000Z</time>
      </trkpt>
      <trkpt lat="49.39898" lon="1.46625">
        <ele>87</ele>
        <time>2018-04-15T08:24:11.000Z</time>
      </trkpt>
      <trkpt lat="49.39897" lon="1.4663">
        <ele>87</ele>
        <time>2018-04-15T08:24:14.000Z</time>
      </trkpt>
      <trkpt lat="49.39896" lon="1.46635">
        <ele>87</ele>
        <time>2018-04-15T08:24:17.000Z</time>
      </trkpt>
      <trkpt lat="49.39893" lon="1.46642">
        <ele>87</ele>
        <time>2018-04-15T08:24:20.000Z</time>
      </trkpt>
      <trkpt lat="49.3989" lon="1.46649">
        <ele>87</ele>
        <time>2018-04-15T08:24:23.000Z</time>
      </trkpt>
      <trkpt lat="49.39888" lon="1.46654">
        <ele>87</ele>
        <time>2018-04-15T08:24:26.000Z</time>
      </trkpt>
      <trkpt lat="49.39886" lon="1.46657">
        <ele>87</ele>
        <time>2018-04-15T08:24:29.000Z</time>
      </trkpt>
      <trkpt lat="49.39886" lon="1.46655">
        <ele>87</ele>
        <time>2018-04-15T08:24:35.000Z</time>
      </trkpt>
      <trkpt lat="49.39886" lon="1.46654">
        <ele>87</ele>
        <time>2018-04-15T08:24:45.000Z</time>
      </trkpt>
      <trkpt lat="49.39888" lon="1.46653">
        <ele>87</ele>
        <time>2018-04-15T08:24:48.000Z</time>
      </trkpt>
      <trkpt lat="49.39887" lon="1.46654">
        <ele>87</ele>
        <time>2018-04-15T08:24:53.000Z</time>
      </trkpt>
      <trkpt lat="49.39887" lon="1.46653">
        <ele>87</ele>
        <time>2018-04-15T08:24:58.000Z</time>
      </trkpt>
      <trkpt lat="49.39887" lon="1.46654">
        <ele>87</ele>
        <time>2018-04-15T08:25:06.000Z</time>
      </trkpt>
      <trkpt lat="49.39886" lon="1.46655">
        <ele>87</ele>
        <time>2018-04-15T08:25:09.000Z</time>
      </trkpt>
      <trkpt lat="49.39886" lon="1.46657">
        <ele>87</ele>
        <time>2018-04-15T08:25:15.000Z</time>
      </trkpt>
      <trkpt lat="49.39887" lon="1.46658">
        <ele>87</ele>
        <time>2018-04-15T08:25:19.000Z</time>
      </trkpt>
      <trkpt lat="49.39889" lon="1.46659">
        <ele>87</ele>
        <time>2018-04-15T08:25:22.000Z</time>
      </trkpt>
      <trkpt lat="49.3989" lon="1.46657">
        <ele>87</ele>
        <time>2018-04-15T08:25:26.000Z</time>
      </trkpt>
      <trkpt lat="49.3989" lon="1.46657">
        <ele>87</ele>
        <time>2018-04-15T08:25:46.000Z</time>
      </trkpt>
      <trkpt lat="49.3989" lon="1.46655">
        <ele>87</ele>
        <time>2018-04-15T08:25:54.000Z</time>
      </trkpt>
      <trkpt lat="49.39891" lon="1.4665">
        <ele>87</ele>
        <time>2018-04-15T08:25:57.000Z</time>
      </trkpt>
      <trkpt lat="49.39894" lon="1.46648">
        <ele>87</ele>
        <time>2018-04-15T08:26:00.000Z</time>
      </trkpt>
      <trkpt lat="49.39896" lon="1.46644">
        <ele>87</ele>
        <time>2018-04-15T08:26:03.000Z</time>
      </trkpt>
      <trkpt lat="49.39898" lon="1.46641">
        <ele>87</ele>
        <time>2018-04-15T08:26:06.000Z</time>
      </trkpt>
      <trkpt lat="49.39901" lon="1.4664">
        <ele>87</ele>
        <time>2018-04-15T08:26:09.000Z</time>
      </trkpt>
      <trkpt lat="49.39904" lon="1.46642">
        <ele>88</ele>
        <time>2018-04-15T08:26:12.000Z</time>
      </trkpt>
      <trkpt lat="49.39907" lon="1.46645">
        <ele>88</ele>
        <time>2018-04-15T08:26:15.000Z</time>
      </trkpt>
      <trkpt lat="49.3991" lon="1.46648">
        <ele>88</ele>
        <time>2018-04-15T08:26:18.000Z</time>
      </trkpt>
      <trkpt lat="49.39915" lon="1.46646">
        <ele>88</ele>
        <time>2018-04-15T08:26:21.000Z</time>
      </trkpt>
      <trkpt lat="49.3992" lon="1.46646">
        <ele>93</ele>
        <time>2018-04-15T08:26:24.000Z</time>
      </trkpt>
      <trkpt lat="49.39925" lon="1.46648">
        <ele>93</ele>
        <time>2018-04-15T08:26:27.000Z</time>
      </trkpt>
      <trkpt lat="49.39931" lon="1.46649">
        <ele>94</ele>
        <time>2018-04-15T08:26:30.000Z</time>
      </trkpt>
      <trkpt lat="49.39938" lon="1.4665">
        <ele>94</ele>
        <time>2018-04-15T08:26:33.000Z</time>
      </trkpt>
      <trkpt lat="49.39943" lon="1.46651">
        <ele>95</ele>
        <time>2018-04-15T08:26:36.000Z</time>
      </trkpt>
      <trkpt lat="49.39948" lon="1.46653">
        <ele>95</ele>
        <time>2018-04-15T08:26:39.000Z</time>
      </trkpt>
      <trkpt lat="49.39951" lon="1.46654">
        <ele>96</ele>
        <time>2018-04-15T08:26:42.000Z</time>
      </trkpt>
      <trkpt lat="49.39953" lon="1.46656">
        <ele>96</ele>
        <time>2018-04-15T08:26:45.000Z</time>
      </trkpt>
      <trkpt lat="49.39956" lon="1.46659">
        <ele>96</ele>
        <time>2018-04-15T08:26:48.000Z</time>
      </trkpt>
      <trkpt lat="49.39959" lon="1.46661">
        <ele>96</ele>
        <time>2018-04-15T08:26:51.000Z</time>
      </trkpt>
      <trkpt lat="49.39963" lon="1.46664">
        <ele>97</ele>
        <time>2018-04-15T08:26:54.000Z</time>
      </trkpt>
      <trkpt lat="49.39967" lon="1.46666">
        <ele>97</ele>
        <time>2018-04-15T08:26:57.000Z</time>
      </trkpt>
      <trkpt lat="49.3997" lon="1.46668">
        <ele>95</ele>
        <time>2018-04-15T08:27:00.000Z</time>
      </trkpt>
      <trkpt lat="49.39973" lon="1.46671">
        <ele>96</ele>
        <time>2018-04-15T08:27:03.000Z</time>
      </trkpt>
      <trkpt lat="49.39977" lon="1.46673">
        <ele>96</ele>
        <time>2018-04-15T08:27:06.000Z</time>
      </trkpt>
      <trkpt lat="49.39982" lon="1.46676">
        <ele>97</ele>
        <time>2018-04-15T08:27:09.000Z</time>
      </trkpt>
      <trkpt lat="49.39986" lon="1.46678">
        <ele>97</ele>
        <time>2018-04-15T08:27:12.000Z</time>
      </trkpt>
      <trkpt lat="49.39991" lon="1.4668">
        <ele>97</ele>
        <time>2018-04-15T08:27:15.000Z</time>
      </trkpt>
      <trkpt lat="49.39995" lon="1.46682">
        <ele>98</ele>
        <time>2018-04-15T08:27:18.000Z</time>
      </trkpt>
      <trkpt lat="49.39999" lon="1.46683">
        <ele>98</ele>
        <time>2018-04-15T08:27:21.000Z</time>
      </trkpt>
      <trkpt lat="49.40003" lon="1.46684">
        <ele>104</ele>
        <time>2018-04-15T08:27:24.000Z</time>
      </trkpt>
      <trkpt lat="49.40007" lon="1.46684">
        <ele>104</ele>
        <time>2018-04-15T08:27:27.000Z</time>
      </trkpt>
      <trkpt lat="49.40011" lon="1.46683">
        <ele>104</ele>
        <time>2018-04-15T08:27:30.000Z</time>
      </trkpt>
      <trkpt lat="49.40013" lon="1.46688">
        <ele>105</ele>
        <time>2018-04-15T08:27:33.000Z</time>
      </trkpt>
      <trkpt lat="49.40018" lon="1.46689">
        <ele>105</ele>
        <time>2018-04-15T08:27:36.000Z</time>
      </trkpt>
      <trkpt lat="49.40022" lon="1.46693">
        <ele>106</ele>
        <time>2018-04-15T08:27:39.000Z</time>
      </trkpt>
      <trkpt lat="49.40025" lon="1.46698">
        <ele>106</ele>
        <time>2018-04-15T08:27:42.000Z</time>
      </trkpt>
      <trkpt lat="49.40027" lon="1.46702">
        <ele>106</ele>
        <time>2018-04-15T08:27:45.000Z</time>
      </trkpt>
      <trkpt lat="49.40029" lon="1.46706">
        <ele>106</ele>
        <time>2018-04-15T08:27:48.000Z</time>
      </trkpt>
      <trkpt lat="49.4003" lon="1.46711">
        <ele>106</ele>
        <time>2018-04-15T08:27:51.000Z</time>
      </trkpt>
      <trkpt lat="49.40033" lon="1.46717">
        <ele>107</ele>
        <time>2018-04-15T08:27:54.000Z</time>
      </trkpt>
      <trkpt lat="49.40037" lon="1.46721">
        <ele>107</ele>
        <time>2018-04-15T08:27:57.000Z</time>
      </trkpt>
      <trkpt lat="49.40041" lon="1.46724">
        <ele>107</ele>
        <time>2018-04-15T08:28:00.000Z</time>
      </trkpt>
      <trkpt lat="49.40042" lon="1.46727">
        <ele>107</ele>
        <time>2018-04-15T08:28:03.000Z</time>
      </trkpt>
      <trkpt lat="49.40043" lon="1.4673">
        <ele>107</ele>
        <time>2018-04-15T08:28:06.000Z</time>
      </trkpt>
      <trkpt lat="49.40046" lon="1.46732">
        <ele>108</ele>
        <time>2018-04-15T08:28:09.000Z</time>
      </trkpt>
      <trkpt lat="49.40048" lon="1.46733">
        <ele>108</ele>
        <time>2018-04-15T08:28:12.000Z</time>
      </trkpt>
      <trkpt lat="49.40049" lon="1.46736">
        <ele>108</ele>
        <time>2018-04-15T08:28:15.000Z</time>
      </trkpt>
      <trkpt lat="49.4005" lon="1.46739">
        <ele>108</ele>
        <time>2018-04-15T08:28:18.000Z</time>
      </trkpt>
      <trkpt lat="49.40051" lon="1.46742">
        <ele>108</ele>
        <time>2018-04-15T08:28:21.000Z</time>
      </trkpt>
      <trkpt lat="49.40053" lon="1.46744">
        <ele>109</ele>
        <time>2018-04-15T08:28:24.000Z</time>
      </trkpt>
      <trkpt lat="49.40057" lon="1.46744">
        <ele>109</ele>
        <time>2018-04-15T08:28:27.000Z</time>
      </trkpt>
      <trkpt lat="49.40062" lon="1.46748">
        <ele>110</ele>
        <time>2018-04-15T08:28:30.000Z</time>
      </trkpt>
      <trkpt lat="49.40065" lon="1.4675">
        <ele>110</ele>
        <time>2018-04-15T08:28:33.000Z</time>
      </trkpt>
      <trkpt lat="49.40068" lon="1.46751">
        <ele>109</ele>
        <time>2018-04-15T08:28:36.000Z</time>
      </trkpt>
      <trkpt lat="49.40071" lon="1.46752">
        <ele>110</ele>
        <time>2018-04-15T08:28:39.000Z</time>
      </trkpt>
      <trkpt lat="49.40077" lon="1.46753">
        <ele>112</ele>
        <time>2018-04-15T08:28:42.000Z</time>
      </trkpt>
      <trkpt lat="49.40083" lon="1.46755">
        <ele>112</ele>
        <time>2018-04-15T08:28:45.000Z</time>
      </trkpt>
      <trkpt lat="49.40086" lon="1.46757">
        <ele>116</ele>
        <time>2018-04-15T08:28:48.000Z</time>
      </trkpt>
      <trkpt lat="49.40089" lon="1.4676">
        <ele>117</ele>
        <time>2018-04-15T08:28:51.000Z</time>
      </trkpt>
      <trkpt lat="49.40094" lon="1.46765">
        <ele>117</ele>
        <time>2018-04-15T08:28:54.000Z</time>
      </trkpt>
      <trkpt lat="49.40098" lon="1.46767">
        <ele>118</ele>
        <time>2018-04-15T08:28:57.000Z</time>
      </trkpt>
      <trkpt lat="49.40101" lon="1.46771">
        <ele>118</ele>
        <time>2018-04-15T08:29:00.000Z</time>
      </trkpt>
      <trkpt lat="49.40105" lon="1.46775">
        <ele>119</ele>
        <time>2018-04-15T08:29:03.000Z</time>
      </trkpt>
      <trkpt lat="49.4011" lon="1.46778">
        <ele>120</ele>
        <time>2018-04-15T08:29:06.000Z</time>
      </trkpt>
      <trkpt lat="49.40113" lon="1.46782">
        <ele>120</ele>
        <time>2018-04-15T08:29:09.000Z</time>
      </trkpt>
      <trkpt lat="49.40116" lon="1.46786">
        <ele>120</ele>
        <time>2018-04-15T08:29:12.000Z</time>
      </trkpt>
      <trkpt lat="49.40119" lon="1.46792">
        <ele>120</ele>
        <time>2018-04-15T08:29:15.000Z</time>
      </trkpt>
      <trkpt lat="49.40123" lon="1.46798">
        <ele>120</ele>
        <time>2018-04-15T08:29:18.000Z</time>
      </trkpt>
      <trkpt lat="49.40127" lon="1.46805">
        <ele>121</ele>
        <time>2018-04-15T08:29:21.000Z</time>
      </trkpt>
      <trkpt lat="49.40131" lon="1.46813">
        <ele>121</ele>
        <time>2018-04-15T08:29:24.000Z</time>
      </trkpt>
      <trkpt lat="49.40133" lon="1.4682">
        <ele>121</ele>
        <time>2018-04-15T08:29:27.000Z</time>
      </trkpt>
      <trkpt lat="49.40136" lon="1.46829">
        <ele>121</ele>
        <time>2018-04-15T08:29:30.000Z</time>
      </trkpt>
      <trkpt lat="49.40138" lon="1.46837">
        <ele>119</ele>
        <time>2018-04-15T08:29:33.000Z</time>
      </trkpt>
      <trkpt lat="49.40139" lon="1.46844">
        <ele>119</ele>
        <time>2018-04-15T08:29:36.000Z</time>
      </trkpt>
      <trkpt lat="49.40142" lon="1.46851">
        <ele>119</ele>
        <time>2018-04-15T08:29:39.000Z</time>
      </trkpt>
      <trkpt lat="49.40145" lon="1.46856">
        <ele>119</ele>
        <time>2018-04-15T08:29:42.000Z</time>
      </trkpt>
      <trkpt lat="49.40146" lon="1.46861">
        <ele>119</ele>
        <time>2018-04-15T08:29:45.000Z</time>
      </trkpt>
      <trkpt lat="49.40149" lon="1.46867">
        <ele>118</ele>
        <time>2018-04-15T08:29:48.000Z</time>
      </trkpt>
      <trkpt lat="49.40152" lon="1.46879">
        <ele>118</ele>
        <time>2018-04-15T08:29:51.000Z</time>
      </trkpt>
      <trkpt lat="49.40156" lon="1.46887">
        <ele>118</ele>
        <time>2018-04-15T08:29:54.000Z</time>
      </trkpt>
      <trkpt lat="49.4016" lon="1.46896">
        <ele>119</ele>
        <time>2018-04-15T08:29:57.000Z</time>
      </trkpt>
      <trkpt lat="49.40162" lon="1.46903">
        <ele>120</ele>
        <time>2018-04-15T08:30:00.000Z</time>
      </trkpt>
      <trkpt lat="49.40165" lon="1.46911">
        <ele>121</ele>
        <time>2018-04-15T08:30:03.000Z</time>
      </trkpt>
      <trkpt lat="49.40166" lon="1.4692">
        <ele>120</ele>
        <time>2018-04-15T08:30:06.000Z</time>
      </trkpt>
      <trkpt lat="49.40168" lon="1.46928">
        <ele>124</ele>
        <time>2018-04-15T08:30:09.000Z</time>
      </trkpt>
      <trkpt lat="49.40171" lon="1.46936">
        <ele>125</ele>
        <time>2018-04-15T08:30:12.000Z</time>
      </trkpt>
      <trkpt lat="49.40174" lon="1.46946">
        <ele>126</ele>
        <time>2018-04-15T08:30:15.000Z</time>
      </trkpt>
      <trkpt lat="49.40176" lon="1.46954">
        <ele>126</ele>
        <time>2018-04-15T08:30:18.000Z</time>
      </trkpt>
      <trkpt lat="49.4018" lon="1.46964">
        <ele>126</ele>
        <time>2018-04-15T08:30:21.000Z</time>
      </trkpt>
      <trkpt lat="49.40184" lon="1.46975">
        <ele>125</ele>
        <time>2018-04-15T08:30:24.000Z</time>
      </trkpt>
      <trkpt lat="49.4019" lon="1.46987">
        <ele>125</ele>
        <time>2018-04-15T08:30:27.000Z</time>
      </trkpt>
      <trkpt lat="49.40192" lon="1.46998">
        <ele>125</ele>
        <time>2018-04-15T08:30:30.000Z</time>
      </trkpt>
      <trkpt lat="49.40194" lon="1.47006">
        <ele>122</ele>
        <time>2018-04-15T08:30:32.000Z</time>
      </trkpt>
      <trkpt lat="49.40196" lon="1.47013">
        <ele>122</ele>
        <time>2018-04-15T08:30:34.000Z</time>
      </trkpt>
      <trkpt lat="49.40197" lon="1.47018">
        <ele>123</ele>
        <time>2018-04-15T08:30:36.000Z</time>
      </trkpt>
      <trkpt lat="49.40197" lon="1.47024">
        <ele>122</ele>
        <time>2018-04-15T08:30:38.000Z</time>
      </trkpt>
      <trkpt lat="49.40197" lon="1.47031">
        <ele>122</ele>
        <time>2018-04-15T08:30:40.000Z</time>
      </trkpt>
      <trkpt lat="49.40198" lon="1.47038">
        <ele>122</ele>
        <time>2018-04-15T08:30:42.000Z</time>
      </trkpt>
      <trkpt lat="49.40199" lon="1.47045">
        <ele>122</ele>
        <time>2018-04-15T08:30:44.000Z</time>
      </trkpt>
      <trkpt lat="49.40202" lon="1.47052">
        <ele>122</ele>
        <time>2018-04-15T08:30:46.000Z</time>
      </trkpt>
      <trkpt lat="49.40203" lon="1.47062">
        <ele>122</ele>
        <time>2018-04-15T08:30:48.000Z</time>
      </trkpt>
      <trkpt lat="49.40204" lon="1.47071">
        <ele>122</ele>
        <time>2018-04-15T08:30:50.000Z</time>
      </trkpt>
      <trkpt lat="49.40204" lon="1.47078">
        <ele>122</ele>
        <time>2018-04-15T08:30:52.000Z</time>
      </trkpt>
      <trkpt lat="49.40209" lon="1.47086">
        <ele>121</ele>
        <time>2018-04-15T08:30:54.000Z</time>
      </trkpt>
      <trkpt lat="49.40212" lon="1.47092">
        <ele>121</ele>
        <time>2018-04-15T08:30:56.000Z</time>
      </trkpt>
      <trkpt lat="49.40212" lon="1.47101">
        <ele>121</ele>
        <time>2018-04-15T08:30:58.000Z</time>
      </trkpt>
      <trkpt lat="49.40208" lon="1.47105">
        <ele>120</ele>
        <time>2018-04-15T08:31:00.000Z</time>
      </trkpt>
      <trkpt lat="49.40204" lon="1.47107">
        <ele>120</ele>
        <time>2018-04-15T08:31:02.000Z</time>
      </trkpt>
      <trkpt lat="49.40198" lon="1.47112">
        <ele>119</ele>
        <time>2018-04-15T08:31:04.000Z</time>
      </trkpt>
      <trkpt lat="49.40194" lon="1.47117">
        <ele>118</ele>
        <time>2018-04-15T08:31:06.000Z</time>
      </trkpt>
      <trkpt lat="49.40193" lon="1.47122">
        <ele>118</ele>
        <time>2018-04-15T08:31:08.000Z</time>
      </trkpt>
      <trkpt lat="49.40191" lon="1.4713">
        <ele>118</ele>
        <time>2018-04-15T08:31:11.000Z</time>
      </trkpt>
      <trkpt lat="49.4019" lon="1.4714">
        <ele>117</ele>
        <time>2018-04-15T08:31:14.000Z</time>
      </trkpt>
      <trkpt lat="49.40195" lon="1.47157">
        <ele>117</ele>
        <time>2018-04-15T08:31:17.000Z</time>
      </trkpt>
      <trkpt lat="49.40208" lon="1.47175">
        <ele>117</ele>
        <time>2018-04-15T08:31:20.000Z</time>
      </trkpt>
      <trkpt lat="49.40212" lon="1.4719">
        <ele>118</ele>
        <time>2018-04-15T08:31:23.000Z</time>
      </trkpt>
      <trkpt lat="49.40212" lon="1.47202">
        <ele>117</ele>
        <time>2018-04-15T08:31:26.000Z</time>
      </trkpt>
      <trkpt lat="49.40215" lon="1.47215">
        <ele>117</ele>
        <time>2018-04-15T08:31:29.000Z</time>
      </trkpt>
      <trkpt lat="49.40218" lon="1.47231">
        <ele>117</ele>
        <time>2018-04-15T08:31:32.000Z</time>
      </trkpt>
      <trkpt lat="49.40214" lon="1.47246">
        <ele>116</ele>
        <time>2018-04-15T08:31:35.000Z</time>
      </trkpt>
      <trkpt lat="49.4021" lon="1.47259">
        <ele>110</ele>
        <time>2018-04-15T08:31:38.000Z</time>
      </trkpt>
      <trkpt lat="49.40213" lon="1.47271">
        <ele>110</ele>
        <time>2018-04-15T08:31:41.000Z</time>
      </trkpt>
      <trkpt lat="49.4022" lon="1.47281">
        <ele>111</ele>
        <time>2018-04-15T08:31:44.000Z</time>
      </trkpt>
      <trkpt lat="49.40223" lon="1.47293">
        <ele>110</ele>
        <time>2018-04-15T08:31:47.000Z</time>
      </trkpt>
      <trkpt lat="49.40225" lon="1.47305">
        <ele>110</ele>
        <time>2018-04-15T08:31:50.000Z</time>
      </trkpt>
      <trkpt lat="49.40228" lon="1.47318">
        <ele>110</ele>
        <time>2018-04-15T08:31:53.000Z</time>
      </trkpt>
      <trkpt lat="49.40232" lon="1.47329">
        <ele>111</ele>
        <time>2018-04-15T08:31:56.000Z</time>
      </trkpt>
      <trkpt lat="49.40235" lon="1.4734">
        <ele>107</ele>
        <time>2018-04-15T08:31:59.000Z</time>
      </trkpt>
      <trkpt lat="49.40234" lon="1.47354">
        <ele>105</ele>
        <time>2018-04-15T08:32:02.000Z</time>
      </trkpt>
      <trkpt lat="49.40234" lon="1.47363">
        <ele>103</ele>
        <time>2018-04-15T08:32:05.000Z</time>
      </trkpt>
      <trkpt lat="49.40235" lon="1.47377">
        <ele>102</ele>
        <time>2018-04-15T08:32:08.000Z</time>
      </trkpt>
      <trkpt lat="49.40234" lon="1.47385">
        <ele>101</ele>
        <time>2018-04-15T08:32:11.000Z</time>
      </trkpt>
      <trkpt lat="49.40233" lon="1.47393">
        <ele>100</ele>
        <time>2018-04-15T08:32:14.000Z</time>
      </trkpt>
      <trkpt lat="49.40235" lon="1.47398">
        <ele>100</ele>
        <time>2018-04-15T08:32:17.000Z</time>
      </trkpt>
      <trkpt lat="49.40237" lon="1.47408">
        <ele>101</ele>
        <time>2018-04-15T08:32:20.000Z</time>
      </trkpt>
      <trkpt lat="49.40242" lon="1.47421">
        <ele>99</ele>
        <time>2018-04-15T08:32:23.000Z</time>
      </trkpt>
      <trkpt lat="49.40249" lon="1.47428">
        <ele>98</ele>
        <time>2018-04-15T08:32:26.000Z</time>
      </trkpt>
      <trkpt lat="49.40254" lon="1.47433">
        <ele>105</ele>
        <time>2018-04-15T08:32:29.000Z</time>
      </trkpt>
      <trkpt lat="49.40255" lon="1.47439">
        <ele>106</ele>
        <time>2018-04-15T08:32:32.000Z</time>
      </trkpt>
      <trkpt lat="49.40255" lon="1.47438">
        <ele>106</ele>
        <time>2018-04-15T08:32:35.000Z</time>
      </trkpt>
      <trkpt lat="49.40254" lon="1.4744">
        <ele>106</ele>
        <time>2018-04-15T08:32:38.000Z</time>
      </trkpt>
      <trkpt lat="49.40254" lon="1.47442">
        <ele>106</ele>
        <time>2018-04-15T08:32:41.000Z</time>
      </trkpt>
      <trkpt lat="49.40252" lon="1.47443">
        <ele>106</ele>
        <time>2018-04-15T08:32:44.000Z</time>
      </trkpt>
      <trkpt lat="49.40254" lon="1.47444">
        <ele>106</ele>
        <time>2018-04-15T08:32:48.000Z</time>
      </trkpt>
      <trkpt lat="49.40255" lon="1.47453">
        <ele>106</ele>
        <time>2018-04-15T08:32:51.000Z</time>
      </trkpt>
      <trkpt lat="49.40257" lon="1.47467">
        <ele>105</ele>
        <time>2018-04-15T08:32:54.000Z</time>
      </trkpt>
      <trkpt lat="49.4026" lon="1.47479">
        <ele>103</ele>
        <time>2018-04-15T08:32:57.000Z</time>
      </trkpt>
      <trkpt lat="49.40263" lon="1.47478">
        <ele>104</ele>
        <time>2018-04-15T08:33:00.000Z</time>
      </trkpt>
      <trkpt lat="49.40263" lon="1.47482">
        <ele>103</ele>
        <time>2018-04-15T08:33:03.000Z</time>
      </trkpt>
      <trkpt lat="49.40264" lon="1.47488">
        <ele>102</ele>
        <time>2018-04-15T08:33:06.000Z</time>
      </trkpt>
      <trkpt lat="49.40267" lon="1.47497">
        <ele>101</ele>
        <time>2018-04-15T08:33:09.000Z</time>
      </trkpt>
      <trkpt lat="49.40273" lon="1.47505">
        <ele>99</ele>
        <time>2018-04-15T08:33:12.000Z</time>
      </trkpt>
      <trkpt lat="49.40275" lon="1.47515">
        <ele>100</ele>
        <time>2018-04-15T08:33:15.000Z</time>
      </trkpt>
      <trkpt lat="49.40281" lon="1.47521">
        <ele>101</ele>
        <time>2018-04-15T08:33:18.000Z</time>
      </trkpt>
      <trkpt lat="49.40286" lon="1.47529">
        <ele>101</ele>
        <time>2018-04-15T08:33:21.000Z</time>
      </trkpt>
      <trkpt lat="49.40288" lon="1.47534">
        <ele>101</ele>
        <time>2018-04-15T08:33:24.000Z</time>
      </trkpt>
      <trkpt lat="49.40289" lon="1.47538">
        <ele>101</ele>
        <time>2018-04-15T08:33:27.000Z</time>
      </trkpt>
      <trkpt lat="49.40291" lon="1.47543">
        <ele>101</ele>
        <time>2018-04-15T08:33:30.000Z</time>
      </trkpt>
      <trkpt lat="49.40294" lon="1.47549">
        <ele>102</ele>
        <time>2018-04-15T08:33:33.000Z</time>
      </trkpt>
      <trkpt lat="49.403" lon="1.47554">
        <ele>102</ele>
        <time>2018-04-15T08:33:36.000Z</time>
      </trkpt>
      <trkpt lat="49.40304" lon="1.4756">
        <ele>102</ele>
        <time>2018-04-15T08:33:39.000Z</time>
      </trkpt>
      <trkpt lat="49.40308" lon="1.47567">
        <ele>103</ele>
        <time>2018-04-15T08:33:42.000Z</time>
      </trkpt>
      <trkpt lat="49.40314" lon="1.47575">
        <ele>103</ele>
        <time>2018-04-15T08:33:45.000Z</time>
      </trkpt>
      <trkpt lat="49.40321" lon="1.47585">
        <ele>102</ele>
        <time>2018-04-15T08:33:48.000Z</time>
      </trkpt>
      <trkpt lat="49.40328" lon="1.47601">
        <ele>101</ele>
        <time>2018-04-15T08:33:51.000Z</time>
      </trkpt>
      <trkpt lat="49.40334" lon="1.47616">
        <ele>112</ele>
        <time>2018-04-15T08:33:54.000Z</time>
      </trkpt>
      <trkpt lat="49.40342" lon="1.47635">
        <ele>111</ele>
        <time>2018-04-15T08:33:57.000Z</time>
      </trkpt>
      <trkpt lat="49.40346" lon="1.47654">
        <ele>108</ele>
        <time>2018-04-15T08:34:00.000Z</time>
      </trkpt>
      <trkpt lat="49.40349" lon="1.47667">
        <ele>108</ele>
        <time>2018-04-15T08:34:03.000Z</time>
      </trkpt>
      <trkpt lat="49.40352" lon="1.4768">
        <ele>106</ele>
        <time>2018-04-15T08:34:06.000Z</time>
      </trkpt>
      <trkpt lat="49.40353" lon="1.47695">
        <ele>107</ele>
        <time>2018-04-15T08:34:09.000Z</time>
      </trkpt>
      <trkpt lat="49.40353" lon="1.47703">
        <ele>107</ele>
        <time>2018-04-15T08:34:12.000Z</time>
      </trkpt>
      <trkpt lat="49.40351" lon="1.47711">
        <ele>106</ele>
        <time>2018-04-15T08:34:15.000Z</time>
      </trkpt>
      <trkpt lat="49.40351" lon="1.47721">
        <ele>106</ele>
        <time>2018-04-15T08:34:18.000Z</time>
      </trkpt>
      <trkpt lat="49.40354" lon="1.47723">
        <ele>106</ele>
        <time>2018-04-15T08:34:21.000Z</time>
      </trkpt>
      <trkpt lat="49.40355" lon="1.47726">
        <ele>106</ele>
        <time>2018-04-15T08:34:24.000Z</time>
      </trkpt>
      <trkpt lat="49.40352" lon="1.47734">
        <ele>104</ele>
        <time>2018-04-15T08:34:27.000Z</time>
      </trkpt>
      <trkpt lat="49.40352" lon="1.47741">
        <ele>103</ele>
        <time>2018-04-15T08:34:31.000Z</time>
      </trkpt>
      <trkpt lat="49.40353" lon="1.47748">
        <ele>103</ele>
        <time>2018-04-15T08:34:32.000Z</time>
      </trkpt>
      <trkpt lat="49.40353" lon="1.47756">
        <ele>101</ele>
        <time>2018-04-15T08:34:34.000Z</time>
      </trkpt>
      <trkpt lat="49.40351" lon="1.47763">
        <ele>101</ele>
        <time>2018-04-15T08:34:36.000Z</time>
      </trkpt>
      <trkpt lat="49.40351" lon="1.47769">
        <ele>101</ele>
        <time>2018-04-15T08:34:39.000Z</time>
      </trkpt>
      <trkpt lat="49.40353" lon="1.47777">
        <ele>102</ele>
        <time>2018-04-15T08:34:40.000Z</time>
      </trkpt>
      <trkpt lat="49.40356" lon="1.47791">
        <ele>102</ele>
        <time>2018-04-15T08:34:42.000Z</time>
      </trkpt>
      <trkpt lat="49.4036" lon="1.47804">
        <ele>102</ele>
        <time>2018-04-15T08:34:44.000Z</time>
      </trkpt>
      <trkpt lat="49.40364" lon="1.47816">
        <ele>102</ele>
        <time>2018-04-15T08:34:46.000Z</time>
      </trkpt>
      <trkpt lat="49.40366" lon="1.47828">
        <ele>102</ele>
        <time>2018-04-15T08:34:48.000Z</time>
      </trkpt>
      <trkpt lat="49.40369" lon="1.4784">
        <ele>101</ele>
        <time>2018-04-15T08:34:50.000Z</time>
      </trkpt>
      <trkpt lat="49.40371" lon="1.47851">
        <ele>101</ele>
        <time>2018-04-15T08:34:52.000Z</time>
      </trkpt>
      <trkpt lat="49.40373" lon="1.47862">
        <ele>101</ele>
        <time>2018-04-15T08:34:54.000Z</time>
      </trkpt>
      <trkpt lat="49.40375" lon="1.47874">
        <ele>101</ele>
        <time>2018-04-15T08:34:56.000Z</time>
      </trkpt>
      <trkpt lat="49.40376" lon="1.47887">
        <ele>101</ele>
        <time>2018-04-15T08:34:58.000Z</time>
      </trkpt>
      <trkpt lat="49.40378" lon="1.47899">
        <ele>101</ele>
        <time>2018-04-15T08:35:00.000Z</time>
      </trkpt>
      <trkpt lat="49.40379" lon="1.47919">
        <ele>99</ele>
        <time>2018-04-15T08:35:03.000Z</time>
      </trkpt>
      <trkpt lat="49.40383" lon="1.47934">
        <ele>99</ele>
        <time>2018-04-15T08:35:06.000Z</time>
      </trkpt>
      <trkpt lat="49.40385" lon="1.47952">
        <ele>98</ele>
        <time>2018-04-15T08:35:09.000Z</time>
      </trkpt>
      <trkpt lat="49.40387" lon="1.47969">
        <ele>98</ele>
        <time>2018-04-15T08:35:12.000Z</time>
      </trkpt>
      <trkpt lat="49.40389" lon="1.47987">
        <ele>98</ele>
        <time>2018-04-15T08:35:15.000Z</time>
      </trkpt>
      <trkpt lat="49.40392" lon="1.48001">
        <ele>97</ele>
        <time>2018-04-15T08:35:18.000Z</time>
      </trkpt>
      <trkpt lat="49.40395" lon="1.48018">
        <ele>97</ele>
        <time>2018-04-15T08:35:21.000Z</time>
      </trkpt>
      <trkpt lat="49.40397" lon="1.48035">
        <ele>97</ele>
        <time>2018-04-15T08:35:24.000Z</time>
      </trkpt>
      <trkpt lat="49.40402" lon="1.48046">
        <ele>97</ele>
        <time>2018-04-15T08:35:27.000Z</time>
      </trkpt>
      <trkpt lat="49.40408" lon="1.48056">
        <ele>98</ele>
        <time>2018-04-15T08:35:30.000Z</time>
      </trkpt>
      <trkpt lat="49.40411" lon="1.48071">
        <ele>99</ele>
        <time>2018-04-15T08:35:33.000Z</time>
      </trkpt>
      <trkpt lat="49.40413" lon="1.48087">
        <ele>101</ele>
        <time>2018-04-15T08:35:36.000Z</time>
      </trkpt>
      <trkpt lat="49.40416" lon="1.481">
        <ele>99</ele>
        <time>2018-04-15T08:35:39.000Z</time>
      </trkpt>
      <trkpt lat="49.40419" lon="1.48112">
        <ele>102</ele>
        <time>2018-04-15T08:35:42.000Z</time>
      </trkpt>
      <trkpt lat="49.40421" lon="1.48125">
        <ele>102</ele>
        <time>2018-04-15T08:35:45.000Z</time>
      </trkpt>
      <trkpt lat="49.40421" lon="1.48143">
        <ele>102</ele>
        <time>2018-04-15T08:35:48.000Z</time>
      </trkpt>
      <trkpt lat="49.40421" lon="1.4816">
        <ele>101</ele>
        <time>2018-04-15T08:35:51.000Z</time>
      </trkpt>
      <trkpt lat="49.40424" lon="1.48173">
        <ele>100</ele>
        <time>2018-04-15T08:35:54.000Z</time>
      </trkpt>
      <trkpt lat="49.40429" lon="1.48187">
        <ele>100</ele>
        <time>2018-04-15T08:35:57.000Z</time>
      </trkpt>
      <trkpt lat="49.40434" lon="1.48205">
        <ele>99</ele>
        <time>2018-04-15T08:36:00.000Z</time>
      </trkpt>
      <trkpt lat="49.40441" lon="1.48227">
        <ele>99</ele>
        <time>2018-04-15T08:36:03.000Z</time>
      </trkpt>
      <trkpt lat="49.40449" lon="1.48252">
        <ele>96</ele>
        <time>2018-04-15T08:36:06.000Z</time>
      </trkpt>
      <trkpt lat="49.40461" lon="1.48275">
        <ele>95</ele>
        <time>2018-04-15T08:36:09.000Z</time>
      </trkpt>
      <trkpt lat="49.40476" lon="1.48298">
        <ele>95</ele>
        <time>2018-04-15T08:36:12.000Z</time>
      </trkpt>
      <trkpt lat="49.40495" lon="1.48313">
        <ele>94</ele>
        <time>2018-04-15T08:36:15.000Z</time>
      </trkpt>
      <trkpt lat="49.40514" lon="1.48317">
        <ele>95</ele>
        <time>2018-04-15T08:36:18.000Z</time>
      </trkpt>
      <trkpt lat="49.40529" lon="1.48316">
        <ele>96</ele>
        <time>2018-04-15T08:36:21.000Z</time>
      </trkpt>
      <trkpt lat="49.4054" lon="1.48314">
        <ele>97</ele>
        <time>2018-04-15T08:36:24.000Z</time>
      </trkpt>
      <trkpt lat="49.40552" lon="1.48311">
        <ele>98</ele>
        <time>2018-04-15T08:36:27.000Z</time>
      </trkpt>
      <trkpt lat="49.40562" lon="1.48308">
        <ele>98</ele>
        <time>2018-04-15T08:36:30.000Z</time>
      </trkpt>
      <trkpt lat="49.40574" lon="1.4831">
        <ele>99</ele>
        <time>2018-04-15T08:36:33.000Z</time>
      </trkpt>
      <trkpt lat="49.40585" lon="1.4831">
        <ele>103</ele>
        <time>2018-04-15T08:36:36.000Z</time>
      </trkpt>
      <trkpt lat="49.40594" lon="1.48307">
        <ele>103</ele>
        <time>2018-04-15T08:36:39.000Z</time>
      </trkpt>
      <trkpt lat="49.40603" lon="1.48305">
        <ele>103</ele>
        <time>2018-04-15T08:36:42.000Z</time>
      </trkpt>
      <trkpt lat="49.40616" lon="1.48303">
        <ele>104</ele>
        <time>2018-04-15T08:36:45.000Z</time>
      </trkpt>
      <trkpt lat="49.40628" lon="1.483">
        <ele>104</ele>
        <time>2018-04-15T08:36:48.000Z</time>
      </trkpt>
      <trkpt lat="49.40641" lon="1.48298">
        <ele>105</ele>
        <time>2018-04-15T08:36:51.000Z</time>
      </trkpt>
      <trkpt lat="49.40649" lon="1.48296">
        <ele>105</ele>
        <time>2018-04-15T08:36:54.000Z</time>
      </trkpt>
      <trkpt lat="49.40653" lon="1.48292">
        <ele>105</ele>
        <time>2018-04-15T08:36:57.000Z</time>
      </trkpt>
      <trkpt lat="49.40658" lon="1.48288">
        <ele>105</ele>
        <time>2018-04-15T08:37:00.000Z</time>
      </trkpt>
      <trkpt lat="49.40666" lon="1.48288">
        <ele>105</ele>
        <time>2018-04-15T08:37:03.000Z</time>
      </trkpt>
      <trkpt lat="49.40674" lon="1.48286">
        <ele>113</ele>
        <time>2018-04-15T08:37:06.000Z</time>
      </trkpt>
      <trkpt lat="49.40682" lon="1.48284">
        <ele>113</ele>
        <time>2018-04-15T08:37:09.000Z</time>
      </trkpt>
      <trkpt lat="49.40688" lon="1.48281">
        <ele>113</ele>
        <time>2018-04-15T08:37:12.000Z</time>
      </trkpt>
      <trkpt lat="49.40695" lon="1.48277">
        <ele>114</ele>
        <time>2018-04-15T08:37:15.000Z</time>
      </trkpt>
      <trkpt lat="49.40701" lon="1.4827">
        <ele>114</ele>
        <time>2018-04-15T08:37:18.000Z</time>
      </trkpt>
      <trkpt lat="49.40709" lon="1.48263">
        <ele>115</ele>
        <time>2018-04-15T08:37:21.000Z</time>
      </trkpt>
      <trkpt lat="49.40717" lon="1.48256">
        <ele>116</ele>
        <time>2018-04-15T08:37:24.000Z</time>
      </trkpt>
      <trkpt lat="49.40722" lon="1.48249">
        <ele>113</ele>
        <time>2018-04-15T08:37:27.000Z</time>
      </trkpt>
      <trkpt lat="49.40726" lon="1.48241">
        <ele>113</ele>
        <time>2018-04-15T08:37:30.000Z</time>
      </trkpt>
      <trkpt lat="49.4073" lon="1.48235">
        <ele>114</ele>
        <time>2018-04-15T08:37:33.000Z</time>
      </trkpt>
      <trkpt lat="49.40734" lon="1.48232">
        <ele>114</ele>
        <time>2018-04-15T08:37:36.000Z</time>
      </trkpt>
      <trkpt lat="49.40739" lon="1.48225">
        <ele>113</ele>
        <time>2018-04-15T08:37:39.000Z</time>
      </trkpt>
      <trkpt lat="49.40743" lon="1.48221">
        <ele>113</ele>
        <time>2018-04-15T08:37:41.000Z</time>
      </trkpt>
      <trkpt lat="49.40746" lon="1.48219">
        <ele>113</ele>
        <time>2018-04-15T08:37:43.000Z</time>
      </trkpt>
      <trkpt lat="49.40749" lon="1.48218">
        <ele>113</ele>
        <time>2018-04-15T08:37:45.000Z</time>
      </trkpt>
      <trkpt lat="49.40751" lon="1.48217">
        <ele>125</ele>
        <time>2018-04-15T08:37:47.000Z</time>
      </trkpt>
      <trkpt lat="49.40753" lon="1.48215">
        <ele>125</ele>
        <time>2018-04-15T08:37:49.000Z</time>
      </trkpt>
      <trkpt lat="49.40755" lon="1.48213">
        <ele>125</ele>
        <time>2018-04-15T08:37:51.000Z</time>
      </trkpt>
      <trkpt lat="49.40757" lon="1.48212">
        <ele>125</ele>
        <time>2018-04-15T08:37:53.000Z</time>
      </trkpt>
      <trkpt lat="49.4076" lon="1.48211">
        <ele>125</ele>
        <time>2018-04-15T08:37:55.000Z</time>
      </trkpt>
      <trkpt lat="49.40762" lon="1.48209">
        <ele>125</ele>
        <time>2018-04-15T08:37:57.000Z</time>
      </trkpt>
      <trkpt lat="49.40764" lon="1.48207">
        <ele>125</ele>
        <time>2018-04-15T08:37:59.000Z</time>
      </trkpt>
      <trkpt lat="49.40766" lon="1.48205">
        <ele>125</ele>
        <time>2018-04-15T08:38:01.000Z</time>
      </trkpt>
      <trkpt lat="49.40767" lon="1.48203">
        <ele>125</ele>
        <time>2018-04-15T08:38:03.000Z</time>
      </trkpt>
      <trkpt lat="49.40768" lon="1.482">
        <ele>125</ele>
        <time>2018-04-15T08:38:05.000Z</time>
      </trkpt>
      <trkpt lat="49.4077" lon="1.48197">
        <ele>125</ele>
        <time>2018-04-15T08:38:07.000Z</time>
      </trkpt>
      <trkpt lat="49.40773" lon="1.48195">
        <ele>125</ele>
        <time>2018-04-15T08:38:09.000Z</time>
      </trkpt>
      <trkpt lat="49.40778" lon="1.48194">
        <ele>126</ele>
        <time>2018-04-15T08:38:12.000Z</time>
      </trkpt>
      <trkpt lat="49.40782" lon="1.48193">
        <ele>127</ele>
        <time>2018-04-15T08:38:15.000Z</time>
      </trkpt>
      <trkpt lat="49.40786" lon="1.4819">
        <ele>127</ele>
        <time>2018-04-15T08:38:18.000Z</time>
      </trkpt>
      <trkpt lat="49.4079" lon="1.48187">
        <ele>128</ele>
        <time>2018-04-15T08:38:21.000Z</time>
      </trkpt>
      <trkpt lat="49.40794" lon="1.48184">
        <ele>128</ele>
        <time>2018-04-15T08:38:24.000Z</time>
      </trkpt>
      <trkpt lat="49.40799" lon="1.48179">
        <ele>129</ele>
        <time>2018-04-15T08:38:27.000Z</time>
      </trkpt>
      <trkpt lat="49.40801" lon="1.48174">
        <ele>129</ele>
        <time>2018-04-15T08:38:30.000Z</time>
      </trkpt>
      <trkpt lat="49.40803" lon="1.4817">
        <ele>130</ele>
        <time>2018-04-15T08:38:33.000Z</time>
      </trkpt>
      <trkpt lat="49.40806" lon="1.48165">
        <ele>127</ele>
        <time>2018-04-15T08:38:36.000Z</time>
      </trkpt>
      <trkpt lat="49.4081" lon="1.48161">
        <ele>127</ele>
        <time>2018-04-15T08:38:39.000Z</time>
      </trkpt>
      <trkpt lat="49.40814" lon="1.48157">
        <ele>128</ele>
        <time>2018-04-15T08:38:42.000Z</time>
      </trkpt>
      <trkpt lat="49.40818" lon="1.48154">
        <ele>128</ele>
        <time>2018-04-15T08:38:45.000Z</time>
      </trkpt>
      <trkpt lat="49.40822" lon="1.48152">
        <ele>129</ele>
        <time>2018-04-15T08:38:48.000Z</time>
      </trkpt>
      <trkpt lat="49.40825" lon="1.48146">
        <ele>128</ele>
        <time>2018-04-15T08:38:51.000Z</time>
      </trkpt>
      <trkpt lat="49.40829" lon="1.48141">
        <ele>128</ele>
        <time>2018-04-15T08:38:54.000Z</time>
      </trkpt>
      <trkpt lat="49.40831" lon="1.48138">
        <ele>128</ele>
        <time>2018-04-15T08:38:57.000Z</time>
      </trkpt>
      <trkpt lat="49.40834" lon="1.48133">
        <ele>139</ele>
        <time>2018-04-15T08:39:00.000Z</time>
      </trkpt>
      <trkpt lat="49.40836" lon="1.48128">
        <ele>139</ele>
        <time>2018-04-15T08:39:03.000Z</time>
      </trkpt>
      <trkpt lat="49.40839" lon="1.48122">
        <ele>139</ele>
        <time>2018-04-15T08:39:06.000Z</time>
      </trkpt>
      <trkpt lat="49.40842" lon="1.48117">
        <ele>138</ele>
        <time>2018-04-15T08:39:09.000Z</time>
      </trkpt>
      <trkpt lat="49.40844" lon="1.4811">
        <ele>138</ele>
        <time>2018-04-15T08:39:12.000Z</time>
      </trkpt>
      <trkpt lat="49.40847" lon="1.48106">
        <ele>138</ele>
        <time>2018-04-15T08:39:15.000Z</time>
      </trkpt>
      <trkpt lat="49.40848" lon="1.48102">
        <ele>137</ele>
        <time>2018-04-15T08:39:18.000Z</time>
      </trkpt>
      <trkpt lat="49.4085" lon="1.48096">
        <ele>137</ele>
        <time>2018-04-15T08:39:21.000Z</time>
      </trkpt>
      <trkpt lat="49.40853" lon="1.48087">
        <ele>137</ele>
        <time>2018-04-15T08:39:24.000Z</time>
      </trkpt>
      <trkpt lat="49.40855" lon="1.4808">
        <ele>135</ele>
        <time>2018-04-15T08:39:27.000Z</time>
      </trkpt>
      <trkpt lat="49.40858" lon="1.48073">
        <ele>136</ele>
        <time>2018-04-15T08:39:30.000Z</time>
      </trkpt>
      <trkpt lat="49.4086" lon="1.48066">
        <ele>137</ele>
        <time>2018-04-15T08:39:33.000Z</time>
      </trkpt>
      <trkpt lat="49.40863" lon="1.48061">
        <ele>137</ele>
        <time>2018-04-15T08:39:36.000Z</time>
      </trkpt>
      <trkpt lat="49.40868" lon="1.48054">
        <ele>138</ele>
        <time>2018-04-15T08:39:39.000Z</time>
      </trkpt>
      <trkpt lat="49.4087" lon="1.48051">
        <ele>138</ele>
        <time>2018-04-15T08:39:42.000Z</time>
      </trkpt>
      <trkpt lat="49.40872" lon="1.48047">
        <ele>138</ele>
        <time>2018-04-15T08:39:45.000Z</time>
      </trkpt>
      <trkpt lat="49.40876" lon="1.48044">
        <ele>139</ele>
        <time>2018-04-15T08:39:48.000Z</time>
      </trkpt>
      <trkpt lat="49.40878" lon="1.48039">
        <ele>139</ele>
        <time>2018-04-15T08:39:51.000Z</time>
      </trkpt>
      <trkpt lat="49.40881" lon="1.48033">
        <ele>139</ele>
        <time>2018-04-15T08:39:54.000Z</time>
      </trkpt>
      <trkpt lat="49.40884" lon="1.48027">
        <ele>140</ele>
        <time>2018-04-15T08:39:57.000Z</time>
      </trkpt>
      <trkpt lat="49.40888" lon="1.48023">
        <ele>140</ele>
        <time>2018-04-15T08:40:00.000Z</time>
      </trkpt>
      <trkpt lat="49.40892" lon="1.48016">
        <ele>141</ele>
        <time>2018-04-15T08:40:03.000Z</time>
      </trkpt>
      <trkpt lat="49.40894" lon="1.48009">
        <ele>142</ele>
        <time>2018-04-15T08:40:06.000Z</time>
      </trkpt>
      <trkpt lat="49.40897" lon="1.48001">
        <ele>142</ele>
        <time>2018-04-15T08:40:09.000Z</time>
      </trkpt>
      <trkpt lat="49.409" lon="1.47995">
        <ele>140</ele>
        <time>2018-04-15T08:40:12.000Z</time>
      </trkpt>
      <trkpt lat="49.40904" lon="1.47988">
        <ele>140</ele>
        <time>2018-04-15T08:40:15.000Z</time>
      </trkpt>
      <trkpt lat="49.40907" lon="1.47983">
        <ele>140</ele>
        <time>2018-04-15T08:40:18.000Z</time>
      </trkpt>
      <trkpt lat="49.40909" lon="1.47979">
        <ele>139</ele>
        <time>2018-04-15T08:40:21.000Z</time>
      </trkpt>
      <trkpt lat="49.40912" lon="1.47975">
        <ele>139</ele>
        <time>2018-04-15T08:40:24.000Z</time>
      </trkpt>
      <trkpt lat="49.40915" lon="1.4797">
        <ele>138</ele>
        <time>2018-04-15T08:40:27.000Z</time>
      </trkpt>
      <trkpt lat="49.40919" lon="1.47966">
        <ele>146</ele>
        <time>2018-04-15T08:40:30.000Z</time>
      </trkpt>
      <trkpt lat="49.40922" lon="1.47963">
        <ele>146</ele>
        <time>2018-04-15T08:40:33.000Z</time>
      </trkpt>
      <trkpt lat="49.40925" lon="1.47958">
        <ele>146</ele>
        <time>2018-04-15T08:40:36.000Z</time>
      </trkpt>
      <trkpt lat="49.40928" lon="1.47956">
        <ele>146</ele>
        <time>2018-04-15T08:40:39.000Z</time>
      </trkpt>
      <trkpt lat="49.40931" lon="1.47954">
        <ele>146</ele>
        <time>2018-04-15T08:40:42.000Z</time>
      </trkpt>
      <trkpt lat="49.40935" lon="1.47951">
        <ele>145</ele>
        <time>2018-04-15T08:40:45.000Z</time>
      </trkpt>
      <trkpt lat="49.40938" lon="1.47947">
        <ele>145</ele>
        <time>2018-04-15T08:40:48.000Z</time>
      </trkpt>
      <trkpt lat="49.40942" lon="1.47944">
        <ele>145</ele>
        <time>2018-04-15T08:40:51.000Z</time>
      </trkpt>
      <trkpt lat="49.40946" lon="1.4794">
        <ele>145</ele>
        <time>2018-04-15T08:40:54.000Z</time>
      </trkpt>
      <trkpt lat="49.40951" lon="1.47937">
        <ele>146</ele>
        <time>2018-04-15T08:40:57.000Z</time>
      </trkpt>
      <trkpt lat="49.40955" lon="1.47935">
        <ele>146</ele>
        <time>2018-04-15T08:41:00.000Z</time>
      </trkpt>
      <trkpt lat="49.40962" lon="1.47933">
        <ele>146</ele>
        <time>2018-04-15T08:41:03.000Z</time>
      </trkpt>
      <trkpt lat="49.40968" lon="1.47931">
        <ele>147</ele>
        <time>2018-04-15T08:41:06.000Z</time>
      </trkpt>
      <trkpt lat="49.40974" lon="1.4793">
        <ele>147</ele>
        <time>2018-04-15T08:41:09.000Z</time>
      </trkpt>
      <trkpt lat="49.40979" lon="1.47929">
        <ele>147</ele>
        <time>2018-04-15T08:41:12.000Z</time>
      </trkpt>
      <trkpt lat="49.40983" lon="1.47927">
        <ele>147</ele>
        <time>2018-04-15T08:41:15.000Z</time>
      </trkpt>
      <trkpt lat="49.40989" lon="1.47926">
        <ele>148</ele>
        <time>2018-04-15T08:41:18.000Z</time>
      </trkpt>
      <trkpt lat="49.40991" lon="1.47928">
        <ele>148</ele>
        <time>2018-04-15T08:41:21.000Z</time>
      </trkpt>
      <trkpt lat="49.40994" lon="1.47929">
        <ele>148</ele>
        <time>2018-04-15T08:41:24.000Z</time>
      </trkpt>
      <trkpt lat="49.40997" lon="1.4793">
        <ele>148</ele>
        <time>2018-04-15T08:41:27.000Z</time>
      </trkpt>
      <trkpt lat="49.41001" lon="1.47929">
        <ele>150</ele>
        <time>2018-04-15T08:41:30.000Z</time>
      </trkpt>
      <trkpt lat="49.41007" lon="1.47928">
        <ele>150</ele>
        <time>2018-04-15T08:41:33.000Z</time>
      </trkpt>
      <trkpt lat="49.41013" lon="1.47925">
        <ele>150</ele>
        <time>2018-04-15T08:41:36.000Z</time>
      </trkpt>
      <trkpt lat="49.41018" lon="1.47922">
        <ele>150</ele>
        <time>2018-04-15T08:41:39.000Z</time>
      </trkpt>
      <trkpt lat="49.41022" lon="1.47917">
        <ele>151</ele>
        <time>2018-04-15T08:41:42.000Z</time>
      </trkpt>
      <trkpt lat="49.41027" lon="1.47913">
        <ele>146</ele>
        <time>2018-04-15T08:41:45.000Z</time>
      </trkpt>
      <trkpt lat="49.41034" lon="1.47907">
        <ele>146</ele>
        <time>2018-04-15T08:41:48.000Z</time>
      </trkpt>
      <trkpt lat="49.41041" lon="1.47902">
        <ele>146</ele>
        <time>2018-04-15T08:41:51.000Z</time>
      </trkpt>
      <trkpt lat="49.41051" lon="1.47896">
        <ele>146</ele>
        <time>2018-04-15T08:41:54.000Z</time>
      </trkpt>
      <trkpt lat="49.41059" lon="1.47887">
        <ele>146</ele>
        <time>2018-04-15T08:41:57.000Z</time>
      </trkpt>
      <trkpt lat="49.41074" lon="1.4787">
        <ele>145</ele>
        <time>2018-04-15T08:42:00.000Z</time>
      </trkpt>
      <trkpt lat="49.41095" lon="1.47861">
        <ele>147</ele>
        <time>2018-04-15T08:42:03.000Z</time>
      </trkpt>
      <trkpt lat="49.41109" lon="1.4786">
        <ele>147</ele>
        <time>2018-04-15T08:42:06.000Z</time>
      </trkpt>
      <trkpt lat="49.4112" lon="1.47859">
        <ele>148</ele>
        <time>2018-04-15T08:42:09.000Z</time>
      </trkpt>
      <trkpt lat="49.41131" lon="1.47858">
        <ele>148</ele>
        <time>2018-04-15T08:42:12.000Z</time>
      </trkpt>
      <trkpt lat="49.41142" lon="1.47859">
        <ele>148</ele>
        <time>2018-04-15T08:42:15.000Z</time>
      </trkpt>
      <trkpt lat="49.41151" lon="1.4786">
        <ele>148</ele>
        <time>2018-04-15T08:42:18.000Z</time>
      </trkpt>
      <trkpt lat="49.41162" lon="1.47859">
        <ele>148</ele>
        <time>2018-04-15T08:42:21.000Z</time>
      </trkpt>
      <trkpt lat="49.41171" lon="1.47858">
        <ele>148</ele>
        <time>2018-04-15T08:42:24.000Z</time>
      </trkpt>
      <trkpt lat="49.41181" lon="1.47856">
        <ele>148</ele>
        <time>2018-04-15T08:42:27.000Z</time>
      </trkpt>
      <trkpt lat="49.41192" lon="1.47855">
        <ele>149</ele>
        <time>2018-04-15T08:42:30.000Z</time>
      </trkpt>
      <trkpt lat="49.41201" lon="1.47855">
        <ele>149</ele>
        <time>2018-04-15T08:42:33.000Z</time>
      </trkpt>
      <trkpt lat="49.41211" lon="1.47852">
        <ele>149</ele>
        <time>2018-04-15T08:42:36.000Z</time>
      </trkpt>
      <trkpt lat="49.41221" lon="1.47847">
        <ele>149</ele>
        <time>2018-04-15T08:42:39.000Z</time>
      </trkpt>
      <trkpt lat="49.41232" lon="1.47843">
        <ele>149</ele>
        <time>2018-04-15T08:42:42.000Z</time>
      </trkpt>
      <trkpt lat="49.41244" lon="1.47835">
        <ele>150</ele>
        <time>2018-04-15T08:42:45.000Z</time>
      </trkpt>
      <trkpt lat="49.41256" lon="1.47825">
        <ele>150</ele>
        <time>2018-04-15T08:42:48.000Z</time>
      </trkpt>
      <trkpt lat="49.41267" lon="1.47814">
        <ele>150</ele>
        <time>2018-04-15T08:42:51.000Z</time>
      </trkpt>
      <trkpt lat="49.41277" lon="1.47803">
        <ele>150</ele>
        <time>2018-04-15T08:42:54.000Z</time>
      </trkpt>
      <trkpt lat="49.41288" lon="1.47794">
        <ele>151</ele>
        <time>2018-04-15T08:42:57.000Z</time>
      </trkpt>
      <trkpt lat="49.41298" lon="1.47785">
        <ele>151</ele>
        <time>2018-04-15T08:43:00.000Z</time>
      </trkpt>
      <trkpt lat="49.41307" lon="1.47774">
        <ele>152</ele>
        <time>2018-04-15T08:43:03.000Z</time>
      </trkpt>
      <trkpt lat="49.41315" lon="1.47766">
        <ele>153</ele>
        <time>2018-04-15T08:43:06.000Z</time>
      </trkpt>
      <trkpt lat="49.41324" lon="1.4776">
        <ele>155</ele>
        <time>2018-04-15T08:43:09.000Z</time>
      </trkpt>
      <trkpt lat="49.41333" lon="1.47754">
        <ele>158</ele>
        <time>2018-04-15T08:43:12.000Z</time>
      </trkpt>
      <trkpt lat="49.41338" lon="1.47752">
        <ele>158</ele>
        <time>2018-04-15T08:43:15.000Z</time>
      </trkpt>
      <trkpt lat="49.41343" lon="1.47751">
        <ele>158</ele>
        <time>2018-04-15T08:43:18.000Z</time>
      </trkpt>
      <trkpt lat="49.41351" lon="1.47747">
        <ele>157</ele>
        <time>2018-04-15T08:43:21.000Z</time>
      </trkpt>
      <trkpt lat="49.41359" lon="1.47744">
        <ele>157</ele>
        <time>2018-04-15T08:43:24.000Z</time>
      </trkpt>
      <trkpt lat="49.41368" lon="1.4774">
        <ele>157</ele>
        <time>2018-04-15T08:43:27.000Z</time>
      </trkpt>
      <trkpt lat="49.41377" lon="1.47732">
        <ele>157</ele>
        <time>2018-04-15T08:43:30.000Z</time>
      </trkpt>
      <trkpt lat="49.41385" lon="1.47725">
        <ele>157</ele>
        <time>2018-04-15T08:43:33.000Z</time>
      </trkpt>
      <trkpt lat="49.41393" lon="1.47715">
        <ele>157</ele>
        <time>2018-04-15T08:43:36.000Z</time>
      </trkpt>
      <trkpt lat="49.41402" lon="1.47705">
        <ele>157</ele>
        <time>2018-04-15T08:43:39.000Z</time>
      </trkpt>
      <trkpt lat="49.4141" lon="1.47698">
        <ele>157</ele>
        <time>2018-04-15T08:43:42.000Z</time>
      </trkpt>
      <trkpt lat="49.41417" lon="1.47691">
        <ele>160</ele>
        <time>2018-04-15T08:43:45.000Z</time>
      </trkpt>
      <trkpt lat="49.41424" lon="1.47683">
        <ele>159</ele>
        <time>2018-04-15T08:43:48.000Z</time>
      </trkpt>
      <trkpt lat="49.41432" lon="1.47675">
        <ele>159</ele>
        <time>2018-04-15T08:43:51.000Z</time>
      </trkpt>
      <trkpt lat="49.41439" lon="1.47668">
        <ele>160</ele>
        <time>2018-04-15T08:43:54.000Z</time>
      </trkpt>
      <trkpt lat="49.41446" lon="1.47661">
        <ele>158</ele>
        <time>2018-04-15T08:43:57.000Z</time>
      </trkpt>
      <trkpt lat="49.41452" lon="1.47655">
        <ele>158</ele>
        <time>2018-04-15T08:44:00.000Z</time>
      </trkpt>
      <trkpt lat="49.41459" lon="1.4765">
        <ele>158</ele>
        <time>2018-04-15T08:44:03.000Z</time>
      </trkpt>
      <trkpt lat="49.41465" lon="1.47646">
        <ele>158</ele>
        <time>2018-04-15T08:44:06.000Z</time>
      </trkpt>
      <trkpt lat="49.41471" lon="1.47639">
        <ele>158</ele>
        <time>2018-04-15T08:44:09.000Z</time>
      </trkpt>
      <trkpt lat="49.41478" lon="1.47633">
        <ele>158</ele>
        <time>2018-04-15T08:44:12.000Z</time>
      </trkpt>
      <trkpt lat="49.41489" lon="1.47628">
        <ele>158</ele>
        <time>2018-04-15T08:44:15.000Z</time>
      </trkpt>
      <trkpt lat="49.41497" lon="1.47625">
        <ele>158</ele>
        <time>2018-04-15T08:44:18.000Z</time>
      </trkpt>
      <trkpt lat="49.41504" lon="1.47623">
        <ele>158</ele>
        <time>2018-04-15T08:44:21.000Z</time>
      </trkpt>
      <trkpt lat="49.41512" lon="1.4762">
        <ele>158</ele>
        <time>2018-04-15T08:44:24.000Z</time>
      </trkpt>
      <trkpt lat="49.41521" lon="1.47617">
        <ele>158</ele>
        <time>2018-04-15T08:44:27.000Z</time>
      </trkpt>
      <trkpt lat="49.41533" lon="1.47611">
        <ele>157</ele>
        <time>2018-04-15T08:44:30.000Z</time>
      </trkpt>
      <trkpt lat="49.41545" lon="1.47604">
        <ele>157</ele>
        <time>2018-04-15T08:44:33.000Z</time>
      </trkpt>
      <trkpt lat="49.41559" lon="1.47594">
        <ele>156</ele>
        <time>2018-04-15T08:44:36.000Z</time>
      </trkpt>
      <trkpt lat="49.4159" lon="1.47567">
        <ele>149</ele>
        <time>2018-04-15T08:44:40.000Z</time>
      </trkpt>
      <trkpt lat="49.41603" lon="1.47559">
        <ele>147</ele>
        <time>2018-04-15T08:44:43.000Z</time>
      </trkpt>
      <trkpt lat="49.41617" lon="1.47552">
        <ele>147</ele>
        <time>2018-04-15T08:44:46.000Z</time>
      </trkpt>
      <trkpt lat="49.41635" lon="1.47543">
        <ele>146</ele>
        <time>2018-04-15T08:44:49.000Z</time>
      </trkpt>
      <trkpt lat="49.41654" lon="1.47536">
        <ele>146</ele>
        <time>2018-04-15T08:44:52.000Z</time>
      </trkpt>
      <trkpt lat="49.41659" lon="1.47532">
        <ele>146</ele>
        <time>2018-04-15T08:44:54.000Z</time>
      </trkpt>
      <trkpt lat="49.41665" lon="1.47527">
        <ele>146</ele>
        <time>2018-04-15T08:44:56.000Z</time>
      </trkpt>
      <trkpt lat="49.41671" lon="1.47522">
        <ele>149</ele>
        <time>2018-04-15T08:44:58.000Z</time>
      </trkpt>
      <trkpt lat="49.41678" lon="1.47514">
        <ele>148</ele>
        <time>2018-04-15T08:45:00.000Z</time>
      </trkpt>
      <trkpt lat="49.41682" lon="1.47512">
        <ele>149</ele>
        <time>2018-04-15T08:45:02.000Z</time>
      </trkpt>
      <trkpt lat="49.41686" lon="1.4751">
        <ele>149</ele>
        <time>2018-04-15T08:45:04.000Z</time>
      </trkpt>
      <trkpt lat="49.41695" lon="1.47508">
        <ele>150</ele>
        <time>2018-04-15T08:45:06.000Z</time>
      </trkpt>
      <trkpt lat="49.41705" lon="1.47505">
        <ele>151</ele>
        <time>2018-04-15T08:45:08.000Z</time>
      </trkpt>
      <trkpt lat="49.41715" lon="1.475">
        <ele>150</ele>
        <time>2018-04-15T08:45:10.000Z</time>
      </trkpt>
      <trkpt lat="49.41723" lon="1.47496">
        <ele>151</ele>
        <time>2018-04-15T08:45:12.000Z</time>
      </trkpt>
      <trkpt lat="49.41726" lon="1.47494">
        <ele>152</ele>
        <time>2018-04-15T08:45:14.000Z</time>
      </trkpt>
      <trkpt lat="49.4173" lon="1.47492">
        <ele>152</ele>
        <time>2018-04-15T08:45:16.000Z</time>
      </trkpt>
      <trkpt lat="49.41734" lon="1.47491">
        <ele>153</ele>
        <time>2018-04-15T08:45:18.000Z</time>
      </trkpt>
      <trkpt lat="49.41737" lon="1.47489">
        <ele>153</ele>
        <time>2018-04-15T08:45:20.000Z</time>
      </trkpt>
      <trkpt lat="49.41741" lon="1.47486">
        <ele>153</ele>
        <time>2018-04-15T08:45:22.000Z</time>
      </trkpt>
      <trkpt lat="49.41746" lon="1.47483">
        <ele>153</ele>
        <time>2018-04-15T08:45:24.000Z</time>
      </trkpt>
      <trkpt lat="49.41749" lon="1.4748">
        <ele>153</ele>
        <time>2018-04-15T08:45:26.000Z</time>
      </trkpt>
      <trkpt lat="49.41753" lon="1.47478">
        <ele>158</ele>
        <time>2018-04-15T08:45:28.000Z</time>
      </trkpt>
      <trkpt lat="49.41755" lon="1.47478">
        <ele>158</ele>
        <time>2018-04-15T08:45:30.000Z</time>
      </trkpt>
      <trkpt lat="49.41759" lon="1.47478">
        <ele>158</ele>
        <time>2018-04-15T08:45:33.000Z</time>
      </trkpt>
      <trkpt lat="49.41762" lon="1.47477">
        <ele>158</ele>
        <time>2018-04-15T08:45:36.000Z</time>
      </trkpt>
      <trkpt lat="49.41766" lon="1.47477">
        <ele>158</ele>
        <time>2018-04-15T08:45:39.000Z</time>
      </trkpt>
      <trkpt lat="49.4177" lon="1.47476">
        <ele>159</ele>
        <time>2018-04-15T08:45:42.000Z</time>
      </trkpt>
      <trkpt lat="49.41775" lon="1.47476">
        <ele>159</ele>
        <time>2018-04-15T08:45:45.000Z</time>
      </trkpt>
      <trkpt lat="49.4178" lon="1.47477">
        <ele>159</ele>
        <time>2018-04-15T08:45:48.000Z</time>
      </trkpt>
      <trkpt lat="49.41784" lon="1.47478">
        <ele>159</ele>
        <time>2018-04-15T08:45:51.000Z</time>
      </trkpt>
      <trkpt lat="49.41788" lon="1.47478">
        <ele>159</ele>
        <time>2018-04-15T08:45:54.000Z</time>
      </trkpt>
      <trkpt lat="49.4179" lon="1.47478">
        <ele>159</ele>
        <time>2018-04-15T08:45:57.000Z</time>
      </trkpt>
      <trkpt lat="49.41793" lon="1.47477">
        <ele>159</ele>
        <time>2018-04-15T08:46:00.000Z</time>
      </trkpt>
      <trkpt lat="49.41795" lon="1.47477">
        <ele>159</ele>
        <time>2018-04-15T08:46:03.000Z</time>
      </trkpt>
      <trkpt lat="49.41801" lon="1.47477">
        <ele>160</ele>
        <time>2018-04-15T08:46:06.000Z</time>
      </trkpt>
      <trkpt lat="49.41806" lon="1.47477">
        <ele>160</ele>
        <time>2018-04-15T08:46:09.000Z</time>
      </trkpt>
      <trkpt lat="49.41811" lon="1.47476">
        <ele>160</ele>
        <time>2018-04-15T08:46:12.000Z</time>
      </trkpt>
      <trkpt lat="49.41817" lon="1.47474">
        <ele>160</ele>
        <time>2018-04-15T08:46:15.000Z</time>
      </trkpt>
      <trkpt lat="49.41823" lon="1.47473">
        <ele>160</ele>
        <time>2018-04-15T08:46:18.000Z</time>
      </trkpt>
      <trkpt lat="49.41829" lon="1.47472">
        <ele>161</ele>
        <time>2018-04-15T08:46:21.000Z</time>
      </trkpt>
      <trkpt lat="49.41833" lon="1.47471">
        <ele>161</ele>
        <time>2018-04-15T08:46:24.000Z</time>
      </trkpt>
      <trkpt lat="49.41838" lon="1.47471">
        <ele>162</ele>
        <time>2018-04-15T08:46:27.000Z</time>
      </trkpt>
      <trkpt lat="49.41843" lon="1.4747">
        <ele>162</ele>
        <time>2018-04-15T08:46:30.000Z</time>
      </trkpt>
      <trkpt lat="49.41847" lon="1.47469">
        <ele>162</ele>
        <time>2018-04-15T08:46:33.000Z</time>
      </trkpt>
      <trkpt lat="49.41852" lon="1.4747">
        <ele>162</ele>
        <time>2018-04-15T08:46:36.000Z</time>
      </trkpt>
      <trkpt lat="49.41859" lon="1.4747">
        <ele>162</ele>
        <time>2018-04-15T08:46:39.000Z</time>
      </trkpt>
      <trkpt lat="49.41864" lon="1.47469">
        <ele>162</ele>
        <time>2018-04-15T08:46:42.000Z</time>
      </trkpt>
      <trkpt lat="49.41871" lon="1.47468">
        <ele>162</ele>
        <time>2018-04-15T08:46:45.000Z</time>
      </trkpt>
      <trkpt lat="49.41877" lon="1.47466">
        <ele>162</ele>
        <time>2018-04-15T08:46:48.000Z</time>
      </trkpt>
      <trkpt lat="49.41886" lon="1.47461">
        <ele>162</ele>
        <time>2018-04-15T08:46:51.000Z</time>
      </trkpt>
      <trkpt lat="49.41897" lon="1.47454">
        <ele>162</ele>
        <time>2018-04-15T08:46:54.000Z</time>
      </trkpt>
      <trkpt lat="49.41906" lon="1.47447">
        <ele>162</ele>
        <time>2018-04-15T08:46:57.000Z</time>
      </trkpt>
      <trkpt lat="49.41912" lon="1.47441">
        <ele>162</ele>
        <time>2018-04-15T08:47:00.000Z</time>
      </trkpt>
      <trkpt lat="49.41919" lon="1.47437">
        <ele>161</ele>
        <time>2018-04-15T08:47:03.000Z</time>
      </trkpt>
      <trkpt lat="49.4193" lon="1.47432">
        <ele>161</ele>
        <time>2018-04-15T08:47:06.000Z</time>
      </trkpt>
      <trkpt lat="49.41943" lon="1.47426">
        <ele>160</ele>
        <time>2018-04-15T08:47:09.000Z</time>
      </trkpt>
      <trkpt lat="49.41959" lon="1.47422">
        <ele>159</ele>
        <time>2018-04-15T08:47:12.000Z</time>
      </trkpt>
      <trkpt lat="49.41971" lon="1.47415">
        <ele>161</ele>
        <time>2018-04-15T08:47:15.000Z</time>
      </trkpt>
      <trkpt lat="49.42013" lon="1.47392">
        <ele>158</ele>
        <time>2018-04-15T08:47:20.000Z</time>
      </trkpt>
      <trkpt lat="49.42021" lon="1.47385">
        <ele>159</ele>
        <time>2018-04-15T08:47:23.000Z</time>
      </trkpt>
      <trkpt lat="49.42025" lon="1.47381">
        <ele>159</ele>
        <time>2018-04-15T08:47:26.000Z</time>
      </trkpt>
      <trkpt lat="49.42032" lon="1.47374">
        <ele>159</ele>
        <time>2018-04-15T08:47:29.000Z</time>
      </trkpt>
      <trkpt lat="49.42037" lon="1.47369">
        <ele>159</ele>
        <time>2018-04-15T08:47:32.000Z</time>
      </trkpt>
      <trkpt lat="49.4204" lon="1.47364">
        <ele>159</ele>
        <time>2018-04-15T08:47:35.000Z</time>
      </trkpt>
      <trkpt lat="49.42044" lon="1.47359">
        <ele>159</ele>
        <time>2018-04-15T08:47:38.000Z</time>
      </trkpt>
      <trkpt lat="49.4205" lon="1.47352">
        <ele>159</ele>
        <time>2018-04-15T08:47:41.000Z</time>
      </trkpt>
      <trkpt lat="49.42056" lon="1.47345">
        <ele>159</ele>
        <time>2018-04-15T08:47:44.000Z</time>
      </trkpt>
      <trkpt lat="49.42062" lon="1.4734">
        <ele>158</ele>
        <time>2018-04-15T08:47:47.000Z</time>
      </trkpt>
      <trkpt lat="49.42066" lon="1.47336">
        <ele>158</ele>
        <time>2018-04-15T08:47:50.000Z</time>
      </trkpt>
      <trkpt lat="49.42073" lon="1.47329">
        <ele>159</ele>
        <time>2018-04-15T08:47:53.000Z</time>
      </trkpt>
      <trkpt lat="49.42082" lon="1.4732">
        <ele>159</ele>
        <time>2018-04-15T08:47:56.000Z</time>
      </trkpt>
      <trkpt lat="49.42091" lon="1.47311">
        <ele>159</ele>
        <time>2018-04-15T08:47:59.000Z</time>
      </trkpt>
      <trkpt lat="49.42101" lon="1.47305">
        <ele>159</ele>
        <time>2018-04-15T08:48:02.000Z</time>
      </trkpt>
      <trkpt lat="49.42106" lon="1.47298">
        <ele>159</ele>
        <time>2018-04-15T08:48:05.000Z</time>
      </trkpt>
      <trkpt lat="49.42113" lon="1.4729">
        <ele>160</ele>
        <time>2018-04-15T08:48:08.000Z</time>
      </trkpt>
      <trkpt lat="49.4212" lon="1.47283">
        <ele>160</ele>
        <time>2018-04-15T08:48:11.000Z</time>
      </trkpt>
      <trkpt lat="49.42128" lon="1.47278">
        <ele>160</ele>
        <time>2018-04-15T08:48:14.000Z</time>
      </trkpt>
      <trkpt lat="49.42141" lon="1.47272">
        <ele>160</ele>
        <time>2018-04-15T08:48:17.000Z</time>
      </trkpt>
      <trkpt lat="49.4215" lon="1.47266">
        <ele>160</ele>
        <time>2018-04-15T08:48:20.000Z</time>
      </trkpt>
      <trkpt lat="49.4216" lon="1.4726">
        <ele>161</ele>
        <time>2018-04-15T08:48:23.000Z</time>
      </trkpt>
      <trkpt lat="49.42167" lon="1.47253">
        <ele>162</ele>
        <time>2018-04-15T08:48:26.000Z</time>
      </trkpt>
      <trkpt lat="49.42172" lon="1.4725">
        <ele>162</ele>
        <time>2018-04-15T08:48:29.000Z</time>
      </trkpt>
      <trkpt lat="49.4218" lon="1.47246">
        <ele>162</ele>
        <time>2018-04-15T08:48:32.000Z</time>
      </trkpt>
      <trkpt lat="49.42192" lon="1.47243">
        <ele>162</ele>
        <time>2018-04-15T08:48:35.000Z</time>
      </trkpt>
      <trkpt lat="49.42205" lon="1.47241">
        <ele>162</ele>
        <time>2018-04-15T08:48:38.000Z</time>
      </trkpt>
      <trkpt lat="49.42215" lon="1.47238">
        <ele>162</ele>
        <time>2018-04-15T08:48:41.000Z</time>
      </trkpt>
      <trkpt lat="49.42225" lon="1.47232">
        <ele>162</ele>
        <time>2018-04-15T08:48:44.000Z</time>
      </trkpt>
      <trkpt lat="49.42236" lon="1.47225">
        <ele>162</ele>
        <time>2018-04-15T08:48:47.000Z</time>
      </trkpt>
      <trkpt lat="49.42249" lon="1.47218">
        <ele>162</ele>
        <time>2018-04-15T08:48:50.000Z</time>
      </trkpt>
      <trkpt lat="49.42262" lon="1.47213">
        <ele>162</ele>
        <time>2018-04-15T08:48:53.000Z</time>
      </trkpt>
      <trkpt lat="49.42284" lon="1.47205">
        <ele>162</ele>
        <time>2018-04-15T08:48:56.000Z</time>
      </trkpt>
      <trkpt lat="49.42294" lon="1.47196">
        <ele>162</ele>
        <time>2018-04-15T08:48:59.000Z</time>
      </trkpt>
      <trkpt lat="49.42313" lon="1.47186">
        <ele>163</ele>
        <time>2018-04-15T08:49:02.000Z</time>
      </trkpt>
      <trkpt lat="49.42324" lon="1.47177">
        <ele>164</ele>
        <time>2018-04-15T08:49:05.000Z</time>
      </trkpt>
      <trkpt lat="49.42335" lon="1.47167">
        <ele>166</ele>
        <time>2018-04-15T08:49:08.000Z</time>
      </trkpt>
      <trkpt lat="49.42348" lon="1.47158">
        <ele>166</ele>
        <time>2018-04-15T08:49:11.000Z</time>
      </trkpt>
      <trkpt lat="49.42364" lon="1.47145">
        <ele>165</ele>
        <time>2018-04-15T08:49:14.000Z</time>
      </trkpt>
      <trkpt lat="49.42376" lon="1.47135">
        <ele>165</ele>
        <time>2018-04-15T08:49:17.000Z</time>
      </trkpt>
      <trkpt lat="49.4239" lon="1.47126">
        <ele>165</ele>
        <time>2018-04-15T08:49:20.000Z</time>
      </trkpt>
      <trkpt lat="49.42403" lon="1.47117">
        <ele>166</ele>
        <time>2018-04-15T08:49:23.000Z</time>
      </trkpt>
      <trkpt lat="49.42413" lon="1.47108">
        <ele>166</ele>
        <time>2018-04-15T08:49:26.000Z</time>
      </trkpt>
      <trkpt lat="49.42421" lon="1.47103">
        <ele>164</ele>
        <time>2018-04-15T08:49:29.000Z</time>
      </trkpt>
      <trkpt lat="49.42432" lon="1.47099">
        <ele>164</ele>
        <time>2018-04-15T08:49:32.000Z</time>
      </trkpt>
      <trkpt lat="49.42442" lon="1.47095">
        <ele>163</ele>
        <time>2018-04-15T08:49:35.000Z</time>
      </trkpt>
      <trkpt lat="49.4245" lon="1.4709">
        <ele>163</ele>
        <time>2018-04-15T08:49:38.000Z</time>
      </trkpt>
      <trkpt lat="49.42457" lon="1.47086">
        <ele>162</ele>
        <time>2018-04-15T08:49:41.000Z</time>
      </trkpt>
      <trkpt lat="49.42466" lon="1.4708">
        <ele>166</ele>
        <time>2018-04-15T08:49:44.000Z</time>
      </trkpt>
      <trkpt lat="49.42472" lon="1.47075">
        <ele>166</ele>
        <time>2018-04-15T08:49:47.000Z</time>
      </trkpt>
      <trkpt lat="49.42478" lon="1.47069">
        <ele>166</ele>
        <time>2018-04-15T08:49:50.000Z</time>
      </trkpt>
      <trkpt lat="49.42483" lon="1.47061">
        <ele>166</ele>
        <time>2018-04-15T08:49:53.000Z</time>
      </trkpt>
      <trkpt lat="49.42487" lon="1.47052">
        <ele>166</ele>
        <time>2018-04-15T08:49:56.000Z</time>
      </trkpt>
      <trkpt lat="49.42492" lon="1.47045">
        <ele>167</ele>
        <time>2018-04-15T08:49:59.000Z</time>
      </trkpt>
      <trkpt lat="49.42498" lon="1.47038">
        <ele>168</ele>
        <time>2018-04-15T08:50:02.000Z</time>
      </trkpt>
      <trkpt lat="49.42504" lon="1.4703">
        <ele>165</ele>
        <time>2018-04-15T08:50:05.000Z</time>
      </trkpt>
      <trkpt lat="49.4251" lon="1.47023">
        <ele>165</ele>
        <time>2018-04-15T08:50:08.000Z</time>
      </trkpt>
      <trkpt lat="49.42516" lon="1.47015">
        <ele>166</ele>
        <time>2018-04-15T08:50:11.000Z</time>
      </trkpt>
      <trkpt lat="49.42521" lon="1.47008">
        <ele>166</ele>
        <time>2018-04-15T08:50:14.000Z</time>
      </trkpt>
      <trkpt lat="49.42525" lon="1.47001">
        <ele>165</ele>
        <time>2018-04-15T08:50:17.000Z</time>
      </trkpt>
      <trkpt lat="49.42529" lon="1.46994">
        <ele>169</ele>
        <time>2018-04-15T08:50:20.000Z</time>
      </trkpt>
      <trkpt lat="49.42533" lon="1.46986">
        <ele>169</ele>
        <time>2018-04-15T08:50:23.000Z</time>
      </trkpt>
      <trkpt lat="49.42537" lon="1.46978">
        <ele>169</ele>
        <time>2018-04-15T08:50:26.000Z</time>
      </trkpt>
      <trkpt lat="49.42541" lon="1.46971">
        <ele>169</ele>
        <time>2018-04-15T08:50:29.000Z</time>
      </trkpt>
      <trkpt lat="49.42547" lon="1.46965">
        <ele>169</ele>
        <time>2018-04-15T08:50:32.000Z</time>
      </trkpt>
      <trkpt lat="49.42551" lon="1.46958">
        <ele>169</ele>
        <time>2018-04-15T08:50:35.000Z</time>
      </trkpt>
      <trkpt lat="49.42553" lon="1.46951">
        <ele>169</ele>
        <time>2018-04-15T08:50:38.000Z</time>
      </trkpt>
      <trkpt lat="49.42558" lon="1.46941">
        <ele>170</ele>
        <time>2018-04-15T08:50:41.000Z</time>
      </trkpt>
      <trkpt lat="49.42563" lon="1.46934">
        <ele>170</ele>
        <time>2018-04-15T08:50:44.000Z</time>
      </trkpt>
      <trkpt lat="49.42566" lon="1.46927">
        <ele>170</ele>
        <time>2018-04-15T08:50:47.000Z</time>
      </trkpt>
      <trkpt lat="49.42569" lon="1.46918">
        <ele>170</ele>
        <time>2018-04-15T08:50:50.000Z</time>
      </trkpt>
      <trkpt lat="49.42572" lon="1.46908">
        <ele>172</ele>
        <time>2018-04-15T08:50:53.000Z</time>
      </trkpt>
      <trkpt lat="49.42576" lon="1.46899">
        <ele>172</ele>
        <time>2018-04-15T08:50:56.000Z</time>
      </trkpt>
      <trkpt lat="49.42579" lon="1.46891">
        <ele>173</ele>
        <time>2018-04-15T08:50:59.000Z</time>
      </trkpt>
      <trkpt lat="49.42584" lon="1.46882">
        <ele>168</ele>
        <time>2018-04-15T08:51:02.000Z</time>
      </trkpt>
      <trkpt lat="49.42588" lon="1.46873">
        <ele>168</ele>
        <time>2018-04-15T08:51:05.000Z</time>
      </trkpt>
      <trkpt lat="49.4259" lon="1.46866">
        <ele>169</ele>
        <time>2018-04-15T08:51:08.000Z</time>
      </trkpt>
      <trkpt lat="49.42594" lon="1.46856">
        <ele>169</ele>
        <time>2018-04-15T08:51:11.000Z</time>
      </trkpt>
      <trkpt lat="49.42601" lon="1.46847">
        <ele>169</ele>
        <time>2018-04-15T08:51:14.000Z</time>
      </trkpt>
      <trkpt lat="49.42606" lon="1.46837">
        <ele>169</ele>
        <time>2018-04-15T08:51:17.000Z</time>
      </trkpt>
      <trkpt lat="49.42611" lon="1.46827">
        <ele>169</ele>
        <time>2018-04-15T08:51:20.000Z</time>
      </trkpt>
      <trkpt lat="49.42614" lon="1.46818">
        <ele>169</ele>
        <time>2018-04-15T08:51:23.000Z</time>
      </trkpt>
      <trkpt lat="49.42615" lon="1.46809">
        <ele>169</ele>
        <time>2018-04-15T08:51:26.000Z</time>
      </trkpt>
      <trkpt lat="49.42617" lon="1.46801">
        <ele>168</ele>
        <time>2018-04-15T08:51:29.000Z</time>
      </trkpt>
      <trkpt lat="49.42618" lon="1.46793">
        <ele>168</ele>
        <time>2018-04-15T08:51:32.000Z</time>
      </trkpt>
      <trkpt lat="49.42619" lon="1.46783">
        <ele>168</ele>
        <time>2018-04-15T08:51:35.000Z</time>
      </trkpt>
      <trkpt lat="49.42618" lon="1.46776">
        <ele>169</ele>
        <time>2018-04-15T08:51:38.000Z</time>
      </trkpt>
      <trkpt lat="49.42613" lon="1.46771">
        <ele>169</ele>
        <time>2018-04-15T08:51:41.000Z</time>
      </trkpt>
      <trkpt lat="49.4261" lon="1.46766">
        <ele>170</ele>
        <time>2018-04-15T08:51:44.000Z</time>
      </trkpt>
      <trkpt lat="49.42608" lon="1.4676">
        <ele>170</ele>
        <time>2018-04-15T08:51:47.000Z</time>
      </trkpt>
      <trkpt lat="49.42606" lon="1.46754">
        <ele>170</ele>
        <time>2018-04-15T08:51:50.000Z</time>
      </trkpt>
      <trkpt lat="49.42604" lon="1.46747">
        <ele>171</ele>
        <time>2018-04-15T08:51:53.000Z</time>
      </trkpt>
      <trkpt lat="49.42602" lon="1.46738">
        <ele>170</ele>
        <time>2018-04-15T08:51:56.000Z</time>
      </trkpt>
      <trkpt lat="49.42599" lon="1.46729">
        <ele>170</ele>
        <time>2018-04-15T08:51:59.000Z</time>
      </trkpt>
      <trkpt lat="49.42598" lon="1.4672">
        <ele>170</ele>
        <time>2018-04-15T08:52:02.000Z</time>
      </trkpt>
      <trkpt lat="49.42597" lon="1.46714">
        <ele>170</ele>
        <time>2018-04-15T08:52:04.000Z</time>
      </trkpt>
      <trkpt lat="49.42596" lon="1.46707">
        <ele>169</ele>
        <time>2018-04-15T08:52:06.000Z</time>
      </trkpt>
      <trkpt lat="49.42595" lon="1.46698">
        <ele>170</ele>
        <time>2018-04-15T08:52:08.000Z</time>
      </trkpt>
      <trkpt lat="49.42594" lon="1.46689">
        <ele>170</ele>
        <time>2018-04-15T08:52:10.000Z</time>
      </trkpt>
      <trkpt lat="49.42593" lon="1.46681">
        <ele>170</ele>
        <time>2018-04-15T08:52:12.000Z</time>
      </trkpt>
      <trkpt lat="49.42593" lon="1.46672">
        <ele>171</ele>
        <time>2018-04-15T08:52:14.000Z</time>
      </trkpt>
      <trkpt lat="49.42592" lon="1.46662">
        <ele>171</ele>
        <time>2018-04-15T08:52:16.000Z</time>
      </trkpt>
      <trkpt lat="49.42591" lon="1.46655">
        <ele>170</ele>
        <time>2018-04-15T08:52:18.000Z</time>
      </trkpt>
      <trkpt lat="49.42589" lon="1.46651">
        <ele>169</ele>
        <time>2018-04-15T08:52:20.000Z</time>
      </trkpt>
      <trkpt lat="49.42586" lon="1.46646">
        <ele>169</ele>
        <time>2018-04-15T08:52:22.000Z</time>
      </trkpt>
      <trkpt lat="49.42584" lon="1.46642">
        <ele>168</ele>
        <time>2018-04-15T08:52:24.000Z</time>
      </trkpt>
      <trkpt lat="49.4258" lon="1.46635">
        <ele>173</ele>
        <time>2018-04-15T08:52:26.000Z</time>
      </trkpt>
      <trkpt lat="49.42575" lon="1.46629">
        <ele>173</ele>
        <time>2018-04-15T08:52:28.000Z</time>
      </trkpt>
      <trkpt lat="49.42572" lon="1.46623">
        <ele>173</ele>
        <time>2018-04-15T08:52:30.000Z</time>
      </trkpt>
      <trkpt lat="49.42572" lon="1.46613">
        <ele>173</ele>
        <time>2018-04-15T08:52:32.000Z</time>
      </trkpt>
      <trkpt lat="49.42571" lon="1.46601">
        <ele>172</ele>
        <time>2018-04-15T08:52:34.000Z</time>
      </trkpt>
      <trkpt lat="49.42572" lon="1.4659">
        <ele>172</ele>
        <time>2018-04-15T08:52:36.000Z</time>
      </trkpt>
      <trkpt lat="49.42572" lon="1.4658">
        <ele>170</ele>
        <time>2018-04-15T08:52:38.000Z</time>
      </trkpt>
      <trkpt lat="49.42571" lon="1.46565">
        <ele>171</ele>
        <time>2018-04-15T08:52:40.000Z</time>
      </trkpt>
      <trkpt lat="49.42568" lon="1.4655">
        <ele>170</ele>
        <time>2018-04-15T08:52:42.000Z</time>
      </trkpt>
      <trkpt lat="49.42564" lon="1.46529">
        <ele>170</ele>
        <time>2018-04-15T08:52:45.000Z</time>
      </trkpt>
      <trkpt lat="49.42561" lon="1.46511">
        <ele>169</ele>
        <time>2018-04-15T08:52:48.000Z</time>
      </trkpt>
      <trkpt lat="49.42556" lon="1.46497">
        <ele>167</ele>
        <time>2018-04-15T08:52:51.000Z</time>
      </trkpt>
      <trkpt lat="49.42548" lon="1.46486">
        <ele>167</ele>
        <time>2018-04-15T08:52:54.000Z</time>
      </trkpt>
      <trkpt lat="49.42539" lon="1.46471">
        <ele>168</ele>
        <time>2018-04-15T08:52:57.000Z</time>
      </trkpt>
      <trkpt lat="49.42531" lon="1.46452">
        <ele>168</ele>
        <time>2018-04-15T08:53:00.000Z</time>
      </trkpt>
      <trkpt lat="49.42525" lon="1.46434">
        <ele>168</ele>
        <time>2018-04-15T08:53:03.000Z</time>
      </trkpt>
      <trkpt lat="49.42518" lon="1.46426">
        <ele>169</ele>
        <time>2018-04-15T08:53:06.000Z</time>
      </trkpt>
      <trkpt lat="49.42506" lon="1.46418">
        <ele>170</ele>
        <time>2018-04-15T08:53:09.000Z</time>
      </trkpt>
      <trkpt lat="49.42496" lon="1.46399">
        <ele>169</ele>
        <time>2018-04-15T08:53:12.000Z</time>
      </trkpt>
      <trkpt lat="49.42484" lon="1.46372">
        <ele>168</ele>
        <time>2018-04-15T08:53:15.000Z</time>
      </trkpt>
      <trkpt lat="49.42476" lon="1.46358">
        <ele>167</ele>
        <time>2018-04-15T08:53:18.000Z</time>
      </trkpt>
      <trkpt lat="49.42467" lon="1.46343">
        <ele>167</ele>
        <time>2018-04-15T08:53:21.000Z</time>
      </trkpt>
      <trkpt lat="49.42458" lon="1.46328">
        <ele>163</ele>
        <time>2018-04-15T08:53:24.000Z</time>
      </trkpt>
      <trkpt lat="49.4245" lon="1.46319">
        <ele>163</ele>
        <time>2018-04-15T08:53:27.000Z</time>
      </trkpt>
      <trkpt lat="49.42442" lon="1.46308">
        <ele>162</ele>
        <time>2018-04-15T08:53:30.000Z</time>
      </trkpt>
      <trkpt lat="49.42433" lon="1.46286">
        <ele>161</ele>
        <time>2018-04-15T08:53:33.000Z</time>
      </trkpt>
      <trkpt lat="49.42431" lon="1.46266">
        <ele>160</ele>
        <time>2018-04-15T08:53:36.000Z</time>
      </trkpt>
      <trkpt lat="49.42428" lon="1.46249">
        <ele>158</ele>
        <time>2018-04-15T08:53:39.000Z</time>
      </trkpt>
      <trkpt lat="49.42427" lon="1.46233">
        <ele>157</ele>
        <time>2018-04-15T08:53:42.000Z</time>
      </trkpt>
      <trkpt lat="49.42425" lon="1.46218">
        <ele>156</ele>
        <time>2018-04-15T08:53:45.000Z</time>
      </trkpt>
      <trkpt lat="49.42419" lon="1.46208">
        <ele>155</ele>
        <time>2018-04-15T08:53:48.000Z</time>
      </trkpt>
      <trkpt lat="49.42413" lon="1.46198">
        <ele>154</ele>
        <time>2018-04-15T08:53:51.000Z</time>
      </trkpt>
      <trkpt lat="49.42406" lon="1.46189">
        <ele>153</ele>
        <time>2018-04-15T08:53:54.000Z</time>
      </trkpt>
      <trkpt lat="49.424" lon="1.46179">
        <ele>153</ele>
        <time>2018-04-15T08:53:57.000Z</time>
      </trkpt>
      <trkpt lat="49.42394" lon="1.4617">
        <ele>153</ele>
        <time>2018-04-15T08:54:00.000Z</time>
      </trkpt>
      <trkpt lat="49.42386" lon="1.46163">
        <ele>152</ele>
        <time>2018-04-15T08:54:03.000Z</time>
      </trkpt>
      <trkpt lat="49.42382" lon="1.46155">
        <ele>151</ele>
        <time>2018-04-15T08:54:06.000Z</time>
      </trkpt>
      <trkpt lat="49.42379" lon="1.46147">
        <ele>151</ele>
        <time>2018-04-15T08:54:09.000Z</time>
      </trkpt>
      <trkpt lat="49.42376" lon="1.46139">
        <ele>151</ele>
        <time>2018-04-15T08:54:12.000Z</time>
      </trkpt>
      <trkpt lat="49.42371" lon="1.46132">
        <ele>151</ele>
        <time>2018-04-15T08:54:15.000Z</time>
      </trkpt>
      <trkpt lat="49.42368" lon="1.46128">
        <ele>151</ele>
        <time>2018-04-15T08:54:17.000Z</time>
      </trkpt>
      <trkpt lat="49.42364" lon="1.46124">
        <ele>151</ele>
        <time>2018-04-15T08:54:19.000Z</time>
      </trkpt>
      <trkpt lat="49.42362" lon="1.4612">
        <ele>151</ele>
        <time>2018-04-15T08:54:21.000Z</time>
      </trkpt>
      <trkpt lat="49.42362" lon="1.46119">
        <ele>151</ele>
        <time>2018-04-15T08:54:23.000Z</time>
      </trkpt>
      <trkpt lat="49.4236" lon="1.46112">
        <ele>151</ele>
        <time>2018-04-15T08:54:25.000Z</time>
      </trkpt>
      <trkpt lat="49.42359" lon="1.46108">
        <ele>151</ele>
        <time>2018-04-15T08:54:30.000Z</time>
      </trkpt>
      <trkpt lat="49.42356" lon="1.46103">
        <ele>151</ele>
        <time>2018-04-15T08:54:30.000Z</time>
      </trkpt>
      <trkpt lat="49.42352" lon="1.46101">
        <ele>151</ele>
        <time>2018-04-15T08:54:31.000Z</time>
      </trkpt>
      <trkpt lat="49.42348" lon="1.46095">
        <ele>152</ele>
        <time>2018-04-15T08:54:34.000Z</time>
      </trkpt>
      <trkpt lat="49.42345" lon="1.46089">
        <ele>152</ele>
        <time>2018-04-15T08:54:37.000Z</time>
      </trkpt>
      <trkpt lat="49.42342" lon="1.46082">
        <ele>152</ele>
        <time>2018-04-15T08:54:40.000Z</time>
      </trkpt>
      <trkpt lat="49.42337" lon="1.46075">
        <ele>152</ele>
        <time>2018-04-15T08:54:43.000Z</time>
      </trkpt>
      <trkpt lat="49.42333" lon="1.4607">
        <ele>153</ele>
        <time>2018-04-15T08:54:46.000Z</time>
      </trkpt>
      <trkpt lat="49.42328" lon="1.46065">
        <ele>153</ele>
        <time>2018-04-15T08:54:49.000Z</time>
      </trkpt>
      <trkpt lat="49.42324" lon="1.4606">
        <ele>153</ele>
        <time>2018-04-15T08:54:52.000Z</time>
      </trkpt>
      <trkpt lat="49.42321" lon="1.46053">
        <ele>154</ele>
        <time>2018-04-15T08:54:55.000Z</time>
      </trkpt>
      <trkpt lat="49.42318" lon="1.46046">
        <ele>154</ele>
        <time>2018-04-15T08:54:58.000Z</time>
      </trkpt>
      <trkpt lat="49.42313" lon="1.46042">
        <ele>154</ele>
        <time>2018-04-15T08:55:01.000Z</time>
      </trkpt>
      <trkpt lat="49.42308" lon="1.46038">
        <ele>154</ele>
        <time>2018-04-15T08:55:04.000Z</time>
      </trkpt>
      <trkpt lat="49.42303" lon="1.46034">
        <ele>154</ele>
        <time>2018-04-15T08:55:07.000Z</time>
      </trkpt>
      <trkpt lat="49.42299" lon="1.4603">
        <ele>154</ele>
        <time>2018-04-15T08:55:10.000Z</time>
      </trkpt>
      <trkpt lat="49.42293" lon="1.46025">
        <ele>155</ele>
        <time>2018-04-15T08:55:13.000Z</time>
      </trkpt>
      <trkpt lat="49.42286" lon="1.46019">
        <ele>155</ele>
        <time>2018-04-15T08:55:16.000Z</time>
      </trkpt>
      <trkpt lat="49.4228" lon="1.46013">
        <ele>155</ele>
        <time>2018-04-15T08:55:19.000Z</time>
      </trkpt>
      <trkpt lat="49.42274" lon="1.46009">
        <ele>156</ele>
        <time>2018-04-15T08:55:23.000Z</time>
      </trkpt>
      <trkpt lat="49.42267" lon="1.46002">
        <ele>156</ele>
        <time>2018-04-15T08:55:25.000Z</time>
      </trkpt>
      <trkpt lat="49.4226" lon="1.45995">
        <ele>157</ele>
        <time>2018-04-15T08:55:28.000Z</time>
      </trkpt>
      <trkpt lat="49.42253" lon="1.45989">
        <ele>157</ele>
        <time>2018-04-15T08:55:31.000Z</time>
      </trkpt>
      <trkpt lat="49.42247" lon="1.45985">
        <ele>158</ele>
        <time>2018-04-15T08:55:34.000Z</time>
      </trkpt>
      <trkpt lat="49.42242" lon="1.45981">
        <ele>158</ele>
        <time>2018-04-15T08:55:37.000Z</time>
      </trkpt>
      <trkpt lat="49.42238" lon="1.45975">
        <ele>158</ele>
        <time>2018-04-15T08:55:40.000Z</time>
      </trkpt>
      <trkpt lat="49.42235" lon="1.45969">
        <ele>159</ele>
        <time>2018-04-15T08:55:43.000Z</time>
      </trkpt>
      <trkpt lat="49.4223" lon="1.45963">
        <ele>159</ele>
        <time>2018-04-15T08:55:46.000Z</time>
      </trkpt>
      <trkpt lat="49.42225" lon="1.45958">
        <ele>159</ele>
        <time>2018-04-15T08:55:49.000Z</time>
      </trkpt>
      <trkpt lat="49.4222" lon="1.45952">
        <ele>159</ele>
        <time>2018-04-15T08:55:52.000Z</time>
      </trkpt>
      <trkpt lat="49.42216" lon="1.45946">
        <ele>159</ele>
        <time>2018-04-15T08:55:55.000Z</time>
      </trkpt>
      <trkpt lat="49.42212" lon="1.4594">
        <ele>159</ele>
        <time>2018-04-15T08:55:58.000Z</time>
      </trkpt>
      <trkpt lat="49.42207" lon="1.45934">
        <ele>159</ele>
        <time>2018-04-15T08:56:01.000Z</time>
      </trkpt>
      <trkpt lat="49.42202" lon="1.45929">
        <ele>159</ele>
        <time>2018-04-15T08:56:04.000Z</time>
      </trkpt>
      <trkpt lat="49.42199" lon="1.45923">
        <ele>159</ele>
        <time>2018-04-15T08:56:07.000Z</time>
      </trkpt>
      <trkpt lat="49.42194" lon="1.45918">
        <ele>159</ele>
        <time>2018-04-15T08:56:10.000Z</time>
      </trkpt>
      <trkpt lat="49.42189" lon="1.45915">
        <ele>159</ele>
        <time>2018-04-15T08:56:13.000Z</time>
      </trkpt>
      <trkpt lat="49.42184" lon="1.45908">
        <ele>159</ele>
        <time>2018-04-15T08:56:16.000Z</time>
      </trkpt>
      <trkpt lat="49.42178" lon="1.45899">
        <ele>159</ele>
        <time>2018-04-15T08:56:19.000Z</time>
      </trkpt>
      <trkpt lat="49.42172" lon="1.45894">
        <ele>159</ele>
        <time>2018-04-15T08:56:22.000Z</time>
      </trkpt>
      <trkpt lat="49.42165" lon="1.45886">
        <ele>160</ele>
        <time>2018-04-15T08:56:25.000Z</time>
      </trkpt>
      <trkpt lat="49.42157" lon="1.45875">
        <ele>160</ele>
        <time>2018-04-15T08:56:28.000Z</time>
      </trkpt>
      <trkpt lat="49.4215" lon="1.45865">
        <ele>160</ele>
        <time>2018-04-15T08:56:31.000Z</time>
      </trkpt>
      <trkpt lat="49.4214" lon="1.45857">
        <ele>160</ele>
        <time>2018-04-15T08:56:34.000Z</time>
      </trkpt>
      <trkpt lat="49.42131" lon="1.45852">
        <ele>161</ele>
        <time>2018-04-15T08:56:37.000Z</time>
      </trkpt>
      <trkpt lat="49.42124" lon="1.45839">
        <ele>161</ele>
        <time>2018-04-15T08:56:40.000Z</time>
      </trkpt>
      <trkpt lat="49.42117" lon="1.45827">
        <ele>161</ele>
        <time>2018-04-15T08:56:43.000Z</time>
      </trkpt>
      <trkpt lat="49.4211" lon="1.45818">
        <ele>162</ele>
        <time>2018-04-15T08:56:46.000Z</time>
      </trkpt>
      <trkpt lat="49.42104" lon="1.45809">
        <ele>162</ele>
        <time>2018-04-15T08:56:49.000Z</time>
      </trkpt>
      <trkpt lat="49.42097" lon="1.45801">
        <ele>162</ele>
        <time>2018-04-15T08:56:52.000Z</time>
      </trkpt>
      <trkpt lat="49.4209" lon="1.45786">
        <ele>162</ele>
        <time>2018-04-15T08:56:55.000Z</time>
      </trkpt>
      <trkpt lat="49.42083" lon="1.4577">
        <ele>163</ele>
        <time>2018-04-15T08:56:58.000Z</time>
      </trkpt>
      <trkpt lat="49.42076" lon="1.45756">
        <ele>163</ele>
        <time>2018-04-15T08:57:01.000Z</time>
      </trkpt>
      <trkpt lat="49.42072" lon="1.45742">
        <ele>164</ele>
        <time>2018-04-15T08:57:04.000Z</time>
      </trkpt>
      <trkpt lat="49.42069" lon="1.45724">
        <ele>164</ele>
        <time>2018-04-15T08:57:07.000Z</time>
      </trkpt>
      <trkpt lat="49.42064" lon="1.45705">
        <ele>164</ele>
        <time>2018-04-15T08:57:10.000Z</time>
      </trkpt>
      <trkpt lat="49.4206" lon="1.45688">
        <ele>164</ele>
        <time>2018-04-15T08:57:13.000Z</time>
      </trkpt>
      <trkpt lat="49.42056" lon="1.45668">
        <ele>164</ele>
        <time>2018-04-15T08:57:16.000Z</time>
      </trkpt>
      <trkpt lat="49.42052" lon="1.45647">
        <ele>164</ele>
        <time>2018-04-15T08:57:19.000Z</time>
      </trkpt>
      <trkpt lat="49.42047" lon="1.4563">
        <ele>164</ele>
        <time>2018-04-15T08:57:22.000Z</time>
      </trkpt>
      <trkpt lat="49.42044" lon="1.45614">
        <ele>164</ele>
        <time>2018-04-15T08:57:25.000Z</time>
      </trkpt>
      <trkpt lat="49.42041" lon="1.45604">
        <ele>164</ele>
        <time>2018-04-15T08:57:28.000Z</time>
      </trkpt>
      <trkpt lat="49.42037" lon="1.45595">
        <ele>164</ele>
        <time>2018-04-15T08:57:31.000Z</time>
      </trkpt>
      <trkpt lat="49.42032" lon="1.45585">
        <ele>164</ele>
        <time>2018-04-15T08:57:34.000Z</time>
      </trkpt>
      <trkpt lat="49.42025" lon="1.45574">
        <ele>164</ele>
        <time>2018-04-15T08:57:37.000Z</time>
      </trkpt>
      <trkpt lat="49.42019" lon="1.45565">
        <ele>165</ele>
        <time>2018-04-15T08:57:40.000Z</time>
      </trkpt>
      <trkpt lat="49.42012" lon="1.45554">
        <ele>164</ele>
        <time>2018-04-15T08:57:43.000Z</time>
      </trkpt>
      <trkpt lat="49.42004" lon="1.45541">
        <ele>164</ele>
        <time>2018-04-15T08:57:46.000Z</time>
      </trkpt>
      <trkpt lat="49.41998" lon="1.45529">
        <ele>166</ele>
        <time>2018-04-15T08:57:49.000Z</time>
      </trkpt>
      <trkpt lat="49.41994" lon="1.4552">
        <ele>166</ele>
        <time>2018-04-15T08:57:52.000Z</time>
      </trkpt>
      <trkpt lat="49.41987" lon="1.45509">
        <ele>166</ele>
        <time>2018-04-15T08:57:55.000Z</time>
      </trkpt>
      <trkpt lat="49.4198" lon="1.45498">
        <ele>166</ele>
        <time>2018-04-15T08:57:58.000Z</time>
      </trkpt>
      <trkpt lat="49.41975" lon="1.45486">
        <ele>166</ele>
        <time>2018-04-15T08:58:01.000Z</time>
      </trkpt>
      <trkpt lat="49.4197" lon="1.45475">
        <ele>166</ele>
        <time>2018-04-15T08:58:04.000Z</time>
      </trkpt>
      <trkpt lat="49.41967" lon="1.45465">
        <ele>166</ele>
        <time>2018-04-15T08:58:07.000Z</time>
      </trkpt>
      <trkpt lat="49.41963" lon="1.45456">
        <ele>166</ele>
        <time>2018-04-15T08:58:10.000Z</time>
      </trkpt>
      <trkpt lat="49.41957" lon="1.45446">
        <ele>167</ele>
        <time>2018-04-15T08:58:13.000Z</time>
      </trkpt>
      <trkpt lat="49.41953" lon="1.45438">
        <ele>167</ele>
        <time>2018-04-15T08:58:16.000Z</time>
      </trkpt>
      <trkpt lat="49.41949" lon="1.45429">
        <ele>167</ele>
        <time>2018-04-15T08:58:19.000Z</time>
      </trkpt>
      <trkpt lat="49.41943" lon="1.4542">
        <ele>167</ele>
        <time>2018-04-15T08:58:22.000Z</time>
      </trkpt>
      <trkpt lat="49.41939" lon="1.45413">
        <ele>167</ele>
        <time>2018-04-15T08:58:25.000Z</time>
      </trkpt>
      <trkpt lat="49.41932" lon="1.45406">
        <ele>168</ele>
        <time>2018-04-15T08:58:28.000Z</time>
      </trkpt>
      <trkpt lat="49.41926" lon="1.45402">
        <ele>168</ele>
        <time>2018-04-15T08:58:31.000Z</time>
      </trkpt>
      <trkpt lat="49.41918" lon="1.45396">
        <ele>168</ele>
        <time>2018-04-15T08:58:34.000Z</time>
      </trkpt>
      <trkpt lat="49.41908" lon="1.4539">
        <ele>170</ele>
        <time>2018-04-15T08:58:37.000Z</time>
      </trkpt>
      <trkpt lat="49.41896" lon="1.45388">
        <ele>170</ele>
        <time>2018-04-15T08:58:40.000Z</time>
      </trkpt>
      <trkpt lat="49.41885" lon="1.4539">
        <ele>170</ele>
        <time>2018-04-15T08:58:43.000Z</time>
      </trkpt>
      <trkpt lat="49.41872" lon="1.45389">
        <ele>170</ele>
        <time>2018-04-15T08:58:46.000Z</time>
      </trkpt>
      <trkpt lat="49.41862" lon="1.45387">
        <ele>170</ele>
        <time>2018-04-15T08:58:49.000Z</time>
      </trkpt>
      <trkpt lat="49.41843" lon="1.45385">
        <ele>171</ele>
        <time>2018-04-15T08:58:52.000Z</time>
      </trkpt>
      <trkpt lat="49.4183" lon="1.45383">
        <ele>172</ele>
        <time>2018-04-15T08:58:55.000Z</time>
      </trkpt>
      <trkpt lat="49.4182" lon="1.45382">
        <ele>172</ele>
        <time>2018-04-15T08:58:58.000Z</time>
      </trkpt>
      <trkpt lat="49.41803" lon="1.45381">
        <ele>172</ele>
        <time>2018-04-15T08:59:01.000Z</time>
      </trkpt>
      <trkpt lat="49.4179" lon="1.45381">
        <ele>172</ele>
        <time>2018-04-15T08:59:04.000Z</time>
      </trkpt>
      <trkpt lat="49.41779" lon="1.45386">
        <ele>172</ele>
        <time>2018-04-15T08:59:07.000Z</time>
      </trkpt>
      <trkpt lat="49.41761" lon="1.45392">
        <ele>171</ele>
        <time>2018-04-15T08:59:10.000Z</time>
      </trkpt>
      <trkpt lat="49.41743" lon="1.45403">
        <ele>171</ele>
        <time>2018-04-15T08:59:13.000Z</time>
      </trkpt>
      <trkpt lat="49.41729" lon="1.45413">
        <ele>171</ele>
        <time>2018-04-15T08:59:15.000Z</time>
      </trkpt>
      <trkpt lat="49.41718" lon="1.45421">
        <ele>167</ele>
        <time>2018-04-15T08:59:17.000Z</time>
      </trkpt>
      <trkpt lat="49.41707" lon="1.45428">
        <ele>167</ele>
        <time>2018-04-15T08:59:19.000Z</time>
      </trkpt>
      <trkpt lat="49.41679" lon="1.45429">
        <ele>168</ele>
        <time>2018-04-15T08:59:22.000Z</time>
      </trkpt>
      <trkpt lat="49.41672" lon="1.45426">
        <ele>168</ele>
        <time>2018-04-15T08:59:24.000Z</time>
      </trkpt>
      <trkpt lat="49.41663" lon="1.45421">
        <ele>168</ele>
        <time>2018-04-15T08:59:26.000Z</time>
      </trkpt>
      <trkpt lat="49.41657" lon="1.45417">
        <ele>168</ele>
        <time>2018-04-15T08:59:28.000Z</time>
      </trkpt>
      <trkpt lat="49.41652" lon="1.45413">
        <ele>170</ele>
        <time>2018-04-15T08:59:30.000Z</time>
      </trkpt>
      <trkpt lat="49.41648" lon="1.4541">
        <ele>170</ele>
        <time>2018-04-15T08:59:32.000Z</time>
      </trkpt>
      <trkpt lat="49.41643" lon="1.45406">
        <ele>170</ele>
        <time>2018-04-15T08:59:34.000Z</time>
      </trkpt>
      <trkpt lat="49.41639" lon="1.45402">
        <ele>171</ele>
        <time>2018-04-15T08:59:36.000Z</time>
      </trkpt>
      <trkpt lat="49.41636" lon="1.45398">
        <ele>171</ele>
        <time>2018-04-15T08:59:38.000Z</time>
      </trkpt>
      <trkpt lat="49.4163" lon="1.45392">
        <ele>171</ele>
        <time>2018-04-15T08:59:41.000Z</time>
      </trkpt>
      <trkpt lat="49.41625" lon="1.45389">
        <ele>171</ele>
        <time>2018-04-15T08:59:44.000Z</time>
      </trkpt>
      <trkpt lat="49.41617" lon="1.45381">
        <ele>171</ele>
        <time>2018-04-15T08:59:47.000Z</time>
      </trkpt>
      <trkpt lat="49.41609" lon="1.45374">
        <ele>171</ele>
        <time>2018-04-15T08:59:50.000Z</time>
      </trkpt>
      <trkpt lat="49.41604" lon="1.45372">
        <ele>171</ele>
        <time>2018-04-15T08:59:53.000Z</time>
      </trkpt>
      <trkpt lat="49.41595" lon="1.45375">
        <ele>171</ele>
        <time>2018-04-15T08:59:56.000Z</time>
      </trkpt>
      <trkpt lat="49.41586" lon="1.45377">
        <ele>171</ele>
        <time>2018-04-15T08:59:59.000Z</time>
      </trkpt>
      <trkpt lat="49.41577" lon="1.45381">
        <ele>170</ele>
        <time>2018-04-15T09:00:02.000Z</time>
      </trkpt>
      <trkpt lat="49.4157" lon="1.45381">
        <ele>170</ele>
        <time>2018-04-15T09:00:05.000Z</time>
      </trkpt>
      <trkpt lat="49.41563" lon="1.45383">
        <ele>170</ele>
        <time>2018-04-15T09:00:08.000Z</time>
      </trkpt>
      <trkpt lat="49.4156" lon="1.45385">
        <ele>170</ele>
        <time>2018-04-15T09:00:10.000Z</time>
      </trkpt>
      <trkpt lat="49.41557" lon="1.45386">
        <ele>170</ele>
        <time>2018-04-15T09:00:12.000Z</time>
      </trkpt>
      <trkpt lat="49.41555" lon="1.45387">
        <ele>170</ele>
        <time>2018-04-15T09:00:14.000Z</time>
      </trkpt>
      <trkpt lat="49.41552" lon="1.45389">
        <ele>170</ele>
        <time>2018-04-15T09:00:16.000Z</time>
      </trkpt>
      <trkpt lat="49.41549" lon="1.4539">
        <ele>170</ele>
        <time>2018-04-15T09:00:18.000Z</time>
      </trkpt>
      <trkpt lat="49.41546" lon="1.45393">
        <ele>170</ele>
        <time>2018-04-15T09:00:20.000Z</time>
      </trkpt>
      <trkpt lat="49.41542" lon="1.45395">
        <ele>170</ele>
        <time>2018-04-15T09:00:22.000Z</time>
      </trkpt>
      <trkpt lat="49.41538" lon="1.45397">
        <ele>170</ele>
        <time>2018-04-15T09:00:24.000Z</time>
      </trkpt>
      <trkpt lat="49.41533" lon="1.45399">
        <ele>170</ele>
        <time>2018-04-15T09:00:27.000Z</time>
      </trkpt>
      <trkpt lat="49.41522" lon="1.45405">
        <ele>170</ele>
        <time>2018-04-15T09:00:30.000Z</time>
      </trkpt>
      <trkpt lat="49.4151" lon="1.45411">
        <ele>169</ele>
        <time>2018-04-15T09:00:33.000Z</time>
      </trkpt>
      <trkpt lat="49.41499" lon="1.45416">
        <ele>169</ele>
        <time>2018-04-15T09:00:36.000Z</time>
      </trkpt>
      <trkpt lat="49.4149" lon="1.4542">
        <ele>169</ele>
        <time>2018-04-15T09:00:39.000Z</time>
      </trkpt>
      <trkpt lat="49.41483" lon="1.45423">
        <ele>169</ele>
        <time>2018-04-15T09:00:42.000Z</time>
      </trkpt>
      <trkpt lat="49.41478" lon="1.45424">
        <ele>169</ele>
        <time>2018-04-15T09:00:45.000Z</time>
      </trkpt>
      <trkpt lat="49.41472" lon="1.45426">
        <ele>169</ele>
        <time>2018-04-15T09:00:48.000Z</time>
      </trkpt>
      <trkpt lat="49.41465" lon="1.45432">
        <ele>170</ele>
        <time>2018-04-15T09:00:51.000Z</time>
      </trkpt>
      <trkpt lat="49.4146" lon="1.45437">
        <ele>170</ele>
        <time>2018-04-15T09:00:54.000Z</time>
      </trkpt>
      <trkpt lat="49.41455" lon="1.45439">
        <ele>170</ele>
        <time>2018-04-15T09:00:57.000Z</time>
      </trkpt>
      <trkpt lat="49.41448" lon="1.45445">
        <ele>170</ele>
        <time>2018-04-15T09:01:00.000Z</time>
      </trkpt>
      <trkpt lat="49.41443" lon="1.4545">
        <ele>170</ele>
        <time>2018-04-15T09:01:03.000Z</time>
      </trkpt>
      <trkpt lat="49.41436" lon="1.45457">
        <ele>170</ele>
        <time>2018-04-15T09:01:06.000Z</time>
      </trkpt>
      <trkpt lat="49.41429" lon="1.45463">
        <ele>170</ele>
        <time>2018-04-15T09:01:12.000Z</time>
      </trkpt>
      <trkpt lat="49.41423" lon="1.4547">
        <ele>170</ele>
        <time>2018-04-15T09:01:13.000Z</time>
      </trkpt>
      <trkpt lat="49.41419" lon="1.45473">
        <ele>170</ele>
        <time>2018-04-15T09:01:15.000Z</time>
      </trkpt>
      <trkpt lat="49.41413" lon="1.45477">
        <ele>172</ele>
        <time>2018-04-15T09:01:18.000Z</time>
      </trkpt>
      <trkpt lat="49.41404" lon="1.45484">
        <ele>172</ele>
        <time>2018-04-15T09:01:21.000Z</time>
      </trkpt>
      <trkpt lat="49.41398" lon="1.45489">
        <ele>172</ele>
        <time>2018-04-15T09:01:24.000Z</time>
      </trkpt>
      <trkpt lat="49.4139" lon="1.45494">
        <ele>172</ele>
        <time>2018-04-15T09:01:27.000Z</time>
      </trkpt>
      <trkpt lat="49.41379" lon="1.45502">
        <ele>171</ele>
        <time>2018-04-15T09:01:30.000Z</time>
      </trkpt>
      <trkpt lat="49.4137" lon="1.45509">
        <ele>171</ele>
        <time>2018-04-15T09:01:33.000Z</time>
      </trkpt>
      <trkpt lat="49.41358" lon="1.45518">
        <ele>171</ele>
        <time>2018-04-15T09:01:36.000Z</time>
      </trkpt>
      <trkpt lat="49.41347" lon="1.45523">
        <ele>171</ele>
        <time>2018-04-15T09:01:39.000Z</time>
      </trkpt>
      <trkpt lat="49.41337" lon="1.45529">
        <ele>171</ele>
        <time>2018-04-15T09:01:42.000Z</time>
      </trkpt>
      <trkpt lat="49.41328" lon="1.45534">
        <ele>172</ele>
        <time>2018-04-15T09:01:45.000Z</time>
      </trkpt>
      <trkpt lat="49.4132" lon="1.45536">
        <ele>172</ele>
        <time>2018-04-15T09:01:48.000Z</time>
      </trkpt>
      <trkpt lat="49.41314" lon="1.45535">
        <ele>172</ele>
        <time>2018-04-15T09:01:51.000Z</time>
      </trkpt>
      <trkpt lat="49.41311" lon="1.45532">
        <ele>172</ele>
        <time>2018-04-15T09:01:54.000Z</time>
      </trkpt>
      <trkpt lat="49.41309" lon="1.45527">
        <ele>172</ele>
        <time>2018-04-15T09:01:57.000Z</time>
      </trkpt>
      <trkpt lat="49.41307" lon="1.45523">
        <ele>172</ele>
        <time>2018-04-15T09:02:00.000Z</time>
      </trkpt>
      <trkpt lat="49.41304" lon="1.45518">
        <ele>172</ele>
        <time>2018-04-15T09:02:03.000Z</time>
      </trkpt>
      <trkpt lat="49.41302" lon="1.45513">
        <ele>172</ele>
        <time>2018-04-15T09:02:06.000Z</time>
      </trkpt>
      <trkpt lat="49.41299" lon="1.4551">
        <ele>172</ele>
        <time>2018-04-15T09:02:09.000Z</time>
      </trkpt>
      <trkpt lat="49.41292" lon="1.45511">
        <ele>172</ele>
        <time>2018-04-15T09:02:12.000Z</time>
      </trkpt>
      <trkpt lat="49.41286" lon="1.45511">
        <ele>172</ele>
        <time>2018-04-15T09:02:15.000Z</time>
      </trkpt>
      <trkpt lat="49.4128" lon="1.45513">
        <ele>172</ele>
        <time>2018-04-15T09:02:18.000Z</time>
      </trkpt>
      <trkpt lat="49.4127" lon="1.45513">
        <ele>172</ele>
        <time>2018-04-15T09:02:21.000Z</time>
      </trkpt>
      <trkpt lat="49.4126" lon="1.45513">
        <ele>172</ele>
        <time>2018-04-15T09:02:24.000Z</time>
      </trkpt>
      <trkpt lat="49.4125" lon="1.45514">
        <ele>172</ele>
        <time>2018-04-15T09:02:27.000Z</time>
      </trkpt>
      <trkpt lat="49.41242" lon="1.45511">
        <ele>172</ele>
        <time>2018-04-15T09:02:30.000Z</time>
      </trkpt>
      <trkpt lat="49.41235" lon="1.45505">
        <ele>172</ele>
        <time>2018-04-15T09:02:33.000Z</time>
      </trkpt>
      <trkpt lat="49.41229" lon="1.45499">
        <ele>173</ele>
        <time>2018-04-15T09:02:36.000Z</time>
      </trkpt>
      <trkpt lat="49.41222" lon="1.45494">
        <ele>173</ele>
        <time>2018-04-15T09:02:39.000Z</time>
      </trkpt>
      <trkpt lat="49.41218" lon="1.45487">
        <ele>173</ele>
        <time>2018-04-15T09:02:42.000Z</time>
      </trkpt>
      <trkpt lat="49.41214" lon="1.45479">
        <ele>173</ele>
        <time>2018-04-15T09:02:45.000Z</time>
      </trkpt>
      <trkpt lat="49.4121" lon="1.45472">
        <ele>173</ele>
        <time>2018-04-15T09:02:48.000Z</time>
      </trkpt>
      <trkpt lat="49.41205" lon="1.45465">
        <ele>173</ele>
        <time>2018-04-15T09:02:51.000Z</time>
      </trkpt>
      <trkpt lat="49.412" lon="1.45458">
        <ele>173</ele>
        <time>2018-04-15T09:02:54.000Z</time>
      </trkpt>
      <trkpt lat="49.41195" lon="1.45448">
        <ele>174</ele>
        <time>2018-04-15T09:02:57.000Z</time>
      </trkpt>
      <trkpt lat="49.41191" lon="1.45439">
        <ele>174</ele>
        <time>2018-04-15T09:03:00.000Z</time>
      </trkpt>
      <trkpt lat="49.41188" lon="1.4543">
        <ele>174</ele>
        <time>2018-04-15T09:03:03.000Z</time>
      </trkpt>
      <trkpt lat="49.41185" lon="1.45422">
        <ele>174</ele>
        <time>2018-04-15T09:03:06.000Z</time>
      </trkpt>
      <trkpt lat="49.4118" lon="1.45413">
        <ele>175</ele>
        <time>2018-04-15T09:03:09.000Z</time>
      </trkpt>
      <trkpt lat="49.41177" lon="1.45404">
        <ele>175</ele>
        <time>2018-04-15T09:03:12.000Z</time>
      </trkpt>
      <trkpt lat="49.41173" lon="1.45395">
        <ele>175</ele>
        <time>2018-04-15T09:03:15.000Z</time>
      </trkpt>
      <trkpt lat="49.41169" lon="1.45386">
        <ele>175</ele>
        <time>2018-04-15T09:03:18.000Z</time>
      </trkpt>
      <trkpt lat="49.41165" lon="1.45377">
        <ele>174</ele>
        <time>2018-04-15T09:03:21.000Z</time>
      </trkpt>
      <trkpt lat="49.4116" lon="1.45369">
        <ele>174</ele>
        <time>2018-04-15T09:03:24.000Z</time>
      </trkpt>
      <trkpt lat="49.41154" lon="1.45362">
        <ele>174</ele>
        <time>2018-04-15T09:03:27.000Z</time>
      </trkpt>
      <trkpt lat="49.41149" lon="1.45353">
        <ele>174</ele>
        <time>2018-04-15T09:03:30.000Z</time>
      </trkpt>
      <trkpt lat="49.41145" lon="1.45344">
        <ele>174</ele>
        <time>2018-04-15T09:03:33.000Z</time>
      </trkpt>
      <trkpt lat="49.41141" lon="1.45336">
        <ele>174</ele>
        <time>2018-04-15T09:03:36.000Z</time>
      </trkpt>
      <trkpt lat="49.41138" lon="1.45327">
        <ele>175</ele>
        <time>2018-04-15T09:03:39.000Z</time>
      </trkpt>
      <trkpt lat="49.41134" lon="1.45319">
        <ele>175</ele>
        <time>2018-04-15T09:03:42.000Z</time>
      </trkpt>
      <trkpt lat="49.41129" lon="1.45312">
        <ele>175</ele>
        <time>2018-04-15T09:03:45.000Z</time>
      </trkpt>
      <trkpt lat="49.41123" lon="1.45306">
        <ele>175</ele>
        <time>2018-04-15T09:03:48.000Z</time>
      </trkpt>
      <trkpt lat="49.41115" lon="1.45309">
        <ele>175</ele>
        <time>2018-04-15T09:03:51.000Z</time>
      </trkpt>
      <trkpt lat="49.41109" lon="1.45308">
        <ele>174</ele>
        <time>2018-04-15T09:03:54.000Z</time>
      </trkpt>
      <trkpt lat="49.41104" lon="1.45299">
        <ele>174</ele>
        <time>2018-04-15T09:03:57.000Z</time>
      </trkpt>
      <trkpt lat="49.41101" lon="1.45288">
        <ele>175</ele>
        <time>2018-04-15T09:04:00.000Z</time>
      </trkpt>
      <trkpt lat="49.41094" lon="1.45284">
        <ele>174</ele>
        <time>2018-04-15T09:04:04.000Z</time>
      </trkpt>
      <trkpt lat="49.41089" lon="1.45275">
        <ele>174</ele>
        <time>2018-04-15T09:04:06.000Z</time>
      </trkpt>
      <trkpt lat="49.41085" lon="1.45261">
        <ele>174</ele>
        <time>2018-04-15T09:04:09.000Z</time>
      </trkpt>
      <trkpt lat="49.4108" lon="1.45247">
        <ele>174</ele>
        <time>2018-04-15T09:04:12.000Z</time>
      </trkpt>
      <trkpt lat="49.41076" lon="1.45235">
        <ele>173</ele>
        <time>2018-04-15T09:04:15.000Z</time>
      </trkpt>
      <trkpt lat="49.41071" lon="1.45226">
        <ele>173</ele>
        <time>2018-04-15T09:04:18.000Z</time>
      </trkpt>
      <trkpt lat="49.41067" lon="1.45218">
        <ele>173</ele>
        <time>2018-04-15T09:04:21.000Z</time>
      </trkpt>
      <trkpt lat="49.41063" lon="1.45209">
        <ele>173</ele>
        <time>2018-04-15T09:04:24.000Z</time>
      </trkpt>
      <trkpt lat="49.4106" lon="1.452">
        <ele>173</ele>
        <time>2018-04-15T09:04:27.000Z</time>
      </trkpt>
      <trkpt lat="49.41055" lon="1.4519">
        <ele>173</ele>
        <time>2018-04-15T09:04:30.000Z</time>
      </trkpt>
      <trkpt lat="49.4105" lon="1.45179">
        <ele>173</ele>
        <time>2018-04-15T09:04:33.000Z</time>
      </trkpt>
      <trkpt lat="49.41045" lon="1.45169">
        <ele>173</ele>
        <time>2018-04-15T09:04:36.000Z</time>
      </trkpt>
      <trkpt lat="49.4104" lon="1.45161">
        <ele>173</ele>
        <time>2018-04-15T09:04:39.000Z</time>
      </trkpt>
      <trkpt lat="49.41035" lon="1.45151">
        <ele>173</ele>
        <time>2018-04-15T09:04:42.000Z</time>
      </trkpt>
      <trkpt lat="49.41031" lon="1.45143">
        <ele>173</ele>
        <time>2018-04-15T09:04:45.000Z</time>
      </trkpt>
      <trkpt lat="49.41028" lon="1.45134">
        <ele>173</ele>
        <time>2018-04-15T09:04:48.000Z</time>
      </trkpt>
      <trkpt lat="49.41023" lon="1.45125">
        <ele>173</ele>
        <time>2018-04-15T09:04:51.000Z</time>
      </trkpt>
      <trkpt lat="49.41021" lon="1.45116">
        <ele>173</ele>
        <time>2018-04-15T09:04:54.000Z</time>
      </trkpt>
      <trkpt lat="49.41017" lon="1.45107">
        <ele>173</ele>
        <time>2018-04-15T09:04:57.000Z</time>
      </trkpt>
      <trkpt lat="49.41013" lon="1.45098">
        <ele>173</ele>
        <time>2018-04-15T09:05:00.000Z</time>
      </trkpt>
      <trkpt lat="49.41008" lon="1.45088">
        <ele>173</ele>
        <time>2018-04-15T09:05:03.000Z</time>
      </trkpt>
      <trkpt lat="49.41004" lon="1.45079">
        <ele>173</ele>
        <time>2018-04-15T09:05:06.000Z</time>
      </trkpt>
      <trkpt lat="49.40999" lon="1.45067">
        <ele>173</ele>
        <time>2018-04-15T09:05:09.000Z</time>
      </trkpt>
      <trkpt lat="49.40993" lon="1.45055">
        <ele>173</ele>
        <time>2018-04-15T09:05:12.000Z</time>
      </trkpt>
      <trkpt lat="49.40987" lon="1.45042">
        <ele>173</ele>
        <time>2018-04-15T09:05:15.000Z</time>
      </trkpt>
      <trkpt lat="49.40981" lon="1.45032">
        <ele>174</ele>
        <time>2018-04-15T09:05:18.000Z</time>
      </trkpt>
      <trkpt lat="49.40976" lon="1.45021">
        <ele>174</ele>
        <time>2018-04-15T09:05:21.000Z</time>
      </trkpt>
      <trkpt lat="49.40973" lon="1.45011">
        <ele>174</ele>
        <time>2018-04-15T09:05:24.000Z</time>
      </trkpt>
      <trkpt lat="49.40968" lon="1.44999">
        <ele>174</ele>
        <time>2018-04-15T09:05:27.000Z</time>
      </trkpt>
      <trkpt lat="49.40962" lon="1.44986">
        <ele>175</ele>
        <time>2018-04-15T09:05:30.000Z</time>
      </trkpt>
      <trkpt lat="49.40957" lon="1.44975">
        <ele>175</ele>
        <time>2018-04-15T09:05:33.000Z</time>
      </trkpt>
      <trkpt lat="49.40953" lon="1.44965">
        <ele>175</ele>
        <time>2018-04-15T09:05:36.000Z</time>
      </trkpt>
      <trkpt lat="49.40946" lon="1.44951">
        <ele>175</ele>
        <time>2018-04-15T09:05:39.000Z</time>
      </trkpt>
      <trkpt lat="49.4094" lon="1.4494">
        <ele>175</ele>
        <time>2018-04-15T09:05:42.000Z</time>
      </trkpt>
      <trkpt lat="49.40935" lon="1.44929">
        <ele>175</ele>
        <time>2018-04-15T09:05:45.000Z</time>
      </trkpt>
      <trkpt lat="49.40929" lon="1.4492">
        <ele>175</ele>
        <time>2018-04-15T09:05:48.000Z</time>
      </trkpt>
      <trkpt lat="49.40919" lon="1.44916">
        <ele>175</ele>
        <time>2018-04-15T09:05:51.000Z</time>
      </trkpt>
      <trkpt lat="49.40909" lon="1.44916">
        <ele>175</ele>
        <time>2018-04-15T09:05:54.000Z</time>
      </trkpt>
      <trkpt lat="49.40901" lon="1.44917">
        <ele>175</ele>
        <time>2018-04-15T09:05:57.000Z</time>
      </trkpt>
      <trkpt lat="49.40895" lon="1.44916">
        <ele>175</ele>
        <time>2018-04-15T09:06:00.000Z</time>
      </trkpt>
      <trkpt lat="49.4089" lon="1.44917">
        <ele>174</ele>
        <time>2018-04-15T09:06:03.000Z</time>
      </trkpt>
      <trkpt lat="49.40881" lon="1.4492">
        <ele>174</ele>
        <time>2018-04-15T09:06:06.000Z</time>
      </trkpt>
      <trkpt lat="49.40869" lon="1.44922">
        <ele>174</ele>
        <time>2018-04-15T09:06:09.000Z</time>
      </trkpt>
      <trkpt lat="49.40857" lon="1.44922">
        <ele>174</ele>
        <time>2018-04-15T09:06:12.000Z</time>
      </trkpt>
      <trkpt lat="49.40844" lon="1.44926">
        <ele>174</ele>
        <time>2018-04-15T09:06:15.000Z</time>
      </trkpt>
      <trkpt lat="49.40828" lon="1.44933">
        <ele>173</ele>
        <time>2018-04-15T09:06:18.000Z</time>
      </trkpt>
      <trkpt lat="49.40812" lon="1.44938">
        <ele>173</ele>
        <time>2018-04-15T09:06:21.000Z</time>
      </trkpt>
      <trkpt lat="49.40762" lon="1.44924">
        <ele>172</ele>
        <time>2018-04-15T09:06:26.000Z</time>
      </trkpt>
      <trkpt lat="49.40748" lon="1.44921">
        <ele>172</ele>
        <time>2018-04-15T09:06:28.000Z</time>
      </trkpt>
      <trkpt lat="49.40713" lon="1.44898">
        <ele>172</ele>
        <time>2018-04-15T09:06:32.000Z</time>
      </trkpt>
      <trkpt lat="49.40705" lon="1.449">
        <ele>172</ele>
        <time>2018-04-15T09:06:34.000Z</time>
      </trkpt>
      <trkpt lat="49.40698" lon="1.44902">
        <ele>172</ele>
        <time>2018-04-15T09:06:36.000Z</time>
      </trkpt>
      <trkpt lat="49.40689" lon="1.44906">
        <ele>172</ele>
        <time>2018-04-15T09:06:38.000Z</time>
      </trkpt>
      <trkpt lat="49.40681" lon="1.44908">
        <ele>172</ele>
        <time>2018-04-15T09:06:40.000Z</time>
      </trkpt>
      <trkpt lat="49.40674" lon="1.44911">
        <ele>172</ele>
        <time>2018-04-15T09:06:42.000Z</time>
      </trkpt>
      <trkpt lat="49.40666" lon="1.44914">
        <ele>172</ele>
        <time>2018-04-15T09:06:44.000Z</time>
      </trkpt>
      <trkpt lat="49.40659" lon="1.44918">
        <ele>172</ele>
        <time>2018-04-15T09:06:46.000Z</time>
      </trkpt>
      <trkpt lat="49.40653" lon="1.44922">
        <ele>172</ele>
        <time>2018-04-15T09:06:48.000Z</time>
      </trkpt>
      <trkpt lat="49.40646" lon="1.44927">
        <ele>171</ele>
        <time>2018-04-15T09:06:50.000Z</time>
      </trkpt>
      <trkpt lat="49.40638" lon="1.44932">
        <ele>171</ele>
        <time>2018-04-15T09:06:52.000Z</time>
      </trkpt>
      <trkpt lat="49.40632" lon="1.44937">
        <ele>171</ele>
        <time>2018-04-15T09:06:54.000Z</time>
      </trkpt>
      <trkpt lat="49.40625" lon="1.44941">
        <ele>171</ele>
        <time>2018-04-15T09:06:56.000Z</time>
      </trkpt>
      <trkpt lat="49.40618" lon="1.44946">
        <ele>171</ele>
        <time>2018-04-15T09:06:58.000Z</time>
      </trkpt>
      <trkpt lat="49.40611" lon="1.44951">
        <ele>171</ele>
        <time>2018-04-15T09:07:00.000Z</time>
      </trkpt>
      <trkpt lat="49.40604" lon="1.44956">
        <ele>171</ele>
        <time>2018-04-15T09:07:02.000Z</time>
      </trkpt>
      <trkpt lat="49.40594" lon="1.44963">
        <ele>171</ele>
        <time>2018-04-15T09:07:05.000Z</time>
      </trkpt>
      <trkpt lat="49.40584" lon="1.44969">
        <ele>171</ele>
        <time>2018-04-15T09:07:08.000Z</time>
      </trkpt>
      <trkpt lat="49.40575" lon="1.44975">
        <ele>170</ele>
        <time>2018-04-15T09:07:11.000Z</time>
      </trkpt>
      <trkpt lat="49.40565" lon="1.44981">
        <ele>170</ele>
        <time>2018-04-15T09:07:14.000Z</time>
      </trkpt>
      <trkpt lat="49.40555" lon="1.44987">
        <ele>169</ele>
        <time>2018-04-15T09:07:17.000Z</time>
      </trkpt>
      <trkpt lat="49.40544" lon="1.44992">
        <ele>169</ele>
        <time>2018-04-15T09:07:20.000Z</time>
      </trkpt>
      <trkpt lat="49.40532" lon="1.44999">
        <ele>169</ele>
        <time>2018-04-15T09:07:23.000Z</time>
      </trkpt>
      <trkpt lat="49.40518" lon="1.45004">
        <ele>169</ele>
        <time>2018-04-15T09:07:26.000Z</time>
      </trkpt>
      <trkpt lat="49.40505" lon="1.4501">
        <ele>169</ele>
        <time>2018-04-15T09:07:29.000Z</time>
      </trkpt>
      <trkpt lat="49.40493" lon="1.45016">
        <ele>169</ele>
        <time>2018-04-15T09:07:32.000Z</time>
      </trkpt>
      <trkpt lat="49.40481" lon="1.45022">
        <ele>170</ele>
        <time>2018-04-15T09:07:35.000Z</time>
      </trkpt>
      <trkpt lat="49.40468" lon="1.45028">
        <ele>170</ele>
        <time>2018-04-15T09:07:38.000Z</time>
      </trkpt>
      <trkpt lat="49.40458" lon="1.45034">
        <ele>170</ele>
        <time>2018-04-15T09:07:41.000Z</time>
      </trkpt>
      <trkpt lat="49.40447" lon="1.45039">
        <ele>170</ele>
        <time>2018-04-15T09:07:44.000Z</time>
      </trkpt>
      <trkpt lat="49.40439" lon="1.45044">
        <ele>170</ele>
        <time>2018-04-15T09:07:47.000Z</time>
      </trkpt>
      <trkpt lat="49.40431" lon="1.45047">
        <ele>170</ele>
        <time>2018-04-15T09:07:50.000Z</time>
      </trkpt>
      <trkpt lat="49.40423" lon="1.45045">
        <ele>170</ele>
        <time>2018-04-15T09:07:53.000Z</time>
      </trkpt>
      <trkpt lat="49.40415" lon="1.45042">
        <ele>171</ele>
        <time>2018-04-15T09:07:56.000Z</time>
      </trkpt>
      <trkpt lat="49.40405" lon="1.45041">
        <ele>171</ele>
        <time>2018-04-15T09:07:59.000Z</time>
      </trkpt>
      <trkpt lat="49.40394" lon="1.45041">
        <ele>171</ele>
        <time>2018-04-15T09:08:02.000Z</time>
      </trkpt>
      <trkpt lat="49.40386" lon="1.45048">
        <ele>172</ele>
        <time>2018-04-15T09:08:05.000Z</time>
      </trkpt>
      <trkpt lat="49.40379" lon="1.45054">
        <ele>172</ele>
        <time>2018-04-15T09:08:08.000Z</time>
      </trkpt>
      <trkpt lat="49.40374" lon="1.45058">
        <ele>172</ele>
        <time>2018-04-15T09:08:11.000Z</time>
      </trkpt>
      <trkpt lat="49.40366" lon="1.45064">
        <ele>172</ele>
        <time>2018-04-15T09:08:14.000Z</time>
      </trkpt>
      <trkpt lat="49.40357" lon="1.45072">
        <ele>173</ele>
        <time>2018-04-15T09:08:17.000Z</time>
      </trkpt>
      <trkpt lat="49.40346" lon="1.45078">
        <ele>174</ele>
        <time>2018-04-15T09:08:20.000Z</time>
      </trkpt>
      <trkpt lat="49.40333" lon="1.45082">
        <ele>175</ele>
        <time>2018-04-15T09:08:23.000Z</time>
      </trkpt>
      <trkpt lat="49.40323" lon="1.45083">
        <ele>174</ele>
        <time>2018-04-15T09:08:26.000Z</time>
      </trkpt>
      <trkpt lat="49.40316" lon="1.45085">
        <ele>175</ele>
        <time>2018-04-15T09:08:29.000Z</time>
      </trkpt>
      <trkpt lat="49.40305" lon="1.4509">
        <ele>174</ele>
        <time>2018-04-15T09:08:32.000Z</time>
      </trkpt>
      <trkpt lat="49.40295" lon="1.45095">
        <ele>174</ele>
        <time>2018-04-15T09:08:35.000Z</time>
      </trkpt>
      <trkpt lat="49.40286" lon="1.45097">
        <ele>174</ele>
        <time>2018-04-15T09:08:38.000Z</time>
      </trkpt>
      <trkpt lat="49.40276" lon="1.451">
        <ele>174</ele>
        <time>2018-04-15T09:08:41.000Z</time>
      </trkpt>
      <trkpt lat="49.40266" lon="1.45101">
        <ele>174</ele>
        <time>2018-04-15T09:08:44.000Z</time>
      </trkpt>
      <trkpt lat="49.40256" lon="1.45102">
        <ele>174</ele>
        <time>2018-04-15T09:08:47.000Z</time>
      </trkpt>
      <trkpt lat="49.40243" lon="1.45094">
        <ele>173</ele>
        <time>2018-04-15T09:08:50.000Z</time>
      </trkpt>
      <trkpt lat="49.40231" lon="1.45096">
        <ele>173</ele>
        <time>2018-04-15T09:08:53.000Z</time>
      </trkpt>
      <trkpt lat="49.4022" lon="1.45103">
        <ele>174</ele>
        <time>2018-04-15T09:08:56.000Z</time>
      </trkpt>
      <trkpt lat="49.40213" lon="1.45117">
        <ele>174</ele>
        <time>2018-04-15T09:08:59.000Z</time>
      </trkpt>
      <trkpt lat="49.40211" lon="1.45136">
        <ele>174</ele>
        <time>2018-04-15T09:09:02.000Z</time>
      </trkpt>
      <trkpt lat="49.4021" lon="1.45156">
        <ele>174</ele>
        <time>2018-04-15T09:09:05.000Z</time>
      </trkpt>
      <trkpt lat="49.40209" lon="1.45175">
        <ele>174</ele>
        <time>2018-04-15T09:09:08.000Z</time>
      </trkpt>
      <trkpt lat="49.40205" lon="1.45195">
        <ele>174</ele>
        <time>2018-04-15T09:09:11.000Z</time>
      </trkpt>
      <trkpt lat="49.402" lon="1.45219">
        <ele>174</ele>
        <time>2018-04-15T09:09:14.000Z</time>
      </trkpt>
      <trkpt lat="49.40196" lon="1.45243">
        <ele>174</ele>
        <time>2018-04-15T09:09:17.000Z</time>
      </trkpt>
      <trkpt lat="49.40192" lon="1.45268">
        <ele>172</ele>
        <time>2018-04-15T09:09:20.000Z</time>
      </trkpt>
      <trkpt lat="49.40188" lon="1.45292">
        <ele>172</ele>
        <time>2018-04-15T09:09:23.000Z</time>
      </trkpt>
      <trkpt lat="49.40183" lon="1.4532">
        <ele>172</ele>
        <time>2018-04-15T09:09:26.000Z</time>
      </trkpt>
      <trkpt lat="49.40178" lon="1.45349">
        <ele>171</ele>
        <time>2018-04-15T09:09:29.000Z</time>
      </trkpt>
      <trkpt lat="49.40171" lon="1.45382">
        <ele>170</ele>
        <time>2018-04-15T09:09:32.000Z</time>
      </trkpt>
      <trkpt lat="49.40164" lon="1.45415">
        <ele>169</ele>
        <time>2018-04-15T09:09:35.000Z</time>
      </trkpt>
      <trkpt lat="49.40158" lon="1.45452">
        <ele>168</ele>
        <time>2018-04-15T09:09:38.000Z</time>
      </trkpt>
      <trkpt lat="49.40152" lon="1.45488">
        <ele>167</ele>
        <time>2018-04-15T09:09:41.000Z</time>
      </trkpt>
      <trkpt lat="49.40146" lon="1.45525">
        <ele>166</ele>
        <time>2018-04-15T09:09:44.000Z</time>
      </trkpt>
      <trkpt lat="49.4014" lon="1.45557">
        <ele>166</ele>
        <time>2018-04-15T09:09:47.000Z</time>
      </trkpt>
      <trkpt lat="49.40134" lon="1.45594">
        <ele>164</ele>
        <time>2018-04-15T09:09:50.000Z</time>
      </trkpt>
      <trkpt lat="49.40128" lon="1.45625">
        <ele>163</ele>
        <time>2018-04-15T09:09:53.000Z</time>
      </trkpt>
      <trkpt lat="49.40118" lon="1.45658">
        <ele>162</ele>
        <time>2018-04-15T09:09:56.000Z</time>
      </trkpt>
      <trkpt lat="49.40107" lon="1.4569">
        <ele>160</ele>
        <time>2018-04-15T09:09:59.000Z</time>
      </trkpt>
      <trkpt lat="49.40093" lon="1.45724">
        <ele>159</ele>
        <time>2018-04-15T09:10:02.000Z</time>
      </trkpt>
      <trkpt lat="49.4008" lon="1.45754">
        <ele>157</ele>
        <time>2018-04-15T09:10:05.000Z</time>
      </trkpt>
      <trkpt lat="49.40059" lon="1.45771">
        <ele>157</ele>
        <time>2018-04-15T09:10:08.000Z</time>
      </trkpt>
      <trkpt lat="49.40039" lon="1.45777">
        <ele>157</ele>
        <time>2018-04-15T09:10:11.000Z</time>
      </trkpt>
      <trkpt lat="49.40024" lon="1.45782">
        <ele>157</ele>
        <time>2018-04-15T09:10:14.000Z</time>
      </trkpt>
      <trkpt lat="49.40015" lon="1.45785">
        <ele>157</ele>
        <time>2018-04-15T09:10:17.000Z</time>
      </trkpt>
      <trkpt lat="49.40007" lon="1.45784">
        <ele>157</ele>
        <time>2018-04-15T09:10:20.000Z</time>
      </trkpt>
      <trkpt lat="49.4" lon="1.45782">
        <ele>157</ele>
        <time>2018-04-15T09:10:23.000Z</time>
      </trkpt>
      <trkpt lat="49.39992" lon="1.4578">
        <ele>157</ele>
        <time>2018-04-15T09:10:26.000Z</time>
      </trkpt>
      <trkpt lat="49.39985" lon="1.45775">
        <ele>157</ele>
        <time>2018-04-15T09:10:29.000Z</time>
      </trkpt>
      <trkpt lat="49.3998" lon="1.45771">
        <ele>157</ele>
        <time>2018-04-15T09:10:32.000Z</time>
      </trkpt>
      <trkpt lat="49.39967" lon="1.45766">
        <ele>157</ele>
        <time>2018-04-15T09:10:35.000Z</time>
      </trkpt>
      <trkpt lat="49.39954" lon="1.45761">
        <ele>157</ele>
        <time>2018-04-15T09:10:38.000Z</time>
      </trkpt>
      <trkpt lat="49.39945" lon="1.45755">
        <ele>157</ele>
        <time>2018-04-15T09:10:41.000Z</time>
      </trkpt>
      <trkpt lat="49.39935" lon="1.45751">
        <ele>157</ele>
        <time>2018-04-15T09:10:44.000Z</time>
      </trkpt>
      <trkpt lat="49.39927" lon="1.45744">
        <ele>158</ele>
        <time>2018-04-15T09:10:47.000Z</time>
      </trkpt>
      <trkpt lat="49.3992" lon="1.45736">
        <ele>159</ele>
        <time>2018-04-15T09:10:50.000Z</time>
      </trkpt>
      <trkpt lat="49.39915" lon="1.45729">
        <ele>156</ele>
        <time>2018-04-15T09:10:53.000Z</time>
      </trkpt>
      <trkpt lat="49.39908" lon="1.4572">
        <ele>155</ele>
        <time>2018-04-15T09:10:56.000Z</time>
      </trkpt>
      <trkpt lat="49.39901" lon="1.45712">
        <ele>155</ele>
        <time>2018-04-15T09:10:59.000Z</time>
      </trkpt>
      <trkpt lat="49.39896" lon="1.45701">
        <ele>154</ele>
        <time>2018-04-15T09:11:02.000Z</time>
      </trkpt>
      <trkpt lat="49.3989" lon="1.4569">
        <ele>154</ele>
        <time>2018-04-15T09:11:05.000Z</time>
      </trkpt>
      <trkpt lat="49.39885" lon="1.45678">
        <ele>154</ele>
        <time>2018-04-15T09:11:08.000Z</time>
      </trkpt>
      <trkpt lat="49.39877" lon="1.45668">
        <ele>153</ele>
        <time>2018-04-15T09:11:11.000Z</time>
      </trkpt>
      <trkpt lat="49.39867" lon="1.45655">
        <ele>154</ele>
        <time>2018-04-15T09:11:14.000Z</time>
      </trkpt>
      <trkpt lat="49.39857" lon="1.45642">
        <ele>153</ele>
        <time>2018-04-15T09:11:17.000Z</time>
      </trkpt>
      <trkpt lat="49.39848" lon="1.45634">
        <ele>153</ele>
        <time>2018-04-15T09:11:20.000Z</time>
      </trkpt>
      <trkpt lat="49.39841" lon="1.45625">
        <ele>153</ele>
        <time>2018-04-15T09:11:23.000Z</time>
      </trkpt>
      <trkpt lat="49.39833" lon="1.45618">
        <ele>147</ele>
        <time>2018-04-15T09:11:26.000Z</time>
      </trkpt>
      <trkpt lat="49.39823" lon="1.45608">
        <ele>147</ele>
        <time>2018-04-15T09:11:29.000Z</time>
      </trkpt>
      <trkpt lat="49.39813" lon="1.45595">
        <ele>148</ele>
        <time>2018-04-15T09:11:32.000Z</time>
      </trkpt>
      <trkpt lat="49.39803" lon="1.45581">
        <ele>151</ele>
        <time>2018-04-15T09:11:35.000Z</time>
      </trkpt>
      <trkpt lat="49.39794" lon="1.45568">
        <ele>150</ele>
        <time>2018-04-15T09:11:38.000Z</time>
      </trkpt>
      <trkpt lat="49.39785" lon="1.45556">
        <ele>150</ele>
        <time>2018-04-15T09:11:41.000Z</time>
      </trkpt>
      <trkpt lat="49.39775" lon="1.45544">
        <ele>150</ele>
        <time>2018-04-15T09:11:44.000Z</time>
      </trkpt>
      <trkpt lat="49.39765" lon="1.45534">
        <ele>151</ele>
        <time>2018-04-15T09:11:47.000Z</time>
      </trkpt>
      <trkpt lat="49.39756" lon="1.45522">
        <ele>151</ele>
        <time>2018-04-15T09:11:50.000Z</time>
      </trkpt>
      <trkpt lat="49.39748" lon="1.45511">
        <ele>149</ele>
        <time>2018-04-15T09:11:53.000Z</time>
      </trkpt>
      <trkpt lat="49.39742" lon="1.45502">
        <ele>149</ele>
        <time>2018-04-15T09:11:56.000Z</time>
      </trkpt>
      <trkpt lat="49.39735" lon="1.45492">
        <ele>151</ele>
        <time>2018-04-15T09:11:59.000Z</time>
      </trkpt>
      <trkpt lat="49.3973" lon="1.4548">
        <ele>151</ele>
        <time>2018-04-15T09:12:02.000Z</time>
      </trkpt>
      <trkpt lat="49.39725" lon="1.4547">
        <ele>151</ele>
        <time>2018-04-15T09:12:05.000Z</time>
      </trkpt>
      <trkpt lat="49.3972" lon="1.45459">
        <ele>151</ele>
        <time>2018-04-15T09:12:08.000Z</time>
      </trkpt>
      <trkpt lat="49.39718" lon="1.45447">
        <ele>151</ele>
        <time>2018-04-15T09:12:11.000Z</time>
      </trkpt>
      <trkpt lat="49.39714" lon="1.45432">
        <ele>152</ele>
        <time>2018-04-15T09:12:14.000Z</time>
      </trkpt>
      <trkpt lat="49.3971" lon="1.45418">
        <ele>152</ele>
        <time>2018-04-15T09:12:17.000Z</time>
      </trkpt>
      <trkpt lat="49.39706" lon="1.45404">
        <ele>155</ele>
        <time>2018-04-15T09:12:20.000Z</time>
      </trkpt>
      <trkpt lat="49.39704" lon="1.45393">
        <ele>155</ele>
        <time>2018-04-15T09:12:23.000Z</time>
      </trkpt>
      <trkpt lat="49.39704" lon="1.45383">
        <ele>155</ele>
        <time>2018-04-15T09:12:26.000Z</time>
      </trkpt>
      <trkpt lat="49.39702" lon="1.45372">
        <ele>156</ele>
        <time>2018-04-15T09:12:29.000Z</time>
      </trkpt>
      <trkpt lat="49.397" lon="1.45361">
        <ele>156</ele>
        <time>2018-04-15T09:12:32.000Z</time>
      </trkpt>
      <trkpt lat="49.39698" lon="1.45349">
        <ele>156</ele>
        <time>2018-04-15T09:12:35.000Z</time>
      </trkpt>
      <trkpt lat="49.39697" lon="1.4534">
        <ele>156</ele>
        <time>2018-04-15T09:12:38.000Z</time>
      </trkpt>
      <trkpt lat="49.39694" lon="1.4533">
        <ele>158</ele>
        <time>2018-04-15T09:12:41.000Z</time>
      </trkpt>
      <trkpt lat="49.39692" lon="1.4532">
        <ele>158</ele>
        <time>2018-04-15T09:12:44.000Z</time>
      </trkpt>
      <trkpt lat="49.3969" lon="1.45309">
        <ele>158</ele>
        <time>2018-04-15T09:12:47.000Z</time>
      </trkpt>
      <trkpt lat="49.39687" lon="1.453">
        <ele>159</ele>
        <time>2018-04-15T09:12:50.000Z</time>
      </trkpt>
      <trkpt lat="49.39684" lon="1.4529">
        <ele>159</ele>
        <time>2018-04-15T09:12:53.000Z</time>
      </trkpt>
      <trkpt lat="49.39681" lon="1.45281">
        <ele>159</ele>
        <time>2018-04-15T09:12:56.000Z</time>
      </trkpt>
      <trkpt lat="49.39678" lon="1.45271">
        <ele>159</ele>
        <time>2018-04-15T09:12:59.000Z</time>
      </trkpt>
      <trkpt lat="49.39675" lon="1.4526">
        <ele>159</ele>
        <time>2018-04-15T09:13:02.000Z</time>
      </trkpt>
      <trkpt lat="49.39669" lon="1.45251">
        <ele>158</ele>
        <time>2018-04-15T09:13:05.000Z</time>
      </trkpt>
      <trkpt lat="49.39664" lon="1.45243">
        <ele>158</ele>
        <time>2018-04-15T09:13:08.000Z</time>
      </trkpt>
      <trkpt lat="49.39658" lon="1.45236">
        <ele>157</ele>
        <time>2018-04-15T09:13:11.000Z</time>
      </trkpt>
      <trkpt lat="49.39654" lon="1.45228">
        <ele>157</ele>
        <time>2018-04-15T09:13:14.000Z</time>
      </trkpt>
      <trkpt lat="49.3965" lon="1.45219">
        <ele>157</ele>
        <time>2018-04-15T09:13:17.000Z</time>
      </trkpt>
      <trkpt lat="49.39646" lon="1.45208">
        <ele>157</ele>
        <time>2018-04-15T09:13:20.000Z</time>
      </trkpt>
      <trkpt lat="49.39644" lon="1.45196">
        <ele>158</ele>
        <time>2018-04-15T09:13:23.000Z</time>
      </trkpt>
      <trkpt lat="49.3964" lon="1.45185">
        <ele>158</ele>
        <time>2018-04-15T09:13:26.000Z</time>
      </trkpt>
      <trkpt lat="49.39638" lon="1.45171">
        <ele>158</ele>
        <time>2018-04-15T09:13:29.000Z</time>
      </trkpt>
      <trkpt lat="49.39636" lon="1.45158">
        <ele>161</ele>
        <time>2018-04-15T09:13:32.000Z</time>
      </trkpt>
      <trkpt lat="49.39632" lon="1.45146">
        <ele>160</ele>
        <time>2018-04-15T09:13:35.000Z</time>
      </trkpt>
      <trkpt lat="49.39631" lon="1.45138">
        <ele>161</ele>
        <time>2018-04-15T09:13:37.000Z</time>
      </trkpt>
      <trkpt lat="49.39631" lon="1.45131">
        <ele>161</ele>
        <time>2018-04-15T09:13:39.000Z</time>
      </trkpt>
      <trkpt lat="49.3963" lon="1.45124">
        <ele>161</ele>
        <time>2018-04-15T09:13:41.000Z</time>
      </trkpt>
      <trkpt lat="49.3963" lon="1.45116">
        <ele>161</ele>
        <time>2018-04-15T09:13:43.000Z</time>
      </trkpt>
      <trkpt lat="49.39629" lon="1.45108">
        <ele>161</ele>
        <time>2018-04-15T09:13:45.000Z</time>
      </trkpt>
      <trkpt lat="49.39628" lon="1.451">
        <ele>161</ele>
        <time>2018-04-15T09:13:47.000Z</time>
      </trkpt>
      <trkpt lat="49.39628" lon="1.45093">
        <ele>161</ele>
        <time>2018-04-15T09:13:49.000Z</time>
      </trkpt>
      <trkpt lat="49.39626" lon="1.45085">
        <ele>161</ele>
        <time>2018-04-15T09:13:51.000Z</time>
      </trkpt>
      <trkpt lat="49.39625" lon="1.45078">
        <ele>163</ele>
        <time>2018-04-15T09:13:53.000Z</time>
      </trkpt>
      <trkpt lat="49.39624" lon="1.45072">
        <ele>163</ele>
        <time>2018-04-15T09:13:55.000Z</time>
      </trkpt>
      <trkpt lat="49.39624" lon="1.45063">
        <ele>163</ele>
        <time>2018-04-15T09:13:57.000Z</time>
      </trkpt>
      <trkpt lat="49.39623" lon="1.45053">
        <ele>163</ele>
        <time>2018-04-15T09:13:59.000Z</time>
      </trkpt>
      <trkpt lat="49.39625" lon="1.45043">
        <ele>163</ele>
        <time>2018-04-15T09:14:01.000Z</time>
      </trkpt>
      <trkpt lat="49.39625" lon="1.45032">
        <ele>163</ele>
        <time>2018-04-15T09:14:03.000Z</time>
      </trkpt>
      <trkpt lat="49.39622" lon="1.45021">
        <ele>163</ele>
        <time>2018-04-15T09:14:05.000Z</time>
      </trkpt>
      <trkpt lat="49.39618" lon="1.45009">
        <ele>163</ele>
        <time>2018-04-15T09:14:07.000Z</time>
      </trkpt>
      <trkpt lat="49.39615" lon="1.44998">
        <ele>164</ele>
        <time>2018-04-15T09:14:09.000Z</time>
      </trkpt>
      <trkpt lat="49.39613" lon="1.44989">
        <ele>164</ele>
        <time>2018-04-15T09:14:11.000Z</time>
      </trkpt>
      <trkpt lat="49.3961" lon="1.44979">
        <ele>164</ele>
        <time>2018-04-15T09:14:13.000Z</time>
      </trkpt>
      <trkpt lat="49.39606" lon="1.44965">
        <ele>164</ele>
        <time>2018-04-15T09:14:16.000Z</time>
      </trkpt>
      <trkpt lat="49.39603" lon="1.44953">
        <ele>164</ele>
        <time>2018-04-15T09:14:19.000Z</time>
      </trkpt>
      <trkpt lat="49.39599" lon="1.44936">
        <ele>164</ele>
        <time>2018-04-15T09:14:22.000Z</time>
      </trkpt>
      <trkpt lat="49.39592" lon="1.44917">
        <ele>164</ele>
        <time>2018-04-15T09:14:25.000Z</time>
      </trkpt>
      <trkpt lat="49.39584" lon="1.44902">
        <ele>165</ele>
        <time>2018-04-15T09:14:28.000Z</time>
      </trkpt>
      <trkpt lat="49.39579" lon="1.44886">
        <ele>163</ele>
        <time>2018-04-15T09:14:31.000Z</time>
      </trkpt>
      <trkpt lat="49.39575" lon="1.44863">
        <ele>163</ele>
        <time>2018-04-15T09:14:34.000Z</time>
      </trkpt>
      <trkpt lat="49.3957" lon="1.44843">
        <ele>163</ele>
        <time>2018-04-15T09:14:37.000Z</time>
      </trkpt>
      <trkpt lat="49.39565" lon="1.44826">
        <ele>164</ele>
        <time>2018-04-15T09:14:40.000Z</time>
      </trkpt>
      <trkpt lat="49.39561" lon="1.44813">
        <ele>164</ele>
        <time>2018-04-15T09:14:43.000Z</time>
      </trkpt>
      <trkpt lat="49.39562" lon="1.44798">
        <ele>164</ele>
        <time>2018-04-15T09:14:46.000Z</time>
      </trkpt>
      <trkpt lat="49.39565" lon="1.44783">
        <ele>164</ele>
        <time>2018-04-15T09:14:49.000Z</time>
      </trkpt>
      <trkpt lat="49.3957" lon="1.44762">
        <ele>164</ele>
        <time>2018-04-15T09:14:52.000Z</time>
      </trkpt>
      <trkpt lat="49.39571" lon="1.44742">
        <ele>164</ele>
        <time>2018-04-15T09:14:55.000Z</time>
      </trkpt>
      <trkpt lat="49.3957" lon="1.44728">
        <ele>164</ele>
        <time>2018-04-15T09:14:58.000Z</time>
      </trkpt>
      <trkpt lat="49.39568" lon="1.44713">
        <ele>163</ele>
        <time>2018-04-15T09:15:01.000Z</time>
      </trkpt>
      <trkpt lat="49.39566" lon="1.447">
        <ele>163</ele>
        <time>2018-04-15T09:15:04.000Z</time>
      </trkpt>
      <trkpt lat="49.39569" lon="1.44687">
        <ele>163</ele>
        <time>2018-04-15T09:15:07.000Z</time>
      </trkpt>
      <trkpt lat="49.39572" lon="1.44674">
        <ele>163</ele>
        <time>2018-04-15T09:15:10.000Z</time>
      </trkpt>
      <trkpt lat="49.39574" lon="1.44657">
        <ele>163</ele>
        <time>2018-04-15T09:15:13.000Z</time>
      </trkpt>
      <trkpt lat="49.39578" lon="1.44639">
        <ele>162</ele>
        <time>2018-04-15T09:15:16.000Z</time>
      </trkpt>
      <trkpt lat="49.39583" lon="1.44622">
        <ele>162</ele>
        <time>2018-04-15T09:15:19.000Z</time>
      </trkpt>
      <trkpt lat="49.39589" lon="1.44605">
        <ele>163</ele>
        <time>2018-04-15T09:15:22.000Z</time>
      </trkpt>
      <trkpt lat="49.39594" lon="1.4459">
        <ele>163</ele>
        <time>2018-04-15T09:15:25.000Z</time>
      </trkpt>
      <trkpt lat="49.39597" lon="1.44577">
        <ele>162</ele>
        <time>2018-04-15T09:15:28.000Z</time>
      </trkpt>
      <trkpt lat="49.39598" lon="1.44568">
        <ele>162</ele>
        <time>2018-04-15T09:15:31.000Z</time>
      </trkpt>
      <trkpt lat="49.39599" lon="1.44562">
        <ele>162</ele>
        <time>2018-04-15T09:15:34.000Z</time>
      </trkpt>
      <trkpt lat="49.39599" lon="1.44554">
        <ele>162</ele>
        <time>2018-04-15T09:15:37.000Z</time>
      </trkpt>
      <trkpt lat="49.39597" lon="1.44548">
        <ele>162</ele>
        <time>2018-04-15T09:15:40.000Z</time>
      </trkpt>
      <trkpt lat="49.39597" lon="1.44545">
        <ele>162</ele>
        <time>2018-04-15T09:15:59.000Z</time>
      </trkpt>
      <trkpt lat="49.39597" lon="1.44541">
        <ele>162</ele>
        <time>2018-04-15T09:16:02.000Z</time>
      </trkpt>
      <trkpt lat="49.39597" lon="1.44535">
        <ele>162</ele>
        <time>2018-04-15T09:16:05.000Z</time>
      </trkpt>
      <trkpt lat="49.39599" lon="1.44527">
        <ele>161</ele>
        <time>2018-04-15T09:16:08.000Z</time>
      </trkpt>
      <trkpt lat="49.39598" lon="1.44515">
        <ele>161</ele>
        <time>2018-04-15T09:16:11.000Z</time>
      </trkpt>
      <trkpt lat="49.39596" lon="1.44501">
        <ele>161</ele>
        <time>2018-04-15T09:16:14.000Z</time>
      </trkpt>
      <trkpt lat="49.39594" lon="1.44489">
        <ele>160</ele>
        <time>2018-04-15T09:16:17.000Z</time>
      </trkpt>
      <trkpt lat="49.39591" lon="1.44473">
        <ele>160</ele>
        <time>2018-04-15T09:16:20.000Z</time>
      </trkpt>
      <trkpt lat="49.39587" lon="1.44458">
        <ele>160</ele>
        <time>2018-04-15T09:16:23.000Z</time>
      </trkpt>
      <trkpt lat="49.39584" lon="1.44447">
        <ele>160</ele>
        <time>2018-04-15T09:16:26.000Z</time>
      </trkpt>
      <trkpt lat="49.39579" lon="1.44438">
        <ele>159</ele>
        <time>2018-04-15T09:16:29.000Z</time>
      </trkpt>
      <trkpt lat="49.39575" lon="1.44429">
        <ele>158</ele>
        <time>2018-04-15T09:16:32.000Z</time>
      </trkpt>
      <trkpt lat="49.39571" lon="1.44418">
        <ele>158</ele>
        <time>2018-04-15T09:16:35.000Z</time>
      </trkpt>
      <trkpt lat="49.39565" lon="1.44406">
        <ele>158</ele>
        <time>2018-04-15T09:16:38.000Z</time>
      </trkpt>
      <trkpt lat="49.39559" lon="1.44392">
        <ele>158</ele>
        <time>2018-04-15T09:16:41.000Z</time>
      </trkpt>
      <trkpt lat="49.39554" lon="1.44374">
        <ele>157</ele>
        <time>2018-04-15T09:16:44.000Z</time>
      </trkpt>
      <trkpt lat="49.39553" lon="1.44361">
        <ele>157</ele>
        <time>2018-04-15T09:16:47.000Z</time>
      </trkpt>
      <trkpt lat="49.39552" lon="1.44353">
        <ele>157</ele>
        <time>2018-04-15T09:16:50.000Z</time>
      </trkpt>
      <trkpt lat="49.39547" lon="1.44343">
        <ele>157</ele>
        <time>2018-04-15T09:16:53.000Z</time>
      </trkpt>
      <trkpt lat="49.39547" lon="1.44328">
        <ele>157</ele>
        <time>2018-04-15T09:16:56.000Z</time>
      </trkpt>
      <trkpt lat="49.39557" lon="1.44319">
        <ele>157</ele>
        <time>2018-04-15T09:16:59.000Z</time>
      </trkpt>
      <trkpt lat="49.39565" lon="1.44311">
        <ele>157</ele>
        <time>2018-04-15T09:17:02.000Z</time>
      </trkpt>
      <trkpt lat="49.39573" lon="1.44304">
        <ele>157</ele>
        <time>2018-04-15T09:17:05.000Z</time>
      </trkpt>
      <trkpt lat="49.39581" lon="1.44293">
        <ele>157</ele>
        <time>2018-04-15T09:17:08.000Z</time>
      </trkpt>
      <trkpt lat="49.39589" lon="1.44284">
        <ele>158</ele>
        <time>2018-04-15T09:17:11.000Z</time>
      </trkpt>
      <trkpt lat="49.39595" lon="1.44275">
        <ele>159</ele>
        <time>2018-04-15T09:17:14.000Z</time>
      </trkpt>
      <trkpt lat="49.39598" lon="1.44271">
        <ele>159</ele>
        <time>2018-04-15T09:17:17.000Z</time>
      </trkpt>
      <trkpt lat="49.39597" lon="1.44272">
        <ele>159</ele>
        <time>2018-04-15T09:17:20.000Z</time>
      </trkpt>
      <trkpt lat="49.39592" lon="1.44274">
        <ele>159</ele>
        <time>2018-04-15T09:17:30.000Z</time>
      </trkpt>
      <trkpt lat="49.39592" lon="1.44274">
        <ele>159</ele>
        <time>2018-04-15T09:17:38.000Z</time>
      </trkpt>
    </trkseg>
  </trk>
</gpx>